<?xml version="1.0" encoding="UTF-8" standalone="no" ?>
<gpx xmlns="http://www.topografix.com/GPX/1/1" xmlns:xsi="http://www.w3.org/2001/XMLSchema-instance" xsi:schemaLocation="http://www.topografix.com/GPX/1/1 http://www.topografix.com/GPX/1/1/gpx.xsd" version="1.1" creator="VisuGPX - https://www.visugpx.com">
  <metadata>
    <name>2022-08-15 07:18:00 Jour</name>
  </metadata>
  <trk>
    <name><![CDATA[2022-08-15 07:18:00 Jour]]></name>
    <trkseg>
      <trkpt lat="43.34998" lon="5.45437">
        <ele>189.09</ele>
        <time>2022-08-15T05:18:00Z</time>
      </trkpt>
      <trkpt lat="43.34988" lon="5.45461">
        <ele>189.09</ele>
        <time>2022-08-15T05:18:02Z</time>
      </trkpt>
      <trkpt lat="43.34993" lon="5.45447">
        <ele>188.89</ele>
        <time>2022-08-15T05:18:32Z</time>
      </trkpt>
      <trkpt lat="43.34991" lon="5.45445">
        <ele>187.6</ele>
        <time>2022-08-15T05:19:00Z</time>
      </trkpt>
      <trkpt lat="43.3499" lon="5.45442">
        <ele>187.31</ele>
        <time>2022-08-15T05:19:31Z</time>
      </trkpt>
      <trkpt lat="43.34988" lon="5.45462">
        <ele>187.3</ele>
        <time>2022-08-15T05:19:36Z</time>
      </trkpt>
      <trkpt lat="43.34962" lon="5.45521">
        <ele>187.16</ele>
        <time>2022-08-15T05:19:47Z</time>
      </trkpt>
      <trkpt lat="43.34959" lon="5.45521">
        <ele>187.14</ele>
        <time>2022-08-15T05:19:48Z</time>
      </trkpt>
      <trkpt lat="43.34956" lon="5.45519">
        <ele>187.14</ele>
        <time>2022-08-15T05:19:49Z</time>
      </trkpt>
      <trkpt lat="43.34952" lon="5.45515">
        <ele>187.12</ele>
        <time>2022-08-15T05:19:50Z</time>
      </trkpt>
      <trkpt lat="43.34947" lon="5.4551">
        <ele>187.11</ele>
        <time>2022-08-15T05:19:51Z</time>
      </trkpt>
      <trkpt lat="43.34885" lon="5.45434">
        <ele>185.94</ele>
        <time>2022-08-15T05:20:03Z</time>
      </trkpt>
      <trkpt lat="43.34833" lon="5.45392">
        <ele>183.74</ele>
        <time>2022-08-15T05:20:11Z</time>
      </trkpt>
      <trkpt lat="43.34805" lon="5.45372">
        <ele>182.3</ele>
        <time>2022-08-15T05:20:15Z</time>
      </trkpt>
      <trkpt lat="43.34763" lon="5.45325">
        <ele>180.34</ele>
        <time>2022-08-15T05:20:22Z</time>
      </trkpt>
      <trkpt lat="43.34744" lon="5.45308">
        <ele>179.36</ele>
        <time>2022-08-15T05:20:25Z</time>
      </trkpt>
      <trkpt lat="43.34737" lon="5.45302">
        <ele>179.31</ele>
        <time>2022-08-15T05:20:26Z</time>
      </trkpt>
      <trkpt lat="43.34725" lon="5.4529">
        <ele>178.06</ele>
        <time>2022-08-15T05:20:28Z</time>
      </trkpt>
      <trkpt lat="43.34716" lon="5.45281">
        <ele>176.87</ele>
        <time>2022-08-15T05:20:30Z</time>
      </trkpt>
      <trkpt lat="43.34709" lon="5.45277">
        <ele>175.4</ele>
        <time>2022-08-15T05:20:32Z</time>
      </trkpt>
      <trkpt lat="43.34662" lon="5.4526">
        <ele>173.88</ele>
        <time>2022-08-15T05:20:40Z</time>
      </trkpt>
      <trkpt lat="43.34657" lon="5.45258">
        <ele>172.84</ele>
        <time>2022-08-15T05:20:41Z</time>
      </trkpt>
      <trkpt lat="43.34654" lon="5.45254">
        <ele>172.79</ele>
        <time>2022-08-15T05:20:42Z</time>
      </trkpt>
      <trkpt lat="43.34652" lon="5.45249">
        <ele>172.78</ele>
        <time>2022-08-15T05:20:43Z</time>
      </trkpt>
      <trkpt lat="43.34653" lon="5.45241">
        <ele>171.98</ele>
        <time>2022-08-15T05:20:44Z</time>
      </trkpt>
      <trkpt lat="43.34656" lon="5.45231">
        <ele>170.89</ele>
        <time>2022-08-15T05:20:45Z</time>
      </trkpt>
      <trkpt lat="43.34659" lon="5.4522">
        <ele>169.09</ele>
        <time>2022-08-15T05:20:46Z</time>
      </trkpt>
      <trkpt lat="43.3466" lon="5.45209">
        <ele>169.07</ele>
        <time>2022-08-15T05:20:47Z</time>
      </trkpt>
      <trkpt lat="43.34661" lon="5.45198">
        <ele>167.01</ele>
        <time>2022-08-15T05:20:48Z</time>
      </trkpt>
      <trkpt lat="43.34663" lon="5.4518">
        <ele>165.52</ele>
        <time>2022-08-15T05:20:50Z</time>
      </trkpt>
      <trkpt lat="43.34665" lon="5.45175">
        <ele>163.92</ele>
        <time>2022-08-15T05:20:51Z</time>
      </trkpt>
      <trkpt lat="43.34667" lon="5.4517">
        <ele>163.77</ele>
        <time>2022-08-15T05:20:52Z</time>
      </trkpt>
      <trkpt lat="43.3467" lon="5.45168">
        <ele>162.59</ele>
        <time>2022-08-15T05:20:53Z</time>
      </trkpt>
      <trkpt lat="43.34672" lon="5.45167">
        <ele>162.51</ele>
        <time>2022-08-15T05:20:54Z</time>
      </trkpt>
      <trkpt lat="43.34674" lon="5.45165">
        <ele>162.5</ele>
        <time>2022-08-15T05:20:55Z</time>
      </trkpt>
      <trkpt lat="43.34677" lon="5.45162">
        <ele>163.01</ele>
        <time>2022-08-15T05:20:56Z</time>
      </trkpt>
      <trkpt lat="43.3468" lon="5.45155">
        <ele>161.93</ele>
        <time>2022-08-15T05:20:57Z</time>
      </trkpt>
      <trkpt lat="43.34684" lon="5.45143">
        <ele>161.92</ele>
        <time>2022-08-15T05:20:58Z</time>
      </trkpt>
      <trkpt lat="43.34709" lon="5.45051">
        <ele>158.06</ele>
        <time>2022-08-15T05:21:05Z</time>
      </trkpt>
      <trkpt lat="43.34712" lon="5.45038">
        <ele>158.06</ele>
        <time>2022-08-15T05:21:06Z</time>
      </trkpt>
      <trkpt lat="43.34723" lon="5.44981">
        <ele>156.31</ele>
        <time>2022-08-15T05:21:11Z</time>
      </trkpt>
      <trkpt lat="43.34726" lon="5.44972">
        <ele>156.32</ele>
        <time>2022-08-15T05:21:12Z</time>
      </trkpt>
      <trkpt lat="43.3473" lon="5.44962">
        <ele>156.26</ele>
        <time>2022-08-15T05:21:13Z</time>
      </trkpt>
      <trkpt lat="43.3473" lon="5.44952">
        <ele>156.25</ele>
        <time>2022-08-15T05:21:14Z</time>
      </trkpt>
      <trkpt lat="43.34728" lon="5.44942">
        <ele>155.06</ele>
        <time>2022-08-15T05:21:15Z</time>
      </trkpt>
      <trkpt lat="43.34722" lon="5.44935">
        <ele>155.07</ele>
        <time>2022-08-15T05:21:16Z</time>
      </trkpt>
      <trkpt lat="43.34713" lon="5.4493">
        <ele>155</ele>
        <time>2022-08-15T05:21:17Z</time>
      </trkpt>
      <trkpt lat="43.34704" lon="5.44925">
        <ele>155.02</ele>
        <time>2022-08-15T05:21:18Z</time>
      </trkpt>
      <trkpt lat="43.346" lon="5.44844">
        <ele>152.04</ele>
        <time>2022-08-15T05:21:27Z</time>
      </trkpt>
      <trkpt lat="43.34526" lon="5.44775">
        <ele>149.46</ele>
        <time>2022-08-15T05:21:33Z</time>
      </trkpt>
      <trkpt lat="43.34396" lon="5.44639">
        <ele>145.16</ele>
        <time>2022-08-15T05:21:43Z</time>
      </trkpt>
      <trkpt lat="43.34383" lon="5.44626">
        <ele>145.1</ele>
        <time>2022-08-15T05:21:44Z</time>
      </trkpt>
      <trkpt lat="43.34335" lon="5.44584">
        <ele>142.85</ele>
        <time>2022-08-15T05:21:48Z</time>
      </trkpt>
      <trkpt lat="43.34325" lon="5.44576">
        <ele>142.84</ele>
        <time>2022-08-15T05:21:49Z</time>
      </trkpt>
      <trkpt lat="43.34307" lon="5.44562">
        <ele>141.94</ele>
        <time>2022-08-15T05:21:51Z</time>
      </trkpt>
      <trkpt lat="43.34298" lon="5.44552">
        <ele>141.94</ele>
        <time>2022-08-15T05:21:52Z</time>
      </trkpt>
      <trkpt lat="43.34216" lon="5.44434">
        <ele>141.94</ele>
        <time>2022-08-15T05:22:00Z</time>
      </trkpt>
      <trkpt lat="43.34124" lon="5.44311">
        <ele>138.36</ele>
        <time>2022-08-15T05:22:08Z</time>
      </trkpt>
      <trkpt lat="43.34105" lon="5.44285">
        <ele>135.46</ele>
        <time>2022-08-15T05:22:10Z</time>
      </trkpt>
      <trkpt lat="43.34098" lon="5.44273">
        <ele>132.46</ele>
        <time>2022-08-15T05:22:11Z</time>
      </trkpt>
      <trkpt lat="43.34091" lon="5.44261">
        <ele>131.19</ele>
        <time>2022-08-15T05:22:12Z</time>
      </trkpt>
      <trkpt lat="43.34086" lon="5.44249">
        <ele>130</ele>
        <time>2022-08-15T05:22:13Z</time>
      </trkpt>
      <trkpt lat="43.34082" lon="5.44237">
        <ele>129.22</ele>
        <time>2022-08-15T05:22:14Z</time>
      </trkpt>
      <trkpt lat="43.34077" lon="5.44228">
        <ele>129.13</ele>
        <time>2022-08-15T05:22:15Z</time>
      </trkpt>
      <trkpt lat="43.34069" lon="5.44223">
        <ele>129.12</ele>
        <time>2022-08-15T05:22:16Z</time>
      </trkpt>
      <trkpt lat="43.34059" lon="5.44218">
        <ele>128.12</ele>
        <time>2022-08-15T05:22:17Z</time>
      </trkpt>
      <trkpt lat="43.34049" lon="5.44212">
        <ele>128.11</ele>
        <time>2022-08-15T05:22:18Z</time>
      </trkpt>
      <trkpt lat="43.34039" lon="5.44204">
        <ele>128.02</ele>
        <time>2022-08-15T05:22:19Z</time>
      </trkpt>
      <trkpt lat="43.33972" lon="5.44143">
        <ele>127.92</ele>
        <time>2022-08-15T05:22:25Z</time>
      </trkpt>
      <trkpt lat="43.33962" lon="5.4413">
        <ele>127.99</ele>
        <time>2022-08-15T05:22:26Z</time>
      </trkpt>
      <trkpt lat="43.33955" lon="5.44114">
        <ele>128.04</ele>
        <time>2022-08-15T05:22:27Z</time>
      </trkpt>
      <trkpt lat="43.33949" lon="5.44098">
        <ele>128.07</ele>
        <time>2022-08-15T05:22:28Z</time>
      </trkpt>
      <trkpt lat="43.33944" lon="5.44082">
        <ele>128.06</ele>
        <time>2022-08-15T05:22:29Z</time>
      </trkpt>
      <trkpt lat="43.33922" lon="5.44019">
        <ele>126.97</ele>
        <time>2022-08-15T05:22:33Z</time>
      </trkpt>
      <trkpt lat="43.33919" lon="5.44002">
        <ele>126.02</ele>
        <time>2022-08-15T05:22:34Z</time>
      </trkpt>
      <trkpt lat="43.33918" lon="5.43984">
        <ele>126.1</ele>
        <time>2022-08-15T05:22:35Z</time>
      </trkpt>
      <trkpt lat="43.3392" lon="5.43909">
        <ele>124.16</ele>
        <time>2022-08-15T05:22:39Z</time>
      </trkpt>
      <trkpt lat="43.33918" lon="5.43875">
        <ele>122.71</ele>
        <time>2022-08-15T05:22:41Z</time>
      </trkpt>
      <trkpt lat="43.33915" lon="5.4386">
        <ele>122.7</ele>
        <time>2022-08-15T05:22:42Z</time>
      </trkpt>
      <trkpt lat="43.33907" lon="5.4382">
        <ele>120.61</ele>
        <time>2022-08-15T05:22:45Z</time>
      </trkpt>
      <trkpt lat="43.33908" lon="5.43808">
        <ele>120.55</ele>
        <time>2022-08-15T05:22:46Z</time>
      </trkpt>
      <trkpt lat="43.3391" lon="5.43797">
        <ele>120.54</ele>
        <time>2022-08-15T05:22:47Z</time>
      </trkpt>
      <trkpt lat="43.33913" lon="5.43787">
        <ele>120.52</ele>
        <time>2022-08-15T05:22:48Z</time>
      </trkpt>
      <trkpt lat="43.33913" lon="5.43779">
        <ele>119.26</ele>
        <time>2022-08-15T05:22:49Z</time>
      </trkpt>
      <trkpt lat="43.33909" lon="5.43773">
        <ele>119.21</ele>
        <time>2022-08-15T05:22:50Z</time>
      </trkpt>
      <trkpt lat="43.33903" lon="5.4377">
        <ele>119.2</ele>
        <time>2022-08-15T05:22:51Z</time>
      </trkpt>
      <trkpt lat="43.33895" lon="5.43769">
        <ele>119.22</ele>
        <time>2022-08-15T05:22:52Z</time>
      </trkpt>
      <trkpt lat="43.33873" lon="5.43754">
        <ele>119.09</ele>
        <time>2022-08-15T05:22:55Z</time>
      </trkpt>
      <trkpt lat="43.33867" lon="5.43742">
        <ele>119.14</ele>
        <time>2022-08-15T05:22:56Z</time>
      </trkpt>
      <trkpt lat="43.33861" lon="5.43729">
        <ele>119.2</ele>
        <time>2022-08-15T05:22:57Z</time>
      </trkpt>
      <trkpt lat="43.33855" lon="5.43714">
        <ele>119.22</ele>
        <time>2022-08-15T05:22:58Z</time>
      </trkpt>
      <trkpt lat="43.33849" lon="5.43699">
        <ele>119.2</ele>
        <time>2022-08-15T05:22:59Z</time>
      </trkpt>
      <trkpt lat="43.33841" lon="5.43685">
        <ele>119.37</ele>
        <time>2022-08-15T05:23:00Z</time>
      </trkpt>
      <trkpt lat="43.33832" lon="5.43671">
        <ele>119.36</ele>
        <time>2022-08-15T05:23:01Z</time>
      </trkpt>
      <trkpt lat="43.33752" lon="5.43569">
        <ele>117.27</ele>
        <time>2022-08-15T05:23:09Z</time>
      </trkpt>
      <trkpt lat="43.33702" lon="5.43518">
        <ele>116.34</ele>
        <time>2022-08-15T05:23:14Z</time>
      </trkpt>
      <trkpt lat="43.33599" lon="5.43412">
        <ele>115.47</ele>
        <time>2022-08-15T05:23:23Z</time>
      </trkpt>
      <trkpt lat="43.33555" lon="5.43367">
        <ele>113.48</ele>
        <time>2022-08-15T05:23:28Z</time>
      </trkpt>
      <trkpt lat="43.33549" lon="5.43358">
        <ele>113.48</ele>
        <time>2022-08-15T05:23:29Z</time>
      </trkpt>
      <trkpt lat="43.33543" lon="5.43348">
        <ele>113.47</ele>
        <time>2022-08-15T05:23:30Z</time>
      </trkpt>
      <trkpt lat="43.33534" lon="5.4333">
        <ele>112.24</ele>
        <time>2022-08-15T05:23:32Z</time>
      </trkpt>
      <trkpt lat="43.33524" lon="5.43302">
        <ele>112.19</ele>
        <time>2022-08-15T05:23:35Z</time>
      </trkpt>
      <trkpt lat="43.33519" lon="5.43294">
        <ele>112.18</ele>
        <time>2022-08-15T05:23:36Z</time>
      </trkpt>
      <trkpt lat="43.33512" lon="5.4329">
        <ele>112.16</ele>
        <time>2022-08-15T05:23:37Z</time>
      </trkpt>
      <trkpt lat="43.33494" lon="5.43281">
        <ele>112.2</ele>
        <time>2022-08-15T05:23:39Z</time>
      </trkpt>
      <trkpt lat="43.33486" lon="5.43272">
        <ele>112.18</ele>
        <time>2022-08-15T05:23:40Z</time>
      </trkpt>
      <trkpt lat="43.33387" lon="5.4314">
        <ele>109.33</ele>
        <time>2022-08-15T05:23:51Z</time>
      </trkpt>
      <trkpt lat="43.33302" lon="5.43025">
        <ele>107.16</ele>
        <time>2022-08-15T05:24:00Z</time>
      </trkpt>
      <trkpt lat="43.33253" lon="5.42956">
        <ele>104.95</ele>
        <time>2022-08-15T05:24:06Z</time>
      </trkpt>
      <trkpt lat="43.33249" lon="5.42948">
        <ele>104.93</ele>
        <time>2022-08-15T05:24:07Z</time>
      </trkpt>
      <trkpt lat="43.33249" lon="5.42939">
        <ele>104.07</ele>
        <time>2022-08-15T05:24:08Z</time>
      </trkpt>
      <trkpt lat="43.33249" lon="5.42912">
        <ele>104</ele>
        <time>2022-08-15T05:24:11Z</time>
      </trkpt>
      <trkpt lat="43.33244" lon="5.42906">
        <ele>103.99</ele>
        <time>2022-08-15T05:24:12Z</time>
      </trkpt>
      <trkpt lat="43.33237" lon="5.42902">
        <ele>104.01</ele>
        <time>2022-08-15T05:24:13Z</time>
      </trkpt>
      <trkpt lat="43.33228" lon="5.42899">
        <ele>103.97</ele>
        <time>2022-08-15T05:24:14Z</time>
      </trkpt>
      <trkpt lat="43.33217" lon="5.42896">
        <ele>103.98</ele>
        <time>2022-08-15T05:24:15Z</time>
      </trkpt>
      <trkpt lat="43.33207" lon="5.42889">
        <ele>104.01</ele>
        <time>2022-08-15T05:24:16Z</time>
      </trkpt>
      <trkpt lat="43.33197" lon="5.4288">
        <ele>104.02</ele>
        <time>2022-08-15T05:24:17Z</time>
      </trkpt>
      <trkpt lat="43.33189" lon="5.42871">
        <ele>104.01</ele>
        <time>2022-08-15T05:24:18Z</time>
      </trkpt>
      <trkpt lat="43.33136" lon="5.42822">
        <ele>103.27</ele>
        <time>2022-08-15T05:24:26Z</time>
      </trkpt>
      <trkpt lat="43.33065" lon="5.42758">
        <ele>103.09</ele>
        <time>2022-08-15T05:24:34Z</time>
      </trkpt>
      <trkpt lat="43.33051" lon="5.42743">
        <ele>101.72</ele>
        <time>2022-08-15T05:24:36Z</time>
      </trkpt>
      <trkpt lat="43.33043" lon="5.42738">
        <ele>101.72</ele>
        <time>2022-08-15T05:24:37Z</time>
      </trkpt>
      <trkpt lat="43.33033" lon="5.42736">
        <ele>100.49</ele>
        <time>2022-08-15T05:24:38Z</time>
      </trkpt>
      <trkpt lat="43.33023" lon="5.42733">
        <ele>100.48</ele>
        <time>2022-08-15T05:24:39Z</time>
      </trkpt>
      <trkpt lat="43.33012" lon="5.42731">
        <ele>99.43</ele>
        <time>2022-08-15T05:24:40Z</time>
      </trkpt>
      <trkpt lat="43.32942" lon="5.42729">
        <ele>97.56</ele>
        <time>2022-08-15T05:24:48Z</time>
      </trkpt>
      <trkpt lat="43.32906" lon="5.42723">
        <ele>95.51</ele>
        <time>2022-08-15T05:24:55Z</time>
      </trkpt>
      <trkpt lat="43.32899" lon="5.42718">
        <ele>94.62</ele>
        <time>2022-08-15T05:24:57Z</time>
      </trkpt>
      <trkpt lat="43.32896" lon="5.4271">
        <ele>94.66</ele>
        <time>2022-08-15T05:24:58Z</time>
      </trkpt>
      <trkpt lat="43.32854" lon="5.42608">
        <ele>94.61</ele>
        <time>2022-08-15T05:25:06Z</time>
      </trkpt>
      <trkpt lat="43.32776" lon="5.42448">
        <ele>93.75</ele>
        <time>2022-08-15T05:25:17Z</time>
      </trkpt>
      <trkpt lat="43.32736" lon="5.42388">
        <ele>92.08</ele>
        <time>2022-08-15T05:25:23Z</time>
      </trkpt>
      <trkpt lat="43.3273" lon="5.42379">
        <ele>92.04</ele>
        <time>2022-08-15T05:25:24Z</time>
      </trkpt>
      <trkpt lat="43.32726" lon="5.42371">
        <ele>92.03</ele>
        <time>2022-08-15T05:25:25Z</time>
      </trkpt>
      <trkpt lat="43.32721" lon="5.42365">
        <ele>91.18</ele>
        <time>2022-08-15T05:25:26Z</time>
      </trkpt>
      <trkpt lat="43.32718" lon="5.4236">
        <ele>91.16</ele>
        <time>2022-08-15T05:25:27Z</time>
      </trkpt>
      <trkpt lat="43.3271" lon="5.42349">
        <ele>91.14</ele>
        <time>2022-08-15T05:25:29Z</time>
      </trkpt>
      <trkpt lat="43.32684" lon="5.42297">
        <ele>90.34</ele>
        <time>2022-08-15T05:25:37Z</time>
      </trkpt>
      <trkpt lat="43.32672" lon="5.42268">
        <ele>90.31</ele>
        <time>2022-08-15T05:25:40Z</time>
      </trkpt>
      <trkpt lat="43.32655" lon="5.42199">
        <ele>90.24</ele>
        <time>2022-08-15T05:25:46Z</time>
      </trkpt>
      <trkpt lat="43.32648" lon="5.42141">
        <ele>89.06</ele>
        <time>2022-08-15T05:25:53Z</time>
      </trkpt>
      <trkpt lat="43.32648" lon="5.42129">
        <ele>89.09</ele>
        <time>2022-08-15T05:25:54Z</time>
      </trkpt>
      <trkpt lat="43.3265" lon="5.42115">
        <ele>89.08</ele>
        <time>2022-08-15T05:25:55Z</time>
      </trkpt>
      <trkpt lat="43.32654" lon="5.42102">
        <ele>89.07</ele>
        <time>2022-08-15T05:25:56Z</time>
      </trkpt>
      <trkpt lat="43.32659" lon="5.42087">
        <ele>89.06</ele>
        <time>2022-08-15T05:25:57Z</time>
      </trkpt>
      <trkpt lat="43.32666" lon="5.42073">
        <ele>89.09</ele>
        <time>2022-08-15T05:25:58Z</time>
      </trkpt>
      <trkpt lat="43.32689" lon="5.42025">
        <ele>92.88</ele>
        <time>2022-08-15T05:26:01Z</time>
      </trkpt>
      <trkpt lat="43.32696" lon="5.42008">
        <ele>92.87</ele>
        <time>2022-08-15T05:26:02Z</time>
      </trkpt>
      <trkpt lat="43.32773" lon="5.41841">
        <ele>95.75</ele>
        <time>2022-08-15T05:26:11Z</time>
      </trkpt>
      <trkpt lat="43.32837" lon="5.41714">
        <ele>97.15</ele>
        <time>2022-08-15T05:26:18Z</time>
      </trkpt>
      <trkpt lat="43.32865" lon="5.4166">
        <ele>100.69</ele>
        <time>2022-08-15T05:26:21Z</time>
      </trkpt>
      <trkpt lat="43.32901" lon="5.41588">
        <ele>104.45</ele>
        <time>2022-08-15T05:26:25Z</time>
      </trkpt>
      <trkpt lat="43.32918" lon="5.41554">
        <ele>105.25</ele>
        <time>2022-08-15T05:26:27Z</time>
      </trkpt>
      <trkpt lat="43.32938" lon="5.41515">
        <ele>107.14</ele>
        <time>2022-08-15T05:26:29Z</time>
      </trkpt>
      <trkpt lat="43.32927" lon="5.41492">
        <ele>108.91</ele>
        <time>2022-08-15T05:26:31Z</time>
      </trkpt>
      <trkpt lat="43.3293" lon="5.41472">
        <ele>108.99</ele>
        <time>2022-08-15T05:26:32Z</time>
      </trkpt>
      <trkpt lat="43.32974" lon="5.41265">
        <ele>111.04</ele>
        <time>2022-08-15T05:26:41Z</time>
      </trkpt>
      <trkpt lat="43.32997" lon="5.41148">
        <ele>107.77</ele>
        <time>2022-08-15T05:26:46Z</time>
      </trkpt>
      <trkpt lat="43.33006" lon="5.41078">
        <ele>103.91</ele>
        <time>2022-08-15T05:26:49Z</time>
      </trkpt>
      <trkpt lat="43.33014" lon="5.40982">
        <ele>100.12</ele>
        <time>2022-08-15T05:26:53Z</time>
      </trkpt>
      <trkpt lat="43.33016" lon="5.40961">
        <ele>100.04</ele>
        <time>2022-08-15T05:26:54Z</time>
      </trkpt>
      <trkpt lat="43.33015" lon="5.4094">
        <ele>99.95</ele>
        <time>2022-08-15T05:26:55Z</time>
      </trkpt>
      <trkpt lat="43.33005" lon="5.40718">
        <ele>102.78</ele>
        <time>2022-08-15T05:27:05Z</time>
      </trkpt>
      <trkpt lat="43.33001" lon="5.40652">
        <ele>105.92</ele>
        <time>2022-08-15T05:27:08Z</time>
      </trkpt>
      <trkpt lat="43.33" lon="5.4063">
        <ele>105.96</ele>
        <time>2022-08-15T05:27:09Z</time>
      </trkpt>
      <trkpt lat="43.32997" lon="5.40563">
        <ele>109.5</ele>
        <time>2022-08-15T05:27:12Z</time>
      </trkpt>
      <trkpt lat="43.32995" lon="5.4052">
        <ele>110.24</ele>
        <time>2022-08-15T05:27:14Z</time>
      </trkpt>
      <trkpt lat="43.32993" lon="5.40455">
        <ele>111.96</ele>
        <time>2022-08-15T05:27:17Z</time>
      </trkpt>
      <trkpt lat="43.32993" lon="5.40359">
        <ele>112.06</ele>
        <time>2022-08-15T05:27:21Z</time>
      </trkpt>
      <trkpt lat="43.32997" lon="5.40236">
        <ele>109.2</ele>
        <time>2022-08-15T05:27:26Z</time>
      </trkpt>
      <trkpt lat="43.32998" lon="5.40186">
        <ele>107.52</ele>
        <time>2022-08-15T05:27:28Z</time>
      </trkpt>
      <trkpt lat="43.33" lon="5.40113">
        <ele>103.78</ele>
        <time>2022-08-15T05:27:31Z</time>
      </trkpt>
      <trkpt lat="43.33002" lon="5.40089">
        <ele>103.7</ele>
        <time>2022-08-15T05:27:32Z</time>
      </trkpt>
      <trkpt lat="43.33004" lon="5.40038">
        <ele>100.65</ele>
        <time>2022-08-15T05:27:34Z</time>
      </trkpt>
      <trkpt lat="43.33005" lon="5.40013">
        <ele>100.52</ele>
        <time>2022-08-15T05:27:35Z</time>
      </trkpt>
      <trkpt lat="43.33007" lon="5.39963">
        <ele>98.7</ele>
        <time>2022-08-15T05:27:37Z</time>
      </trkpt>
      <trkpt lat="43.3301" lon="5.3989">
        <ele>95.21</ele>
        <time>2022-08-15T05:27:40Z</time>
      </trkpt>
      <trkpt lat="43.33015" lon="5.39842">
        <ele>92.93</ele>
        <time>2022-08-15T05:27:42Z</time>
      </trkpt>
      <trkpt lat="43.33015" lon="5.39818">
        <ele>92.84</ele>
        <time>2022-08-15T05:27:43Z</time>
      </trkpt>
      <trkpt lat="43.33015" lon="5.39772">
        <ele>89.84</ele>
        <time>2022-08-15T05:27:45Z</time>
      </trkpt>
      <trkpt lat="43.33014" lon="5.39748">
        <ele>89.83</ele>
        <time>2022-08-15T05:27:46Z</time>
      </trkpt>
      <trkpt lat="43.33012" lon="5.3967">
        <ele>87.39</ele>
        <time>2022-08-15T05:27:49Z</time>
      </trkpt>
      <trkpt lat="43.33008" lon="5.39596">
        <ele>84.97</ele>
        <time>2022-08-15T05:27:52Z</time>
      </trkpt>
      <trkpt lat="43.33005" lon="5.39546">
        <ele>81.57</ele>
        <time>2022-08-15T05:27:54Z</time>
      </trkpt>
      <trkpt lat="43.33001" lon="5.39472">
        <ele>78.7</ele>
        <time>2022-08-15T05:27:57Z</time>
      </trkpt>
      <trkpt lat="43.32998" lon="5.39425">
        <ele>75.28</ele>
        <time>2022-08-15T05:27:59Z</time>
      </trkpt>
      <trkpt lat="43.32994" lon="5.3935">
        <ele>70.38</ele>
        <time>2022-08-15T05:28:02Z</time>
      </trkpt>
      <trkpt lat="43.32993" lon="5.39326">
        <ele>70.31</ele>
        <time>2022-08-15T05:28:03Z</time>
      </trkpt>
      <trkpt lat="43.3299" lon="5.39276">
        <ele>68.63</ele>
        <time>2022-08-15T05:28:05Z</time>
      </trkpt>
      <trkpt lat="43.32986" lon="5.39202">
        <ele>66.42</ele>
        <time>2022-08-15T05:28:08Z</time>
      </trkpt>
      <trkpt lat="43.32984" lon="5.39156">
        <ele>64.14</ele>
        <time>2022-08-15T05:28:10Z</time>
      </trkpt>
      <trkpt lat="43.3298" lon="5.39082">
        <ele>62.66</ele>
        <time>2022-08-15T05:28:13Z</time>
      </trkpt>
      <trkpt lat="43.32976" lon="5.39009">
        <ele>60.53</ele>
        <time>2022-08-15T05:28:16Z</time>
      </trkpt>
      <trkpt lat="43.32962" lon="5.38736">
        <ele>64.17</ele>
        <time>2022-08-15T05:28:27Z</time>
      </trkpt>
      <trkpt lat="43.32961" lon="5.38711">
        <ele>64.21</ele>
        <time>2022-08-15T05:28:28Z</time>
      </trkpt>
      <trkpt lat="43.3296" lon="5.38706">
        <ele>64.24</ele>
        <time>2022-08-15T05:28:29Z</time>
      </trkpt>
      <trkpt lat="43.3296" lon="5.38706">
        <ele>65.51</ele>
        <time>2022-08-15T05:28:31Z</time>
      </trkpt>
      <trkpt lat="43.3296" lon="5.38706">
        <ele>66.81</ele>
        <time>2022-08-15T05:28:38Z</time>
      </trkpt>
      <trkpt lat="43.3296" lon="5.38706">
        <ele>66.81</ele>
        <time>2022-08-15T05:28:41Z</time>
      </trkpt>
      <trkpt lat="43.33292" lon="5.38527">
        <ele>67.69</ele>
        <time>2022-08-15T05:28:44Z</time>
      </trkpt>
      <trkpt lat="43.33413" lon="5.38347">
        <ele>67.66</ele>
        <time>2022-08-15T05:28:56Z</time>
      </trkpt>
      <trkpt lat="43.33621" lon="5.38042">
        <ele>67.46</ele>
        <time>2022-08-15T05:29:14Z</time>
      </trkpt>
      <trkpt lat="43.33877" lon="5.37722">
        <ele>67.36</ele>
        <time>2022-08-15T05:29:34Z</time>
      </trkpt>
      <trkpt lat="43.34005" lon="5.37665">
        <ele>67.33</ele>
        <time>2022-08-15T05:29:42Z</time>
      </trkpt>
      <trkpt lat="43.34167" lon="5.37639">
        <ele>70.3</ele>
        <time>2022-08-15T05:29:50Z</time>
      </trkpt>
      <trkpt lat="43.34232" lon="5.37619">
        <ele>73.88</ele>
        <time>2022-08-15T05:29:53Z</time>
      </trkpt>
      <trkpt lat="43.34253" lon="5.37611">
        <ele>73.92</ele>
        <time>2022-08-15T05:29:54Z</time>
      </trkpt>
      <trkpt lat="43.34296" lon="5.37593">
        <ele>77.34</ele>
        <time>2022-08-15T05:29:56Z</time>
      </trkpt>
      <trkpt lat="43.34337" lon="5.37572">
        <ele>78.46</ele>
        <time>2022-08-15T05:29:58Z</time>
      </trkpt>
      <trkpt lat="43.34398" lon="5.37536">
        <ele>82.06</ele>
        <time>2022-08-15T05:30:01Z</time>
      </trkpt>
      <trkpt lat="43.34418" lon="5.37523">
        <ele>82.05</ele>
        <time>2022-08-15T05:30:02Z</time>
      </trkpt>
      <trkpt lat="43.34457" lon="5.37494">
        <ele>85.37</ele>
        <time>2022-08-15T05:30:04Z</time>
      </trkpt>
      <trkpt lat="43.34514" lon="5.37444">
        <ele>88.4</ele>
        <time>2022-08-15T05:30:07Z</time>
      </trkpt>
      <trkpt lat="43.34568" lon="5.3739">
        <ele>91.47</ele>
        <time>2022-08-15T05:30:10Z</time>
      </trkpt>
      <trkpt lat="43.34639" lon="5.37308">
        <ele>95.83</ele>
        <time>2022-08-15T05:30:14Z</time>
      </trkpt>
      <trkpt lat="43.34657" lon="5.37287">
        <ele>95.92</ele>
        <time>2022-08-15T05:30:15Z</time>
      </trkpt>
      <trkpt lat="43.34711" lon="5.37224">
        <ele>97.32</ele>
        <time>2022-08-15T05:30:18Z</time>
      </trkpt>
      <trkpt lat="43.34907" lon="5.36999">
        <ele>93.95</ele>
        <time>2022-08-15T05:30:29Z</time>
      </trkpt>
      <trkpt lat="43.34959" lon="5.36938">
        <ele>92.22</ele>
        <time>2022-08-15T05:30:32Z</time>
      </trkpt>
      <trkpt lat="43.35157" lon="5.36709">
        <ele>94.33</ele>
        <time>2022-08-15T05:30:44Z</time>
      </trkpt>
      <trkpt lat="43.35188" lon="5.36672">
        <ele>95.91</ele>
        <time>2022-08-15T05:30:46Z</time>
      </trkpt>
      <trkpt lat="43.35221" lon="5.36634">
        <ele>97.57</ele>
        <time>2022-08-15T05:30:48Z</time>
      </trkpt>
      <trkpt lat="43.35253" lon="5.36596">
        <ele>99.13</ele>
        <time>2022-08-15T05:30:50Z</time>
      </trkpt>
      <trkpt lat="43.35303" lon="5.36541">
        <ele>101.43</ele>
        <time>2022-08-15T05:30:53Z</time>
      </trkpt>
      <trkpt lat="43.35487" lon="5.36399">
        <ele>102.48</ele>
        <time>2022-08-15T05:31:03Z</time>
      </trkpt>
      <trkpt lat="43.35666" lon="5.36322">
        <ele>104.11</ele>
        <time>2022-08-15T05:31:12Z</time>
      </trkpt>
      <trkpt lat="43.35727" lon="5.36302">
        <ele>106.75</ele>
        <time>2022-08-15T05:31:15Z</time>
      </trkpt>
      <trkpt lat="43.35768" lon="5.36288">
        <ele>109.23</ele>
        <time>2022-08-15T05:31:17Z</time>
      </trkpt>
      <trkpt lat="43.3583" lon="5.36267">
        <ele>112.92</ele>
        <time>2022-08-15T05:31:20Z</time>
      </trkpt>
      <trkpt lat="43.3587" lon="5.36253">
        <ele>114.07</ele>
        <time>2022-08-15T05:31:22Z</time>
      </trkpt>
      <trkpt lat="43.35911" lon="5.36239">
        <ele>115.48</ele>
        <time>2022-08-15T05:31:24Z</time>
      </trkpt>
      <trkpt lat="43.3595" lon="5.36225">
        <ele>117.15</ele>
        <time>2022-08-15T05:31:26Z</time>
      </trkpt>
      <trkpt lat="43.36174" lon="5.36149">
        <ele>120.54</ele>
        <time>2022-08-15T05:31:37Z</time>
      </trkpt>
      <trkpt lat="43.36383" lon="5.36084">
        <ele>122.96</ele>
        <time>2022-08-15T05:31:47Z</time>
      </trkpt>
      <trkpt lat="43.3647" lon="5.36072">
        <ele>126.25</ele>
        <time>2022-08-15T05:31:51Z</time>
      </trkpt>
      <trkpt lat="43.36492" lon="5.36072">
        <ele>126.23</ele>
        <time>2022-08-15T05:31:52Z</time>
      </trkpt>
      <trkpt lat="43.36556" lon="5.36074">
        <ele>127.88</ele>
        <time>2022-08-15T05:31:55Z</time>
      </trkpt>
      <trkpt lat="43.36678" lon="5.36085">
        <ele>130.27</ele>
        <time>2022-08-15T05:32:01Z</time>
      </trkpt>
      <trkpt lat="43.36773" lon="5.36094">
        <ele>133.76</ele>
        <time>2022-08-15T05:32:06Z</time>
      </trkpt>
      <trkpt lat="43.36792" lon="5.36096">
        <ele>133.78</ele>
        <time>2022-08-15T05:32:07Z</time>
      </trkpt>
      <trkpt lat="43.36907" lon="5.36109">
        <ele>136.88</ele>
        <time>2022-08-15T05:32:13Z</time>
      </trkpt>
      <trkpt lat="43.36926" lon="5.3611">
        <ele>136.89</ele>
        <time>2022-08-15T05:32:14Z</time>
      </trkpt>
      <trkpt lat="43.37045" lon="5.36121">
        <ele>140.24</ele>
        <time>2022-08-15T05:32:20Z</time>
      </trkpt>
      <trkpt lat="43.37064" lon="5.36122">
        <ele>140.24</ele>
        <time>2022-08-15T05:32:21Z</time>
      </trkpt>
      <trkpt lat="43.37161" lon="5.36125">
        <ele>143.9</ele>
        <time>2022-08-15T05:32:26Z</time>
      </trkpt>
      <trkpt lat="43.37201" lon="5.36127">
        <ele>144.95</ele>
        <time>2022-08-15T05:32:28Z</time>
      </trkpt>
      <trkpt lat="43.37241" lon="5.36128">
        <ele>146.28</ele>
        <time>2022-08-15T05:32:30Z</time>
      </trkpt>
      <trkpt lat="43.37303" lon="5.36123">
        <ele>150.55</ele>
        <time>2022-08-15T05:32:33Z</time>
      </trkpt>
      <trkpt lat="43.37365" lon="5.3611">
        <ele>152.55</ele>
        <time>2022-08-15T05:32:36Z</time>
      </trkpt>
      <trkpt lat="43.37427" lon="5.3609">
        <ele>154.83</ele>
        <time>2022-08-15T05:32:39Z</time>
      </trkpt>
      <trkpt lat="43.37488" lon="5.36063">
        <ele>157.86</ele>
        <time>2022-08-15T05:32:42Z</time>
      </trkpt>
      <trkpt lat="43.37525" lon="5.36042">
        <ele>160.86</ele>
        <time>2022-08-15T05:32:44Z</time>
      </trkpt>
      <trkpt lat="43.37561" lon="5.36016">
        <ele>162.13</ele>
        <time>2022-08-15T05:32:46Z</time>
      </trkpt>
      <trkpt lat="43.37613" lon="5.35973">
        <ele>163.42</ele>
        <time>2022-08-15T05:32:49Z</time>
      </trkpt>
      <trkpt lat="43.37662" lon="5.35924">
        <ele>165.88</ele>
        <time>2022-08-15T05:32:52Z</time>
      </trkpt>
      <trkpt lat="43.37707" lon="5.35869">
        <ele>167.79</ele>
        <time>2022-08-15T05:32:55Z</time>
      </trkpt>
      <trkpt lat="43.37735" lon="5.35828">
        <ele>169.62</ele>
        <time>2022-08-15T05:32:57Z</time>
      </trkpt>
      <trkpt lat="43.37761" lon="5.35786">
        <ele>171.39</ele>
        <time>2022-08-15T05:32:59Z</time>
      </trkpt>
      <trkpt lat="43.37903" lon="5.35509">
        <ele>173.06</ele>
        <time>2022-08-15T05:33:11Z</time>
      </trkpt>
      <trkpt lat="43.37958" lon="5.35424">
        <ele>170.58</ele>
        <time>2022-08-15T05:33:15Z</time>
      </trkpt>
      <trkpt lat="43.38052" lon="5.35309">
        <ele>172.81</ele>
        <time>2022-08-15T05:33:21Z</time>
      </trkpt>
      <trkpt lat="43.38141" lon="5.3523">
        <ele>174.75</ele>
        <time>2022-08-15T05:33:26Z</time>
      </trkpt>
      <trkpt lat="43.38255" lon="5.35158">
        <ele>177.03</ele>
        <time>2022-08-15T05:33:32Z</time>
      </trkpt>
      <trkpt lat="43.38419" lon="5.35103">
        <ele>180.73</ele>
        <time>2022-08-15T05:33:40Z</time>
      </trkpt>
      <trkpt lat="43.38462" lon="5.35097">
        <ele>182.35</ele>
        <time>2022-08-15T05:33:42Z</time>
      </trkpt>
      <trkpt lat="43.38504" lon="5.35094">
        <ele>183.68</ele>
        <time>2022-08-15T05:33:44Z</time>
      </trkpt>
      <trkpt lat="43.38547" lon="5.35093">
        <ele>185.52</ele>
        <time>2022-08-15T05:33:46Z</time>
      </trkpt>
      <trkpt lat="43.3863" lon="5.35098">
        <ele>188.19</ele>
        <time>2022-08-15T05:33:50Z</time>
      </trkpt>
      <trkpt lat="43.38692" lon="5.351">
        <ele>191.72</ele>
        <time>2022-08-15T05:33:53Z</time>
      </trkpt>
      <trkpt lat="43.38752" lon="5.35102">
        <ele>194.79</ele>
        <time>2022-08-15T05:33:56Z</time>
      </trkpt>
      <trkpt lat="43.38771" lon="5.35103">
        <ele>194.79</ele>
        <time>2022-08-15T05:33:57Z</time>
      </trkpt>
      <trkpt lat="43.3881" lon="5.35104">
        <ele>197.23</ele>
        <time>2022-08-15T05:33:59Z</time>
      </trkpt>
      <trkpt lat="43.38889" lon="5.35108">
        <ele>201.58</ele>
        <time>2022-08-15T05:34:03Z</time>
      </trkpt>
      <trkpt lat="43.38952" lon="5.35111">
        <ele>205.08</ele>
        <time>2022-08-15T05:34:06Z</time>
      </trkpt>
      <trkpt lat="43.39016" lon="5.35114">
        <ele>209.46</ele>
        <time>2022-08-15T05:34:09Z</time>
      </trkpt>
      <trkpt lat="43.39081" lon="5.35117">
        <ele>212.77</ele>
        <time>2022-08-15T05:34:12Z</time>
      </trkpt>
      <trkpt lat="43.39102" lon="5.35118">
        <ele>212.86</ele>
        <time>2022-08-15T05:34:13Z</time>
      </trkpt>
      <trkpt lat="43.39211" lon="5.35124">
        <ele>215.91</ele>
        <time>2022-08-15T05:34:18Z</time>
      </trkpt>
      <trkpt lat="43.39276" lon="5.35127">
        <ele>217.56</ele>
        <time>2022-08-15T05:34:21Z</time>
      </trkpt>
      <trkpt lat="43.39612" lon="5.35127">
        <ele>219.44</ele>
        <time>2022-08-15T05:34:37Z</time>
      </trkpt>
      <trkpt lat="43.39728" lon="5.3509">
        <ele>222.62</ele>
        <time>2022-08-15T05:34:43Z</time>
      </trkpt>
      <trkpt lat="43.39785" lon="5.3506">
        <ele>224.7</ele>
        <time>2022-08-15T05:34:46Z</time>
      </trkpt>
      <trkpt lat="43.39857" lon="5.35012">
        <ele>227.94</ele>
        <time>2022-08-15T05:34:50Z</time>
      </trkpt>
      <trkpt lat="43.3991" lon="5.34971">
        <ele>231.35</ele>
        <time>2022-08-15T05:34:53Z</time>
      </trkpt>
      <trkpt lat="43.39928" lon="5.34958">
        <ele>231.4</ele>
        <time>2022-08-15T05:34:54Z</time>
      </trkpt>
      <trkpt lat="43.39981" lon="5.34917">
        <ele>233.68</ele>
        <time>2022-08-15T05:34:57Z</time>
      </trkpt>
      <trkpt lat="43.40034" lon="5.34875">
        <ele>236.36</ele>
        <time>2022-08-15T05:35:00Z</time>
      </trkpt>
      <trkpt lat="43.4007" lon="5.34845">
        <ele>238.08</ele>
        <time>2022-08-15T05:35:02Z</time>
      </trkpt>
      <trkpt lat="43.4023" lon="5.34663">
        <ele>239.35</ele>
        <time>2022-08-15T05:35:12Z</time>
      </trkpt>
      <trkpt lat="43.40346" lon="5.34449">
        <ele>236.67</ele>
        <time>2022-08-15T05:35:21Z</time>
      </trkpt>
      <trkpt lat="43.40376" lon="5.34368">
        <ele>234.87</ele>
        <time>2022-08-15T05:35:24Z</time>
      </trkpt>
      <trkpt lat="43.40395" lon="5.34313">
        <ele>233.41</ele>
        <time>2022-08-15T05:35:26Z</time>
      </trkpt>
      <trkpt lat="43.40421" lon="5.34229">
        <ele>229.13</ele>
        <time>2022-08-15T05:35:29Z</time>
      </trkpt>
      <trkpt lat="43.40448" lon="5.34147">
        <ele>225.28</ele>
        <time>2022-08-15T05:35:32Z</time>
      </trkpt>
      <trkpt lat="43.40475" lon="5.34065">
        <ele>221.76</ele>
        <time>2022-08-15T05:35:35Z</time>
      </trkpt>
      <trkpt lat="43.40484" lon="5.34037">
        <ele>221.66</ele>
        <time>2022-08-15T05:35:36Z</time>
      </trkpt>
      <trkpt lat="43.40512" lon="5.33953">
        <ele>219.1</ele>
        <time>2022-08-15T05:35:39Z</time>
      </trkpt>
      <trkpt lat="43.4054" lon="5.3387">
        <ele>215.06</ele>
        <time>2022-08-15T05:35:42Z</time>
      </trkpt>
      <trkpt lat="43.40568" lon="5.33786">
        <ele>212.03</ele>
        <time>2022-08-15T05:35:45Z</time>
      </trkpt>
      <trkpt lat="43.40586" lon="5.33729">
        <ele>210.69</ele>
        <time>2022-08-15T05:35:47Z</time>
      </trkpt>
      <trkpt lat="43.40612" lon="5.33642">
        <ele>207</ele>
        <time>2022-08-15T05:35:50Z</time>
      </trkpt>
      <trkpt lat="43.4062" lon="5.33612">
        <ele>206.95</ele>
        <time>2022-08-15T05:35:51Z</time>
      </trkpt>
      <trkpt lat="43.40641" lon="5.33522">
        <ele>203.8</ele>
        <time>2022-08-15T05:35:54Z</time>
      </trkpt>
      <trkpt lat="43.40648" lon="5.33492">
        <ele>203.7</ele>
        <time>2022-08-15T05:35:55Z</time>
      </trkpt>
      <trkpt lat="43.40669" lon="5.3337">
        <ele>202.35</ele>
        <time>2022-08-15T05:35:59Z</time>
      </trkpt>
      <trkpt lat="43.407" lon="5.33026">
        <ele>200.22</ele>
        <time>2022-08-15T05:36:10Z</time>
      </trkpt>
      <trkpt lat="43.407" lon="5.32867">
        <ele>198.09</ele>
        <time>2022-08-15T05:36:15Z</time>
      </trkpt>
      <trkpt lat="43.40696" lon="5.3277">
        <ele>195.03</ele>
        <time>2022-08-15T05:36:18Z</time>
      </trkpt>
      <trkpt lat="43.40693" lon="5.32737">
        <ele>194.99</ele>
        <time>2022-08-15T05:36:19Z</time>
      </trkpt>
      <trkpt lat="43.40683" lon="5.3264">
        <ele>192.76</ele>
        <time>2022-08-15T05:36:22Z</time>
      </trkpt>
      <trkpt lat="43.40674" lon="5.32575">
        <ele>191.3</ele>
        <time>2022-08-15T05:36:24Z</time>
      </trkpt>
      <trkpt lat="43.40659" lon="5.32478">
        <ele>188.03</ele>
        <time>2022-08-15T05:36:27Z</time>
      </trkpt>
      <trkpt lat="43.40641" lon="5.32381">
        <ele>184.96</ele>
        <time>2022-08-15T05:36:30Z</time>
      </trkpt>
      <trkpt lat="43.4062" lon="5.32286">
        <ele>181.42</ele>
        <time>2022-08-15T05:36:33Z</time>
      </trkpt>
      <trkpt lat="43.40612" lon="5.32254">
        <ele>181.42</ele>
        <time>2022-08-15T05:36:34Z</time>
      </trkpt>
      <trkpt lat="43.40589" lon="5.3216">
        <ele>179.22</ele>
        <time>2022-08-15T05:36:37Z</time>
      </trkpt>
      <trkpt lat="43.40558" lon="5.32038">
        <ele>177.59</ele>
        <time>2022-08-15T05:36:41Z</time>
      </trkpt>
      <trkpt lat="43.40542" lon="5.31979">
        <ele>176.31</ele>
        <time>2022-08-15T05:36:43Z</time>
      </trkpt>
      <trkpt lat="43.4042" lon="5.31493">
        <ele>172.74</ele>
        <time>2022-08-15T05:36:59Z</time>
      </trkpt>
      <trkpt lat="43.40373" lon="5.31171">
        <ele>168.13</ele>
        <time>2022-08-15T05:37:09Z</time>
      </trkpt>
      <trkpt lat="43.40366" lon="5.31073">
        <ele>164.87</ele>
        <time>2022-08-15T05:37:12Z</time>
      </trkpt>
      <trkpt lat="43.4036" lon="5.30946">
        <ele>160.9</ele>
        <time>2022-08-15T05:37:16Z</time>
      </trkpt>
      <trkpt lat="43.40358" lon="5.30849">
        <ele>159.02</ele>
        <time>2022-08-15T05:37:19Z</time>
      </trkpt>
      <trkpt lat="43.4036" lon="5.30751">
        <ele>155.3</ele>
        <time>2022-08-15T05:37:22Z</time>
      </trkpt>
      <trkpt lat="43.40362" lon="5.30718">
        <ele>155.21</ele>
        <time>2022-08-15T05:37:23Z</time>
      </trkpt>
      <trkpt lat="43.40365" lon="5.30653">
        <ele>153.87</ele>
        <time>2022-08-15T05:37:25Z</time>
      </trkpt>
      <trkpt lat="43.40377" lon="5.30522">
        <ele>149.92</ele>
        <time>2022-08-15T05:37:29Z</time>
      </trkpt>
      <trkpt lat="43.4038" lon="5.30489">
        <ele>149.84</ele>
        <time>2022-08-15T05:37:30Z</time>
      </trkpt>
      <trkpt lat="43.40393" lon="5.3039">
        <ele>147.39</ele>
        <time>2022-08-15T05:37:33Z</time>
      </trkpt>
      <trkpt lat="43.40402" lon="5.30325">
        <ele>146.03</ele>
        <time>2022-08-15T05:37:35Z</time>
      </trkpt>
      <trkpt lat="43.40417" lon="5.30226">
        <ele>141.86</ele>
        <time>2022-08-15T05:37:38Z</time>
      </trkpt>
      <trkpt lat="43.40422" lon="5.30193">
        <ele>141.9</ele>
        <time>2022-08-15T05:37:39Z</time>
      </trkpt>
      <trkpt lat="43.40438" lon="5.30094">
        <ele>138.6</ele>
        <time>2022-08-15T05:37:42Z</time>
      </trkpt>
      <trkpt lat="43.40443" lon="5.30061">
        <ele>138.59</ele>
        <time>2022-08-15T05:37:43Z</time>
      </trkpt>
      <trkpt lat="43.40461" lon="5.29962">
        <ele>136.43</ele>
        <time>2022-08-15T05:37:46Z</time>
      </trkpt>
      <trkpt lat="43.40479" lon="5.29864">
        <ele>134.93</ele>
        <time>2022-08-15T05:37:49Z</time>
      </trkpt>
      <trkpt lat="43.40491" lon="5.298">
        <ele>131.17</ele>
        <time>2022-08-15T05:37:51Z</time>
      </trkpt>
      <trkpt lat="43.4051" lon="5.29706">
        <ele>128.72</ele>
        <time>2022-08-15T05:37:54Z</time>
      </trkpt>
      <trkpt lat="43.40537" lon="5.29585">
        <ele>124.25</ele>
        <time>2022-08-15T05:37:58Z</time>
      </trkpt>
      <trkpt lat="43.40544" lon="5.29555">
        <ele>124.17</ele>
        <time>2022-08-15T05:37:59Z</time>
      </trkpt>
      <trkpt lat="43.40565" lon="5.29464">
        <ele>121.49</ele>
        <time>2022-08-15T05:38:02Z</time>
      </trkpt>
      <trkpt lat="43.40581" lon="5.29404">
        <ele>120.34</ele>
        <time>2022-08-15T05:38:04Z</time>
      </trkpt>
      <trkpt lat="43.40606" lon="5.29313">
        <ele>117.72</ele>
        <time>2022-08-15T05:38:07Z</time>
      </trkpt>
      <trkpt lat="43.40624" lon="5.29254">
        <ele>116.32</ele>
        <time>2022-08-15T05:38:09Z</time>
      </trkpt>
      <trkpt lat="43.40642" lon="5.29195">
        <ele>113.82</ele>
        <time>2022-08-15T05:38:11Z</time>
      </trkpt>
      <trkpt lat="43.40662" lon="5.29137">
        <ele>112.68</ele>
        <time>2022-08-15T05:38:13Z</time>
      </trkpt>
      <trkpt lat="43.40683" lon="5.29081">
        <ele>111.23</ele>
        <time>2022-08-15T05:38:15Z</time>
      </trkpt>
      <trkpt lat="43.40705" lon="5.29026">
        <ele>109.29</ele>
        <time>2022-08-15T05:38:17Z</time>
      </trkpt>
      <trkpt lat="43.40765" lon="5.28894">
        <ele>107.22</ele>
        <time>2022-08-15T05:38:22Z</time>
      </trkpt>
      <trkpt lat="43.40804" lon="5.28816">
        <ele>105.42</ele>
        <time>2022-08-15T05:38:25Z</time>
      </trkpt>
      <trkpt lat="43.4086" lon="5.28717">
        <ele>104.08</ele>
        <time>2022-08-15T05:38:29Z</time>
      </trkpt>
      <trkpt lat="43.41015" lon="5.2849">
        <ele>100.94</ele>
        <time>2022-08-15T05:38:39Z</time>
      </trkpt>
      <trkpt lat="43.41144" lon="5.2832">
        <ele>96.38</ele>
        <time>2022-08-15T05:38:47Z</time>
      </trkpt>
      <trkpt lat="43.4116" lon="5.28299">
        <ele>96.37</ele>
        <time>2022-08-15T05:38:48Z</time>
      </trkpt>
      <trkpt lat="43.41419" lon="5.27971">
        <ele>94.89</ele>
        <time>2022-08-15T05:39:03Z</time>
      </trkpt>
      <trkpt lat="43.41454" lon="5.27923">
        <ele>94.08</ele>
        <time>2022-08-15T05:39:05Z</time>
      </trkpt>
      <trkpt lat="43.41523" lon="5.27826">
        <ele>90.27</ele>
        <time>2022-08-15T05:39:09Z</time>
      </trkpt>
      <trkpt lat="43.4154" lon="5.27801">
        <ele>90.22</ele>
        <time>2022-08-15T05:39:10Z</time>
      </trkpt>
      <trkpt lat="43.4159" lon="5.27728">
        <ele>86.7</ele>
        <time>2022-08-15T05:39:13Z</time>
      </trkpt>
      <trkpt lat="43.41623" lon="5.27678">
        <ele>85.6</ele>
        <time>2022-08-15T05:39:15Z</time>
      </trkpt>
      <trkpt lat="43.41656" lon="5.27628">
        <ele>82.58</ele>
        <time>2022-08-15T05:39:17Z</time>
      </trkpt>
      <trkpt lat="43.41672" lon="5.27603">
        <ele>82.57</ele>
        <time>2022-08-15T05:39:18Z</time>
      </trkpt>
      <trkpt lat="43.41721" lon="5.27529">
        <ele>79.15</ele>
        <time>2022-08-15T05:39:21Z</time>
      </trkpt>
      <trkpt lat="43.41753" lon="5.27478">
        <ele>77.96</ele>
        <time>2022-08-15T05:39:23Z</time>
      </trkpt>
      <trkpt lat="43.41784" lon="5.27428">
        <ele>76.23</ele>
        <time>2022-08-15T05:39:25Z</time>
      </trkpt>
      <trkpt lat="43.41831" lon="5.27354">
        <ele>74.83</ele>
        <time>2022-08-15T05:39:28Z</time>
      </trkpt>
      <trkpt lat="43.41909" lon="5.27231">
        <ele>72.45</ele>
        <time>2022-08-15T05:39:33Z</time>
      </trkpt>
      <trkpt lat="43.42128" lon="5.26924">
        <ele>68.86</ele>
        <time>2022-08-15T05:39:46Z</time>
      </trkpt>
      <trkpt lat="43.42234" lon="5.26789">
        <ele>67.32</ele>
        <time>2022-08-15T05:39:52Z</time>
      </trkpt>
      <trkpt lat="43.424" lon="5.26595">
        <ele>64.89</ele>
        <time>2022-08-15T05:40:01Z</time>
      </trkpt>
      <trkpt lat="43.42671" lon="5.26315">
        <ele>61.82</ele>
        <time>2022-08-15T05:40:15Z</time>
      </trkpt>
      <trkpt lat="43.4303" lon="5.2596">
        <ele>61.79</ele>
        <time>2022-08-15T05:40:33Z</time>
      </trkpt>
      <trkpt lat="43.4313" lon="5.25862">
        <ele>64.36</ele>
        <time>2022-08-15T05:40:38Z</time>
      </trkpt>
      <trkpt lat="43.434" lon="5.25596">
        <ele>68.41</ele>
        <time>2022-08-15T05:40:52Z</time>
      </trkpt>
      <trkpt lat="43.4342" lon="5.25577">
        <ele>68.41</ele>
        <time>2022-08-15T05:40:53Z</time>
      </trkpt>
      <trkpt lat="43.43554" lon="5.25446">
        <ele>70.11</ele>
        <time>2022-08-15T05:41:00Z</time>
      </trkpt>
      <trkpt lat="43.43707" lon="5.25292">
        <ele>72.88</ele>
        <time>2022-08-15T05:41:08Z</time>
      </trkpt>
      <trkpt lat="43.43822" lon="5.25171">
        <ele>76.7</ele>
        <time>2022-08-15T05:41:14Z</time>
      </trkpt>
      <trkpt lat="43.43841" lon="5.2515">
        <ele>76.7</ele>
        <time>2022-08-15T05:41:15Z</time>
      </trkpt>
      <trkpt lat="43.44058" lon="5.24898">
        <ele>80.72</ele>
        <time>2022-08-15T05:41:27Z</time>
      </trkpt>
      <trkpt lat="43.44284" lon="5.24627">
        <ele>84.79</ele>
        <time>2022-08-15T05:41:40Z</time>
      </trkpt>
      <trkpt lat="43.44301" lon="5.24606">
        <ele>84.82</ele>
        <time>2022-08-15T05:41:41Z</time>
      </trkpt>
      <trkpt lat="43.44464" lon="5.24423">
        <ele>88.99</ele>
        <time>2022-08-15T05:41:50Z</time>
      </trkpt>
      <trkpt lat="43.44483" lon="5.24403">
        <ele>88.98</ele>
        <time>2022-08-15T05:41:51Z</time>
      </trkpt>
      <trkpt lat="43.44635" lon="5.24249">
        <ele>92.97</ele>
        <time>2022-08-15T05:41:59Z</time>
      </trkpt>
      <trkpt lat="43.44731" lon="5.2416">
        <ele>94.23</ele>
        <time>2022-08-15T05:42:04Z</time>
      </trkpt>
      <trkpt lat="43.44996" lon="5.23951">
        <ele>94.16</ele>
        <time>2022-08-15T05:42:17Z</time>
      </trkpt>
      <trkpt lat="43.45127" lon="5.23866">
        <ele>91.16</ele>
        <time>2022-08-15T05:42:23Z</time>
      </trkpt>
      <trkpt lat="43.45237" lon="5.23801">
        <ele>87.34</ele>
        <time>2022-08-15T05:42:28Z</time>
      </trkpt>
      <trkpt lat="43.45282" lon="5.23777">
        <ele>85.33</ele>
        <time>2022-08-15T05:42:30Z</time>
      </trkpt>
      <trkpt lat="43.45349" lon="5.23743">
        <ele>81.99</ele>
        <time>2022-08-15T05:42:33Z</time>
      </trkpt>
      <trkpt lat="43.45394" lon="5.23721">
        <ele>80.8</ele>
        <time>2022-08-15T05:42:35Z</time>
      </trkpt>
      <trkpt lat="43.45439" lon="5.237">
        <ele>79.36</ele>
        <time>2022-08-15T05:42:37Z</time>
      </trkpt>
      <trkpt lat="43.45484" lon="5.2368">
        <ele>77.54</ele>
        <time>2022-08-15T05:42:39Z</time>
      </trkpt>
      <trkpt lat="43.45553" lon="5.23653">
        <ele>73.88</ele>
        <time>2022-08-15T05:42:42Z</time>
      </trkpt>
      <trkpt lat="43.45621" lon="5.23627">
        <ele>71.45</ele>
        <time>2022-08-15T05:42:45Z</time>
      </trkpt>
      <trkpt lat="43.45691" lon="5.23603">
        <ele>68.1</ele>
        <time>2022-08-15T05:42:48Z</time>
      </trkpt>
      <trkpt lat="43.45714" lon="5.23596">
        <ele>68.09</ele>
        <time>2022-08-15T05:42:49Z</time>
      </trkpt>
      <trkpt lat="43.4576" lon="5.23581">
        <ele>66.59</ele>
        <time>2022-08-15T05:42:51Z</time>
      </trkpt>
      <trkpt lat="43.45807" lon="5.23569">
        <ele>65.33</ele>
        <time>2022-08-15T05:42:53Z</time>
      </trkpt>
      <trkpt lat="43.45877" lon="5.23552">
        <ele>63.04</ele>
        <time>2022-08-15T05:42:56Z</time>
      </trkpt>
      <trkpt lat="43.45946" lon="5.23536">
        <ele>61.69</ele>
        <time>2022-08-15T05:42:59Z</time>
      </trkpt>
      <trkpt lat="43.45992" lon="5.23527">
        <ele>60.49</ele>
        <time>2022-08-15T05:43:01Z</time>
      </trkpt>
      <trkpt lat="43.4606" lon="5.23515">
        <ele>59.12</ele>
        <time>2022-08-15T05:43:04Z</time>
      </trkpt>
      <trkpt lat="43.46221" lon="5.23489">
        <ele>56.22</ele>
        <time>2022-08-15T05:43:11Z</time>
      </trkpt>
      <trkpt lat="43.46339" lon="5.23471">
        <ele>53.53</ele>
        <time>2022-08-15T05:43:16Z</time>
      </trkpt>
      <trkpt lat="43.46482" lon="5.23449">
        <ele>51.97</ele>
        <time>2022-08-15T05:43:22Z</time>
      </trkpt>
      <trkpt lat="43.4653" lon="5.23441">
        <ele>50.62</ele>
        <time>2022-08-15T05:43:24Z</time>
      </trkpt>
      <trkpt lat="43.4665" lon="5.23423">
        <ele>48.83</ele>
        <time>2022-08-15T05:43:29Z</time>
      </trkpt>
      <trkpt lat="43.46723" lon="5.23412">
        <ele>46.72</ele>
        <time>2022-08-15T05:43:32Z</time>
      </trkpt>
      <trkpt lat="43.46795" lon="5.23404">
        <ele>45.37</ele>
        <time>2022-08-15T05:43:35Z</time>
      </trkpt>
      <trkpt lat="43.47033" lon="5.2341">
        <ele>44.4</ele>
        <time>2022-08-15T05:43:45Z</time>
      </trkpt>
      <trkpt lat="43.47246" lon="5.23474">
        <ele>47.1</ele>
        <time>2022-08-15T05:43:54Z</time>
      </trkpt>
      <trkpt lat="43.47291" lon="5.23495">
        <ele>48.41</ele>
        <time>2022-08-15T05:43:56Z</time>
      </trkpt>
      <trkpt lat="43.47358" lon="5.23533">
        <ele>50.62</ele>
        <time>2022-08-15T05:43:59Z</time>
      </trkpt>
      <trkpt lat="43.47485" lon="5.23622">
        <ele>54.19</ele>
        <time>2022-08-15T05:44:05Z</time>
      </trkpt>
      <trkpt lat="43.47525" lon="5.23656">
        <ele>55.8</ele>
        <time>2022-08-15T05:44:07Z</time>
      </trkpt>
      <trkpt lat="43.47643" lon="5.23765">
        <ele>58.42</ele>
        <time>2022-08-15T05:44:13Z</time>
      </trkpt>
      <trkpt lat="43.47744" lon="5.23853">
        <ele>61.15</ele>
        <time>2022-08-15T05:44:18Z</time>
      </trkpt>
      <trkpt lat="43.47963" lon="5.23996">
        <ele>62.97</ele>
        <time>2022-08-15T05:44:28Z</time>
      </trkpt>
      <trkpt lat="43.48221" lon="5.24088">
        <ele>65.76</ele>
        <time>2022-08-15T05:44:39Z</time>
      </trkpt>
      <trkpt lat="43.48341" lon="5.24106">
        <ele>67.01</ele>
        <time>2022-08-15T05:44:44Z</time>
      </trkpt>
      <trkpt lat="43.4846" lon="5.2411">
        <ele>68.39</ele>
        <time>2022-08-15T05:44:49Z</time>
      </trkpt>
      <trkpt lat="43.48555" lon="5.24107">
        <ele>69.7</ele>
        <time>2022-08-15T05:44:53Z</time>
      </trkpt>
      <trkpt lat="43.48847" lon="5.24072">
        <ele>70.49</ele>
        <time>2022-08-15T05:45:06Z</time>
      </trkpt>
      <trkpt lat="43.49182" lon="5.2402">
        <ele>72</ele>
        <time>2022-08-15T05:45:21Z</time>
      </trkpt>
      <trkpt lat="43.49434" lon="5.23979">
        <ele>69.36</ele>
        <time>2022-08-15T05:45:32Z</time>
      </trkpt>
      <trkpt lat="43.49595" lon="5.23951">
        <ele>66.22</ele>
        <time>2022-08-15T05:45:39Z</time>
      </trkpt>
      <trkpt lat="43.49797" lon="5.23914">
        <ele>63.42</ele>
        <time>2022-08-15T05:45:48Z</time>
      </trkpt>
      <trkpt lat="43.49843" lon="5.23905">
        <ele>65.85</ele>
        <time>2022-08-15T05:45:50Z</time>
      </trkpt>
      <trkpt lat="43.4989" lon="5.23896">
        <ele>63.27</ele>
        <time>2022-08-15T05:45:52Z</time>
      </trkpt>
      <trkpt lat="43.50056" lon="5.23859">
        <ele>60.89</ele>
        <time>2022-08-15T05:45:59Z</time>
      </trkpt>
      <trkpt lat="43.50199" lon="5.23824">
        <ele>58.51</ele>
        <time>2022-08-15T05:46:05Z</time>
      </trkpt>
      <trkpt lat="43.50316" lon="5.23789">
        <ele>56.44</ele>
        <time>2022-08-15T05:46:10Z</time>
      </trkpt>
      <trkpt lat="43.5048" lon="5.23737">
        <ele>52.55</ele>
        <time>2022-08-15T05:46:17Z</time>
      </trkpt>
      <trkpt lat="43.50549" lon="5.23712">
        <ele>51.27</ele>
        <time>2022-08-15T05:46:20Z</time>
      </trkpt>
      <trkpt lat="43.50618" lon="5.23686">
        <ele>50.04</ele>
        <time>2022-08-15T05:46:23Z</time>
      </trkpt>
      <trkpt lat="43.50998" lon="5.23508">
        <ele>47.4</ele>
        <time>2022-08-15T05:46:40Z</time>
      </trkpt>
      <trkpt lat="43.51388" lon="5.23258">
        <ele>47.4</ele>
        <time>2022-08-15T05:46:58Z</time>
      </trkpt>
      <trkpt lat="43.51559" lon="5.23127">
        <ele>49.76</ele>
        <time>2022-08-15T05:47:06Z</time>
      </trkpt>
      <trkpt lat="43.51745" lon="5.22971">
        <ele>53.06</ele>
        <time>2022-08-15T05:47:15Z</time>
      </trkpt>
      <trkpt lat="43.51766" lon="5.22954">
        <ele>53.09</ele>
        <time>2022-08-15T05:47:16Z</time>
      </trkpt>
      <trkpt lat="43.51806" lon="5.22918">
        <ele>56.27</ele>
        <time>2022-08-15T05:47:18Z</time>
      </trkpt>
      <trkpt lat="43.51847" lon="5.22881">
        <ele>57.62</ele>
        <time>2022-08-15T05:47:20Z</time>
      </trkpt>
      <trkpt lat="43.51889" lon="5.22844">
        <ele>59.78</ele>
        <time>2022-08-15T05:47:22Z</time>
      </trkpt>
      <trkpt lat="43.51931" lon="5.22808">
        <ele>61.63</ele>
        <time>2022-08-15T05:47:24Z</time>
      </trkpt>
      <trkpt lat="43.51992" lon="5.22752">
        <ele>65.29</ele>
        <time>2022-08-15T05:47:27Z</time>
      </trkpt>
      <trkpt lat="43.52052" lon="5.22695">
        <ele>67.41</ele>
        <time>2022-08-15T05:47:30Z</time>
      </trkpt>
      <trkpt lat="43.52092" lon="5.22658">
        <ele>68.49</ele>
        <time>2022-08-15T05:47:32Z</time>
      </trkpt>
      <trkpt lat="43.52152" lon="5.22602">
        <ele>70.8</ele>
        <time>2022-08-15T05:47:35Z</time>
      </trkpt>
      <trkpt lat="43.52191" lon="5.22564">
        <ele>72.71</ele>
        <time>2022-08-15T05:47:37Z</time>
      </trkpt>
      <trkpt lat="43.52271" lon="5.22489">
        <ele>76.45</ele>
        <time>2022-08-15T05:47:41Z</time>
      </trkpt>
      <trkpt lat="43.52349" lon="5.22412">
        <ele>80.3</ele>
        <time>2022-08-15T05:47:45Z</time>
      </trkpt>
      <trkpt lat="43.52369" lon="5.22393">
        <ele>80.35</ele>
        <time>2022-08-15T05:47:46Z</time>
      </trkpt>
      <trkpt lat="43.52428" lon="5.22337">
        <ele>83.47</ele>
        <time>2022-08-15T05:47:49Z</time>
      </trkpt>
      <trkpt lat="43.52447" lon="5.22318">
        <ele>83.54</ele>
        <time>2022-08-15T05:47:50Z</time>
      </trkpt>
      <trkpt lat="43.52506" lon="5.22261">
        <ele>86.37</ele>
        <time>2022-08-15T05:47:53Z</time>
      </trkpt>
      <trkpt lat="43.52585" lon="5.22186">
        <ele>90.18</ele>
        <time>2022-08-15T05:47:57Z</time>
      </trkpt>
      <trkpt lat="43.52624" lon="5.22149">
        <ele>91.24</ele>
        <time>2022-08-15T05:47:59Z</time>
      </trkpt>
      <trkpt lat="43.52685" lon="5.22096">
        <ele>93.37</ele>
        <time>2022-08-15T05:48:02Z</time>
      </trkpt>
      <trkpt lat="43.52747" lon="5.22046">
        <ele>95.95</ele>
        <time>2022-08-15T05:48:05Z</time>
      </trkpt>
      <trkpt lat="43.52811" lon="5.22002">
        <ele>99.37</ele>
        <time>2022-08-15T05:48:08Z</time>
      </trkpt>
      <trkpt lat="43.52878" lon="5.21965">
        <ele>102.61</ele>
        <time>2022-08-15T05:48:11Z</time>
      </trkpt>
      <trkpt lat="43.529" lon="5.21954">
        <ele>102.6</ele>
        <time>2022-08-15T05:48:12Z</time>
      </trkpt>
      <trkpt lat="43.52969" lon="5.21924">
        <ele>104.02</ele>
        <time>2022-08-15T05:48:15Z</time>
      </trkpt>
      <trkpt lat="43.53016" lon="5.21907">
        <ele>105.69</ele>
        <time>2022-08-15T05:48:17Z</time>
      </trkpt>
      <trkpt lat="43.53234" lon="5.21873">
        <ele>105.7</ele>
        <time>2022-08-15T05:48:26Z</time>
      </trkpt>
      <trkpt lat="43.53332" lon="5.21878">
        <ele>102.37</ele>
        <time>2022-08-15T05:48:30Z</time>
      </trkpt>
      <trkpt lat="43.53356" lon="5.2188">
        <ele>102.36</ele>
        <time>2022-08-15T05:48:31Z</time>
      </trkpt>
      <trkpt lat="43.53455" lon="5.21901">
        <ele>98.11</ele>
        <time>2022-08-15T05:48:35Z</time>
      </trkpt>
      <trkpt lat="43.5348" lon="5.21909">
        <ele>98.09</ele>
        <time>2022-08-15T05:48:36Z</time>
      </trkpt>
      <trkpt lat="43.53552" lon="5.21934">
        <ele>93.08</ele>
        <time>2022-08-15T05:48:39Z</time>
      </trkpt>
      <trkpt lat="43.53597" lon="5.21954">
        <ele>91.38</ele>
        <time>2022-08-15T05:48:41Z</time>
      </trkpt>
      <trkpt lat="43.53641" lon="5.21976">
        <ele>88.02</ele>
        <time>2022-08-15T05:48:43Z</time>
      </trkpt>
      <trkpt lat="43.53704" lon="5.22014">
        <ele>86</ele>
        <time>2022-08-15T05:48:46Z</time>
      </trkpt>
      <trkpt lat="43.53768" lon="5.22057">
        <ele>82.66</ele>
        <time>2022-08-15T05:48:49Z</time>
      </trkpt>
      <trkpt lat="43.5381" lon="5.22088">
        <ele>80.74</ele>
        <time>2022-08-15T05:48:51Z</time>
      </trkpt>
      <trkpt lat="43.53852" lon="5.22122">
        <ele>79.27</ele>
        <time>2022-08-15T05:48:53Z</time>
      </trkpt>
      <trkpt lat="43.53914" lon="5.22176">
        <ele>75.02</ele>
        <time>2022-08-15T05:48:56Z</time>
      </trkpt>
      <trkpt lat="43.53974" lon="5.22233">
        <ele>72.86</ele>
        <time>2022-08-15T05:48:59Z</time>
      </trkpt>
      <trkpt lat="43.54014" lon="5.22273">
        <ele>69.6</ele>
        <time>2022-08-15T05:49:01Z</time>
      </trkpt>
      <trkpt lat="43.54093" lon="5.22355">
        <ele>65.81</ele>
        <time>2022-08-15T05:49:05Z</time>
      </trkpt>
      <trkpt lat="43.54113" lon="5.22375">
        <ele>65.81</ele>
        <time>2022-08-15T05:49:06Z</time>
      </trkpt>
      <trkpt lat="43.54171" lon="5.22438">
        <ele>61.71</ele>
        <time>2022-08-15T05:49:09Z</time>
      </trkpt>
      <trkpt lat="43.5421" lon="5.2248">
        <ele>60.61</ele>
        <time>2022-08-15T05:49:11Z</time>
      </trkpt>
      <trkpt lat="43.54268" lon="5.22543">
        <ele>58.6</ele>
        <time>2022-08-15T05:49:14Z</time>
      </trkpt>
      <trkpt lat="43.54344" lon="5.22624">
        <ele>56.53</ele>
        <time>2022-08-15T05:49:18Z</time>
      </trkpt>
      <trkpt lat="43.54624" lon="5.22877">
        <ele>56.81</ele>
        <time>2022-08-15T05:49:32Z</time>
      </trkpt>
      <trkpt lat="43.54819" lon="5.23003">
        <ele>59.99</ele>
        <time>2022-08-15T05:49:41Z</time>
      </trkpt>
      <trkpt lat="43.54841" lon="5.23014">
        <ele>60</ele>
        <time>2022-08-15T05:49:42Z</time>
      </trkpt>
      <trkpt lat="43.54954" lon="5.2307">
        <ele>62.67</ele>
        <time>2022-08-15T05:49:47Z</time>
      </trkpt>
      <trkpt lat="43.55049" lon="5.23106">
        <ele>65.09</ele>
        <time>2022-08-15T05:49:51Z</time>
      </trkpt>
      <trkpt lat="43.55146" lon="5.23135">
        <ele>68.45</ele>
        <time>2022-08-15T05:49:55Z</time>
      </trkpt>
      <trkpt lat="43.55293" lon="5.23161">
        <ele>70.47</ele>
        <time>2022-08-15T05:50:01Z</time>
      </trkpt>
      <trkpt lat="43.55391" lon="5.23172">
        <ele>75.04</ele>
        <time>2022-08-15T05:50:05Z</time>
      </trkpt>
      <trkpt lat="43.55439" lon="5.23175">
        <ele>76.84</ele>
        <time>2022-08-15T05:50:07Z</time>
      </trkpt>
      <trkpt lat="43.55535" lon="5.23174">
        <ele>80.03</ele>
        <time>2022-08-15T05:50:11Z</time>
      </trkpt>
      <trkpt lat="43.55606" lon="5.23163">
        <ele>82.41</ele>
        <time>2022-08-15T05:50:14Z</time>
      </trkpt>
      <trkpt lat="43.55676" lon="5.23143">
        <ele>84.9</ele>
        <time>2022-08-15T05:50:17Z</time>
      </trkpt>
      <trkpt lat="43.55743" lon="5.23112">
        <ele>87.78</ele>
        <time>2022-08-15T05:50:20Z</time>
      </trkpt>
      <trkpt lat="43.55787" lon="5.23086">
        <ele>90.82</ele>
        <time>2022-08-15T05:50:22Z</time>
      </trkpt>
      <trkpt lat="43.55809" lon="5.23072">
        <ele>90.82</ele>
        <time>2022-08-15T05:50:23Z</time>
      </trkpt>
      <trkpt lat="43.55851" lon="5.23042">
        <ele>94.25</ele>
        <time>2022-08-15T05:50:25Z</time>
      </trkpt>
      <trkpt lat="43.55872" lon="5.23026">
        <ele>94.25</ele>
        <time>2022-08-15T05:50:26Z</time>
      </trkpt>
      <trkpt lat="43.55914" lon="5.22993">
        <ele>96.07</ele>
        <time>2022-08-15T05:50:28Z</time>
      </trkpt>
      <trkpt lat="43.55957" lon="5.22961">
        <ele>99.4</ele>
        <time>2022-08-15T05:50:30Z</time>
      </trkpt>
      <trkpt lat="43.56021" lon="5.22915">
        <ele>102.06</ele>
        <time>2022-08-15T05:50:33Z</time>
      </trkpt>
      <trkpt lat="43.56087" lon="5.22871">
        <ele>105.88</ele>
        <time>2022-08-15T05:50:36Z</time>
      </trkpt>
      <trkpt lat="43.56151" lon="5.22833">
        <ele>108.07</ele>
        <time>2022-08-15T05:50:39Z</time>
      </trkpt>
      <trkpt lat="43.56229" lon="5.22791">
        <ele>111.27</ele>
        <time>2022-08-15T05:50:43Z</time>
      </trkpt>
      <trkpt lat="43.56247" lon="5.22781">
        <ele>111.22</ele>
        <time>2022-08-15T05:50:44Z</time>
      </trkpt>
      <trkpt lat="43.56284" lon="5.22762">
        <ele>112.51</ele>
        <time>2022-08-15T05:50:46Z</time>
      </trkpt>
      <trkpt lat="43.5634" lon="5.22731">
        <ele>114.52</ele>
        <time>2022-08-15T05:50:49Z</time>
      </trkpt>
      <trkpt lat="43.56398" lon="5.22698">
        <ele>117.91</ele>
        <time>2022-08-15T05:50:52Z</time>
      </trkpt>
      <trkpt lat="43.56417" lon="5.22686">
        <ele>117.91</ele>
        <time>2022-08-15T05:50:53Z</time>
      </trkpt>
      <trkpt lat="43.56475" lon="5.22649">
        <ele>121.44</ele>
        <time>2022-08-15T05:50:56Z</time>
      </trkpt>
      <trkpt lat="43.56494" lon="5.22636">
        <ele>121.51</ele>
        <time>2022-08-15T05:50:57Z</time>
      </trkpt>
      <trkpt lat="43.56533" lon="5.22608">
        <ele>122.77</ele>
        <time>2022-08-15T05:50:59Z</time>
      </trkpt>
      <trkpt lat="43.5657" lon="5.22578">
        <ele>124.14</ele>
        <time>2022-08-15T05:51:01Z</time>
      </trkpt>
      <trkpt lat="43.56623" lon="5.22523">
        <ele>127.7</ele>
        <time>2022-08-15T05:51:04Z</time>
      </trkpt>
      <trkpt lat="43.5666" lon="5.22479">
        <ele>130.82</ele>
        <time>2022-08-15T05:51:06Z</time>
      </trkpt>
      <trkpt lat="43.56696" lon="5.22432">
        <ele>131.77</ele>
        <time>2022-08-15T05:51:08Z</time>
      </trkpt>
      <trkpt lat="43.56761" lon="5.22333">
        <ele>134.74</ele>
        <time>2022-08-15T05:51:12Z</time>
      </trkpt>
      <trkpt lat="43.56801" lon="5.22253">
        <ele>137.32</ele>
        <time>2022-08-15T05:51:15Z</time>
      </trkpt>
      <trkpt lat="43.5685" lon="5.22143">
        <ele>140.82</ele>
        <time>2022-08-15T05:51:19Z</time>
      </trkpt>
      <trkpt lat="43.56874" lon="5.22088">
        <ele>142.02</ele>
        <time>2022-08-15T05:51:21Z</time>
      </trkpt>
      <trkpt lat="43.56897" lon="5.22034">
        <ele>143.36</ele>
        <time>2022-08-15T05:51:23Z</time>
      </trkpt>
      <trkpt lat="43.56945" lon="5.21925">
        <ele>146.76</ele>
        <time>2022-08-15T05:51:27Z</time>
      </trkpt>
      <trkpt lat="43.56957" lon="5.21898">
        <ele>146.83</ele>
        <time>2022-08-15T05:51:28Z</time>
      </trkpt>
      <trkpt lat="43.57011" lon="5.21787">
        <ele>149.76</ele>
        <time>2022-08-15T05:51:32Z</time>
      </trkpt>
      <trkpt lat="43.57056" lon="5.21706">
        <ele>152.22</ele>
        <time>2022-08-15T05:51:35Z</time>
      </trkpt>
      <trkpt lat="43.57105" lon="5.21631">
        <ele>154.53</ele>
        <time>2022-08-15T05:51:38Z</time>
      </trkpt>
      <trkpt lat="43.57175" lon="5.21538">
        <ele>157.02</ele>
        <time>2022-08-15T05:51:42Z</time>
      </trkpt>
      <trkpt lat="43.57253" lon="5.21456">
        <ele>155.27</ele>
        <time>2022-08-15T05:51:46Z</time>
      </trkpt>
      <trkpt lat="43.57513" lon="5.21256">
        <ele>153.28</ele>
        <time>2022-08-15T05:51:58Z</time>
      </trkpt>
      <trkpt lat="43.57534" lon="5.2124">
        <ele>153.22</ele>
        <time>2022-08-15T05:51:59Z</time>
      </trkpt>
      <trkpt lat="43.57643" lon="5.21163">
        <ele>150.36</ele>
        <time>2022-08-15T05:52:04Z</time>
      </trkpt>
      <trkpt lat="43.5775" lon="5.21086">
        <ele>147.17</ele>
        <time>2022-08-15T05:52:09Z</time>
      </trkpt>
      <trkpt lat="43.57771" lon="5.21071">
        <ele>147.13</ele>
        <time>2022-08-15T05:52:10Z</time>
      </trkpt>
      <trkpt lat="43.57856" lon="5.2101">
        <ele>143.94</ele>
        <time>2022-08-15T05:52:14Z</time>
      </trkpt>
      <trkpt lat="43.57898" lon="5.20979">
        <ele>143.03</ele>
        <time>2022-08-15T05:52:16Z</time>
      </trkpt>
      <trkpt lat="43.57984" lon="5.20918">
        <ele>141.38</ele>
        <time>2022-08-15T05:52:20Z</time>
      </trkpt>
      <trkpt lat="43.58069" lon="5.20857">
        <ele>138.83</ele>
        <time>2022-08-15T05:52:24Z</time>
      </trkpt>
      <trkpt lat="43.58233" lon="5.20723">
        <ele>135.44</ele>
        <time>2022-08-15T05:52:32Z</time>
      </trkpt>
      <trkpt lat="43.58417" lon="5.20524">
        <ele>131.43</ele>
        <time>2022-08-15T05:52:42Z</time>
      </trkpt>
      <trkpt lat="43.58435" lon="5.20503">
        <ele>131.38</ele>
        <time>2022-08-15T05:52:43Z</time>
      </trkpt>
      <trkpt lat="43.58501" lon="5.20413">
        <ele>129.16</ele>
        <time>2022-08-15T05:52:47Z</time>
      </trkpt>
      <trkpt lat="43.58563" lon="5.2032">
        <ele>126.64</ele>
        <time>2022-08-15T05:52:51Z</time>
      </trkpt>
      <trkpt lat="43.58649" lon="5.20168">
        <ele>123.04</ele>
        <time>2022-08-15T05:52:57Z</time>
      </trkpt>
      <trkpt lat="43.58676" lon="5.20115">
        <ele>122.27</ele>
        <time>2022-08-15T05:52:59Z</time>
      </trkpt>
      <trkpt lat="43.58759" lon="5.19919">
        <ele>119.09</ele>
        <time>2022-08-15T05:53:06Z</time>
      </trkpt>
      <trkpt lat="43.5878" lon="5.19861">
        <ele>118.2</ele>
        <time>2022-08-15T05:53:08Z</time>
      </trkpt>
      <trkpt lat="43.5881" lon="5.19773">
        <ele>116.9</ele>
        <time>2022-08-15T05:53:11Z</time>
      </trkpt>
      <trkpt lat="43.58837" lon="5.19683">
        <ele>115.52</ele>
        <time>2022-08-15T05:53:14Z</time>
      </trkpt>
      <trkpt lat="43.58884" lon="5.19501">
        <ele>113.33</ele>
        <time>2022-08-15T05:53:20Z</time>
      </trkpt>
      <trkpt lat="43.58929" lon="5.19288">
        <ele>110.23</ele>
        <time>2022-08-15T05:53:27Z</time>
      </trkpt>
      <trkpt lat="43.58941" lon="5.19227">
        <ele>109.04</ele>
        <time>2022-08-15T05:53:29Z</time>
      </trkpt>
      <trkpt lat="43.5901" lon="5.18866">
        <ele>105.41</ele>
        <time>2022-08-15T05:53:41Z</time>
      </trkpt>
      <trkpt lat="43.59119" lon="5.18345">
        <ele>102.14</ele>
        <time>2022-08-15T05:53:59Z</time>
      </trkpt>
      <trkpt lat="43.59126" lon="5.18316">
        <ele>102.11</ele>
        <time>2022-08-15T05:54:00Z</time>
      </trkpt>
      <trkpt lat="43.59244" lon="5.17928">
        <ele>98.93</ele>
        <time>2022-08-15T05:54:14Z</time>
      </trkpt>
      <trkpt lat="43.59256" lon="5.17905">
        <ele>98.94</ele>
        <time>2022-08-15T05:54:15Z</time>
      </trkpt>
      <trkpt lat="43.59336" lon="5.17746">
        <ele>96.46</ele>
        <time>2022-08-15T05:54:23Z</time>
      </trkpt>
      <trkpt lat="43.59343" lon="5.17733">
        <ele>96.38</ele>
        <time>2022-08-15T05:54:24Z</time>
      </trkpt>
      <trkpt lat="43.59361" lon="5.17687">
        <ele>95.57</ele>
        <time>2022-08-15T05:54:30Z</time>
      </trkpt>
      <trkpt lat="43.5936" lon="5.17692">
        <ele>95.59</ele>
        <time>2022-08-15T05:54:39Z</time>
      </trkpt>
      <trkpt lat="43.59357" lon="5.17691">
        <ele>94.79</ele>
        <time>2022-08-15T05:54:57Z</time>
      </trkpt>
      <trkpt lat="43.5936" lon="5.17683">
        <ele>94.79</ele>
        <time>2022-08-15T05:54:58Z</time>
      </trkpt>
      <trkpt lat="43.59385" lon="5.17606">
        <ele>94.79</ele>
        <time>2022-08-15T05:55:04Z</time>
      </trkpt>
      <trkpt lat="43.594" lon="5.17557">
        <ele>93.57</ele>
        <time>2022-08-15T05:55:11Z</time>
      </trkpt>
      <trkpt lat="43.59401" lon="5.17552">
        <ele>93.58</ele>
        <time>2022-08-15T05:55:27Z</time>
      </trkpt>
      <trkpt lat="43.59403" lon="5.17544">
        <ele>93.61</ele>
        <time>2022-08-15T05:55:28Z</time>
      </trkpt>
      <trkpt lat="43.59405" lon="5.17533">
        <ele>93.65</ele>
        <time>2022-08-15T05:55:29Z</time>
      </trkpt>
      <trkpt lat="43.59408" lon="5.17519">
        <ele>93.67</ele>
        <time>2022-08-15T05:55:30Z</time>
      </trkpt>
      <trkpt lat="43.59412" lon="5.17501">
        <ele>93.72</ele>
        <time>2022-08-15T05:55:31Z</time>
      </trkpt>
      <trkpt lat="43.59425" lon="5.17455">
        <ele>97.42</ele>
        <time>2022-08-15T05:55:33Z</time>
      </trkpt>
      <trkpt lat="43.59432" lon="5.17428">
        <ele>97.42</ele>
        <time>2022-08-15T05:55:34Z</time>
      </trkpt>
      <trkpt lat="43.59491" lon="5.17185">
        <ele>97.49</ele>
        <time>2022-08-15T05:55:43Z</time>
      </trkpt>
      <trkpt lat="43.59534" lon="5.1694">
        <ele>94.62</ele>
        <time>2022-08-15T05:55:51Z</time>
      </trkpt>
      <trkpt lat="43.5955" lon="5.16849">
        <ele>92.99</ele>
        <time>2022-08-15T05:55:54Z</time>
      </trkpt>
      <trkpt lat="43.59646" lon="5.16492">
        <ele>89.96</ele>
        <time>2022-08-15T05:56:06Z</time>
      </trkpt>
      <trkpt lat="43.59717" lon="5.16281">
        <ele>88.34</ele>
        <time>2022-08-15T05:56:13Z</time>
      </trkpt>
      <trkpt lat="43.59773" lon="5.1613">
        <ele>86.53</ele>
        <time>2022-08-15T05:56:18Z</time>
      </trkpt>
      <trkpt lat="43.59845" lon="5.15961">
        <ele>84.82</ele>
        <time>2022-08-15T05:56:24Z</time>
      </trkpt>
      <trkpt lat="43.6003" lon="5.15633">
        <ele>82.82</ele>
        <time>2022-08-15T05:56:37Z</time>
      </trkpt>
      <trkpt lat="43.60238" lon="5.15367">
        <ele>81.22</ele>
        <time>2022-08-15T05:56:49Z</time>
      </trkpt>
      <trkpt lat="43.60534" lon="5.15087">
        <ele>80.26</ele>
        <time>2022-08-15T05:57:04Z</time>
      </trkpt>
      <trkpt lat="43.61" lon="5.14705">
        <ele>78.54</ele>
        <time>2022-08-15T05:57:27Z</time>
      </trkpt>
      <trkpt lat="43.61352" lon="5.14362">
        <ele>78.46</ele>
        <time>2022-08-15T05:57:45Z</time>
      </trkpt>
      <trkpt lat="43.61742" lon="5.13932">
        <ele>77.6</ele>
        <time>2022-08-15T05:58:06Z</time>
      </trkpt>
      <trkpt lat="43.62245" lon="5.13376">
        <ele>76.59</ele>
        <time>2022-08-15T05:58:33Z</time>
      </trkpt>
      <trkpt lat="43.62624" lon="5.12958">
        <ele>76.55</ele>
        <time>2022-08-15T05:58:53Z</time>
      </trkpt>
      <trkpt lat="43.62661" lon="5.12917">
        <ele>79.84</ele>
        <time>2022-08-15T05:58:55Z</time>
      </trkpt>
      <trkpt lat="43.6268" lon="5.12896">
        <ele>79.85</ele>
        <time>2022-08-15T05:58:56Z</time>
      </trkpt>
      <trkpt lat="43.62844" lon="5.12714">
        <ele>82.18</ele>
        <time>2022-08-15T05:59:05Z</time>
      </trkpt>
      <trkpt lat="43.6308" lon="5.12453">
        <ele>86.22</ele>
        <time>2022-08-15T05:59:18Z</time>
      </trkpt>
      <trkpt lat="43.63135" lon="5.12392">
        <ele>88.49</ele>
        <time>2022-08-15T05:59:21Z</time>
      </trkpt>
      <trkpt lat="43.6319" lon="5.12331">
        <ele>91.74</ele>
        <time>2022-08-15T05:59:24Z</time>
      </trkpt>
      <trkpt lat="43.63209" lon="5.1231">
        <ele>91.74</ele>
        <time>2022-08-15T05:59:25Z</time>
      </trkpt>
      <trkpt lat="43.63246" lon="5.12269">
        <ele>93.14</ele>
        <time>2022-08-15T05:59:27Z</time>
      </trkpt>
      <trkpt lat="43.63283" lon="5.12228">
        <ele>94.54</ele>
        <time>2022-08-15T05:59:29Z</time>
      </trkpt>
      <trkpt lat="43.63339" lon="5.12167">
        <ele>98.3</ele>
        <time>2022-08-15T05:59:32Z</time>
      </trkpt>
      <trkpt lat="43.63358" lon="5.12146">
        <ele>98.22</ele>
        <time>2022-08-15T05:59:33Z</time>
      </trkpt>
      <trkpt lat="43.63432" lon="5.12065">
        <ele>101.32</ele>
        <time>2022-08-15T05:59:37Z</time>
      </trkpt>
      <trkpt lat="43.63451" lon="5.12045">
        <ele>101.36</ele>
        <time>2022-08-15T05:59:38Z</time>
      </trkpt>
      <trkpt lat="43.63489" lon="5.12006">
        <ele>103.11</ele>
        <time>2022-08-15T05:59:40Z</time>
      </trkpt>
      <trkpt lat="43.63564" lon="5.11928">
        <ele>106.53</ele>
        <time>2022-08-15T05:59:44Z</time>
      </trkpt>
      <trkpt lat="43.63583" lon="5.11909">
        <ele>106.57</ele>
        <time>2022-08-15T05:59:45Z</time>
      </trkpt>
      <trkpt lat="43.63622" lon="5.11872">
        <ele>108.19</ele>
        <time>2022-08-15T05:59:47Z</time>
      </trkpt>
      <trkpt lat="43.63721" lon="5.11782">
        <ele>112.34</ele>
        <time>2022-08-15T05:59:52Z</time>
      </trkpt>
      <trkpt lat="43.6374" lon="5.11765">
        <ele>112.34</ele>
        <time>2022-08-15T05:59:53Z</time>
      </trkpt>
      <trkpt lat="43.63857" lon="5.11672">
        <ele>116.41</ele>
        <time>2022-08-15T05:59:59Z</time>
      </trkpt>
      <trkpt lat="43.63876" lon="5.11658">
        <ele>116.49</ele>
        <time>2022-08-15T06:00:00Z</time>
      </trkpt>
      <trkpt lat="43.63934" lon="5.11616">
        <ele>119.61</ele>
        <time>2022-08-15T06:00:03Z</time>
      </trkpt>
      <trkpt lat="43.63954" lon="5.11603">
        <ele>119.53</ele>
        <time>2022-08-15T06:00:04Z</time>
      </trkpt>
      <trkpt lat="43.64013" lon="5.11564">
        <ele>122.32</ele>
        <time>2022-08-15T06:00:07Z</time>
      </trkpt>
      <trkpt lat="43.64074" lon="5.11525">
        <ele>124.73</ele>
        <time>2022-08-15T06:00:10Z</time>
      </trkpt>
      <trkpt lat="43.64136" lon="5.11487">
        <ele>128.24</ele>
        <time>2022-08-15T06:00:13Z</time>
      </trkpt>
      <trkpt lat="43.64178" lon="5.11462">
        <ele>129.85</ele>
        <time>2022-08-15T06:00:15Z</time>
      </trkpt>
      <trkpt lat="43.64261" lon="5.11415">
        <ele>131.75</ele>
        <time>2022-08-15T06:00:19Z</time>
      </trkpt>
      <trkpt lat="43.64323" lon="5.11379">
        <ele>133.33</ele>
        <time>2022-08-15T06:00:22Z</time>
      </trkpt>
      <trkpt lat="43.646" lon="5.11222">
        <ele>136.35</ele>
        <time>2022-08-15T06:00:35Z</time>
      </trkpt>
      <trkpt lat="43.64769" lon="5.11123">
        <ele>137.36</ele>
        <time>2022-08-15T06:00:43Z</time>
      </trkpt>
      <trkpt lat="43.6502" lon="5.10961">
        <ele>138.99</ele>
        <time>2022-08-15T06:00:55Z</time>
      </trkpt>
      <trkpt lat="43.65185" lon="5.1084">
        <ele>136.48</ele>
        <time>2022-08-15T06:01:03Z</time>
      </trkpt>
      <trkpt lat="43.65305" lon="5.10745">
        <ele>134.74</ele>
        <time>2022-08-15T06:01:09Z</time>
      </trkpt>
      <trkpt lat="43.65696" lon="5.10421">
        <ele>131.38</ele>
        <time>2022-08-15T06:01:29Z</time>
      </trkpt>
      <trkpt lat="43.65856" lon="5.10289">
        <ele>130.04</ele>
        <time>2022-08-15T06:01:37Z</time>
      </trkpt>
      <trkpt lat="43.66141" lon="5.10055">
        <ele>133.18</ele>
        <time>2022-08-15T06:01:52Z</time>
      </trkpt>
      <trkpt lat="43.66161" lon="5.10039">
        <ele>133.15</ele>
        <time>2022-08-15T06:01:53Z</time>
      </trkpt>
      <trkpt lat="43.66475" lon="5.09832">
        <ele>134</ele>
        <time>2022-08-15T06:02:08Z</time>
      </trkpt>
      <trkpt lat="43.66788" lon="5.09701">
        <ele>133.98</ele>
        <time>2022-08-15T06:02:22Z</time>
      </trkpt>
      <trkpt lat="43.67078" lon="5.09636">
        <ele>133.95</ele>
        <time>2022-08-15T06:02:35Z</time>
      </trkpt>
      <trkpt lat="43.67124" lon="5.09629">
        <ele>131.59</ele>
        <time>2022-08-15T06:02:37Z</time>
      </trkpt>
      <trkpt lat="43.67424" lon="5.09589">
        <ele>129.51</ele>
        <time>2022-08-15T06:02:50Z</time>
      </trkpt>
      <trkpt lat="43.67801" lon="5.09563">
        <ele>129.56</ele>
        <time>2022-08-15T06:03:07Z</time>
      </trkpt>
      <trkpt lat="43.68182" lon="5.09579">
        <ele>132</ele>
        <time>2022-08-15T06:03:24Z</time>
      </trkpt>
      <trkpt lat="43.6853" lon="5.096">
        <ele>132.72</ele>
        <time>2022-08-15T06:03:39Z</time>
      </trkpt>
      <trkpt lat="43.68822" lon="5.09625">
        <ele>130.23</ele>
        <time>2022-08-15T06:03:51Z</time>
      </trkpt>
      <trkpt lat="43.69287" lon="5.09713">
        <ele>128.39</ele>
        <time>2022-08-15T06:04:10Z</time>
      </trkpt>
      <trkpt lat="43.69701" lon="5.09819">
        <ele>125.34</ele>
        <time>2022-08-15T06:04:27Z</time>
      </trkpt>
      <trkpt lat="43.70066" lon="5.09892">
        <ele>125.3</ele>
        <time>2022-08-15T06:04:42Z</time>
      </trkpt>
      <trkpt lat="43.70335" lon="5.09873">
        <ele>125.35</ele>
        <time>2022-08-15T06:04:53Z</time>
      </trkpt>
      <trkpt lat="43.70512" lon="5.09815">
        <ele>128.37</ele>
        <time>2022-08-15T06:05:00Z</time>
      </trkpt>
      <trkpt lat="43.70537" lon="5.09804">
        <ele>128.36</ele>
        <time>2022-08-15T06:05:01Z</time>
      </trkpt>
      <trkpt lat="43.70588" lon="5.09782">
        <ele>125.39</ele>
        <time>2022-08-15T06:05:03Z</time>
      </trkpt>
      <trkpt lat="43.70638" lon="5.09759">
        <ele>123.73</ele>
        <time>2022-08-15T06:05:05Z</time>
      </trkpt>
      <trkpt lat="43.70687" lon="5.09732">
        <ele>122.17</ele>
        <time>2022-08-15T06:05:07Z</time>
      </trkpt>
      <trkpt lat="43.70782" lon="5.09674">
        <ele>118.49</ele>
        <time>2022-08-15T06:05:11Z</time>
      </trkpt>
      <trkpt lat="43.70805" lon="5.09659">
        <ele>118.46</ele>
        <time>2022-08-15T06:05:12Z</time>
      </trkpt>
      <trkpt lat="43.70897" lon="5.09597">
        <ele>115.54</ele>
        <time>2022-08-15T06:05:16Z</time>
      </trkpt>
      <trkpt lat="43.70965" lon="5.09551">
        <ele>112.37</ele>
        <time>2022-08-15T06:05:19Z</time>
      </trkpt>
      <trkpt lat="43.71011" lon="5.09521">
        <ele>111.6</ele>
        <time>2022-08-15T06:05:21Z</time>
      </trkpt>
      <trkpt lat="43.71149" lon="5.09433">
        <ele>108.42</ele>
        <time>2022-08-15T06:05:27Z</time>
      </trkpt>
      <trkpt lat="43.71172" lon="5.09419">
        <ele>108.29</ele>
        <time>2022-08-15T06:05:28Z</time>
      </trkpt>
      <trkpt lat="43.71384" lon="5.09304">
        <ele>104.61</ele>
        <time>2022-08-15T06:05:37Z</time>
      </trkpt>
      <trkpt lat="43.71805" lon="5.09128">
        <ele>103.73</ele>
        <time>2022-08-15T06:05:54Z</time>
      </trkpt>
      <trkpt lat="43.72219" lon="5.09022">
        <ele>103.76</ele>
        <time>2022-08-15T06:06:10Z</time>
      </trkpt>
      <trkpt lat="43.72662" lon="5.08974">
        <ele>103.85</ele>
        <time>2022-08-15T06:06:27Z</time>
      </trkpt>
      <trkpt lat="43.73261" lon="5.0896">
        <ele>103.72</ele>
        <time>2022-08-15T06:06:50Z</time>
      </trkpt>
      <trkpt lat="43.73711" lon="5.08895">
        <ele>102.9</ele>
        <time>2022-08-15T06:07:07Z</time>
      </trkpt>
      <trkpt lat="43.73816" lon="5.08867">
        <ele>105.58</ele>
        <time>2022-08-15T06:07:11Z</time>
      </trkpt>
      <trkpt lat="43.74246" lon="5.0873">
        <ele>106.39</ele>
        <time>2022-08-15T06:07:27Z</time>
      </trkpt>
      <trkpt lat="43.74569" lon="5.08625">
        <ele>104.05</ele>
        <time>2022-08-15T06:07:39Z</time>
      </trkpt>
      <trkpt lat="43.74904" lon="5.08514">
        <ele>99.8</ele>
        <time>2022-08-15T06:07:52Z</time>
      </trkpt>
      <trkpt lat="43.7493" lon="5.08505">
        <ele>99.83</ele>
        <time>2022-08-15T06:07:53Z</time>
      </trkpt>
      <trkpt lat="43.75411" lon="5.08301">
        <ele>96.89</ele>
        <time>2022-08-15T06:08:12Z</time>
      </trkpt>
      <trkpt lat="43.75775" lon="5.08078">
        <ele>95.33</ele>
        <time>2022-08-15T06:08:27Z</time>
      </trkpt>
      <trkpt lat="43.76121" lon="5.07802">
        <ele>93.34</ele>
        <time>2022-08-15T06:08:43Z</time>
      </trkpt>
      <trkpt lat="43.76538" lon="5.07407">
        <ele>92.62</ele>
        <time>2022-08-15T06:09:03Z</time>
      </trkpt>
      <trkpt lat="43.7693" lon="5.06989">
        <ele>92.65</ele>
        <time>2022-08-15T06:09:22Z</time>
      </trkpt>
      <trkpt lat="43.77322" lon="5.06523">
        <ele>90.79</ele>
        <time>2022-08-15T06:09:42Z</time>
      </trkpt>
      <trkpt lat="43.77696" lon="5.06025">
        <ele>88.79</ele>
        <time>2022-08-15T06:10:02Z</time>
      </trkpt>
      <trkpt lat="43.78078" lon="5.05491">
        <ele>87.78</ele>
        <time>2022-08-15T06:10:23Z</time>
      </trkpt>
      <trkpt lat="43.78328" lon="5.05166">
        <ele>87.82</ele>
        <time>2022-08-15T06:10:36Z</time>
      </trkpt>
      <trkpt lat="43.78531" lon="5.04937">
        <ele>90.29</ele>
        <time>2022-08-15T06:10:46Z</time>
      </trkpt>
      <trkpt lat="43.78593" lon="5.04873">
        <ele>92.13</ele>
        <time>2022-08-15T06:10:49Z</time>
      </trkpt>
      <trkpt lat="43.78904" lon="5.04569">
        <ele>95.31</ele>
        <time>2022-08-15T06:11:04Z</time>
      </trkpt>
      <trkpt lat="43.79188" lon="5.04303">
        <ele>91.55</ele>
        <time>2022-08-15T06:11:17Z</time>
      </trkpt>
      <trkpt lat="43.7921" lon="5.04284">
        <ele>91.54</ele>
        <time>2022-08-15T06:11:18Z</time>
      </trkpt>
      <trkpt lat="43.79344" lon="5.04182">
        <ele>89.25</ele>
        <time>2022-08-15T06:11:24Z</time>
      </trkpt>
      <trkpt lat="43.79553" lon="5.04074">
        <ele>86.05</ele>
        <time>2022-08-15T06:11:33Z</time>
      </trkpt>
      <trkpt lat="43.79577" lon="5.04065">
        <ele>86.06</ele>
        <time>2022-08-15T06:11:34Z</time>
      </trkpt>
      <trkpt lat="43.79722" lon="5.04023">
        <ele>83.56</ele>
        <time>2022-08-15T06:11:40Z</time>
      </trkpt>
      <trkpt lat="43.7999" lon="5.04">
        <ele>81.64</ele>
        <time>2022-08-15T06:11:51Z</time>
      </trkpt>
      <trkpt lat="43.80295" lon="5.04">
        <ele>80.04</ele>
        <time>2022-08-15T06:12:04Z</time>
      </trkpt>
      <trkpt lat="43.80424" lon="5.03984">
        <ele>82.39</ele>
        <time>2022-08-15T06:12:09Z</time>
      </trkpt>
      <trkpt lat="43.80478" lon="5.03975">
        <ele>85.86</ele>
        <time>2022-08-15T06:12:11Z</time>
      </trkpt>
      <trkpt lat="43.80505" lon="5.03969">
        <ele>85.96</ele>
        <time>2022-08-15T06:12:12Z</time>
      </trkpt>
      <trkpt lat="43.80613" lon="5.03942">
        <ele>83.02</ele>
        <time>2022-08-15T06:12:16Z</time>
      </trkpt>
      <trkpt lat="43.80896" lon="5.03831">
        <ele>81.89</ele>
        <time>2022-08-15T06:12:27Z</time>
      </trkpt>
      <trkpt lat="43.81166" lon="5.03668">
        <ele>80.52</ele>
        <time>2022-08-15T06:12:38Z</time>
      </trkpt>
      <trkpt lat="43.81534" lon="5.0339">
        <ele>78.81</ele>
        <time>2022-08-15T06:12:54Z</time>
      </trkpt>
      <trkpt lat="43.82062" lon="5.02949">
        <ele>77.89</ele>
        <time>2022-08-15T06:13:18Z</time>
      </trkpt>
      <trkpt lat="43.82407" lon="5.02645">
        <ele>76.77</ele>
        <time>2022-08-15T06:13:34Z</time>
      </trkpt>
      <trkpt lat="43.82627" lon="5.02389">
        <ele>75.99</ele>
        <time>2022-08-15T06:13:45Z</time>
      </trkpt>
      <trkpt lat="43.82814" lon="5.02082">
        <ele>74.8</ele>
        <time>2022-08-15T06:13:56Z</time>
      </trkpt>
      <trkpt lat="43.82958" lon="5.01736">
        <ele>73.95</ele>
        <time>2022-08-15T06:14:07Z</time>
      </trkpt>
      <trkpt lat="43.83082" lon="5.01294">
        <ele>72.1</ele>
        <time>2022-08-15T06:14:20Z</time>
      </trkpt>
      <trkpt lat="43.83243" lon="5.00792">
        <ele>70.94</ele>
        <time>2022-08-15T06:14:35Z</time>
      </trkpt>
      <trkpt lat="43.8344" lon="5.00358">
        <ele>70</ele>
        <time>2022-08-15T06:14:49Z</time>
      </trkpt>
      <trkpt lat="43.83687" lon="4.99938">
        <ele>68.41</ele>
        <time>2022-08-15T06:15:04Z</time>
      </trkpt>
      <trkpt lat="43.83982" lon="4.99551">
        <ele>66.42</ele>
        <time>2022-08-15T06:15:20Z</time>
      </trkpt>
      <trkpt lat="43.84247" lon="4.99288">
        <ele>65.59</ele>
        <time>2022-08-15T06:15:33Z</time>
      </trkpt>
      <trkpt lat="43.84514" lon="4.99106">
        <ele>64.93</ele>
        <time>2022-08-15T06:15:45Z</time>
      </trkpt>
      <trkpt lat="43.84951" lon="4.98853">
        <ele>64.18</ele>
        <time>2022-08-15T06:16:04Z</time>
      </trkpt>
      <trkpt lat="43.85165" lon="4.98664">
        <ele>64.2</ele>
        <time>2022-08-15T06:16:14Z</time>
      </trkpt>
      <trkpt lat="43.85382" lon="4.98394">
        <ele>64.18</ele>
        <time>2022-08-15T06:16:25Z</time>
      </trkpt>
      <trkpt lat="43.85691" lon="4.97953">
        <ele>60.29</ele>
        <time>2022-08-15T06:16:42Z</time>
      </trkpt>
      <trkpt lat="43.85962" lon="4.97646">
        <ele>60.21</ele>
        <time>2022-08-15T06:16:56Z</time>
      </trkpt>
      <trkpt lat="43.86086" lon="4.9753">
        <ele>59.05</ele>
        <time>2022-08-15T06:17:02Z</time>
      </trkpt>
      <trkpt lat="43.86455" lon="4.97157">
        <ele>59.09</ele>
        <time>2022-08-15T06:17:20Z</time>
      </trkpt>
      <trkpt lat="43.86651" lon="4.96867">
        <ele>59.12</ele>
        <time>2022-08-15T06:17:31Z</time>
      </trkpt>
      <trkpt lat="43.86816" lon="4.96525">
        <ele>57.5</ele>
        <time>2022-08-15T06:17:42Z</time>
      </trkpt>
      <trkpt lat="43.8712" lon="4.95769">
        <ele>54.56</ele>
        <time>2022-08-15T06:18:05Z</time>
      </trkpt>
      <trkpt lat="43.87375" lon="4.95127">
        <ele>53.76</ele>
        <time>2022-08-15T06:18:25Z</time>
      </trkpt>
      <trkpt lat="43.87552" lon="4.94601">
        <ele>52.79</ele>
        <time>2022-08-15T06:18:41Z</time>
      </trkpt>
      <trkpt lat="43.87681" lon="4.94096">
        <ele>52.8</ele>
        <time>2022-08-15T06:18:56Z</time>
      </trkpt>
      <trkpt lat="43.87774" lon="4.9357">
        <ele>50.53</ele>
        <time>2022-08-15T06:19:11Z</time>
      </trkpt>
      <trkpt lat="43.87869" lon="4.93081">
        <ele>49.27</ele>
        <time>2022-08-15T06:19:25Z</time>
      </trkpt>
      <trkpt lat="43.87879" lon="4.93049">
        <ele>49.27</ele>
        <time>2022-08-15T06:19:26Z</time>
      </trkpt>
      <trkpt lat="43.87984" lon="4.92814">
        <ele>49.29</ele>
        <time>2022-08-15T06:19:34Z</time>
      </trkpt>
      <trkpt lat="43.88141" lon="4.92599">
        <ele>49.35</ele>
        <time>2022-08-15T06:19:43Z</time>
      </trkpt>
      <trkpt lat="43.88246" lon="4.92502">
        <ele>52.66</ele>
        <time>2022-08-15T06:19:48Z</time>
      </trkpt>
      <trkpt lat="43.88268" lon="4.92485">
        <ele>52.67</ele>
        <time>2022-08-15T06:19:49Z</time>
      </trkpt>
      <trkpt lat="43.88485" lon="4.92362">
        <ele>53.46</ele>
        <time>2022-08-15T06:19:58Z</time>
      </trkpt>
      <trkpt lat="43.888" lon="4.92244">
        <ele>53.45</ele>
        <time>2022-08-15T06:20:11Z</time>
      </trkpt>
      <trkpt lat="43.89001" lon="4.92191">
        <ele>55.14</ele>
        <time>2022-08-15T06:20:19Z</time>
      </trkpt>
      <trkpt lat="43.89052" lon="4.92178">
        <ele>56.59</ele>
        <time>2022-08-15T06:20:21Z</time>
      </trkpt>
      <trkpt lat="43.89128" lon="4.92154">
        <ele>53.58</ele>
        <time>2022-08-15T06:20:24Z</time>
      </trkpt>
      <trkpt lat="43.89154" lon="4.92146">
        <ele>53.58</ele>
        <time>2022-08-15T06:20:25Z</time>
      </trkpt>
      <trkpt lat="43.89351" lon="4.92035">
        <ele>53.52</ele>
        <time>2022-08-15T06:20:33Z</time>
      </trkpt>
      <trkpt lat="43.89418" lon="4.91975">
        <ele>51.25</ele>
        <time>2022-08-15T06:20:36Z</time>
      </trkpt>
      <trkpt lat="43.89521" lon="4.91859">
        <ele>49.12</ele>
        <time>2022-08-15T06:20:41Z</time>
      </trkpt>
      <trkpt lat="43.89648" lon="4.91677">
        <ele>45.74</ele>
        <time>2022-08-15T06:20:48Z</time>
      </trkpt>
      <trkpt lat="43.89666" lon="4.91651">
        <ele>45.69</ele>
        <time>2022-08-15T06:20:49Z</time>
      </trkpt>
      <trkpt lat="43.89738" lon="4.91549">
        <ele>44.35</ele>
        <time>2022-08-15T06:20:53Z</time>
      </trkpt>
      <trkpt lat="43.89903" lon="4.91381">
        <ele>44.77</ele>
        <time>2022-08-15T06:21:01Z</time>
      </trkpt>
      <trkpt lat="43.89925" lon="4.91363">
        <ele>47.94</ele>
        <time>2022-08-15T06:21:02Z</time>
      </trkpt>
      <trkpt lat="43.89948" lon="4.91347">
        <ele>47.94</ele>
        <time>2022-08-15T06:21:03Z</time>
      </trkpt>
      <trkpt lat="43.90041" lon="4.9129">
        <ele>49.44</ele>
        <time>2022-08-15T06:21:07Z</time>
      </trkpt>
      <trkpt lat="43.90237" lon="4.91225">
        <ele>50.43</ele>
        <time>2022-08-15T06:21:15Z</time>
      </trkpt>
      <trkpt lat="43.90312" lon="4.91215">
        <ele>52.39</ele>
        <time>2022-08-15T06:21:18Z</time>
      </trkpt>
      <trkpt lat="43.90518" lon="4.91241">
        <ele>52.31</ele>
        <time>2022-08-15T06:21:26Z</time>
      </trkpt>
      <trkpt lat="43.90746" lon="4.91299">
        <ele>50.02</ele>
        <time>2022-08-15T06:21:35Z</time>
      </trkpt>
      <trkpt lat="43.90861" lon="4.91329">
        <ele>47.67</ele>
        <time>2022-08-15T06:21:40Z</time>
      </trkpt>
      <trkpt lat="43.90904" lon="4.9134">
        <ele>46.47</ele>
        <time>2022-08-15T06:21:42Z</time>
      </trkpt>
      <trkpt lat="43.91245" lon="4.91424">
        <ele>49.01</ele>
        <time>2022-08-15T06:21:57Z</time>
      </trkpt>
      <trkpt lat="43.91269" lon="4.9143">
        <ele>49.03</ele>
        <time>2022-08-15T06:21:58Z</time>
      </trkpt>
      <trkpt lat="43.91414" lon="4.91463">
        <ele>51.08</ele>
        <time>2022-08-15T06:22:04Z</time>
      </trkpt>
      <trkpt lat="43.91536" lon="4.91468">
        <ele>54.49</ele>
        <time>2022-08-15T06:22:09Z</time>
      </trkpt>
      <trkpt lat="43.9156" lon="4.91466">
        <ele>54.49</ele>
        <time>2022-08-15T06:22:10Z</time>
      </trkpt>
      <trkpt lat="43.91608" lon="4.91461">
        <ele>57.82</ele>
        <time>2022-08-15T06:22:12Z</time>
      </trkpt>
      <trkpt lat="43.91632" lon="4.91458">
        <ele>57.82</ele>
        <time>2022-08-15T06:22:13Z</time>
      </trkpt>
      <trkpt lat="43.91752" lon="4.91444">
        <ele>61.11</ele>
        <time>2022-08-15T06:22:18Z</time>
      </trkpt>
      <trkpt lat="43.91777" lon="4.91441">
        <ele>60.93</ele>
        <time>2022-08-15T06:22:19Z</time>
      </trkpt>
      <trkpt lat="43.91827" lon="4.91436">
        <ele>63.17</ele>
        <time>2022-08-15T06:22:21Z</time>
      </trkpt>
      <trkpt lat="43.91903" lon="4.91426">
        <ele>64.54</ele>
        <time>2022-08-15T06:22:24Z</time>
      </trkpt>
      <trkpt lat="43.92078" lon="4.91403">
        <ele>67.54</ele>
        <time>2022-08-15T06:22:31Z</time>
      </trkpt>
      <trkpt lat="43.92351" lon="4.91373">
        <ele>64.78</ele>
        <time>2022-08-15T06:22:42Z</time>
      </trkpt>
      <trkpt lat="43.92426" lon="4.91364">
        <ele>63.24</ele>
        <time>2022-08-15T06:22:45Z</time>
      </trkpt>
      <trkpt lat="43.92501" lon="4.91355">
        <ele>60.87</ele>
        <time>2022-08-15T06:22:48Z</time>
      </trkpt>
      <trkpt lat="43.92578" lon="4.91345">
        <ele>59.13</ele>
        <time>2022-08-15T06:22:51Z</time>
      </trkpt>
      <trkpt lat="43.92705" lon="4.91331">
        <ele>55.97</ele>
        <time>2022-08-15T06:22:56Z</time>
      </trkpt>
      <trkpt lat="43.9273" lon="4.91327">
        <ele>55.89</ele>
        <time>2022-08-15T06:22:57Z</time>
      </trkpt>
      <trkpt lat="43.92806" lon="4.91318">
        <ele>53.75</ele>
        <time>2022-08-15T06:23:00Z</time>
      </trkpt>
      <trkpt lat="43.92957" lon="4.913">
        <ele>50.88</ele>
        <time>2022-08-15T06:23:06Z</time>
      </trkpt>
      <trkpt lat="43.93058" lon="4.91289">
        <ele>49.62</ele>
        <time>2022-08-15T06:23:10Z</time>
      </trkpt>
      <trkpt lat="43.93237" lon="4.91268">
        <ele>47.15</ele>
        <time>2022-08-15T06:23:17Z</time>
      </trkpt>
      <trkpt lat="43.93685" lon="4.91211">
        <ele>49.15</ele>
        <time>2022-08-15T06:23:34Z</time>
      </trkpt>
      <trkpt lat="43.93713" lon="4.91208">
        <ele>49.16</ele>
        <time>2022-08-15T06:23:35Z</time>
      </trkpt>
      <trkpt lat="43.9403" lon="4.91176">
        <ele>50.09</ele>
        <time>2022-08-15T06:23:47Z</time>
      </trkpt>
      <trkpt lat="43.94313" lon="4.91146">
        <ele>53.57</ele>
        <time>2022-08-15T06:23:58Z</time>
      </trkpt>
      <trkpt lat="43.94339" lon="4.91144">
        <ele>53.58</ele>
        <time>2022-08-15T06:23:59Z</time>
      </trkpt>
      <trkpt lat="43.94567" lon="4.91121">
        <ele>57.3</ele>
        <time>2022-08-15T06:24:08Z</time>
      </trkpt>
      <trkpt lat="43.94593" lon="4.91118">
        <ele>57.3</ele>
        <time>2022-08-15T06:24:09Z</time>
      </trkpt>
      <trkpt lat="43.94816" lon="4.91054">
        <ele>58.01</ele>
        <time>2022-08-15T06:24:18Z</time>
      </trkpt>
      <trkpt lat="43.95081" lon="4.90889">
        <ele>58.01</ele>
        <time>2022-08-15T06:24:29Z</time>
      </trkpt>
      <trkpt lat="43.95176" lon="4.90825">
        <ele>55.37</ele>
        <time>2022-08-15T06:24:33Z</time>
      </trkpt>
      <trkpt lat="43.95225" lon="4.90794">
        <ele>53.97</ele>
        <time>2022-08-15T06:24:35Z</time>
      </trkpt>
      <trkpt lat="43.95592" lon="4.90554">
        <ele>49.86</ele>
        <time>2022-08-15T06:24:50Z</time>
      </trkpt>
      <trkpt lat="43.95617" lon="4.90538">
        <ele>49.88</ele>
        <time>2022-08-15T06:24:51Z</time>
      </trkpt>
      <trkpt lat="43.95739" lon="4.90459">
        <ele>48.65</ele>
        <time>2022-08-15T06:24:56Z</time>
      </trkpt>
      <trkpt lat="43.96007" lon="4.90284">
        <ele>45.65</ele>
        <time>2022-08-15T06:25:07Z</time>
      </trkpt>
      <trkpt lat="43.96546" lon="4.89932">
        <ele>45.16</ele>
        <time>2022-08-15T06:25:30Z</time>
      </trkpt>
      <trkpt lat="43.96874" lon="4.89752">
        <ele>44.15</ele>
        <time>2022-08-15T06:25:44Z</time>
      </trkpt>
      <trkpt lat="43.97047" lon="4.89685">
        <ele>41</ele>
        <time>2022-08-15T06:25:51Z</time>
      </trkpt>
      <trkpt lat="43.97418" lon="4.89543">
        <ele>42.95</ele>
        <time>2022-08-15T06:26:06Z</time>
      </trkpt>
      <trkpt lat="43.97825" lon="4.89386">
        <ele>40.59</ele>
        <time>2022-08-15T06:26:22Z</time>
      </trkpt>
      <trkpt lat="43.97852" lon="4.89376">
        <ele>40.59</ele>
        <time>2022-08-15T06:26:23Z</time>
      </trkpt>
      <trkpt lat="43.97931" lon="4.89344">
        <ele>38.98</ele>
        <time>2022-08-15T06:26:26Z</time>
      </trkpt>
      <trkpt lat="43.98219" lon="4.89232">
        <ele>35.95</ele>
        <time>2022-08-15T06:26:37Z</time>
      </trkpt>
      <trkpt lat="43.98648" lon="4.8906">
        <ele>35.12</ele>
        <time>2022-08-15T06:26:54Z</time>
      </trkpt>
      <trkpt lat="43.99201" lon="4.88835">
        <ele>32.34</ele>
        <time>2022-08-15T06:27:16Z</time>
      </trkpt>
      <trkpt lat="43.99352" lon="4.88774">
        <ele>35.01</ele>
        <time>2022-08-15T06:27:22Z</time>
      </trkpt>
      <trkpt lat="43.99583" lon="4.88725">
        <ele>35</ele>
        <time>2022-08-15T06:27:31Z</time>
      </trkpt>
      <trkpt lat="43.9982" lon="4.88757">
        <ele>34.93</ele>
        <time>2022-08-15T06:27:40Z</time>
      </trkpt>
      <trkpt lat="44.00341" lon="4.88877">
        <ele>36.35</ele>
        <time>2022-08-15T06:28:00Z</time>
      </trkpt>
      <trkpt lat="44.00467" lon="4.88905">
        <ele>38.09</ele>
        <time>2022-08-15T06:28:05Z</time>
      </trkpt>
      <trkpt lat="44.00516" lon="4.88917">
        <ele>39.65</ele>
        <time>2022-08-15T06:28:07Z</time>
      </trkpt>
      <trkpt lat="44.00661" lon="4.8895">
        <ele>43.26</ele>
        <time>2022-08-15T06:28:13Z</time>
      </trkpt>
      <trkpt lat="44.00685" lon="4.88956">
        <ele>43.3</ele>
        <time>2022-08-15T06:28:14Z</time>
      </trkpt>
      <trkpt lat="44.0078" lon="4.88979">
        <ele>45.76</ele>
        <time>2022-08-15T06:28:18Z</time>
      </trkpt>
      <trkpt lat="44.0097" lon="4.89022">
        <ele>48.03</ele>
        <time>2022-08-15T06:28:26Z</time>
      </trkpt>
      <trkpt lat="44.01292" lon="4.89065">
        <ele>47.88</ele>
        <time>2022-08-15T06:28:39Z</time>
      </trkpt>
      <trkpt lat="44.01597" lon="4.89013">
        <ele>47.76</ele>
        <time>2022-08-15T06:28:51Z</time>
      </trkpt>
      <trkpt lat="44.01724" lon="4.88989">
        <ele>45.33</ele>
        <time>2022-08-15T06:28:56Z</time>
      </trkpt>
      <trkpt lat="44.02281" lon="4.8888">
        <ele>45.45</ele>
        <time>2022-08-15T06:29:18Z</time>
      </trkpt>
      <trkpt lat="44.02764" lon="4.88782">
        <ele>45.48</ele>
        <time>2022-08-15T06:29:37Z</time>
      </trkpt>
      <trkpt lat="44.02892" lon="4.88737">
        <ele>48.47</ele>
        <time>2022-08-15T06:29:42Z</time>
      </trkpt>
      <trkpt lat="44.02969" lon="4.88701">
        <ele>45.24</ele>
        <time>2022-08-15T06:29:45Z</time>
      </trkpt>
      <trkpt lat="44.02995" lon="4.88689">
        <ele>45.16</ele>
        <time>2022-08-15T06:29:46Z</time>
      </trkpt>
      <trkpt lat="44.03047" lon="4.88665">
        <ele>42.76</ele>
        <time>2022-08-15T06:29:48Z</time>
      </trkpt>
      <trkpt lat="44.03126" lon="4.88628">
        <ele>40.06</ele>
        <time>2022-08-15T06:29:51Z</time>
      </trkpt>
      <trkpt lat="44.03178" lon="4.88603">
        <ele>38.1</ele>
        <time>2022-08-15T06:29:53Z</time>
      </trkpt>
      <trkpt lat="44.03258" lon="4.88566">
        <ele>35.03</ele>
        <time>2022-08-15T06:29:56Z</time>
      </trkpt>
      <trkpt lat="44.03311" lon="4.88541">
        <ele>33.99</ele>
        <time>2022-08-15T06:29:58Z</time>
      </trkpt>
      <trkpt lat="44.0339" lon="4.88503">
        <ele>31.77</ele>
        <time>2022-08-15T06:30:01Z</time>
      </trkpt>
      <trkpt lat="44.03652" lon="4.88418">
        <ele>31.02</ele>
        <time>2022-08-15T06:30:11Z</time>
      </trkpt>
      <trkpt lat="44.0386" lon="4.88425">
        <ele>31.05</ele>
        <time>2022-08-15T06:30:19Z</time>
      </trkpt>
      <trkpt lat="44.0406" lon="4.885">
        <ele>31.05</ele>
        <time>2022-08-15T06:30:27Z</time>
      </trkpt>
      <trkpt lat="44.04229" lon="4.88598">
        <ele>33.72</ele>
        <time>2022-08-15T06:30:34Z</time>
      </trkpt>
      <trkpt lat="44.04301" lon="4.8864">
        <ele>37.3</ele>
        <time>2022-08-15T06:30:37Z</time>
      </trkpt>
      <trkpt lat="44.04372" lon="4.88682">
        <ele>39.01</ele>
        <time>2022-08-15T06:30:40Z</time>
      </trkpt>
      <trkpt lat="44.0442" lon="4.88708">
        <ele>40.66</ele>
        <time>2022-08-15T06:30:42Z</time>
      </trkpt>
      <trkpt lat="44.04469" lon="4.88733">
        <ele>41.88</ele>
        <time>2022-08-15T06:30:44Z</time>
      </trkpt>
      <trkpt lat="44.04518" lon="4.88755">
        <ele>43.5</ele>
        <time>2022-08-15T06:30:46Z</time>
      </trkpt>
      <trkpt lat="44.04778" lon="4.88829">
        <ele>44.46</ele>
        <time>2022-08-15T06:30:56Z</time>
      </trkpt>
      <trkpt lat="44.04861" lon="4.88838">
        <ele>46.35</ele>
        <time>2022-08-15T06:30:59Z</time>
      </trkpt>
      <trkpt lat="44.05168" lon="4.88828">
        <ele>45.97</ele>
        <time>2022-08-15T06:31:10Z</time>
      </trkpt>
      <trkpt lat="44.05391" lon="4.88815">
        <ele>43.54</ele>
        <time>2022-08-15T06:31:18Z</time>
      </trkpt>
      <trkpt lat="44.05527" lon="4.88807">
        <ele>42.14</ele>
        <time>2022-08-15T06:31:23Z</time>
      </trkpt>
      <trkpt lat="44.05798" lon="4.88789">
        <ele>39.24</ele>
        <time>2022-08-15T06:31:33Z</time>
      </trkpt>
      <trkpt lat="44.06158" lon="4.88759">
        <ele>43.01</ele>
        <time>2022-08-15T06:31:46Z</time>
      </trkpt>
      <trkpt lat="44.06186" lon="4.88754">
        <ele>43.01</ele>
        <time>2022-08-15T06:31:47Z</time>
      </trkpt>
      <trkpt lat="44.06434" lon="4.88677">
        <ele>42.94</ele>
        <time>2022-08-15T06:31:56Z</time>
      </trkpt>
      <trkpt lat="44.0659" lon="4.88595">
        <ele>40.17</ele>
        <time>2022-08-15T06:32:02Z</time>
      </trkpt>
      <trkpt lat="44.0698" lon="4.88409">
        <ele>39.24</ele>
        <time>2022-08-15T06:32:17Z</time>
      </trkpt>
      <trkpt lat="44.07582" lon="4.88187">
        <ele>38.54</ele>
        <time>2022-08-15T06:32:40Z</time>
      </trkpt>
      <trkpt lat="44.07716" lon="4.88138">
        <ele>41.06</ele>
        <time>2022-08-15T06:32:45Z</time>
      </trkpt>
      <trkpt lat="44.07851" lon="4.88088">
        <ele>42.32</ele>
        <time>2022-08-15T06:32:50Z</time>
      </trkpt>
      <trkpt lat="44.08419" lon="4.8789">
        <ele>42.25</ele>
        <time>2022-08-15T06:33:11Z</time>
      </trkpt>
      <trkpt lat="44.08927" lon="4.87702">
        <ele>42.23</ele>
        <time>2022-08-15T06:33:30Z</time>
      </trkpt>
      <trkpt lat="44.09194" lon="4.87516">
        <ele>44.96</ele>
        <time>2022-08-15T06:33:41Z</time>
      </trkpt>
      <trkpt lat="44.09262" lon="4.87458">
        <ele>46.76</ele>
        <time>2022-08-15T06:33:44Z</time>
      </trkpt>
      <trkpt lat="44.09351" lon="4.87379">
        <ele>49.52</ele>
        <time>2022-08-15T06:33:48Z</time>
      </trkpt>
      <trkpt lat="44.09416" lon="4.87319">
        <ele>52.08</ele>
        <time>2022-08-15T06:33:51Z</time>
      </trkpt>
      <trkpt lat="44.0946" lon="4.87278">
        <ele>53.49</ele>
        <time>2022-08-15T06:33:53Z</time>
      </trkpt>
      <trkpt lat="44.09524" lon="4.87215">
        <ele>55.4</ele>
        <time>2022-08-15T06:33:56Z</time>
      </trkpt>
      <trkpt lat="44.09791" lon="4.86908">
        <ele>58.19</ele>
        <time>2022-08-15T06:34:09Z</time>
      </trkpt>
      <trkpt lat="44.10001" lon="4.86566">
        <ele>58.95</ele>
        <time>2022-08-15T06:34:21Z</time>
      </trkpt>
      <trkpt lat="44.10385" lon="4.8595">
        <ele>60.36</ele>
        <time>2022-08-15T06:34:43Z</time>
      </trkpt>
      <trkpt lat="44.10747" lon="4.85368">
        <ele>63.55</ele>
        <time>2022-08-15T06:35:04Z</time>
      </trkpt>
      <trkpt lat="44.10887" lon="4.8502">
        <ele>65.4</ele>
        <time>2022-08-15T06:35:15Z</time>
      </trkpt>
      <trkpt lat="44.10967" lon="4.84672">
        <ele>66.2</ele>
        <time>2022-08-15T06:35:25Z</time>
      </trkpt>
      <trkpt lat="44.11015" lon="4.84308">
        <ele>67.53</ele>
        <time>2022-08-15T06:35:35Z</time>
      </trkpt>
      <trkpt lat="44.11103" lon="4.83618">
        <ele>68.45</ele>
        <time>2022-08-15T06:35:54Z</time>
      </trkpt>
      <trkpt lat="44.11144" lon="4.83298">
        <ele>65.84</ele>
        <time>2022-08-15T06:36:03Z</time>
      </trkpt>
      <trkpt lat="44.11261" lon="4.82377">
        <ele>63.17</ele>
        <time>2022-08-15T06:36:29Z</time>
      </trkpt>
      <trkpt lat="44.11303" lon="4.82053">
        <ele>61.93</ele>
        <time>2022-08-15T06:36:38Z</time>
      </trkpt>
      <trkpt lat="44.11375" lon="4.81513">
        <ele>60.4</ele>
        <time>2022-08-15T06:36:53Z</time>
      </trkpt>
      <trkpt lat="44.11463" lon="4.81171">
        <ele>59.43</ele>
        <time>2022-08-15T06:37:03Z</time>
      </trkpt>
      <trkpt lat="44.11582" lon="4.80888">
        <ele>58.31</ele>
        <time>2022-08-15T06:37:12Z</time>
      </trkpt>
      <trkpt lat="44.11774" lon="4.80586">
        <ele>56.58</ele>
        <time>2022-08-15T06:37:23Z</time>
      </trkpt>
      <trkpt lat="44.11895" lon="4.80438">
        <ele>53.56</ele>
        <time>2022-08-15T06:37:29Z</time>
      </trkpt>
      <trkpt lat="44.11956" lon="4.80364">
        <ele>50.36</ele>
        <time>2022-08-15T06:37:32Z</time>
      </trkpt>
      <trkpt lat="44.11977" lon="4.80339">
        <ele>50.31</ele>
        <time>2022-08-15T06:37:33Z</time>
      </trkpt>
      <trkpt lat="44.12038" lon="4.80263">
        <ele>46.86</ele>
        <time>2022-08-15T06:37:36Z</time>
      </trkpt>
      <trkpt lat="44.12121" lon="4.8016">
        <ele>42.73</ele>
        <time>2022-08-15T06:37:40Z</time>
      </trkpt>
      <trkpt lat="44.12163" lon="4.80109">
        <ele>41.67</ele>
        <time>2022-08-15T06:37:42Z</time>
      </trkpt>
      <trkpt lat="44.12289" lon="4.79955">
        <ele>40.13</ele>
        <time>2022-08-15T06:37:48Z</time>
      </trkpt>
      <trkpt lat="44.12674" lon="4.79481">
        <ele>40.24</ele>
        <time>2022-08-15T06:38:07Z</time>
      </trkpt>
      <trkpt lat="44.12816" lon="4.79308">
        <ele>42.62</ele>
        <time>2022-08-15T06:38:14Z</time>
      </trkpt>
      <trkpt lat="44.12999" lon="4.79083">
        <ele>44.39</ele>
        <time>2022-08-15T06:38:23Z</time>
      </trkpt>
      <trkpt lat="44.13327" lon="4.78681">
        <ele>44.38</ele>
        <time>2022-08-15T06:38:39Z</time>
      </trkpt>
      <trkpt lat="44.13712" lon="4.78217">
        <ele>44.49</ele>
        <time>2022-08-15T06:38:58Z</time>
      </trkpt>
      <trkpt lat="44.13966" lon="4.78005">
        <ele>45.66</ele>
        <time>2022-08-15T06:39:09Z</time>
      </trkpt>
      <trkpt lat="44.1399" lon="4.77989">
        <ele>45.64</ele>
        <time>2022-08-15T06:39:10Z</time>
      </trkpt>
      <trkpt lat="44.14488" lon="4.77657">
        <ele>48.55</ele>
        <time>2022-08-15T06:39:30Z</time>
      </trkpt>
      <trkpt lat="44.14776" lon="4.77513">
        <ele>48.51</ele>
        <time>2022-08-15T06:39:41Z</time>
      </trkpt>
      <trkpt lat="44.15266" lon="4.77275">
        <ele>50.49</ele>
        <time>2022-08-15T06:40:00Z</time>
      </trkpt>
      <trkpt lat="44.15473" lon="4.77177">
        <ele>47.62</ele>
        <time>2022-08-15T06:40:08Z</time>
      </trkpt>
      <trkpt lat="44.15906" lon="4.7695">
        <ele>46.78</ele>
        <time>2022-08-15T06:40:25Z</time>
      </trkpt>
      <trkpt lat="44.16361" lon="4.76619">
        <ele>44.72</ele>
        <time>2022-08-15T06:40:44Z</time>
      </trkpt>
      <trkpt lat="44.16818" lon="4.76284">
        <ele>44.91</ele>
        <time>2022-08-15T06:41:03Z</time>
      </trkpt>
      <trkpt lat="44.16963" lon="4.76178">
        <ele>43.71</ele>
        <time>2022-08-15T06:41:09Z</time>
      </trkpt>
      <trkpt lat="44.17422" lon="4.75838">
        <ele>42.82</ele>
        <time>2022-08-15T06:41:28Z</time>
      </trkpt>
      <trkpt lat="44.17777" lon="4.75579">
        <ele>42.81</ele>
        <time>2022-08-15T06:41:43Z</time>
      </trkpt>
      <trkpt lat="44.18273" lon="4.7521">
        <ele>42.85</ele>
        <time>2022-08-15T06:42:05Z</time>
      </trkpt>
      <trkpt lat="44.18404" lon="4.75101">
        <ele>41.38</ele>
        <time>2022-08-15T06:42:11Z</time>
      </trkpt>
      <trkpt lat="44.18751" lon="4.74754">
        <ele>40.33</ele>
        <time>2022-08-15T06:42:28Z</time>
      </trkpt>
      <trkpt lat="44.18974" lon="4.7448">
        <ele>42.89</ele>
        <time>2022-08-15T06:42:40Z</time>
      </trkpt>
      <trkpt lat="44.1924" lon="4.74088">
        <ele>42.85</ele>
        <time>2022-08-15T06:42:55Z</time>
      </trkpt>
      <trkpt lat="44.19482" lon="4.73643">
        <ele>42.86</ele>
        <time>2022-08-15T06:43:10Z</time>
      </trkpt>
      <trkpt lat="44.19573" lon="4.73453">
        <ele>44.09</ele>
        <time>2022-08-15T06:43:16Z</time>
      </trkpt>
      <trkpt lat="44.19819" lon="4.72983">
        <ele>44</ele>
        <time>2022-08-15T06:43:31Z</time>
      </trkpt>
      <trkpt lat="44.20023" lon="4.72717">
        <ele>43.99</ele>
        <time>2022-08-15T06:43:41Z</time>
      </trkpt>
      <trkpt lat="44.20216" lon="4.7256">
        <ele>43.92</ele>
        <time>2022-08-15T06:43:49Z</time>
      </trkpt>
      <trkpt lat="44.20455" lon="4.72454">
        <ele>44.86</ele>
        <time>2022-08-15T06:43:58Z</time>
      </trkpt>
      <trkpt lat="44.20595" lon="4.7243">
        <ele>47.5</ele>
        <time>2022-08-15T06:44:03Z</time>
      </trkpt>
      <trkpt lat="44.20832" lon="4.72433">
        <ele>45.14</ele>
        <time>2022-08-15T06:44:12Z</time>
      </trkpt>
      <trkpt lat="44.21007" lon="4.72433">
        <ele>43.92</ele>
        <time>2022-08-15T06:44:19Z</time>
      </trkpt>
      <trkpt lat="44.21268" lon="4.72384">
        <ele>42.43</ele>
        <time>2022-08-15T06:44:30Z</time>
      </trkpt>
      <trkpt lat="44.21288" lon="4.72378">
        <ele>42.41</ele>
        <time>2022-08-15T06:44:31Z</time>
      </trkpt>
      <trkpt lat="44.21343" lon="4.72363">
        <ele>40.87</ele>
        <time>2022-08-15T06:44:34Z</time>
      </trkpt>
      <trkpt lat="44.21418" lon="4.72342">
        <ele>39.22</ele>
        <time>2022-08-15T06:44:39Z</time>
      </trkpt>
      <trkpt lat="44.21474" lon="4.72313">
        <ele>37.66</ele>
        <time>2022-08-15T06:44:45Z</time>
      </trkpt>
      <trkpt lat="44.21481" lon="4.72312">
        <ele>37.7</ele>
        <time>2022-08-15T06:44:46Z</time>
      </trkpt>
      <trkpt lat="44.21488" lon="4.72313">
        <ele>37.67</ele>
        <time>2022-08-15T06:44:47Z</time>
      </trkpt>
      <trkpt lat="44.21495" lon="4.72317">
        <ele>37.68</ele>
        <time>2022-08-15T06:44:48Z</time>
      </trkpt>
      <trkpt lat="44.21501" lon="4.72321">
        <ele>37.66</ele>
        <time>2022-08-15T06:44:49Z</time>
      </trkpt>
      <trkpt lat="44.21507" lon="4.72325">
        <ele>37.66</ele>
        <time>2022-08-15T06:44:50Z</time>
      </trkpt>
      <trkpt lat="44.21513" lon="4.72327">
        <ele>36.51</ele>
        <time>2022-08-15T06:44:51Z</time>
      </trkpt>
      <trkpt lat="44.21519" lon="4.72325">
        <ele>36.52</ele>
        <time>2022-08-15T06:44:52Z</time>
      </trkpt>
      <trkpt lat="44.21529" lon="4.72301">
        <ele>36.51</ele>
        <time>2022-08-15T06:44:55Z</time>
      </trkpt>
      <trkpt lat="44.21532" lon="4.72294">
        <ele>36.55</ele>
        <time>2022-08-15T06:44:56Z</time>
      </trkpt>
      <trkpt lat="44.21537" lon="4.72289">
        <ele>36.56</ele>
        <time>2022-08-15T06:44:57Z</time>
      </trkpt>
      <trkpt lat="44.21542" lon="4.72285">
        <ele>36.56</ele>
        <time>2022-08-15T06:44:58Z</time>
      </trkpt>
      <trkpt lat="44.21546" lon="4.72281">
        <ele>36.57</ele>
        <time>2022-08-15T06:44:59Z</time>
      </trkpt>
      <trkpt lat="44.2156" lon="4.72271">
        <ele>36.61</ele>
        <time>2022-08-15T06:45:02Z</time>
      </trkpt>
      <trkpt lat="44.21589" lon="4.72249">
        <ele>35.78</ele>
        <time>2022-08-15T06:45:10Z</time>
      </trkpt>
      <trkpt lat="44.21601" lon="4.72237">
        <ele>35.79</ele>
        <time>2022-08-15T06:45:13Z</time>
      </trkpt>
      <trkpt lat="44.21606" lon="4.72235">
        <ele>35.81</ele>
        <time>2022-08-15T06:45:14Z</time>
      </trkpt>
      <trkpt lat="44.21611" lon="4.72234">
        <ele>35.81</ele>
        <time>2022-08-15T06:45:15Z</time>
      </trkpt>
      <trkpt lat="44.21616" lon="4.72234">
        <ele>35.82</ele>
        <time>2022-08-15T06:45:16Z</time>
      </trkpt>
      <trkpt lat="44.21622" lon="4.72235">
        <ele>35.82</ele>
        <time>2022-08-15T06:45:17Z</time>
      </trkpt>
      <trkpt lat="44.21626" lon="4.72236">
        <ele>35.83</ele>
        <time>2022-08-15T06:45:18Z</time>
      </trkpt>
      <trkpt lat="44.21643" lon="4.7224">
        <ele>35.94</ele>
        <time>2022-08-15T06:45:27Z</time>
      </trkpt>
      <trkpt lat="44.21646" lon="4.72242">
        <ele>35.9</ele>
        <time>2022-08-15T06:45:40Z</time>
      </trkpt>
      <trkpt lat="44.21649" lon="4.72244">
        <ele>35.13</ele>
        <time>2022-08-15T06:46:18Z</time>
      </trkpt>
      <trkpt lat="44.21649" lon="4.72242">
        <ele>35.2</ele>
        <time>2022-08-15T06:47:02Z</time>
      </trkpt>
      <trkpt lat="44.2165" lon="4.72244">
        <ele>35.28</ele>
        <time>2022-08-15T06:48:04Z</time>
      </trkpt>
      <trkpt lat="44.2165" lon="4.72245">
        <ele>35.3</ele>
        <time>2022-08-15T06:48:47Z</time>
      </trkpt>
      <trkpt lat="44.21652" lon="4.72247">
        <ele>35.31</ele>
        <time>2022-08-15T06:49:01Z</time>
      </trkpt>
      <trkpt lat="44.21657" lon="4.72255">
        <ele>35.3</ele>
        <time>2022-08-15T06:49:03Z</time>
      </trkpt>
      <trkpt lat="44.2166" lon="4.72262">
        <ele>35.31</ele>
        <time>2022-08-15T06:49:04Z</time>
      </trkpt>
      <trkpt lat="44.21662" lon="4.7227">
        <ele>35.31</ele>
        <time>2022-08-15T06:49:05Z</time>
      </trkpt>
      <trkpt lat="44.2167" lon="4.72295">
        <ele>35.31</ele>
        <time>2022-08-15T06:49:08Z</time>
      </trkpt>
      <trkpt lat="44.21674" lon="4.72299">
        <ele>35.31</ele>
        <time>2022-08-15T06:49:09Z</time>
      </trkpt>
      <trkpt lat="44.21679" lon="4.723">
        <ele>35.29</ele>
        <time>2022-08-15T06:49:10Z</time>
      </trkpt>
      <trkpt lat="44.21683" lon="4.72298">
        <ele>35.28</ele>
        <time>2022-08-15T06:49:11Z</time>
      </trkpt>
      <trkpt lat="44.21686" lon="4.72293">
        <ele>35.29</ele>
        <time>2022-08-15T06:49:12Z</time>
      </trkpt>
      <trkpt lat="44.21687" lon="4.72288">
        <ele>35.27</ele>
        <time>2022-08-15T06:49:13Z</time>
      </trkpt>
      <trkpt lat="44.21687" lon="4.72283">
        <ele>35.25</ele>
        <time>2022-08-15T06:49:14Z</time>
      </trkpt>
      <trkpt lat="44.21686" lon="4.72278">
        <ele>35.27</ele>
        <time>2022-08-15T06:49:15Z</time>
      </trkpt>
      <trkpt lat="44.21683" lon="4.72272">
        <ele>35.27</ele>
        <time>2022-08-15T06:49:16Z</time>
      </trkpt>
      <trkpt lat="44.2168" lon="4.72264">
        <ele>35.27</ele>
        <time>2022-08-15T06:49:17Z</time>
      </trkpt>
      <trkpt lat="44.21676" lon="4.72255">
        <ele>35.29</ele>
        <time>2022-08-15T06:49:18Z</time>
      </trkpt>
      <trkpt lat="44.21673" lon="4.72245">
        <ele>35.29</ele>
        <time>2022-08-15T06:49:19Z</time>
      </trkpt>
      <trkpt lat="44.21671" lon="4.72235">
        <ele>35.33</ele>
        <time>2022-08-15T06:49:20Z</time>
      </trkpt>
      <trkpt lat="44.21669" lon="4.72225">
        <ele>35.33</ele>
        <time>2022-08-15T06:49:21Z</time>
      </trkpt>
      <trkpt lat="44.21665" lon="4.72198">
        <ele>35.34</ele>
        <time>2022-08-15T06:49:24Z</time>
      </trkpt>
      <trkpt lat="44.21666" lon="4.7219">
        <ele>35.35</ele>
        <time>2022-08-15T06:49:25Z</time>
      </trkpt>
      <trkpt lat="44.21669" lon="4.72181">
        <ele>35.35</ele>
        <time>2022-08-15T06:49:26Z</time>
      </trkpt>
      <trkpt lat="44.21679" lon="4.72161">
        <ele>35.34</ele>
        <time>2022-08-15T06:49:28Z</time>
      </trkpt>
      <trkpt lat="44.21685" lon="4.72147">
        <ele>38.2</ele>
        <time>2022-08-15T06:49:29Z</time>
      </trkpt>
      <trkpt lat="44.21692" lon="4.72134">
        <ele>38.21</ele>
        <time>2022-08-15T06:49:30Z</time>
      </trkpt>
      <trkpt lat="44.21702" lon="4.72121">
        <ele>38.22</ele>
        <time>2022-08-15T06:49:31Z</time>
      </trkpt>
      <trkpt lat="44.21713" lon="4.72109">
        <ele>38.24</ele>
        <time>2022-08-15T06:49:32Z</time>
      </trkpt>
      <trkpt lat="44.21792" lon="4.72025">
        <ele>39.68</ele>
        <time>2022-08-15T06:49:38Z</time>
      </trkpt>
      <trkpt lat="44.21913" lon="4.7189">
        <ele>42.86</ele>
        <time>2022-08-15T06:49:46Z</time>
      </trkpt>
      <trkpt lat="44.21931" lon="4.7187">
        <ele>42.86</ele>
        <time>2022-08-15T06:49:47Z</time>
      </trkpt>
      <trkpt lat="44.22249" lon="4.7151">
        <ele>43.55</ele>
        <time>2022-08-15T06:50:05Z</time>
      </trkpt>
      <trkpt lat="44.22519" lon="4.7126">
        <ele>43.51</ele>
        <time>2022-08-15T06:50:19Z</time>
      </trkpt>
      <trkpt lat="44.22779" lon="4.71083">
        <ele>44.32</ele>
        <time>2022-08-15T06:50:31Z</time>
      </trkpt>
      <trkpt lat="44.23212" lon="4.70848">
        <ele>44.23</ele>
        <time>2022-08-15T06:50:50Z</time>
      </trkpt>
      <trkpt lat="44.23488" lon="4.70737">
        <ele>44.27</ele>
        <time>2022-08-15T06:51:02Z</time>
      </trkpt>
      <trkpt lat="44.23742" lon="4.70705">
        <ele>44.3</ele>
        <time>2022-08-15T06:51:13Z</time>
      </trkpt>
      <trkpt lat="44.24042" lon="4.70743">
        <ele>45.28</ele>
        <time>2022-08-15T06:51:26Z</time>
      </trkpt>
      <trkpt lat="44.2446" lon="4.70823">
        <ele>45.34</ele>
        <time>2022-08-15T06:51:44Z</time>
      </trkpt>
      <trkpt lat="44.24759" lon="4.70921">
        <ele>48.18</ele>
        <time>2022-08-15T06:51:57Z</time>
      </trkpt>
      <trkpt lat="44.24977" lon="4.71056">
        <ele>50.89</ele>
        <time>2022-08-15T06:52:07Z</time>
      </trkpt>
      <trkpt lat="44.25166" lon="4.71196">
        <ele>53.29</ele>
        <time>2022-08-15T06:52:16Z</time>
      </trkpt>
      <trkpt lat="44.25499" lon="4.71442">
        <ele>55.59</ele>
        <time>2022-08-15T06:52:32Z</time>
      </trkpt>
      <trkpt lat="44.25844" lon="4.71694">
        <ele>53.11</ele>
        <time>2022-08-15T06:52:48Z</time>
      </trkpt>
      <trkpt lat="44.26357" lon="4.7207">
        <ele>51.39</ele>
        <time>2022-08-15T06:53:12Z</time>
      </trkpt>
      <trkpt lat="44.26661" lon="4.72293">
        <ele>51.56</ele>
        <time>2022-08-15T06:53:26Z</time>
      </trkpt>
      <trkpt lat="44.27092" lon="4.72609">
        <ele>51.44</ele>
        <time>2022-08-15T06:53:46Z</time>
      </trkpt>
      <trkpt lat="44.2718" lon="4.72673">
        <ele>53.83</ele>
        <time>2022-08-15T06:53:50Z</time>
      </trkpt>
      <trkpt lat="44.27639" lon="4.73017">
        <ele>54.82</ele>
        <time>2022-08-15T06:54:11Z</time>
      </trkpt>
      <trkpt lat="44.28023" lon="4.73354">
        <ele>58.82</ele>
        <time>2022-08-15T06:54:28Z</time>
      </trkpt>
      <trkpt lat="44.28066" lon="4.73396">
        <ele>60.2</ele>
        <time>2022-08-15T06:54:30Z</time>
      </trkpt>
      <trkpt lat="44.2813" lon="4.7346">
        <ele>56.52</ele>
        <time>2022-08-15T06:54:33Z</time>
      </trkpt>
      <trkpt lat="44.28151" lon="4.73482">
        <ele>56.52</ele>
        <time>2022-08-15T06:54:34Z</time>
      </trkpt>
      <trkpt lat="44.28603" lon="4.73943">
        <ele>55.61</ele>
        <time>2022-08-15T06:54:55Z</time>
      </trkpt>
      <trkpt lat="44.28797" lon="4.74142">
        <ele>58.07</ele>
        <time>2022-08-15T06:55:04Z</time>
      </trkpt>
      <trkpt lat="44.29127" lon="4.74443">
        <ele>59.78</ele>
        <time>2022-08-15T06:55:19Z</time>
      </trkpt>
      <trkpt lat="44.29394" lon="4.7459">
        <ele>61.46</ele>
        <time>2022-08-15T06:55:30Z</time>
      </trkpt>
      <trkpt lat="44.29444" lon="4.74609">
        <ele>62.93</ele>
        <time>2022-08-15T06:55:32Z</time>
      </trkpt>
      <trkpt lat="44.29705" lon="4.74669">
        <ele>64.02</ele>
        <time>2022-08-15T06:55:42Z</time>
      </trkpt>
      <trkpt lat="44.29998" lon="4.74689">
        <ele>65.59</ele>
        <time>2022-08-15T06:55:53Z</time>
      </trkpt>
      <trkpt lat="44.30525" lon="4.74716">
        <ele>65.46</ele>
        <time>2022-08-15T06:56:13Z</time>
      </trkpt>
      <trkpt lat="44.3082" lon="4.74689">
        <ele>65.43</ele>
        <time>2022-08-15T06:56:24Z</time>
      </trkpt>
      <trkpt lat="44.30951" lon="4.74649">
        <ele>62.61</ele>
        <time>2022-08-15T06:56:29Z</time>
      </trkpt>
      <trkpt lat="44.31204" lon="4.74519">
        <ele>61.42</ele>
        <time>2022-08-15T06:56:39Z</time>
      </trkpt>
      <trkpt lat="44.31725" lon="4.74208">
        <ele>59.72</ele>
        <time>2022-08-15T06:57:00Z</time>
      </trkpt>
      <trkpt lat="44.318" lon="4.74169">
        <ele>62</ele>
        <time>2022-08-15T06:57:03Z</time>
      </trkpt>
      <trkpt lat="44.32033" lon="4.74072">
        <ele>59.67</ele>
        <time>2022-08-15T06:57:12Z</time>
      </trkpt>
      <trkpt lat="44.32386" lon="4.73983">
        <ele>59.7</ele>
        <time>2022-08-15T06:57:25Z</time>
      </trkpt>
      <trkpt lat="44.32759" lon="4.73932">
        <ele>59.69</ele>
        <time>2022-08-15T06:57:39Z</time>
      </trkpt>
      <trkpt lat="44.3319" lon="4.73875">
        <ele>59.73</ele>
        <time>2022-08-15T06:57:57Z</time>
      </trkpt>
      <trkpt lat="44.33321" lon="4.73856">
        <ele>62.13</ele>
        <time>2022-08-15T06:58:02Z</time>
      </trkpt>
      <trkpt lat="44.33403" lon="4.73846">
        <ele>64.09</ele>
        <time>2022-08-15T06:58:05Z</time>
      </trkpt>
      <trkpt lat="44.33459" lon="4.73841">
        <ele>65.72</ele>
        <time>2022-08-15T06:58:07Z</time>
      </trkpt>
      <trkpt lat="44.33766" lon="4.7382">
        <ele>65.51</ele>
        <time>2022-08-15T06:58:18Z</time>
      </trkpt>
      <trkpt lat="44.34335" lon="4.73797">
        <ele>65.41</ele>
        <time>2022-08-15T06:58:39Z</time>
      </trkpt>
      <trkpt lat="44.34511" lon="4.73797">
        <ele>62.92</ele>
        <time>2022-08-15T06:58:46Z</time>
      </trkpt>
      <trkpt lat="44.3508" lon="4.73799">
        <ele>62.94</ele>
        <time>2022-08-15T06:59:09Z</time>
      </trkpt>
      <trkpt lat="44.35581" lon="4.73764">
        <ele>62.91</ele>
        <time>2022-08-15T06:59:29Z</time>
      </trkpt>
      <trkpt lat="44.36038" lon="4.73683">
        <ele>62.91</ele>
        <time>2022-08-15T06:59:47Z</time>
      </trkpt>
      <trkpt lat="44.36273" lon="4.7362">
        <ele>66.43</ele>
        <time>2022-08-15T06:59:56Z</time>
      </trkpt>
      <trkpt lat="44.36326" lon="4.73605">
        <ele>67.52</ele>
        <time>2022-08-15T06:59:58Z</time>
      </trkpt>
      <trkpt lat="44.36616" lon="4.73519">
        <ele>64.91</ele>
        <time>2022-08-15T07:00:09Z</time>
      </trkpt>
      <trkpt lat="44.37055" lon="4.73381">
        <ele>64.76</ele>
        <time>2022-08-15T07:00:26Z</time>
      </trkpt>
      <trkpt lat="44.37542" lon="4.73282">
        <ele>63.43</ele>
        <time>2022-08-15T07:00:45Z</time>
      </trkpt>
      <trkpt lat="44.38185" lon="4.73186">
        <ele>62.52</ele>
        <time>2022-08-15T07:01:10Z</time>
      </trkpt>
      <trkpt lat="44.38775" lon="4.73096">
        <ele>62.54</ele>
        <time>2022-08-15T07:01:33Z</time>
      </trkpt>
      <trkpt lat="44.3893" lon="4.73073">
        <ele>65.12</ele>
        <time>2022-08-15T07:01:39Z</time>
      </trkpt>
      <trkpt lat="44.39612" lon="4.7297">
        <ele>67.83</ele>
        <time>2022-08-15T07:02:05Z</time>
      </trkpt>
      <trkpt lat="44.40118" lon="4.72921">
        <ele>70.17</ele>
        <time>2022-08-15T07:02:24Z</time>
      </trkpt>
      <trkpt lat="44.40569" lon="4.72935">
        <ele>71.8</ele>
        <time>2022-08-15T07:02:41Z</time>
      </trkpt>
      <trkpt lat="44.41026" lon="4.73009">
        <ele>73.81</ele>
        <time>2022-08-15T07:02:58Z</time>
      </trkpt>
      <trkpt lat="44.41439" lon="4.73128">
        <ele>76.51</ele>
        <time>2022-08-15T07:03:13Z</time>
      </trkpt>
      <trkpt lat="44.41859" lon="4.73304">
        <ele>77.28</ele>
        <time>2022-08-15T07:03:29Z</time>
      </trkpt>
      <trkpt lat="44.42262" lon="4.73537">
        <ele>80.45</ele>
        <time>2022-08-15T07:03:45Z</time>
      </trkpt>
      <trkpt lat="44.42287" lon="4.73553">
        <ele>80.62</ele>
        <time>2022-08-15T07:03:46Z</time>
      </trkpt>
      <trkpt lat="44.42454" lon="4.73673">
        <ele>83.86</ele>
        <time>2022-08-15T07:03:53Z</time>
      </trkpt>
      <trkpt lat="44.42478" lon="4.73691">
        <ele>83.85</ele>
        <time>2022-08-15T07:03:54Z</time>
      </trkpt>
      <trkpt lat="44.42571" lon="4.73767">
        <ele>86.79</ele>
        <time>2022-08-15T07:03:58Z</time>
      </trkpt>
      <trkpt lat="44.4264" lon="4.73827">
        <ele>91.03</ele>
        <time>2022-08-15T07:04:01Z</time>
      </trkpt>
      <trkpt lat="44.42686" lon="4.73868">
        <ele>92.58</ele>
        <time>2022-08-15T07:04:03Z</time>
      </trkpt>
      <trkpt lat="44.42756" lon="4.73931">
        <ele>96.03</ele>
        <time>2022-08-15T07:04:06Z</time>
      </trkpt>
      <trkpt lat="44.42847" lon="4.7402">
        <ele>98.97</ele>
        <time>2022-08-15T07:04:10Z</time>
      </trkpt>
      <trkpt lat="44.42893" lon="4.74066">
        <ele>100.24</ele>
        <time>2022-08-15T07:04:12Z</time>
      </trkpt>
      <trkpt lat="44.42938" lon="4.74114">
        <ele>104.68</ele>
        <time>2022-08-15T07:04:14Z</time>
      </trkpt>
      <trkpt lat="44.42983" lon="4.74161">
        <ele>106.07</ele>
        <time>2022-08-15T07:04:16Z</time>
      </trkpt>
      <trkpt lat="44.43117" lon="4.74306">
        <ele>109.02</ele>
        <time>2022-08-15T07:04:22Z</time>
      </trkpt>
      <trkpt lat="44.43161" lon="4.74356">
        <ele>110.37</ele>
        <time>2022-08-15T07:04:24Z</time>
      </trkpt>
      <trkpt lat="44.43228" lon="4.7443">
        <ele>111.61</ele>
        <time>2022-08-15T07:04:27Z</time>
      </trkpt>
      <trkpt lat="44.43273" lon="4.7448">
        <ele>113.09</ele>
        <time>2022-08-15T07:04:29Z</time>
      </trkpt>
      <trkpt lat="44.43318" lon="4.7453">
        <ele>114.29</ele>
        <time>2022-08-15T07:04:31Z</time>
      </trkpt>
      <trkpt lat="44.43363" lon="4.7458">
        <ele>115.53</ele>
        <time>2022-08-15T07:04:33Z</time>
      </trkpt>
      <trkpt lat="44.43432" lon="4.74654">
        <ele>117.75</ele>
        <time>2022-08-15T07:04:36Z</time>
      </trkpt>
      <trkpt lat="44.43479" lon="4.74701">
        <ele>119.19</ele>
        <time>2022-08-15T07:04:38Z</time>
      </trkpt>
      <trkpt lat="44.43747" lon="4.74933">
        <ele>123.22</ele>
        <time>2022-08-15T07:04:49Z</time>
      </trkpt>
      <trkpt lat="44.43772" lon="4.74952">
        <ele>123.15</ele>
        <time>2022-08-15T07:04:50Z</time>
      </trkpt>
      <trkpt lat="44.43979" lon="4.75093">
        <ele>126.25</ele>
        <time>2022-08-15T07:04:58Z</time>
      </trkpt>
      <trkpt lat="44.44005" lon="4.75109">
        <ele>126.28</ele>
        <time>2022-08-15T07:04:59Z</time>
      </trkpt>
      <trkpt lat="44.44358" lon="4.75274">
        <ele>128.87</ele>
        <time>2022-08-15T07:05:12Z</time>
      </trkpt>
      <trkpt lat="44.44775" lon="4.75403">
        <ele>132.29</ele>
        <time>2022-08-15T07:05:27Z</time>
      </trkpt>
      <trkpt lat="44.45322" lon="4.75585">
        <ele>135.93</ele>
        <time>2022-08-15T07:05:47Z</time>
      </trkpt>
      <trkpt lat="44.45376" lon="4.75607">
        <ele>136.92</ele>
        <time>2022-08-15T07:05:49Z</time>
      </trkpt>
      <trkpt lat="44.45749" lon="4.75777">
        <ele>140.26</ele>
        <time>2022-08-15T07:06:03Z</time>
      </trkpt>
      <trkpt lat="44.46186" lon="4.76025">
        <ele>142.85</ele>
        <time>2022-08-15T07:06:20Z</time>
      </trkpt>
      <trkpt lat="44.46697" lon="4.76356">
        <ele>145.61</ele>
        <time>2022-08-15T07:06:40Z</time>
      </trkpt>
      <trkpt lat="44.46856" lon="4.76447">
        <ele>142.55</ele>
        <time>2022-08-15T07:06:46Z</time>
      </trkpt>
      <trkpt lat="44.46882" lon="4.7646">
        <ele>142.55</ele>
        <time>2022-08-15T07:06:47Z</time>
      </trkpt>
      <trkpt lat="44.46979" lon="4.76508">
        <ele>140.02</ele>
        <time>2022-08-15T07:06:51Z</time>
      </trkpt>
      <trkpt lat="44.47096" lon="4.76556">
        <ele>137.85</ele>
        <time>2022-08-15T07:06:56Z</time>
      </trkpt>
      <trkpt lat="44.47425" lon="4.76653">
        <ele>136.5</ele>
        <time>2022-08-15T07:07:10Z</time>
      </trkpt>
      <trkpt lat="44.47777" lon="4.767">
        <ele>133.55</ele>
        <time>2022-08-15T07:07:25Z</time>
      </trkpt>
      <trkpt lat="44.47817" lon="4.76707">
        <ele>132.45</ele>
        <time>2022-08-15T07:07:27Z</time>
      </trkpt>
      <trkpt lat="44.47836" lon="4.76712">
        <ele>132.48</ele>
        <time>2022-08-15T07:07:28Z</time>
      </trkpt>
      <trkpt lat="44.47855" lon="4.7672">
        <ele>131.68</ele>
        <time>2022-08-15T07:07:29Z</time>
      </trkpt>
      <trkpt lat="44.47873" lon="4.76731">
        <ele>131.66</ele>
        <time>2022-08-15T07:07:30Z</time>
      </trkpt>
      <trkpt lat="44.4789" lon="4.76745">
        <ele>131.67</ele>
        <time>2022-08-15T07:07:31Z</time>
      </trkpt>
      <trkpt lat="44.47908" lon="4.7676">
        <ele>131.66</ele>
        <time>2022-08-15T07:07:32Z</time>
      </trkpt>
      <trkpt lat="44.48035" lon="4.76862">
        <ele>131.02</ele>
        <time>2022-08-15T07:07:40Z</time>
      </trkpt>
      <trkpt lat="44.4805" lon="4.76868">
        <ele>131</ele>
        <time>2022-08-15T07:07:41Z</time>
      </trkpt>
      <trkpt lat="44.48065" lon="4.76868">
        <ele>131.01</ele>
        <time>2022-08-15T07:07:42Z</time>
      </trkpt>
      <trkpt lat="44.4808" lon="4.76862">
        <ele>131.02</ele>
        <time>2022-08-15T07:07:43Z</time>
      </trkpt>
      <trkpt lat="44.48093" lon="4.76851">
        <ele>131.05</ele>
        <time>2022-08-15T07:07:44Z</time>
      </trkpt>
      <trkpt lat="44.48104" lon="4.76835">
        <ele>131.08</ele>
        <time>2022-08-15T07:07:45Z</time>
      </trkpt>
      <trkpt lat="44.48111" lon="4.76815">
        <ele>133.4</ele>
        <time>2022-08-15T07:07:46Z</time>
      </trkpt>
      <trkpt lat="44.48115" lon="4.76793">
        <ele>133.44</ele>
        <time>2022-08-15T07:07:47Z</time>
      </trkpt>
      <trkpt lat="44.48117" lon="4.76769">
        <ele>133.45</ele>
        <time>2022-08-15T07:07:48Z</time>
      </trkpt>
      <trkpt lat="44.48119" lon="4.76744">
        <ele>134.77</ele>
        <time>2022-08-15T07:07:49Z</time>
      </trkpt>
      <trkpt lat="44.4812" lon="4.76721">
        <ele>134.79</ele>
        <time>2022-08-15T07:07:50Z</time>
      </trkpt>
      <trkpt lat="44.48134" lon="4.765">
        <ele>132.14</ele>
        <time>2022-08-15T07:08:00Z</time>
      </trkpt>
      <trkpt lat="44.48135" lon="4.7648">
        <ele>132.13</ele>
        <time>2022-08-15T07:08:01Z</time>
      </trkpt>
      <trkpt lat="44.48143" lon="4.76428">
        <ele>129.96</ele>
        <time>2022-08-15T07:08:04Z</time>
      </trkpt>
      <trkpt lat="44.48149" lon="4.76376">
        <ele>127.54</ele>
        <time>2022-08-15T07:08:08Z</time>
      </trkpt>
      <trkpt lat="44.48149" lon="4.76354">
        <ele>125.55</ele>
        <time>2022-08-15T07:08:14Z</time>
      </trkpt>
      <trkpt lat="44.48149" lon="4.76352">
        <ele>125</ele>
        <time>2022-08-15T07:08:43Z</time>
      </trkpt>
      <trkpt lat="44.48149" lon="4.7635">
        <ele>125</ele>
        <time>2022-08-15T07:08:45Z</time>
      </trkpt>
      <trkpt lat="44.48149" lon="4.76345">
        <ele>124.99</ele>
        <time>2022-08-15T07:08:46Z</time>
      </trkpt>
      <trkpt lat="44.4815" lon="4.76336">
        <ele>125.02</ele>
        <time>2022-08-15T07:08:47Z</time>
      </trkpt>
      <trkpt lat="44.48151" lon="4.76324">
        <ele>125.01</ele>
        <time>2022-08-15T07:08:48Z</time>
      </trkpt>
      <trkpt lat="44.48152" lon="4.76309">
        <ele>125.01</ele>
        <time>2022-08-15T07:08:49Z</time>
      </trkpt>
      <trkpt lat="44.48153" lon="4.76291">
        <ele>125.01</ele>
        <time>2022-08-15T07:08:50Z</time>
      </trkpt>
      <trkpt lat="44.48154" lon="4.76272">
        <ele>125.01</ele>
        <time>2022-08-15T07:08:51Z</time>
      </trkpt>
      <trkpt lat="44.48153" lon="4.76251">
        <ele>125.01</ele>
        <time>2022-08-15T07:08:52Z</time>
      </trkpt>
      <trkpt lat="44.48151" lon="4.76231">
        <ele>125.01</ele>
        <time>2022-08-15T07:08:53Z</time>
      </trkpt>
      <trkpt lat="44.48148" lon="4.76213">
        <ele>125.01</ele>
        <time>2022-08-15T07:08:54Z</time>
      </trkpt>
      <trkpt lat="44.48145" lon="4.76197">
        <ele>125.01</ele>
        <time>2022-08-15T07:08:55Z</time>
      </trkpt>
      <trkpt lat="44.48139" lon="4.76167">
        <ele>123.26</ele>
        <time>2022-08-15T07:08:58Z</time>
      </trkpt>
      <trkpt lat="44.48138" lon="4.76151">
        <ele>123.26</ele>
        <time>2022-08-15T07:09:02Z</time>
      </trkpt>
      <trkpt lat="44.48143" lon="4.76117">
        <ele>123.21</ele>
        <time>2022-08-15T07:09:05Z</time>
      </trkpt>
      <trkpt lat="44.48147" lon="4.76104">
        <ele>123.24</ele>
        <time>2022-08-15T07:09:06Z</time>
      </trkpt>
      <trkpt lat="44.48153" lon="4.76092">
        <ele>122.33</ele>
        <time>2022-08-15T07:09:07Z</time>
      </trkpt>
      <trkpt lat="44.4816" lon="4.7608">
        <ele>122.25</ele>
        <time>2022-08-15T07:09:08Z</time>
      </trkpt>
      <trkpt lat="44.48169" lon="4.76068">
        <ele>122.2</ele>
        <time>2022-08-15T07:09:09Z</time>
      </trkpt>
      <trkpt lat="44.48234" lon="4.75966">
        <ele>120.61</ele>
        <time>2022-08-15T07:09:16Z</time>
      </trkpt>
      <trkpt lat="44.48354" lon="4.75759">
        <ele>119.41</ele>
        <time>2022-08-15T07:09:27Z</time>
      </trkpt>
      <trkpt lat="44.48472" lon="4.75593">
        <ele>116.36</ele>
        <time>2022-08-15T07:09:36Z</time>
      </trkpt>
      <trkpt lat="44.48633" lon="4.75443">
        <ele>116.65</ele>
        <time>2022-08-15T07:09:46Z</time>
      </trkpt>
      <trkpt lat="44.48882" lon="4.75284">
        <ele>115.77</ele>
        <time>2022-08-15T07:09:59Z</time>
      </trkpt>
      <trkpt lat="44.49023" lon="4.75162">
        <ele>114.4</ele>
        <time>2022-08-15T07:10:07Z</time>
      </trkpt>
      <trkpt lat="44.49177" lon="4.74953">
        <ele>111.74</ele>
        <time>2022-08-15T07:10:18Z</time>
      </trkpt>
      <trkpt lat="44.49268" lon="4.74826">
        <ele>109.38</ele>
        <time>2022-08-15T07:10:25Z</time>
      </trkpt>
      <trkpt lat="44.49308" lon="4.7477">
        <ele>107.97</ele>
        <time>2022-08-15T07:10:28Z</time>
      </trkpt>
      <trkpt lat="44.49392" lon="4.74653">
        <ele>105.55</ele>
        <time>2022-08-15T07:10:34Z</time>
      </trkpt>
      <trkpt lat="44.49452" lon="4.74576">
        <ele>102.61</ele>
        <time>2022-08-15T07:10:38Z</time>
      </trkpt>
      <trkpt lat="44.49515" lon="4.74512">
        <ele>98.03</ele>
        <time>2022-08-15T07:10:42Z</time>
      </trkpt>
      <trkpt lat="44.4953" lon="4.74498">
        <ele>97.96</ele>
        <time>2022-08-15T07:10:43Z</time>
      </trkpt>
      <trkpt lat="44.49578" lon="4.7446">
        <ele>96.26</ele>
        <time>2022-08-15T07:10:46Z</time>
      </trkpt>
      <trkpt lat="44.49611" lon="4.74437">
        <ele>94.96</ele>
        <time>2022-08-15T07:10:48Z</time>
      </trkpt>
      <trkpt lat="44.49658" lon="4.74408">
        <ele>92.47</ele>
        <time>2022-08-15T07:10:51Z</time>
      </trkpt>
      <trkpt lat="44.49686" lon="4.74393">
        <ele>90.79</ele>
        <time>2022-08-15T07:10:53Z</time>
      </trkpt>
      <trkpt lat="44.49716" lon="4.74377">
        <ele>86.87</ele>
        <time>2022-08-15T07:10:56Z</time>
      </trkpt>
      <trkpt lat="44.49721" lon="4.74369">
        <ele>86.87</ele>
        <time>2022-08-15T07:10:57Z</time>
      </trkpt>
      <trkpt lat="44.49723" lon="4.74359">
        <ele>86.79</ele>
        <time>2022-08-15T07:10:58Z</time>
      </trkpt>
      <trkpt lat="44.49722" lon="4.74349">
        <ele>86.82</ele>
        <time>2022-08-15T07:10:59Z</time>
      </trkpt>
      <trkpt lat="44.49719" lon="4.74338">
        <ele>86.81</ele>
        <time>2022-08-15T07:11:00Z</time>
      </trkpt>
      <trkpt lat="44.49712" lon="4.74329">
        <ele>86.73</ele>
        <time>2022-08-15T07:11:01Z</time>
      </trkpt>
      <trkpt lat="44.49702" lon="4.74322">
        <ele>86.74</ele>
        <time>2022-08-15T07:11:02Z</time>
      </trkpt>
      <trkpt lat="44.4969" lon="4.74319">
        <ele>86.7</ele>
        <time>2022-08-15T07:11:03Z</time>
      </trkpt>
      <trkpt lat="44.49676" lon="4.74318">
        <ele>86.7</ele>
        <time>2022-08-15T07:11:04Z</time>
      </trkpt>
      <trkpt lat="44.49612" lon="4.74313">
        <ele>91.06</ele>
        <time>2022-08-15T07:11:08Z</time>
      </trkpt>
      <trkpt lat="44.49595" lon="4.74312">
        <ele>91.06</ele>
        <time>2022-08-15T07:11:09Z</time>
      </trkpt>
      <trkpt lat="44.49511" lon="4.74306">
        <ele>93.48</ele>
        <time>2022-08-15T07:11:14Z</time>
      </trkpt>
      <trkpt lat="44.49427" lon="4.743">
        <ele>96.86</ele>
        <time>2022-08-15T07:11:19Z</time>
      </trkpt>
      <trkpt lat="44.4941" lon="4.74299">
        <ele>96.86</ele>
        <time>2022-08-15T07:11:20Z</time>
      </trkpt>
      <trkpt lat="44.49104" lon="4.74279">
        <ele>99.39</ele>
        <time>2022-08-15T07:11:37Z</time>
      </trkpt>
      <trkpt lat="44.49048" lon="4.74275">
        <ele>100.91</ele>
        <time>2022-08-15T07:11:40Z</time>
      </trkpt>
      <trkpt lat="44.48957" lon="4.74269">
        <ele>103.11</ele>
        <time>2022-08-15T07:11:45Z</time>
      </trkpt>
      <trkpt lat="44.48851" lon="4.7426">
        <ele>106.71</ele>
        <time>2022-08-15T07:11:51Z</time>
      </trkpt>
      <trkpt lat="44.48834" lon="4.74259">
        <ele>106.71</ele>
        <time>2022-08-15T07:11:52Z</time>
      </trkpt>
      <trkpt lat="44.48783" lon="4.74252">
        <ele>108.65</ele>
        <time>2022-08-15T07:11:55Z</time>
      </trkpt>
      <trkpt lat="44.48706" lon="4.74226">
        <ele>110.73</ele>
        <time>2022-08-15T07:12:00Z</time>
      </trkpt>
      <trkpt lat="44.48667" lon="4.74209">
        <ele>110.8</ele>
        <time>2022-08-15T07:12:04Z</time>
      </trkpt>
      <trkpt lat="44.48663" lon="4.74203">
        <ele>110.79</ele>
        <time>2022-08-15T07:12:05Z</time>
      </trkpt>
      <trkpt lat="44.48661" lon="4.74195">
        <ele>111.63</ele>
        <time>2022-08-15T07:12:06Z</time>
      </trkpt>
      <trkpt lat="44.48662" lon="4.74186">
        <ele>111.58</ele>
        <time>2022-08-15T07:12:07Z</time>
      </trkpt>
      <trkpt lat="44.48667" lon="4.74175">
        <ele>112.83</ele>
        <time>2022-08-15T07:12:08Z</time>
      </trkpt>
      <trkpt lat="44.48673" lon="4.74163">
        <ele>112.88</ele>
        <time>2022-08-15T07:12:09Z</time>
      </trkpt>
      <trkpt lat="44.48693" lon="4.7412">
        <ele>117.03</ele>
        <time>2022-08-15T07:12:12Z</time>
      </trkpt>
      <trkpt lat="44.48717" lon="4.74074">
        <ele>120.57</ele>
        <time>2022-08-15T07:12:15Z</time>
      </trkpt>
      <trkpt lat="44.48739" lon="4.74024">
        <ele>122.9</ele>
        <time>2022-08-15T07:12:18Z</time>
      </trkpt>
      <trkpt lat="44.48745" lon="4.74005">
        <ele>124.09</ele>
        <time>2022-08-15T07:12:19Z</time>
      </trkpt>
      <trkpt lat="44.48749" lon="4.73985">
        <ele>124.17</ele>
        <time>2022-08-15T07:12:20Z</time>
      </trkpt>
      <trkpt lat="44.4875" lon="4.73965">
        <ele>125.38</ele>
        <time>2022-08-15T07:12:21Z</time>
      </trkpt>
      <trkpt lat="44.48749" lon="4.73945">
        <ele>125.39</ele>
        <time>2022-08-15T07:12:22Z</time>
      </trkpt>
      <trkpt lat="44.48746" lon="4.73924">
        <ele>126.23</ele>
        <time>2022-08-15T07:12:23Z</time>
      </trkpt>
      <trkpt lat="44.48741" lon="4.73905">
        <ele>126.31</ele>
        <time>2022-08-15T07:12:24Z</time>
      </trkpt>
      <trkpt lat="44.48734" lon="4.73885">
        <ele>127.3</ele>
        <time>2022-08-15T07:12:25Z</time>
      </trkpt>
      <trkpt lat="44.48727" lon="4.73865">
        <ele>127.38</ele>
        <time>2022-08-15T07:12:26Z</time>
      </trkpt>
      <trkpt lat="44.48699" lon="4.7378">
        <ele>127.35</ele>
        <time>2022-08-15T07:12:30Z</time>
      </trkpt>
      <trkpt lat="44.48694" lon="4.73757">
        <ele>124.78</ele>
        <time>2022-08-15T07:12:31Z</time>
      </trkpt>
      <trkpt lat="44.4869" lon="4.73733">
        <ele>124.7</ele>
        <time>2022-08-15T07:12:32Z</time>
      </trkpt>
      <trkpt lat="44.48683" lon="4.73685">
        <ele>123.4</ele>
        <time>2022-08-15T07:12:34Z</time>
      </trkpt>
      <trkpt lat="44.48674" lon="4.73619">
        <ele>120.63</ele>
        <time>2022-08-15T07:12:37Z</time>
      </trkpt>
      <trkpt lat="44.48667" lon="4.73558">
        <ele>117.74</ele>
        <time>2022-08-15T07:12:40Z</time>
      </trkpt>
      <trkpt lat="44.4868" lon="4.73381">
        <ele>117.69</ele>
        <time>2022-08-15T07:12:48Z</time>
      </trkpt>
      <trkpt lat="44.48685" lon="4.73269">
        <ele>116.74</ele>
        <time>2022-08-15T07:12:53Z</time>
      </trkpt>
      <trkpt lat="44.48683" lon="4.73247">
        <ele>116.72</ele>
        <time>2022-08-15T07:12:54Z</time>
      </trkpt>
      <trkpt lat="44.48638" lon="4.7297">
        <ele>114.85</ele>
        <time>2022-08-15T07:13:08Z</time>
      </trkpt>
      <trkpt lat="44.48637" lon="4.7295">
        <ele>114.8</ele>
        <time>2022-08-15T07:13:09Z</time>
      </trkpt>
      <trkpt lat="44.48641" lon="4.72656">
        <ele>113.85</ele>
        <time>2022-08-15T07:13:22Z</time>
      </trkpt>
      <trkpt lat="44.48645" lon="4.72438">
        <ele>111.43</ele>
        <time>2022-08-15T07:13:31Z</time>
      </trkpt>
      <trkpt lat="44.48646" lon="4.7238">
        <ele>110.03</ele>
        <time>2022-08-15T07:13:34Z</time>
      </trkpt>
      <trkpt lat="44.48646" lon="4.7233">
        <ele>108.15</ele>
        <time>2022-08-15T07:13:37Z</time>
      </trkpt>
      <trkpt lat="44.48647" lon="4.723">
        <ele>107.27</ele>
        <time>2022-08-15T07:13:39Z</time>
      </trkpt>
      <trkpt lat="44.48645" lon="4.72244">
        <ele>104.54</ele>
        <time>2022-08-15T07:13:43Z</time>
      </trkpt>
      <trkpt lat="44.48645" lon="4.72198">
        <ele>102.69</ele>
        <time>2022-08-15T07:13:46Z</time>
      </trkpt>
      <trkpt lat="44.48644" lon="4.72169">
        <ele>101.23</ele>
        <time>2022-08-15T07:13:48Z</time>
      </trkpt>
      <trkpt lat="44.48639" lon="4.72127">
        <ele>99.01</ele>
        <time>2022-08-15T07:13:51Z</time>
      </trkpt>
      <trkpt lat="44.48638" lon="4.72098">
        <ele>97.73</ele>
        <time>2022-08-15T07:13:53Z</time>
      </trkpt>
      <trkpt lat="44.48637" lon="4.7207">
        <ele>96.12</ele>
        <time>2022-08-15T07:13:55Z</time>
      </trkpt>
      <trkpt lat="44.48636" lon="4.72041">
        <ele>94.79</ele>
        <time>2022-08-15T07:13:57Z</time>
      </trkpt>
      <trkpt lat="44.48634" lon="4.71964">
        <ele>92.18</ele>
        <time>2022-08-15T07:14:02Z</time>
      </trkpt>
      <trkpt lat="44.48632" lon="4.71936">
        <ele>90.34</ele>
        <time>2022-08-15T07:14:04Z</time>
      </trkpt>
      <trkpt lat="44.48632" lon="4.7191">
        <ele>89.03</ele>
        <time>2022-08-15T07:14:06Z</time>
      </trkpt>
      <trkpt lat="44.48629" lon="4.71824">
        <ele>86.65</ele>
        <time>2022-08-15T07:14:12Z</time>
      </trkpt>
      <trkpt lat="44.48628" lon="4.71717">
        <ele>84.44</ele>
        <time>2022-08-15T07:14:21Z</time>
      </trkpt>
      <trkpt lat="44.4863" lon="4.71708">
        <ele>84.4</ele>
        <time>2022-08-15T07:14:22Z</time>
      </trkpt>
      <trkpt lat="44.48632" lon="4.71701">
        <ele>82.94</ele>
        <time>2022-08-15T07:14:23Z</time>
      </trkpt>
      <trkpt lat="44.48636" lon="4.71695">
        <ele>82.07</ele>
        <time>2022-08-15T07:14:24Z</time>
      </trkpt>
      <trkpt lat="44.48639" lon="4.71691">
        <ele>82.41</ele>
        <time>2022-08-15T07:14:25Z</time>
      </trkpt>
      <trkpt lat="44.48644" lon="4.71688">
        <ele>81.54</ele>
        <time>2022-08-15T07:14:26Z</time>
      </trkpt>
      <trkpt lat="44.48648" lon="4.71684">
        <ele>81.51</ele>
        <time>2022-08-15T07:14:27Z</time>
      </trkpt>
      <trkpt lat="44.48651" lon="4.71679">
        <ele>81.51</ele>
        <time>2022-08-15T07:14:28Z</time>
      </trkpt>
      <trkpt lat="44.48653" lon="4.71674">
        <ele>81.49</ele>
        <time>2022-08-15T07:14:29Z</time>
      </trkpt>
      <trkpt lat="44.48652" lon="4.71669">
        <ele>81.48</ele>
        <time>2022-08-15T07:14:30Z</time>
      </trkpt>
      <trkpt lat="44.4865" lon="4.71663">
        <ele>81.46</ele>
        <time>2022-08-15T07:14:31Z</time>
      </trkpt>
      <trkpt lat="44.48647" lon="4.71656">
        <ele>81.48</ele>
        <time>2022-08-15T07:14:32Z</time>
      </trkpt>
      <trkpt lat="44.48643" lon="4.71647">
        <ele>81.49</ele>
        <time>2022-08-15T07:14:33Z</time>
      </trkpt>
      <trkpt lat="44.48582" lon="4.71545">
        <ele>81.53</ele>
        <time>2022-08-15T07:14:43Z</time>
      </trkpt>
      <trkpt lat="44.4856" lon="4.7151">
        <ele>81.52</ele>
        <time>2022-08-15T07:14:46Z</time>
      </trkpt>
      <trkpt lat="44.48556" lon="4.71498">
        <ele>81.51</ele>
        <time>2022-08-15T07:14:47Z</time>
      </trkpt>
      <trkpt lat="44.48555" lon="4.71484">
        <ele>81.48</ele>
        <time>2022-08-15T07:14:48Z</time>
      </trkpt>
      <trkpt lat="44.48555" lon="4.7147">
        <ele>81.57</ele>
        <time>2022-08-15T07:14:49Z</time>
      </trkpt>
      <trkpt lat="44.48558" lon="4.71456">
        <ele>81.56</ele>
        <time>2022-08-15T07:14:50Z</time>
      </trkpt>
      <trkpt lat="44.4856" lon="4.71441">
        <ele>81.56</ele>
        <time>2022-08-15T07:14:51Z</time>
      </trkpt>
      <trkpt lat="44.48563" lon="4.71427">
        <ele>80.44</ele>
        <time>2022-08-15T07:14:52Z</time>
      </trkpt>
      <trkpt lat="44.4857" lon="4.71383">
        <ele>80.41</ele>
        <time>2022-08-15T07:14:55Z</time>
      </trkpt>
      <trkpt lat="44.48571" lon="4.71367">
        <ele>80.41</ele>
        <time>2022-08-15T07:14:56Z</time>
      </trkpt>
      <trkpt lat="44.4857" lon="4.71351">
        <ele>79.64</ele>
        <time>2022-08-15T07:14:57Z</time>
      </trkpt>
      <trkpt lat="44.48568" lon="4.71335">
        <ele>79.63</ele>
        <time>2022-08-15T07:14:58Z</time>
      </trkpt>
      <trkpt lat="44.48564" lon="4.71319">
        <ele>79.63</ele>
        <time>2022-08-15T07:14:59Z</time>
      </trkpt>
      <trkpt lat="44.48559" lon="4.71303">
        <ele>79.63</ele>
        <time>2022-08-15T07:15:00Z</time>
      </trkpt>
      <trkpt lat="44.48553" lon="4.71288">
        <ele>79.59</ele>
        <time>2022-08-15T07:15:01Z</time>
      </trkpt>
      <trkpt lat="44.48546" lon="4.71273">
        <ele>79.59</ele>
        <time>2022-08-15T07:15:02Z</time>
      </trkpt>
      <trkpt lat="44.4846" lon="4.71088">
        <ele>76.66</ele>
        <time>2022-08-15T07:15:13Z</time>
      </trkpt>
      <trkpt lat="44.48435" lon="4.71029">
        <ele>75.84</ele>
        <time>2022-08-15T07:15:17Z</time>
      </trkpt>
      <trkpt lat="44.48432" lon="4.71013">
        <ele>75.81</ele>
        <time>2022-08-15T07:15:18Z</time>
      </trkpt>
      <trkpt lat="44.48433" lon="4.70995">
        <ele>75.82</ele>
        <time>2022-08-15T07:15:19Z</time>
      </trkpt>
      <trkpt lat="44.48436" lon="4.70977">
        <ele>75.79</ele>
        <time>2022-08-15T07:15:20Z</time>
      </trkpt>
      <trkpt lat="44.48441" lon="4.70959">
        <ele>75.79</ele>
        <time>2022-08-15T07:15:21Z</time>
      </trkpt>
      <trkpt lat="44.48447" lon="4.70941">
        <ele>75.79</ele>
        <time>2022-08-15T07:15:22Z</time>
      </trkpt>
      <trkpt lat="44.48452" lon="4.70922">
        <ele>75.76</ele>
        <time>2022-08-15T07:15:23Z</time>
      </trkpt>
      <trkpt lat="44.48455" lon="4.70902">
        <ele>75.76</ele>
        <time>2022-08-15T07:15:24Z</time>
      </trkpt>
      <trkpt lat="44.48454" lon="4.70881">
        <ele>74.7</ele>
        <time>2022-08-15T07:15:25Z</time>
      </trkpt>
      <trkpt lat="44.48451" lon="4.70861">
        <ele>74.7</ele>
        <time>2022-08-15T07:15:26Z</time>
      </trkpt>
      <trkpt lat="44.48445" lon="4.70841">
        <ele>73.73</ele>
        <time>2022-08-15T07:15:27Z</time>
      </trkpt>
      <trkpt lat="44.48436" lon="4.70824">
        <ele>72.48</ele>
        <time>2022-08-15T07:15:28Z</time>
      </trkpt>
      <trkpt lat="44.48425" lon="4.70807">
        <ele>72.48</ele>
        <time>2022-08-15T07:15:29Z</time>
      </trkpt>
      <trkpt lat="44.48413" lon="4.70792">
        <ele>72.49</ele>
        <time>2022-08-15T07:15:30Z</time>
      </trkpt>
      <trkpt lat="44.48328" lon="4.70677">
        <ele>68.49</ele>
        <time>2022-08-15T07:15:37Z</time>
      </trkpt>
      <trkpt lat="44.4827" lon="4.706">
        <ele>66.96</ele>
        <time>2022-08-15T07:15:42Z</time>
      </trkpt>
      <trkpt lat="44.48226" lon="4.7054">
        <ele>64.45</ele>
        <time>2022-08-15T07:15:46Z</time>
      </trkpt>
      <trkpt lat="44.48218" lon="4.70523">
        <ele>64.39</ele>
        <time>2022-08-15T07:15:47Z</time>
      </trkpt>
      <trkpt lat="44.48211" lon="4.70505">
        <ele>64.39</ele>
        <time>2022-08-15T07:15:48Z</time>
      </trkpt>
      <trkpt lat="44.48207" lon="4.70484">
        <ele>64.41</ele>
        <time>2022-08-15T07:15:49Z</time>
      </trkpt>
      <trkpt lat="44.48205" lon="4.70463">
        <ele>64.38</ele>
        <time>2022-08-15T07:15:50Z</time>
      </trkpt>
      <trkpt lat="44.48203" lon="4.70441">
        <ele>64.38</ele>
        <time>2022-08-15T07:15:51Z</time>
      </trkpt>
      <trkpt lat="44.48188" lon="4.70253">
        <ele>62.77</ele>
        <time>2022-08-15T07:16:00Z</time>
      </trkpt>
      <trkpt lat="44.48174" lon="4.70078">
        <ele>64.58</ele>
        <time>2022-08-15T07:16:11Z</time>
      </trkpt>
      <trkpt lat="44.48172" lon="4.7006">
        <ele>64.59</ele>
        <time>2022-08-15T07:16:12Z</time>
      </trkpt>
      <trkpt lat="44.48167" lon="4.6999">
        <ele>66.39</ele>
        <time>2022-08-15T07:16:16Z</time>
      </trkpt>
      <trkpt lat="44.48148" lon="4.69765">
        <ele>67.25</ele>
        <time>2022-08-15T07:16:29Z</time>
      </trkpt>
      <trkpt lat="44.48142" lon="4.69689">
        <ele>64.85</ele>
        <time>2022-08-15T07:16:33Z</time>
      </trkpt>
      <trkpt lat="44.48109" lon="4.69315">
        <ele>63.11</ele>
        <time>2022-08-15T07:16:52Z</time>
      </trkpt>
      <trkpt lat="44.48105" lon="4.69279">
        <ele>63.21</ele>
        <time>2022-08-15T07:16:54Z</time>
      </trkpt>
      <trkpt lat="44.48102" lon="4.69261">
        <ele>63.21</ele>
        <time>2022-08-15T07:16:55Z</time>
      </trkpt>
      <trkpt lat="44.48072" lon="4.69143">
        <ele>65.55</ele>
        <time>2022-08-15T07:17:03Z</time>
      </trkpt>
      <trkpt lat="44.48058" lon="4.69089">
        <ele>67.58</ele>
        <time>2022-08-15T07:17:07Z</time>
      </trkpt>
      <trkpt lat="44.48046" lon="4.69045">
        <ele>69.48</ele>
        <time>2022-08-15T07:17:11Z</time>
      </trkpt>
      <trkpt lat="44.48045" lon="4.69037">
        <ele>69.54</ele>
        <time>2022-08-15T07:17:12Z</time>
      </trkpt>
      <trkpt lat="44.48045" lon="4.69028">
        <ele>69.55</ele>
        <time>2022-08-15T07:17:13Z</time>
      </trkpt>
      <trkpt lat="44.48047" lon="4.6902">
        <ele>69.55</ele>
        <time>2022-08-15T07:17:14Z</time>
      </trkpt>
      <trkpt lat="44.48051" lon="4.69012">
        <ele>70.4</ele>
        <time>2022-08-15T07:17:15Z</time>
      </trkpt>
      <trkpt lat="44.48056" lon="4.69005">
        <ele>70.39</ele>
        <time>2022-08-15T07:17:16Z</time>
      </trkpt>
      <trkpt lat="44.48062" lon="4.68998">
        <ele>70.88</ele>
        <time>2022-08-15T07:17:17Z</time>
      </trkpt>
      <trkpt lat="44.48069" lon="4.68991">
        <ele>70.88</ele>
        <time>2022-08-15T07:17:18Z</time>
      </trkpt>
      <trkpt lat="44.48076" lon="4.68984">
        <ele>70.92</ele>
        <time>2022-08-15T07:17:19Z</time>
      </trkpt>
      <trkpt lat="44.48182" lon="4.68896">
        <ele>72.87</ele>
        <time>2022-08-15T07:17:34Z</time>
      </trkpt>
      <trkpt lat="44.48282" lon="4.68838">
        <ele>76.33</ele>
        <time>2022-08-15T07:17:47Z</time>
      </trkpt>
      <trkpt lat="44.48289" lon="4.6883">
        <ele>76.35</ele>
        <time>2022-08-15T07:17:48Z</time>
      </trkpt>
      <trkpt lat="44.48296" lon="4.68822">
        <ele>76.35</ele>
        <time>2022-08-15T07:17:49Z</time>
      </trkpt>
      <trkpt lat="44.48301" lon="4.68813">
        <ele>77.59</ele>
        <time>2022-08-15T07:17:50Z</time>
      </trkpt>
      <trkpt lat="44.48306" lon="4.68803">
        <ele>77.6</ele>
        <time>2022-08-15T07:17:51Z</time>
      </trkpt>
      <trkpt lat="44.48311" lon="4.68791">
        <ele>77.6</ele>
        <time>2022-08-15T07:17:52Z</time>
      </trkpt>
      <trkpt lat="44.48316" lon="4.68779">
        <ele>77.63</ele>
        <time>2022-08-15T07:17:53Z</time>
      </trkpt>
      <trkpt lat="44.48331" lon="4.68746">
        <ele>77.63</ele>
        <time>2022-08-15T07:17:56Z</time>
      </trkpt>
      <trkpt lat="44.48336" lon="4.68735">
        <ele>77.6</ele>
        <time>2022-08-15T07:17:57Z</time>
      </trkpt>
      <trkpt lat="44.48348" lon="4.6871">
        <ele>75</ele>
        <time>2022-08-15T07:18:00Z</time>
      </trkpt>
      <trkpt lat="44.48404" lon="4.68615">
        <ele>73.77</ele>
        <time>2022-08-15T07:18:09Z</time>
      </trkpt>
      <trkpt lat="44.48526" lon="4.68401">
        <ele>71.25</ele>
        <time>2022-08-15T07:18:26Z</time>
      </trkpt>
      <trkpt lat="44.48531" lon="4.68385">
        <ele>71.29</ele>
        <time>2022-08-15T07:18:27Z</time>
      </trkpt>
      <trkpt lat="44.48535" lon="4.68369">
        <ele>71.3</ele>
        <time>2022-08-15T07:18:28Z</time>
      </trkpt>
      <trkpt lat="44.48538" lon="4.68351">
        <ele>71.3</ele>
        <time>2022-08-15T07:18:29Z</time>
      </trkpt>
      <trkpt lat="44.4854" lon="4.68333">
        <ele>71.32</ele>
        <time>2022-08-15T07:18:30Z</time>
      </trkpt>
      <trkpt lat="44.48541" lon="4.68314">
        <ele>71.32</ele>
        <time>2022-08-15T07:18:31Z</time>
      </trkpt>
      <trkpt lat="44.48547" lon="4.68213">
        <ele>74.87</ele>
        <time>2022-08-15T07:18:36Z</time>
      </trkpt>
      <trkpt lat="44.48549" lon="4.68151">
        <ele>76.65</ele>
        <time>2022-08-15T07:18:39Z</time>
      </trkpt>
      <trkpt lat="44.48545" lon="4.67934">
        <ele>74.91</ele>
        <time>2022-08-15T07:18:50Z</time>
      </trkpt>
      <trkpt lat="44.48542" lon="4.67884">
        <ele>72.94</ele>
        <time>2022-08-15T07:18:53Z</time>
      </trkpt>
      <trkpt lat="44.48543" lon="4.67869">
        <ele>72.13</ele>
        <time>2022-08-15T07:18:54Z</time>
      </trkpt>
      <trkpt lat="44.48545" lon="4.67853">
        <ele>72.06</ele>
        <time>2022-08-15T07:18:55Z</time>
      </trkpt>
      <trkpt lat="44.48548" lon="4.67838">
        <ele>72.06</ele>
        <time>2022-08-15T07:18:56Z</time>
      </trkpt>
      <trkpt lat="44.48553" lon="4.67822">
        <ele>71.09</ele>
        <time>2022-08-15T07:18:57Z</time>
      </trkpt>
      <trkpt lat="44.4856" lon="4.67807">
        <ele>71.13</ele>
        <time>2022-08-15T07:18:58Z</time>
      </trkpt>
      <trkpt lat="44.48567" lon="4.67791">
        <ele>71.09</ele>
        <time>2022-08-15T07:18:59Z</time>
      </trkpt>
      <trkpt lat="44.4869" lon="4.67552">
        <ele>71.44</ele>
        <time>2022-08-15T07:19:13Z</time>
      </trkpt>
      <trkpt lat="44.48745" lon="4.6745">
        <ele>71.44</ele>
        <time>2022-08-15T07:19:20Z</time>
      </trkpt>
      <trkpt lat="44.48755" lon="4.67442">
        <ele>71.49</ele>
        <time>2022-08-15T07:19:21Z</time>
      </trkpt>
      <trkpt lat="44.48766" lon="4.67438">
        <ele>71.49</ele>
        <time>2022-08-15T07:19:22Z</time>
      </trkpt>
      <trkpt lat="44.48778" lon="4.67437">
        <ele>71.49</ele>
        <time>2022-08-15T07:19:23Z</time>
      </trkpt>
      <trkpt lat="44.4879" lon="4.6744">
        <ele>71.49</ele>
        <time>2022-08-15T07:19:24Z</time>
      </trkpt>
      <trkpt lat="44.48802" lon="4.67446">
        <ele>73.81</ele>
        <time>2022-08-15T07:19:25Z</time>
      </trkpt>
      <trkpt lat="44.48814" lon="4.67453">
        <ele>73.79</ele>
        <time>2022-08-15T07:19:26Z</time>
      </trkpt>
      <trkpt lat="44.4887" lon="4.67484">
        <ele>74.72</ele>
        <time>2022-08-15T07:19:31Z</time>
      </trkpt>
      <trkpt lat="44.48877" lon="4.67491">
        <ele>74.72</ele>
        <time>2022-08-15T07:19:32Z</time>
      </trkpt>
      <trkpt lat="44.48889" lon="4.67504">
        <ele>74.75</ele>
        <time>2022-08-15T07:19:34Z</time>
      </trkpt>
      <trkpt lat="44.48894" lon="4.67506">
        <ele>74.72</ele>
        <time>2022-08-15T07:19:35Z</time>
      </trkpt>
      <trkpt lat="44.48899" lon="4.67504">
        <ele>72.37</ele>
        <time>2022-08-15T07:19:36Z</time>
      </trkpt>
      <trkpt lat="44.48902" lon="4.67497">
        <ele>72.38</ele>
        <time>2022-08-15T07:19:37Z</time>
      </trkpt>
      <trkpt lat="44.48906" lon="4.67487">
        <ele>72.42</ele>
        <time>2022-08-15T07:19:38Z</time>
      </trkpt>
      <trkpt lat="44.48911" lon="4.67476">
        <ele>72.43</ele>
        <time>2022-08-15T07:19:39Z</time>
      </trkpt>
      <trkpt lat="44.48918" lon="4.67464">
        <ele>72.45</ele>
        <time>2022-08-15T07:19:40Z</time>
      </trkpt>
      <trkpt lat="44.48928" lon="4.67451">
        <ele>72.45</ele>
        <time>2022-08-15T07:19:41Z</time>
      </trkpt>
      <trkpt lat="44.4895" lon="4.67426">
        <ele>74.8</ele>
        <time>2022-08-15T07:19:43Z</time>
      </trkpt>
      <trkpt lat="44.48975" lon="4.67402">
        <ele>76.07</ele>
        <time>2022-08-15T07:19:45Z</time>
      </trkpt>
      <trkpt lat="44.48997" lon="4.67374">
        <ele>75.99</ele>
        <time>2022-08-15T07:19:47Z</time>
      </trkpt>
      <trkpt lat="44.49006" lon="4.67357">
        <ele>76.07</ele>
        <time>2022-08-15T07:19:48Z</time>
      </trkpt>
      <trkpt lat="44.49013" lon="4.67337">
        <ele>76.09</ele>
        <time>2022-08-15T07:19:49Z</time>
      </trkpt>
      <trkpt lat="44.49016" lon="4.67316">
        <ele>76.16</ele>
        <time>2022-08-15T07:19:50Z</time>
      </trkpt>
      <trkpt lat="44.49017" lon="4.67295">
        <ele>75.99</ele>
        <time>2022-08-15T07:19:51Z</time>
      </trkpt>
      <trkpt lat="44.49016" lon="4.67272">
        <ele>76.02</ele>
        <time>2022-08-15T07:19:52Z</time>
      </trkpt>
      <trkpt lat="44.49002" lon="4.66932">
        <ele>76.99</ele>
        <time>2022-08-15T07:20:07Z</time>
      </trkpt>
      <trkpt lat="44.49003" lon="4.66911">
        <ele>76.97</ele>
        <time>2022-08-15T07:20:08Z</time>
      </trkpt>
      <trkpt lat="44.49006" lon="4.6689">
        <ele>76.98</ele>
        <time>2022-08-15T07:20:09Z</time>
      </trkpt>
      <trkpt lat="44.49011" lon="4.66869">
        <ele>76.98</ele>
        <time>2022-08-15T07:20:10Z</time>
      </trkpt>
      <trkpt lat="44.49018" lon="4.66849">
        <ele>76.98</ele>
        <time>2022-08-15T07:20:11Z</time>
      </trkpt>
      <trkpt lat="44.49026" lon="4.6683">
        <ele>76.99</ele>
        <time>2022-08-15T07:20:12Z</time>
      </trkpt>
      <trkpt lat="44.49035" lon="4.66812">
        <ele>76.99</ele>
        <time>2022-08-15T07:20:13Z</time>
      </trkpt>
      <trkpt lat="44.49109" lon="4.66655">
        <ele>79.34</ele>
        <time>2022-08-15T07:20:21Z</time>
      </trkpt>
      <trkpt lat="44.49184" lon="4.66491">
        <ele>83.29</ele>
        <time>2022-08-15T07:20:29Z</time>
      </trkpt>
      <trkpt lat="44.49222" lon="4.6641">
        <ele>84.65</ele>
        <time>2022-08-15T07:20:33Z</time>
      </trkpt>
      <trkpt lat="44.49285" lon="4.6628">
        <ele>86.21</ele>
        <time>2022-08-15T07:20:40Z</time>
      </trkpt>
      <trkpt lat="44.49294" lon="4.66268">
        <ele>86.21</ele>
        <time>2022-08-15T07:20:41Z</time>
      </trkpt>
      <trkpt lat="44.49304" lon="4.6626">
        <ele>86.25</ele>
        <time>2022-08-15T07:20:42Z</time>
      </trkpt>
      <trkpt lat="44.49316" lon="4.66259">
        <ele>87.21</ele>
        <time>2022-08-15T07:20:43Z</time>
      </trkpt>
      <trkpt lat="44.49327" lon="4.66263">
        <ele>87.25</ele>
        <time>2022-08-15T07:20:44Z</time>
      </trkpt>
      <trkpt lat="44.4934" lon="4.6627">
        <ele>88.8</ele>
        <time>2022-08-15T07:20:45Z</time>
      </trkpt>
      <trkpt lat="44.49354" lon="4.66277">
        <ele>88.83</ele>
        <time>2022-08-15T07:20:46Z</time>
      </trkpt>
      <trkpt lat="44.49369" lon="4.66281">
        <ele>88.82</ele>
        <time>2022-08-15T07:20:47Z</time>
      </trkpt>
      <trkpt lat="44.49401" lon="4.66284">
        <ele>88.73</ele>
        <time>2022-08-15T07:20:49Z</time>
      </trkpt>
      <trkpt lat="44.49417" lon="4.66281">
        <ele>89.97</ele>
        <time>2022-08-15T07:20:50Z</time>
      </trkpt>
      <trkpt lat="44.49434" lon="4.66276">
        <ele>89.99</ele>
        <time>2022-08-15T07:20:51Z</time>
      </trkpt>
      <trkpt lat="44.49521" lon="4.66235">
        <ele>89.98</ele>
        <time>2022-08-15T07:20:56Z</time>
      </trkpt>
      <trkpt lat="44.49626" lon="4.66145">
        <ele>87.29</ele>
        <time>2022-08-15T07:21:03Z</time>
      </trkpt>
      <trkpt lat="44.49664" lon="4.66102">
        <ele>86.48</ele>
        <time>2022-08-15T07:21:06Z</time>
      </trkpt>
      <trkpt lat="44.49673" lon="4.66083">
        <ele>86.45</ele>
        <time>2022-08-15T07:21:07Z</time>
      </trkpt>
      <trkpt lat="44.49681" lon="4.66063">
        <ele>86.44</ele>
        <time>2022-08-15T07:21:08Z</time>
      </trkpt>
      <trkpt lat="44.49686" lon="4.66041">
        <ele>86.42</ele>
        <time>2022-08-15T07:21:09Z</time>
      </trkpt>
      <trkpt lat="44.49689" lon="4.66019">
        <ele>86.42</ele>
        <time>2022-08-15T07:21:10Z</time>
      </trkpt>
      <trkpt lat="44.49692" lon="4.65998">
        <ele>86.59</ele>
        <time>2022-08-15T07:21:11Z</time>
      </trkpt>
      <trkpt lat="44.49719" lon="4.65805">
        <ele>84.29</ele>
        <time>2022-08-15T07:21:21Z</time>
      </trkpt>
      <trkpt lat="44.49725" lon="4.65756">
        <ele>84.26</ele>
        <time>2022-08-15T07:21:24Z</time>
      </trkpt>
      <trkpt lat="44.49724" lon="4.65739">
        <ele>84.28</ele>
        <time>2022-08-15T07:21:25Z</time>
      </trkpt>
      <trkpt lat="44.49722" lon="4.65721">
        <ele>84.29</ele>
        <time>2022-08-15T07:21:26Z</time>
      </trkpt>
      <trkpt lat="44.4968" lon="4.65551">
        <ele>86.81</ele>
        <time>2022-08-15T07:21:35Z</time>
      </trkpt>
      <trkpt lat="44.49644" lon="4.65454">
        <ele>87.8</ele>
        <time>2022-08-15T07:21:40Z</time>
      </trkpt>
      <trkpt lat="44.49634" lon="4.65436">
        <ele>87.83</ele>
        <time>2022-08-15T07:21:41Z</time>
      </trkpt>
      <trkpt lat="44.49622" lon="4.65418">
        <ele>87.85</ele>
        <time>2022-08-15T07:21:42Z</time>
      </trkpt>
      <trkpt lat="44.49547" lon="4.65317">
        <ele>87.84</ele>
        <time>2022-08-15T07:21:48Z</time>
      </trkpt>
      <trkpt lat="44.49537" lon="4.65298">
        <ele>87.82</ele>
        <time>2022-08-15T07:21:49Z</time>
      </trkpt>
      <trkpt lat="44.49529" lon="4.65277">
        <ele>87.84</ele>
        <time>2022-08-15T07:21:50Z</time>
      </trkpt>
      <trkpt lat="44.49523" lon="4.65256">
        <ele>87.8</ele>
        <time>2022-08-15T07:21:51Z</time>
      </trkpt>
      <trkpt lat="44.49517" lon="4.65233">
        <ele>87.81</ele>
        <time>2022-08-15T07:21:52Z</time>
      </trkpt>
      <trkpt lat="44.49513" lon="4.65211">
        <ele>87.81</ele>
        <time>2022-08-15T07:21:53Z</time>
      </trkpt>
      <trkpt lat="44.49479" lon="4.64954">
        <ele>87.88</ele>
        <time>2022-08-15T07:22:04Z</time>
      </trkpt>
      <trkpt lat="44.49482" lon="4.64931">
        <ele>89.21</ele>
        <time>2022-08-15T07:22:05Z</time>
      </trkpt>
      <trkpt lat="44.49485" lon="4.64909">
        <ele>89.2</ele>
        <time>2022-08-15T07:22:06Z</time>
      </trkpt>
      <trkpt lat="44.495" lon="4.6484">
        <ele>90.53</ele>
        <time>2022-08-15T07:22:09Z</time>
      </trkpt>
      <trkpt lat="44.49524" lon="4.64671">
        <ele>92.42</ele>
        <time>2022-08-15T07:22:16Z</time>
      </trkpt>
      <trkpt lat="44.4953" lon="4.64648">
        <ele>92.42</ele>
        <time>2022-08-15T07:22:17Z</time>
      </trkpt>
      <trkpt lat="44.49537" lon="4.64627">
        <ele>93.27</ele>
        <time>2022-08-15T07:22:18Z</time>
      </trkpt>
      <trkpt lat="44.49546" lon="4.64609">
        <ele>93.27</ele>
        <time>2022-08-15T07:22:19Z</time>
      </trkpt>
      <trkpt lat="44.49558" lon="4.64595">
        <ele>94.22</ele>
        <time>2022-08-15T07:22:20Z</time>
      </trkpt>
      <trkpt lat="44.49572" lon="4.64584">
        <ele>95.39</ele>
        <time>2022-08-15T07:22:21Z</time>
      </trkpt>
      <trkpt lat="44.49587" lon="4.64577">
        <ele>96.16</ele>
        <time>2022-08-15T07:22:22Z</time>
      </trkpt>
      <trkpt lat="44.49604" lon="4.64572">
        <ele>97.86</ele>
        <time>2022-08-15T07:22:23Z</time>
      </trkpt>
      <trkpt lat="44.49621" lon="4.64567">
        <ele>97.83</ele>
        <time>2022-08-15T07:22:24Z</time>
      </trkpt>
      <trkpt lat="44.49705" lon="4.64542">
        <ele>98.42</ele>
        <time>2022-08-15T07:22:29Z</time>
      </trkpt>
      <trkpt lat="44.49721" lon="4.64533">
        <ele>98.43</ele>
        <time>2022-08-15T07:22:30Z</time>
      </trkpt>
      <trkpt lat="44.49737" lon="4.64521">
        <ele>98.42</ele>
        <time>2022-08-15T07:22:31Z</time>
      </trkpt>
      <trkpt lat="44.49751" lon="4.64507">
        <ele>98.45</ele>
        <time>2022-08-15T07:22:32Z</time>
      </trkpt>
      <trkpt lat="44.49765" lon="4.64493">
        <ele>98.46</ele>
        <time>2022-08-15T07:22:33Z</time>
      </trkpt>
      <trkpt lat="44.499" lon="4.64352">
        <ele>99.39</ele>
        <time>2022-08-15T07:22:43Z</time>
      </trkpt>
      <trkpt lat="44.4991" lon="4.64335">
        <ele>99.4</ele>
        <time>2022-08-15T07:22:44Z</time>
      </trkpt>
      <trkpt lat="44.49918" lon="4.64316">
        <ele>99.37</ele>
        <time>2022-08-15T07:22:45Z</time>
      </trkpt>
      <trkpt lat="44.49922" lon="4.64294">
        <ele>99.37</ele>
        <time>2022-08-15T07:22:46Z</time>
      </trkpt>
      <trkpt lat="44.49924" lon="4.64271">
        <ele>99.37</ele>
        <time>2022-08-15T07:22:47Z</time>
      </trkpt>
      <trkpt lat="44.49925" lon="4.64247">
        <ele>99.41</ele>
        <time>2022-08-15T07:22:48Z</time>
      </trkpt>
      <trkpt lat="44.49926" lon="4.64151">
        <ele>101.65</ele>
        <time>2022-08-15T07:22:52Z</time>
      </trkpt>
      <trkpt lat="44.49924" lon="4.64127">
        <ele>102.92</ele>
        <time>2022-08-15T07:22:53Z</time>
      </trkpt>
      <trkpt lat="44.49921" lon="4.64103">
        <ele>102.93</ele>
        <time>2022-08-15T07:22:54Z</time>
      </trkpt>
      <trkpt lat="44.49923" lon="4.63934">
        <ele>103.02</ele>
        <time>2022-08-15T07:23:01Z</time>
      </trkpt>
      <trkpt lat="44.4999" lon="4.63662">
        <ele>100.13</ele>
        <time>2022-08-15T07:23:13Z</time>
      </trkpt>
      <trkpt lat="44.50002" lon="4.63599">
        <ele>98.16</ele>
        <time>2022-08-15T07:23:16Z</time>
      </trkpt>
      <trkpt lat="44.50006" lon="4.63541">
        <ele>97.14</ele>
        <time>2022-08-15T07:23:19Z</time>
      </trkpt>
      <trkpt lat="44.50009" lon="4.63522">
        <ele>97.11</ele>
        <time>2022-08-15T07:23:20Z</time>
      </trkpt>
      <trkpt lat="44.50014" lon="4.63504">
        <ele>97.11</ele>
        <time>2022-08-15T07:23:21Z</time>
      </trkpt>
      <trkpt lat="44.50019" lon="4.63485">
        <ele>97.15</ele>
        <time>2022-08-15T07:23:22Z</time>
      </trkpt>
      <trkpt lat="44.50026" lon="4.63465">
        <ele>97.12</ele>
        <time>2022-08-15T07:23:23Z</time>
      </trkpt>
      <trkpt lat="44.50041" lon="4.63425">
        <ele>99.38</ele>
        <time>2022-08-15T07:23:25Z</time>
      </trkpt>
      <trkpt lat="44.50056" lon="4.63381">
        <ele>100.73</ele>
        <time>2022-08-15T07:23:27Z</time>
      </trkpt>
      <trkpt lat="44.50113" lon="4.63207">
        <ele>100.98</ele>
        <time>2022-08-15T07:23:36Z</time>
      </trkpt>
      <trkpt lat="44.5014" lon="4.63157">
        <ele>103.08</ele>
        <time>2022-08-15T07:23:40Z</time>
      </trkpt>
      <trkpt lat="44.50184" lon="4.63107">
        <ele>106.24</ele>
        <time>2022-08-15T07:23:45Z</time>
      </trkpt>
      <trkpt lat="44.50194" lon="4.63101">
        <ele>106.99</ele>
        <time>2022-08-15T07:23:46Z</time>
      </trkpt>
      <trkpt lat="44.50204" lon="4.63097">
        <ele>106.99</ele>
        <time>2022-08-15T07:23:47Z</time>
      </trkpt>
      <trkpt lat="44.50224" lon="4.63088">
        <ele>107.04</ele>
        <time>2022-08-15T07:23:49Z</time>
      </trkpt>
      <trkpt lat="44.50233" lon="4.63082">
        <ele>107.04</ele>
        <time>2022-08-15T07:23:50Z</time>
      </trkpt>
      <trkpt lat="44.50241" lon="4.63074">
        <ele>107.11</ele>
        <time>2022-08-15T07:23:51Z</time>
      </trkpt>
      <trkpt lat="44.5027" lon="4.63041">
        <ele>104.69</ele>
        <time>2022-08-15T07:23:55Z</time>
      </trkpt>
      <trkpt lat="44.50334" lon="4.6293">
        <ele>102.53</ele>
        <time>2022-08-15T07:24:06Z</time>
      </trkpt>
      <trkpt lat="44.50397" lon="4.62807">
        <ele>102.56</ele>
        <time>2022-08-15T07:24:16Z</time>
      </trkpt>
      <trkpt lat="44.50418" lon="4.62772">
        <ele>102.57</ele>
        <time>2022-08-15T07:24:20Z</time>
      </trkpt>
      <trkpt lat="44.50423" lon="4.62763">
        <ele>102.57</ele>
        <time>2022-08-15T07:24:21Z</time>
      </trkpt>
      <trkpt lat="44.50428" lon="4.62752">
        <ele>102.59</ele>
        <time>2022-08-15T07:24:22Z</time>
      </trkpt>
      <trkpt lat="44.50472" lon="4.62658">
        <ele>106.53</ele>
        <time>2022-08-15T07:24:28Z</time>
      </trkpt>
      <trkpt lat="44.50481" lon="4.6264">
        <ele>106.46</ele>
        <time>2022-08-15T07:24:29Z</time>
      </trkpt>
      <trkpt lat="44.50512" lon="4.62582">
        <ele>108.86</ele>
        <time>2022-08-15T07:24:32Z</time>
      </trkpt>
      <trkpt lat="44.50532" lon="4.62542">
        <ele>110.2</ele>
        <time>2022-08-15T07:24:34Z</time>
      </trkpt>
      <trkpt lat="44.50553" lon="4.62502">
        <ele>111.65</ele>
        <time>2022-08-15T07:24:36Z</time>
      </trkpt>
      <trkpt lat="44.50594" lon="4.62422">
        <ele>115.72</ele>
        <time>2022-08-15T07:24:40Z</time>
      </trkpt>
      <trkpt lat="44.50604" lon="4.62402">
        <ele>115.71</ele>
        <time>2022-08-15T07:24:41Z</time>
      </trkpt>
      <trkpt lat="44.50623" lon="4.62362">
        <ele>117.29</ele>
        <time>2022-08-15T07:24:43Z</time>
      </trkpt>
      <trkpt lat="44.50653" lon="4.62303">
        <ele>119.07</ele>
        <time>2022-08-15T07:24:46Z</time>
      </trkpt>
      <trkpt lat="44.50673" lon="4.62264">
        <ele>120.74</ele>
        <time>2022-08-15T07:24:48Z</time>
      </trkpt>
      <trkpt lat="44.50692" lon="4.62228">
        <ele>122.35</ele>
        <time>2022-08-15T07:24:50Z</time>
      </trkpt>
      <trkpt lat="44.50703" lon="4.62212">
        <ele>123.6</ele>
        <time>2022-08-15T07:24:51Z</time>
      </trkpt>
      <trkpt lat="44.50715" lon="4.62199">
        <ele>123.68</ele>
        <time>2022-08-15T07:24:52Z</time>
      </trkpt>
      <trkpt lat="44.50729" lon="4.6219">
        <ele>125.18</ele>
        <time>2022-08-15T07:24:53Z</time>
      </trkpt>
      <trkpt lat="44.50745" lon="4.62186">
        <ele>125.25</ele>
        <time>2022-08-15T07:24:54Z</time>
      </trkpt>
      <trkpt lat="44.50761" lon="4.62187">
        <ele>126.2</ele>
        <time>2022-08-15T07:24:55Z</time>
      </trkpt>
      <trkpt lat="44.50776" lon="4.62193">
        <ele>127.48</ele>
        <time>2022-08-15T07:24:56Z</time>
      </trkpt>
      <trkpt lat="44.5079" lon="4.62204">
        <ele>127.47</ele>
        <time>2022-08-15T07:24:57Z</time>
      </trkpt>
      <trkpt lat="44.50802" lon="4.6222">
        <ele>128.34</ele>
        <time>2022-08-15T07:24:58Z</time>
      </trkpt>
      <trkpt lat="44.50811" lon="4.6224">
        <ele>129.31</ele>
        <time>2022-08-15T07:24:59Z</time>
      </trkpt>
      <trkpt lat="44.50815" lon="4.62262">
        <ele>129.91</ele>
        <time>2022-08-15T07:25:00Z</time>
      </trkpt>
      <trkpt lat="44.50817" lon="4.62285">
        <ele>129.99</ele>
        <time>2022-08-15T07:25:01Z</time>
      </trkpt>
      <trkpt lat="44.50817" lon="4.62308">
        <ele>129.99</ele>
        <time>2022-08-15T07:25:02Z</time>
      </trkpt>
      <trkpt lat="44.50817" lon="4.62332">
        <ele>130.76</ele>
        <time>2022-08-15T07:25:03Z</time>
      </trkpt>
      <trkpt lat="44.50824" lon="4.62532">
        <ele>133.95</ele>
        <time>2022-08-15T07:25:11Z</time>
      </trkpt>
      <trkpt lat="44.50833" lon="4.62629">
        <ele>134.78</ele>
        <time>2022-08-15T07:25:15Z</time>
      </trkpt>
      <trkpt lat="44.50839" lon="4.62651">
        <ele>134.79</ele>
        <time>2022-08-15T07:25:16Z</time>
      </trkpt>
      <trkpt lat="44.50847" lon="4.62671">
        <ele>136</ele>
        <time>2022-08-15T07:25:17Z</time>
      </trkpt>
      <trkpt lat="44.50857" lon="4.62689">
        <ele>135.99</ele>
        <time>2022-08-15T07:25:18Z</time>
      </trkpt>
      <trkpt lat="44.50869" lon="4.62706">
        <ele>135.99</ele>
        <time>2022-08-15T07:25:19Z</time>
      </trkpt>
      <trkpt lat="44.50882" lon="4.6272">
        <ele>136.01</ele>
        <time>2022-08-15T07:25:20Z</time>
      </trkpt>
      <trkpt lat="44.50896" lon="4.62733">
        <ele>135.99</ele>
        <time>2022-08-15T07:25:21Z</time>
      </trkpt>
      <trkpt lat="44.50911" lon="4.62744">
        <ele>135.98</ele>
        <time>2022-08-15T07:25:22Z</time>
      </trkpt>
      <trkpt lat="44.50927" lon="4.62754">
        <ele>136</ele>
        <time>2022-08-15T07:25:23Z</time>
      </trkpt>
      <trkpt lat="44.50944" lon="4.62762">
        <ele>135.78</ele>
        <time>2022-08-15T07:25:24Z</time>
      </trkpt>
      <trkpt lat="44.50978" lon="4.62775">
        <ele>135.78</ele>
        <time>2022-08-15T07:25:26Z</time>
      </trkpt>
      <trkpt lat="44.50996" lon="4.62778">
        <ele>135.82</ele>
        <time>2022-08-15T07:25:27Z</time>
      </trkpt>
      <trkpt lat="44.51015" lon="4.62779">
        <ele>135.8</ele>
        <time>2022-08-15T07:25:28Z</time>
      </trkpt>
      <trkpt lat="44.51149" lon="4.62766">
        <ele>133.1</ele>
        <time>2022-08-15T07:25:35Z</time>
      </trkpt>
      <trkpt lat="44.51208" lon="4.6276">
        <ele>131.87</ele>
        <time>2022-08-15T07:25:38Z</time>
      </trkpt>
      <trkpt lat="44.51453" lon="4.62742">
        <ele>131.97</ele>
        <time>2022-08-15T07:25:51Z</time>
      </trkpt>
      <trkpt lat="44.51588" lon="4.62676">
        <ele>129.68</ele>
        <time>2022-08-15T07:25:59Z</time>
      </trkpt>
      <trkpt lat="44.51691" lon="4.62626">
        <ele>132.66</ele>
        <time>2022-08-15T07:26:05Z</time>
      </trkpt>
      <trkpt lat="44.51706" lon="4.62613">
        <ele>132.66</ele>
        <time>2022-08-15T07:26:06Z</time>
      </trkpt>
      <trkpt lat="44.51814" lon="4.6247">
        <ele>133.52</ele>
        <time>2022-08-15T07:26:14Z</time>
      </trkpt>
      <trkpt lat="44.51886" lon="4.62347">
        <ele>134.41</ele>
        <time>2022-08-15T07:26:20Z</time>
      </trkpt>
      <trkpt lat="44.51901" lon="4.62332">
        <ele>134.41</ele>
        <time>2022-08-15T07:26:21Z</time>
      </trkpt>
      <trkpt lat="44.51944" lon="4.62287">
        <ele>136.68</ele>
        <time>2022-08-15T07:26:24Z</time>
      </trkpt>
      <trkpt lat="44.51956" lon="4.6227">
        <ele>136.71</ele>
        <time>2022-08-15T07:26:25Z</time>
      </trkpt>
      <trkpt lat="44.51967" lon="4.62251">
        <ele>137.7</ele>
        <time>2022-08-15T07:26:26Z</time>
      </trkpt>
      <trkpt lat="44.51976" lon="4.62229">
        <ele>137.69</ele>
        <time>2022-08-15T07:26:27Z</time>
      </trkpt>
      <trkpt lat="44.51984" lon="4.62207">
        <ele>137.7</ele>
        <time>2022-08-15T07:26:28Z</time>
      </trkpt>
      <trkpt lat="44.52019" lon="4.62119">
        <ele>137.8</ele>
        <time>2022-08-15T07:26:32Z</time>
      </trkpt>
      <trkpt lat="44.52031" lon="4.621">
        <ele>137.83</ele>
        <time>2022-08-15T07:26:33Z</time>
      </trkpt>
      <trkpt lat="44.52045" lon="4.62084">
        <ele>137.83</ele>
        <time>2022-08-15T07:26:34Z</time>
      </trkpt>
      <trkpt lat="44.52059" lon="4.6207">
        <ele>139.15</ele>
        <time>2022-08-15T07:26:35Z</time>
      </trkpt>
      <trkpt lat="44.52075" lon="4.62058">
        <ele>139.18</ele>
        <time>2022-08-15T07:26:36Z</time>
      </trkpt>
      <trkpt lat="44.52091" lon="4.62047">
        <ele>140.31</ele>
        <time>2022-08-15T07:26:37Z</time>
      </trkpt>
      <trkpt lat="44.52154" lon="4.62005">
        <ele>141.79</ele>
        <time>2022-08-15T07:26:41Z</time>
      </trkpt>
      <trkpt lat="44.52202" lon="4.61973">
        <ele>143.89</ele>
        <time>2022-08-15T07:26:44Z</time>
      </trkpt>
      <trkpt lat="44.52265" lon="4.61934">
        <ele>146.29</ele>
        <time>2022-08-15T07:26:48Z</time>
      </trkpt>
      <trkpt lat="44.52378" lon="4.61867">
        <ele>146.39</ele>
        <time>2022-08-15T07:26:55Z</time>
      </trkpt>
      <trkpt lat="44.52394" lon="4.61863">
        <ele>146.35</ele>
        <time>2022-08-15T07:26:56Z</time>
      </trkpt>
      <trkpt lat="44.52412" lon="4.61861">
        <ele>146.34</ele>
        <time>2022-08-15T07:26:57Z</time>
      </trkpt>
      <trkpt lat="44.52429" lon="4.61861">
        <ele>146.32</ele>
        <time>2022-08-15T07:26:58Z</time>
      </trkpt>
      <trkpt lat="44.52446" lon="4.61861">
        <ele>146.34</ele>
        <time>2022-08-15T07:26:59Z</time>
      </trkpt>
      <trkpt lat="44.52462" lon="4.61859">
        <ele>146.25</ele>
        <time>2022-08-15T07:27:00Z</time>
      </trkpt>
      <trkpt lat="44.52478" lon="4.61854">
        <ele>146.36</ele>
        <time>2022-08-15T07:27:01Z</time>
      </trkpt>
      <trkpt lat="44.52493" lon="4.61846">
        <ele>147.25</ele>
        <time>2022-08-15T07:27:02Z</time>
      </trkpt>
      <trkpt lat="44.52508" lon="4.61837">
        <ele>148.52</ele>
        <time>2022-08-15T07:27:03Z</time>
      </trkpt>
      <trkpt lat="44.52523" lon="4.61826">
        <ele>148.55</ele>
        <time>2022-08-15T07:27:04Z</time>
      </trkpt>
      <trkpt lat="44.52563" lon="4.61789">
        <ele>149.41</ele>
        <time>2022-08-15T07:27:07Z</time>
      </trkpt>
      <trkpt lat="44.52574" lon="4.61774">
        <ele>149.41</ele>
        <time>2022-08-15T07:27:08Z</time>
      </trkpt>
      <trkpt lat="44.52664" lon="4.61649">
        <ele>149.52</ele>
        <time>2022-08-15T07:27:16Z</time>
      </trkpt>
      <trkpt lat="44.52677" lon="4.61638">
        <ele>149.5</ele>
        <time>2022-08-15T07:27:17Z</time>
      </trkpt>
      <trkpt lat="44.52691" lon="4.61629">
        <ele>149.51</ele>
        <time>2022-08-15T07:27:18Z</time>
      </trkpt>
      <trkpt lat="44.52706" lon="4.61623">
        <ele>149.48</ele>
        <time>2022-08-15T07:27:19Z</time>
      </trkpt>
      <trkpt lat="44.52722" lon="4.61618">
        <ele>149.5</ele>
        <time>2022-08-15T07:27:20Z</time>
      </trkpt>
      <trkpt lat="44.52738" lon="4.61615">
        <ele>149.46</ele>
        <time>2022-08-15T07:27:21Z</time>
      </trkpt>
      <trkpt lat="44.52754" lon="4.61614">
        <ele>149.46</ele>
        <time>2022-08-15T07:27:22Z</time>
      </trkpt>
      <trkpt lat="44.52771" lon="4.6161">
        <ele>150.24</ele>
        <time>2022-08-15T07:27:23Z</time>
      </trkpt>
      <trkpt lat="44.52787" lon="4.61605">
        <ele>150.23</ele>
        <time>2022-08-15T07:27:24Z</time>
      </trkpt>
      <trkpt lat="44.52803" lon="4.61596">
        <ele>150.21</ele>
        <time>2022-08-15T07:27:25Z</time>
      </trkpt>
      <trkpt lat="44.52896" lon="4.61532">
        <ele>152.18</ele>
        <time>2022-08-15T07:27:31Z</time>
      </trkpt>
      <trkpt lat="44.52913" lon="4.61525">
        <ele>152.19</ele>
        <time>2022-08-15T07:27:32Z</time>
      </trkpt>
      <trkpt lat="44.52931" lon="4.6152">
        <ele>152.19</ele>
        <time>2022-08-15T07:27:33Z</time>
      </trkpt>
      <trkpt lat="44.5315" lon="4.61483">
        <ele>153.1</ele>
        <time>2022-08-15T07:27:45Z</time>
      </trkpt>
      <trkpt lat="44.53342" lon="4.61493">
        <ele>156.03</ele>
        <time>2022-08-15T07:27:56Z</time>
      </trkpt>
      <trkpt lat="44.53544" lon="4.61517">
        <ele>159.99</ele>
        <time>2022-08-15T07:28:07Z</time>
      </trkpt>
      <trkpt lat="44.53676" lon="4.61551">
        <ele>163.56</ele>
        <time>2022-08-15T07:28:15Z</time>
      </trkpt>
      <trkpt lat="44.53692" lon="4.61553">
        <ele>164.42</ele>
        <time>2022-08-15T07:28:16Z</time>
      </trkpt>
      <trkpt lat="44.53709" lon="4.61553">
        <ele>164.42</ele>
        <time>2022-08-15T07:28:17Z</time>
      </trkpt>
      <trkpt lat="44.53889" lon="4.61529">
        <ele>166.33</ele>
        <time>2022-08-15T07:28:27Z</time>
      </trkpt>
      <trkpt lat="44.54013" lon="4.61513">
        <ele>164.6</ele>
        <time>2022-08-15T07:28:34Z</time>
      </trkpt>
      <trkpt lat="44.54204" lon="4.61475">
        <ele>164.61</ele>
        <time>2022-08-15T07:28:46Z</time>
      </trkpt>
      <trkpt lat="44.54265" lon="4.61443">
        <ele>167.07</ele>
        <time>2022-08-15T07:28:50Z</time>
      </trkpt>
      <trkpt lat="44.54481" lon="4.61312">
        <ele>168.03</ele>
        <time>2022-08-15T07:29:05Z</time>
      </trkpt>
      <trkpt lat="44.54605" lon="4.61189">
        <ele>169.21</ele>
        <time>2022-08-15T07:29:15Z</time>
      </trkpt>
      <trkpt lat="44.54631" lon="4.6116">
        <ele>170.51</ele>
        <time>2022-08-15T07:29:17Z</time>
      </trkpt>
      <trkpt lat="44.54857" lon="4.60917">
        <ele>170.56</ele>
        <time>2022-08-15T07:29:34Z</time>
      </trkpt>
      <trkpt lat="44.55096" lon="4.60667">
        <ele>173.22</ele>
        <time>2022-08-15T07:29:53Z</time>
      </trkpt>
      <trkpt lat="44.55109" lon="4.6066">
        <ele>173.25</ele>
        <time>2022-08-15T07:29:54Z</time>
      </trkpt>
      <trkpt lat="44.55123" lon="4.60654">
        <ele>173.27</ele>
        <time>2022-08-15T07:29:55Z</time>
      </trkpt>
      <trkpt lat="44.55188" lon="4.60636">
        <ele>176.25</ele>
        <time>2022-08-15T07:29:59Z</time>
      </trkpt>
      <trkpt lat="44.55335" lon="4.60592">
        <ele>179.13</ele>
        <time>2022-08-15T07:30:08Z</time>
      </trkpt>
      <trkpt lat="44.55351" lon="4.60583">
        <ele>180.19</ele>
        <time>2022-08-15T07:30:09Z</time>
      </trkpt>
      <trkpt lat="44.55504" lon="4.60483">
        <ele>182.56</ele>
        <time>2022-08-15T07:30:19Z</time>
      </trkpt>
      <trkpt lat="44.55688" lon="4.6038">
        <ele>184.34</ele>
        <time>2022-08-15T07:30:30Z</time>
      </trkpt>
      <trkpt lat="44.55789" lon="4.60253">
        <ele>186.07</ele>
        <time>2022-08-15T07:30:38Z</time>
      </trkpt>
      <trkpt lat="44.55898" lon="4.60091">
        <ele>187.72</ele>
        <time>2022-08-15T07:30:48Z</time>
      </trkpt>
      <trkpt lat="44.55943" lon="4.60026">
        <ele>189.1</ele>
        <time>2022-08-15T07:30:52Z</time>
      </trkpt>
      <trkpt lat="44.56142" lon="4.59733">
        <ele>191.64</ele>
        <time>2022-08-15T07:31:10Z</time>
      </trkpt>
      <trkpt lat="44.56245" lon="4.59596">
        <ele>193.51</ele>
        <time>2022-08-15T07:31:21Z</time>
      </trkpt>
      <trkpt lat="44.56259" lon="4.59582">
        <ele>193.42</ele>
        <time>2022-08-15T07:31:23Z</time>
      </trkpt>
      <trkpt lat="44.56264" lon="4.59572">
        <ele>193.42</ele>
        <time>2022-08-15T07:31:24Z</time>
      </trkpt>
      <trkpt lat="44.56272" lon="4.59547">
        <ele>193.43</ele>
        <time>2022-08-15T07:31:26Z</time>
      </trkpt>
      <trkpt lat="44.56278" lon="4.59534">
        <ele>193.46</ele>
        <time>2022-08-15T07:31:27Z</time>
      </trkpt>
      <trkpt lat="44.56286" lon="4.59521">
        <ele>193.44</ele>
        <time>2022-08-15T07:31:28Z</time>
      </trkpt>
      <trkpt lat="44.56382" lon="4.5938">
        <ele>197.3</ele>
        <time>2022-08-15T07:31:38Z</time>
      </trkpt>
      <trkpt lat="44.56499" lon="4.59209">
        <ele>200.33</ele>
        <time>2022-08-15T07:31:49Z</time>
      </trkpt>
      <trkpt lat="44.56597" lon="4.59068">
        <ele>204.08</ele>
        <time>2022-08-15T07:31:58Z</time>
      </trkpt>
      <trkpt lat="44.56609" lon="4.59056">
        <ele>204.09</ele>
        <time>2022-08-15T07:31:59Z</time>
      </trkpt>
      <trkpt lat="44.56634" lon="4.59034">
        <ele>205.7</ele>
        <time>2022-08-15T07:32:01Z</time>
      </trkpt>
      <trkpt lat="44.56685" lon="4.58997">
        <ele>209.69</ele>
        <time>2022-08-15T07:32:05Z</time>
      </trkpt>
      <trkpt lat="44.56697" lon="4.58989">
        <ele>209.7</ele>
        <time>2022-08-15T07:32:06Z</time>
      </trkpt>
      <trkpt lat="44.5671" lon="4.58983">
        <ele>209.7</ele>
        <time>2022-08-15T07:32:07Z</time>
      </trkpt>
      <trkpt lat="44.56721" lon="4.58979">
        <ele>210.88</ele>
        <time>2022-08-15T07:32:08Z</time>
      </trkpt>
      <trkpt lat="44.56732" lon="4.58978">
        <ele>210.88</ele>
        <time>2022-08-15T07:32:09Z</time>
      </trkpt>
      <trkpt lat="44.56742" lon="4.58978">
        <ele>210.92</ele>
        <time>2022-08-15T07:32:10Z</time>
      </trkpt>
      <trkpt lat="44.5675" lon="4.58979">
        <ele>211.84</ele>
        <time>2022-08-15T07:32:11Z</time>
      </trkpt>
      <trkpt lat="44.56758" lon="4.58982">
        <ele>211.8</ele>
        <time>2022-08-15T07:32:12Z</time>
      </trkpt>
      <trkpt lat="44.56764" lon="4.58987">
        <ele>211.39</ele>
        <time>2022-08-15T07:32:13Z</time>
      </trkpt>
      <trkpt lat="44.56771" lon="4.58993">
        <ele>212.28</ele>
        <time>2022-08-15T07:32:14Z</time>
      </trkpt>
      <trkpt lat="44.56777" lon="4.59001">
        <ele>212.28</ele>
        <time>2022-08-15T07:32:15Z</time>
      </trkpt>
      <trkpt lat="44.56785" lon="4.59007">
        <ele>212.28</ele>
        <time>2022-08-15T07:32:16Z</time>
      </trkpt>
      <trkpt lat="44.56794" lon="4.59009">
        <ele>212.31</ele>
        <time>2022-08-15T07:32:17Z</time>
      </trkpt>
      <trkpt lat="44.56802" lon="4.59006">
        <ele>212.3</ele>
        <time>2022-08-15T07:32:18Z</time>
      </trkpt>
      <trkpt lat="44.56809" lon="4.58997">
        <ele>212.3</ele>
        <time>2022-08-15T07:32:19Z</time>
      </trkpt>
      <trkpt lat="44.56812" lon="4.58984">
        <ele>213.43</ele>
        <time>2022-08-15T07:32:20Z</time>
      </trkpt>
      <trkpt lat="44.56812" lon="4.58969">
        <ele>213.49</ele>
        <time>2022-08-15T07:32:21Z</time>
      </trkpt>
      <trkpt lat="44.56814" lon="4.58955">
        <ele>213.44</ele>
        <time>2022-08-15T07:32:22Z</time>
      </trkpt>
      <trkpt lat="44.5682" lon="4.58941">
        <ele>213.46</ele>
        <time>2022-08-15T07:32:23Z</time>
      </trkpt>
      <trkpt lat="44.56827" lon="4.58928">
        <ele>213.46</ele>
        <time>2022-08-15T07:32:24Z</time>
      </trkpt>
      <trkpt lat="44.56844" lon="4.58901">
        <ele>214.8</ele>
        <time>2022-08-15T07:32:26Z</time>
      </trkpt>
      <trkpt lat="44.56944" lon="4.58813">
        <ele>216.9</ele>
        <time>2022-08-15T07:32:34Z</time>
      </trkpt>
      <trkpt lat="44.57114" lon="4.58663">
        <ele>217.68</ele>
        <time>2022-08-15T07:32:46Z</time>
      </trkpt>
      <trkpt lat="44.57195" lon="4.58515">
        <ele>220.82</ele>
        <time>2022-08-15T07:32:54Z</time>
      </trkpt>
      <trkpt lat="44.5721" lon="4.58473">
        <ele>221.98</ele>
        <time>2022-08-15T07:32:56Z</time>
      </trkpt>
      <trkpt lat="44.57223" lon="4.58428">
        <ele>223.54</ele>
        <time>2022-08-15T07:32:58Z</time>
      </trkpt>
      <trkpt lat="44.57236" lon="4.58383">
        <ele>224.73</ele>
        <time>2022-08-15T07:33:00Z</time>
      </trkpt>
      <trkpt lat="44.57273" lon="4.58268">
        <ele>227.98</ele>
        <time>2022-08-15T07:33:05Z</time>
      </trkpt>
      <trkpt lat="44.57291" lon="4.58225">
        <ele>229.26</ele>
        <time>2022-08-15T07:33:07Z</time>
      </trkpt>
      <trkpt lat="44.57311" lon="4.58183">
        <ele>231.05</ele>
        <time>2022-08-15T07:33:09Z</time>
      </trkpt>
      <trkpt lat="44.5734" lon="4.58122">
        <ele>234.35</ele>
        <time>2022-08-15T07:33:12Z</time>
      </trkpt>
      <trkpt lat="44.5735" lon="4.58101">
        <ele>234.41</ele>
        <time>2022-08-15T07:33:13Z</time>
      </trkpt>
      <trkpt lat="44.57389" lon="4.5802">
        <ele>237.25</ele>
        <time>2022-08-15T07:33:17Z</time>
      </trkpt>
      <trkpt lat="44.57494" lon="4.57884">
        <ele>240.14</ele>
        <time>2022-08-15T07:33:25Z</time>
      </trkpt>
      <trkpt lat="44.57619" lon="4.57835">
        <ele>241.82</ele>
        <time>2022-08-15T07:33:32Z</time>
      </trkpt>
      <trkpt lat="44.57798" lon="4.57761">
        <ele>243.75</ele>
        <time>2022-08-15T07:33:42Z</time>
      </trkpt>
      <trkpt lat="44.57986" lon="4.57584">
        <ele>246.09</ele>
        <time>2022-08-15T07:33:54Z</time>
      </trkpt>
      <trkpt lat="44.58086" lon="4.57437">
        <ele>247.9</ele>
        <time>2022-08-15T07:34:02Z</time>
      </trkpt>
      <trkpt lat="44.5813" lon="4.57328">
        <ele>249.38</ele>
        <time>2022-08-15T07:34:07Z</time>
      </trkpt>
      <trkpt lat="44.58196" lon="4.57152">
        <ele>253.81</ele>
        <time>2022-08-15T07:34:15Z</time>
      </trkpt>
      <trkpt lat="44.58239" lon="4.57038">
        <ele>256.51</ele>
        <time>2022-08-15T07:34:20Z</time>
      </trkpt>
      <trkpt lat="44.58271" lon="4.56946">
        <ele>259.57</ele>
        <time>2022-08-15T07:34:24Z</time>
      </trkpt>
      <trkpt lat="44.58281" lon="4.56896">
        <ele>260.97</ele>
        <time>2022-08-15T07:34:26Z</time>
      </trkpt>
      <trkpt lat="44.58302" lon="4.56742">
        <ele>263.53</ele>
        <time>2022-08-15T07:34:32Z</time>
      </trkpt>
      <trkpt lat="44.58323" lon="4.56564">
        <ele>265.41</ele>
        <time>2022-08-15T07:34:39Z</time>
      </trkpt>
      <trkpt lat="44.5839" lon="4.5619">
        <ele>267.9</ele>
        <time>2022-08-15T07:34:54Z</time>
      </trkpt>
      <trkpt lat="44.58425" lon="4.56128">
        <ele>269.17</ele>
        <time>2022-08-15T07:34:57Z</time>
      </trkpt>
      <trkpt lat="44.58469" lon="4.56076">
        <ele>271.18</ele>
        <time>2022-08-15T07:35:00Z</time>
      </trkpt>
      <trkpt lat="44.58499" lon="4.56044">
        <ele>272.59</ele>
        <time>2022-08-15T07:35:02Z</time>
      </trkpt>
      <trkpt lat="44.5853" lon="4.56012">
        <ele>274.03</ele>
        <time>2022-08-15T07:35:04Z</time>
      </trkpt>
      <trkpt lat="44.5856" lon="4.55981">
        <ele>275.53</ele>
        <time>2022-08-15T07:35:06Z</time>
      </trkpt>
      <trkpt lat="44.58591" lon="4.55949">
        <ele>277.4</ele>
        <time>2022-08-15T07:35:08Z</time>
      </trkpt>
      <trkpt lat="44.58651" lon="4.55886">
        <ele>280.32</ele>
        <time>2022-08-15T07:35:12Z</time>
      </trkpt>
      <trkpt lat="44.58697" lon="4.55839">
        <ele>281.76</ele>
        <time>2022-08-15T07:35:15Z</time>
      </trkpt>
      <trkpt lat="44.58727" lon="4.55806">
        <ele>283.16</ele>
        <time>2022-08-15T07:35:17Z</time>
      </trkpt>
      <trkpt lat="44.58758" lon="4.55773">
        <ele>284.39</ele>
        <time>2022-08-15T07:35:19Z</time>
      </trkpt>
      <trkpt lat="44.58906" lon="4.55554">
        <ele>287.28</ele>
        <time>2022-08-15T07:35:30Z</time>
      </trkpt>
      <trkpt lat="44.58973" lon="4.55364">
        <ele>286.98</ele>
        <time>2022-08-15T07:35:38Z</time>
      </trkpt>
      <trkpt lat="44.59073" lon="4.54999">
        <ele>290.65</ele>
        <time>2022-08-15T07:35:53Z</time>
      </trkpt>
      <trkpt lat="44.59133" lon="4.54782">
        <ele>294.17</ele>
        <time>2022-08-15T07:36:02Z</time>
      </trkpt>
      <trkpt lat="44.59159" lon="4.54579">
        <ele>295.35</ele>
        <time>2022-08-15T07:36:10Z</time>
      </trkpt>
      <trkpt lat="44.5916" lon="4.54553">
        <ele>295.38</ele>
        <time>2022-08-15T07:36:11Z</time>
      </trkpt>
      <trkpt lat="44.59164" lon="4.54348">
        <ele>299.23</ele>
        <time>2022-08-15T07:36:19Z</time>
      </trkpt>
      <trkpt lat="44.59145" lon="4.54148">
        <ele>301.57</ele>
        <time>2022-08-15T07:36:27Z</time>
      </trkpt>
      <trkpt lat="44.59077" lon="4.53964">
        <ele>303.27</ele>
        <time>2022-08-15T07:36:35Z</time>
      </trkpt>
      <trkpt lat="44.58939" lon="4.53775">
        <ele>303.27</ele>
        <time>2022-08-15T07:36:45Z</time>
      </trkpt>
      <trkpt lat="44.58759" lon="4.53563">
        <ele>305.95</ele>
        <time>2022-08-15T07:36:57Z</time>
      </trkpt>
      <trkpt lat="44.5871" lon="4.53516">
        <ele>308.35</ele>
        <time>2022-08-15T07:37:00Z</time>
      </trkpt>
      <trkpt lat="44.58613" lon="4.53426">
        <ele>311.18</ele>
        <time>2022-08-15T07:37:06Z</time>
      </trkpt>
      <trkpt lat="44.58432" lon="4.53214">
        <ele>313.89</ele>
        <time>2022-08-15T07:37:18Z</time>
      </trkpt>
      <trkpt lat="44.58355" lon="4.53055">
        <ele>317.35</ele>
        <time>2022-08-15T07:37:25Z</time>
      </trkpt>
      <trkpt lat="44.58344" lon="4.53032">
        <ele>317.34</ele>
        <time>2022-08-15T07:37:26Z</time>
      </trkpt>
      <trkpt lat="44.58322" lon="4.52987">
        <ele>319.1</ele>
        <time>2022-08-15T07:37:28Z</time>
      </trkpt>
      <trkpt lat="44.58281" lon="4.52929">
        <ele>322.79</ele>
        <time>2022-08-15T07:37:31Z</time>
      </trkpt>
      <trkpt lat="44.58235" lon="4.52882">
        <ele>326.66</ele>
        <time>2022-08-15T07:37:34Z</time>
      </trkpt>
      <trkpt lat="44.58202" lon="4.52858">
        <ele>327.89</ele>
        <time>2022-08-15T07:37:36Z</time>
      </trkpt>
      <trkpt lat="44.58149" lon="4.52826">
        <ele>330.77</ele>
        <time>2022-08-15T07:37:39Z</time>
      </trkpt>
      <trkpt lat="44.58095" lon="4.52794">
        <ele>334.04</ele>
        <time>2022-08-15T07:37:42Z</time>
      </trkpt>
      <trkpt lat="44.5804" lon="4.5276">
        <ele>338.45</ele>
        <time>2022-08-15T07:37:45Z</time>
      </trkpt>
      <trkpt lat="44.57985" lon="4.52728">
        <ele>341.26</ele>
        <time>2022-08-15T07:37:48Z</time>
      </trkpt>
      <trkpt lat="44.5795" lon="4.52708">
        <ele>344.43</ele>
        <time>2022-08-15T07:37:50Z</time>
      </trkpt>
      <trkpt lat="44.57934" lon="4.52698">
        <ele>344.54</ele>
        <time>2022-08-15T07:37:51Z</time>
      </trkpt>
      <trkpt lat="44.57887" lon="4.5266">
        <ele>346.8</ele>
        <time>2022-08-15T07:37:54Z</time>
      </trkpt>
      <trkpt lat="44.57846" lon="4.52613">
        <ele>349.03</ele>
        <time>2022-08-15T07:37:57Z</time>
      </trkpt>
      <trkpt lat="44.57811" lon="4.52557">
        <ele>351.89</ele>
        <time>2022-08-15T07:38:00Z</time>
      </trkpt>
      <trkpt lat="44.57792" lon="4.52515">
        <ele>353.73</ele>
        <time>2022-08-15T07:38:02Z</time>
      </trkpt>
      <trkpt lat="44.5777" lon="4.52446">
        <ele>355.75</ele>
        <time>2022-08-15T07:38:05Z</time>
      </trkpt>
      <trkpt lat="44.57753" lon="4.52371">
        <ele>357.44</ele>
        <time>2022-08-15T07:38:08Z</time>
      </trkpt>
      <trkpt lat="44.57672" lon="4.52125">
        <ele>355.7</ele>
        <time>2022-08-15T07:38:18Z</time>
      </trkpt>
      <trkpt lat="44.57659" lon="4.52103">
        <ele>355.68</ele>
        <time>2022-08-15T07:38:19Z</time>
      </trkpt>
      <trkpt lat="44.576" lon="4.52023">
        <ele>351.91</ele>
        <time>2022-08-15T07:38:23Z</time>
      </trkpt>
      <trkpt lat="44.57585" lon="4.52003">
        <ele>351.88</ele>
        <time>2022-08-15T07:38:24Z</time>
      </trkpt>
      <trkpt lat="44.57556" lon="4.51962">
        <ele>350.06</ele>
        <time>2022-08-15T07:38:26Z</time>
      </trkpt>
      <trkpt lat="44.57528" lon="4.51918">
        <ele>348.79</ele>
        <time>2022-08-15T07:38:28Z</time>
      </trkpt>
      <trkpt lat="44.5746" lon="4.51742">
        <ele>348.37</ele>
        <time>2022-08-15T07:38:35Z</time>
      </trkpt>
      <trkpt lat="44.57436" lon="4.51665">
        <ele>347.13</ele>
        <time>2022-08-15T07:38:38Z</time>
      </trkpt>
      <trkpt lat="44.57368" lon="4.51444">
        <ele>345.06</ele>
        <time>2022-08-15T07:38:48Z</time>
      </trkpt>
      <trkpt lat="44.57318" lon="4.51276">
        <ele>341.26</ele>
        <time>2022-08-15T07:38:56Z</time>
      </trkpt>
      <trkpt lat="44.57268" lon="4.51146">
        <ele>339.8</ele>
        <time>2022-08-15T07:39:05Z</time>
      </trkpt>
      <trkpt lat="44.57236" lon="4.51109">
        <ele>337.71</ele>
        <time>2022-08-15T07:39:10Z</time>
      </trkpt>
      <trkpt lat="44.57211" lon="4.5108">
        <ele>336.78</ele>
        <time>2022-08-15T07:39:18Z</time>
      </trkpt>
      <trkpt lat="44.57208" lon="4.51072">
        <ele>336.77</ele>
        <time>2022-08-15T07:39:19Z</time>
      </trkpt>
      <trkpt lat="44.57207" lon="4.51063">
        <ele>336.78</ele>
        <time>2022-08-15T07:39:20Z</time>
      </trkpt>
      <trkpt lat="44.57204" lon="4.51045">
        <ele>336.79</ele>
        <time>2022-08-15T07:39:22Z</time>
      </trkpt>
      <trkpt lat="44.57202" lon="4.51034">
        <ele>336.84</ele>
        <time>2022-08-15T07:39:23Z</time>
      </trkpt>
      <trkpt lat="44.57195" lon="4.5101">
        <ele>336.9</ele>
        <time>2022-08-15T07:39:25Z</time>
      </trkpt>
      <trkpt lat="44.57194" lon="4.50995">
        <ele>336.95</ele>
        <time>2022-08-15T07:39:26Z</time>
      </trkpt>
      <trkpt lat="44.57193" lon="4.50959">
        <ele>339.52</ele>
        <time>2022-08-15T07:39:28Z</time>
      </trkpt>
      <trkpt lat="44.5719" lon="4.50938">
        <ele>341.4</ele>
        <time>2022-08-15T07:39:29Z</time>
      </trkpt>
      <trkpt lat="44.57185" lon="4.50916">
        <ele>342.26</ele>
        <time>2022-08-15T07:39:30Z</time>
      </trkpt>
      <trkpt lat="44.57178" lon="4.50893">
        <ele>342.29</ele>
        <time>2022-08-15T07:39:31Z</time>
      </trkpt>
      <trkpt lat="44.5717" lon="4.50868">
        <ele>344.14</ele>
        <time>2022-08-15T07:39:32Z</time>
      </trkpt>
      <trkpt lat="44.57161" lon="4.50842">
        <ele>344.15</ele>
        <time>2022-08-15T07:39:33Z</time>
      </trkpt>
      <trkpt lat="44.57144" lon="4.50786">
        <ele>346.26</ele>
        <time>2022-08-15T07:39:35Z</time>
      </trkpt>
      <trkpt lat="44.57101" lon="4.50549">
        <ele>348.48</ele>
        <time>2022-08-15T07:39:43Z</time>
      </trkpt>
      <trkpt lat="44.57076" lon="4.50372">
        <ele>343.87</ele>
        <time>2022-08-15T07:39:49Z</time>
      </trkpt>
      <trkpt lat="44.57066" lon="4.50321">
        <ele>340.48</ele>
        <time>2022-08-15T07:39:51Z</time>
      </trkpt>
      <trkpt lat="44.57042" lon="4.50249">
        <ele>336.44</ele>
        <time>2022-08-15T07:39:54Z</time>
      </trkpt>
      <trkpt lat="44.57007" lon="4.50183">
        <ele>332.3</ele>
        <time>2022-08-15T07:39:57Z</time>
      </trkpt>
      <trkpt lat="44.56961" lon="4.50128">
        <ele>328.66</ele>
        <time>2022-08-15T07:40:00Z</time>
      </trkpt>
      <trkpt lat="44.56926" lon="4.50098">
        <ele>325.64</ele>
        <time>2022-08-15T07:40:02Z</time>
      </trkpt>
      <trkpt lat="44.56888" lon="4.50076">
        <ele>322.38</ele>
        <time>2022-08-15T07:40:04Z</time>
      </trkpt>
      <trkpt lat="44.56849" lon="4.50061">
        <ele>318.93</ele>
        <time>2022-08-15T07:40:06Z</time>
      </trkpt>
      <trkpt lat="44.56789" lon="4.50054">
        <ele>314.47</ele>
        <time>2022-08-15T07:40:09Z</time>
      </trkpt>
      <trkpt lat="44.56749" lon="4.50057">
        <ele>311.26</ele>
        <time>2022-08-15T07:40:11Z</time>
      </trkpt>
      <trkpt lat="44.5669" lon="4.50063">
        <ele>306.87</ele>
        <time>2022-08-15T07:40:14Z</time>
      </trkpt>
      <trkpt lat="44.56635" lon="4.50069">
        <ele>301.92</ele>
        <time>2022-08-15T07:40:17Z</time>
      </trkpt>
      <trkpt lat="44.56582" lon="4.50075">
        <ele>298.13</ele>
        <time>2022-08-15T07:40:20Z</time>
      </trkpt>
      <trkpt lat="44.56528" lon="4.50069">
        <ele>294.1</ele>
        <time>2022-08-15T07:40:23Z</time>
      </trkpt>
      <trkpt lat="44.56511" lon="4.50063">
        <ele>292.55</ele>
        <time>2022-08-15T07:40:24Z</time>
      </trkpt>
      <trkpt lat="44.56493" lon="4.50054">
        <ele>291.35</ele>
        <time>2022-08-15T07:40:25Z</time>
      </trkpt>
      <trkpt lat="44.56477" lon="4.50044">
        <ele>289.84</ele>
        <time>2022-08-15T07:40:26Z</time>
      </trkpt>
      <trkpt lat="44.56461" lon="4.50031">
        <ele>288.44</ele>
        <time>2022-08-15T07:40:27Z</time>
      </trkpt>
      <trkpt lat="44.56445" lon="4.50018">
        <ele>287.41</ele>
        <time>2022-08-15T07:40:28Z</time>
      </trkpt>
      <trkpt lat="44.56431" lon="4.50003">
        <ele>285.47</ele>
        <time>2022-08-15T07:40:29Z</time>
      </trkpt>
      <trkpt lat="44.56418" lon="4.49987">
        <ele>284.17</ele>
        <time>2022-08-15T07:40:30Z</time>
      </trkpt>
      <trkpt lat="44.56407" lon="4.4997">
        <ele>282.67</ele>
        <time>2022-08-15T07:40:31Z</time>
      </trkpt>
      <trkpt lat="44.56396" lon="4.49951">
        <ele>281.03</ele>
        <time>2022-08-15T07:40:32Z</time>
      </trkpt>
      <trkpt lat="44.56387" lon="4.49931">
        <ele>279.41</ele>
        <time>2022-08-15T07:40:33Z</time>
      </trkpt>
      <trkpt lat="44.56378" lon="4.49909">
        <ele>279.41</ele>
        <time>2022-08-15T07:40:34Z</time>
      </trkpt>
      <trkpt lat="44.5637" lon="4.49887">
        <ele>277.31</ele>
        <time>2022-08-15T07:40:35Z</time>
      </trkpt>
      <trkpt lat="44.56364" lon="4.49863">
        <ele>276.17</ele>
        <time>2022-08-15T07:40:36Z</time>
      </trkpt>
      <trkpt lat="44.56358" lon="4.49838">
        <ele>274.11</ele>
        <time>2022-08-15T07:40:37Z</time>
      </trkpt>
      <trkpt lat="44.56355" lon="4.49813">
        <ele>272.91</ele>
        <time>2022-08-15T07:40:38Z</time>
      </trkpt>
      <trkpt lat="44.56353" lon="4.49787">
        <ele>272.07</ele>
        <time>2022-08-15T07:40:39Z</time>
      </trkpt>
      <trkpt lat="44.56347" lon="4.49708">
        <ele>268.46</ele>
        <time>2022-08-15T07:40:42Z</time>
      </trkpt>
      <trkpt lat="44.56342" lon="4.49625">
        <ele>264.77</ele>
        <time>2022-08-15T07:40:45Z</time>
      </trkpt>
      <trkpt lat="44.56335" lon="4.49543">
        <ele>261.31</ele>
        <time>2022-08-15T07:40:48Z</time>
      </trkpt>
      <trkpt lat="44.56322" lon="4.49464">
        <ele>259.19</ele>
        <time>2022-08-15T07:40:51Z</time>
      </trkpt>
      <trkpt lat="44.56298" lon="4.49367">
        <ele>255.83</ele>
        <time>2022-08-15T07:40:55Z</time>
      </trkpt>
      <trkpt lat="44.56292" lon="4.49345">
        <ele>255.8</ele>
        <time>2022-08-15T07:40:56Z</time>
      </trkpt>
      <trkpt lat="44.56255" lon="4.49193">
        <ele>252.48</ele>
        <time>2022-08-15T07:41:03Z</time>
      </trkpt>
      <trkpt lat="44.56252" lon="4.49172">
        <ele>252.54</ele>
        <time>2022-08-15T07:41:04Z</time>
      </trkpt>
      <trkpt lat="44.56251" lon="4.49151">
        <ele>252.55</ele>
        <time>2022-08-15T07:41:05Z</time>
      </trkpt>
      <trkpt lat="44.56251" lon="4.49129">
        <ele>251.95</ele>
        <time>2022-08-15T07:41:06Z</time>
      </trkpt>
      <trkpt lat="44.56253" lon="4.49107">
        <ele>251.85</ele>
        <time>2022-08-15T07:41:07Z</time>
      </trkpt>
      <trkpt lat="44.56256" lon="4.49085">
        <ele>251.91</ele>
        <time>2022-08-15T07:41:08Z</time>
      </trkpt>
      <trkpt lat="44.56261" lon="4.49064">
        <ele>250.31</ele>
        <time>2022-08-15T07:41:09Z</time>
      </trkpt>
      <trkpt lat="44.56268" lon="4.49043">
        <ele>250.31</ele>
        <time>2022-08-15T07:41:10Z</time>
      </trkpt>
      <trkpt lat="44.56276" lon="4.49023">
        <ele>250.31</ele>
        <time>2022-08-15T07:41:11Z</time>
      </trkpt>
      <trkpt lat="44.56286" lon="4.49005">
        <ele>248.77</ele>
        <time>2022-08-15T07:41:12Z</time>
      </trkpt>
      <trkpt lat="44.56297" lon="4.48987">
        <ele>248.78</ele>
        <time>2022-08-15T07:41:13Z</time>
      </trkpt>
      <trkpt lat="44.56308" lon="4.48971">
        <ele>248.78</ele>
        <time>2022-08-15T07:41:14Z</time>
      </trkpt>
      <trkpt lat="44.56331" lon="4.48938">
        <ele>247.52</ele>
        <time>2022-08-15T07:41:16Z</time>
      </trkpt>
      <trkpt lat="44.56352" lon="4.48901">
        <ele>246.44</ele>
        <time>2022-08-15T07:41:18Z</time>
      </trkpt>
      <trkpt lat="44.56361" lon="4.48881">
        <ele>246.39</ele>
        <time>2022-08-15T07:41:19Z</time>
      </trkpt>
      <trkpt lat="44.56368" lon="4.48859">
        <ele>245.58</ele>
        <time>2022-08-15T07:41:20Z</time>
      </trkpt>
      <trkpt lat="44.56373" lon="4.48837">
        <ele>245.62</ele>
        <time>2022-08-15T07:41:21Z</time>
      </trkpt>
      <trkpt lat="44.56377" lon="4.48814">
        <ele>245.58</ele>
        <time>2022-08-15T07:41:22Z</time>
      </trkpt>
      <trkpt lat="44.56379" lon="4.4879">
        <ele>244.18</ele>
        <time>2022-08-15T07:41:23Z</time>
      </trkpt>
      <trkpt lat="44.56379" lon="4.48766">
        <ele>244.14</ele>
        <time>2022-08-15T07:41:24Z</time>
      </trkpt>
      <trkpt lat="44.56378" lon="4.48741">
        <ele>243.13</ele>
        <time>2022-08-15T07:41:25Z</time>
      </trkpt>
      <trkpt lat="44.56375" lon="4.48717">
        <ele>242.17</ele>
        <time>2022-08-15T07:41:26Z</time>
      </trkpt>
      <trkpt lat="44.56371" lon="4.48692">
        <ele>242.12</ele>
        <time>2022-08-15T07:41:27Z</time>
      </trkpt>
      <trkpt lat="44.56366" lon="4.48668">
        <ele>241</ele>
        <time>2022-08-15T07:41:28Z</time>
      </trkpt>
      <trkpt lat="44.5636" lon="4.48643">
        <ele>240.14</ele>
        <time>2022-08-15T07:41:29Z</time>
      </trkpt>
      <trkpt lat="44.56348" lon="4.48593">
        <ele>238.57</ele>
        <time>2022-08-15T07:41:31Z</time>
      </trkpt>
      <trkpt lat="44.5634" lon="4.48541">
        <ele>236.39</ele>
        <time>2022-08-15T07:41:33Z</time>
      </trkpt>
      <trkpt lat="44.56339" lon="4.48514">
        <ele>235.04</ele>
        <time>2022-08-15T07:41:34Z</time>
      </trkpt>
      <trkpt lat="44.56338" lon="4.48487">
        <ele>235.1</ele>
        <time>2022-08-15T07:41:35Z</time>
      </trkpt>
      <trkpt lat="44.56339" lon="4.48404">
        <ele>231.87</ele>
        <time>2022-08-15T07:41:38Z</time>
      </trkpt>
      <trkpt lat="44.5634" lon="4.48377">
        <ele>231.87</ele>
        <time>2022-08-15T07:41:39Z</time>
      </trkpt>
      <trkpt lat="44.56341" lon="4.4832">
        <ele>230.34</ele>
        <time>2022-08-15T07:41:41Z</time>
      </trkpt>
      <trkpt lat="44.56342" lon="4.48263">
        <ele>228.56</ele>
        <time>2022-08-15T07:41:43Z</time>
      </trkpt>
      <trkpt lat="44.56343" lon="4.48205">
        <ele>227.39</ele>
        <time>2022-08-15T07:41:45Z</time>
      </trkpt>
      <trkpt lat="44.56344" lon="4.48146">
        <ele>224.2</ele>
        <time>2022-08-15T07:41:47Z</time>
      </trkpt>
      <trkpt lat="44.56344" lon="4.48117">
        <ele>224.23</ele>
        <time>2022-08-15T07:41:48Z</time>
      </trkpt>
      <trkpt lat="44.56345" lon="4.48028">
        <ele>220.6</ele>
        <time>2022-08-15T07:41:51Z</time>
      </trkpt>
      <trkpt lat="44.56346" lon="4.47945">
        <ele>217.06</ele>
        <time>2022-08-15T07:41:54Z</time>
      </trkpt>
      <trkpt lat="44.56347" lon="4.47893">
        <ele>215.68</ele>
        <time>2022-08-15T07:41:56Z</time>
      </trkpt>
      <trkpt lat="44.56348" lon="4.47813">
        <ele>214.16</ele>
        <time>2022-08-15T07:41:59Z</time>
      </trkpt>
      <trkpt lat="44.5634" lon="4.47605">
        <ele>216.85</ele>
        <time>2022-08-15T07:42:07Z</time>
      </trkpt>
      <trkpt lat="44.56309" lon="4.47484">
        <ele>217.87</ele>
        <time>2022-08-15T07:42:14Z</time>
      </trkpt>
      <trkpt lat="44.56299" lon="4.47449">
        <ele>217.89</ele>
        <time>2022-08-15T07:42:19Z</time>
      </trkpt>
      <trkpt lat="44.56298" lon="4.47442">
        <ele>217.88</ele>
        <time>2022-08-15T07:42:20Z</time>
      </trkpt>
      <trkpt lat="44.56298" lon="4.47422">
        <ele>217.9</ele>
        <time>2022-08-15T07:42:22Z</time>
      </trkpt>
      <trkpt lat="44.56295" lon="4.47412">
        <ele>217.89</ele>
        <time>2022-08-15T07:42:23Z</time>
      </trkpt>
      <trkpt lat="44.56293" lon="4.474">
        <ele>217.89</ele>
        <time>2022-08-15T07:42:24Z</time>
      </trkpt>
      <trkpt lat="44.56291" lon="4.47386">
        <ele>217.89</ele>
        <time>2022-08-15T07:42:25Z</time>
      </trkpt>
      <trkpt lat="44.56291" lon="4.47369">
        <ele>217.9</ele>
        <time>2022-08-15T07:42:26Z</time>
      </trkpt>
      <trkpt lat="44.56292" lon="4.47348">
        <ele>219.94</ele>
        <time>2022-08-15T07:42:27Z</time>
      </trkpt>
      <trkpt lat="44.56296" lon="4.47296">
        <ele>220.92</ele>
        <time>2022-08-15T07:42:29Z</time>
      </trkpt>
      <trkpt lat="44.563" lon="4.47236">
        <ele>222.32</ele>
        <time>2022-08-15T07:42:31Z</time>
      </trkpt>
      <trkpt lat="44.56301" lon="4.47072">
        <ele>219.63</ele>
        <time>2022-08-15T07:42:37Z</time>
      </trkpt>
      <trkpt lat="44.56301" lon="4.46919">
        <ele>216.63</ele>
        <time>2022-08-15T07:42:43Z</time>
      </trkpt>
      <trkpt lat="44.56321" lon="4.46775">
        <ele>214.36</ele>
        <time>2022-08-15T07:42:49Z</time>
      </trkpt>
      <trkpt lat="44.56357" lon="4.46686">
        <ele>212.72</ele>
        <time>2022-08-15T07:42:53Z</time>
      </trkpt>
      <trkpt lat="44.56369" lon="4.46666">
        <ele>212.74</ele>
        <time>2022-08-15T07:42:54Z</time>
      </trkpt>
      <trkpt lat="44.5644" lon="4.46575">
        <ele>209.18</ele>
        <time>2022-08-15T07:42:59Z</time>
      </trkpt>
      <trkpt lat="44.56455" lon="4.46558">
        <ele>209.18</ele>
        <time>2022-08-15T07:43:00Z</time>
      </trkpt>
      <trkpt lat="44.56484" lon="4.46523">
        <ele>207.93</ele>
        <time>2022-08-15T07:43:02Z</time>
      </trkpt>
      <trkpt lat="44.56528" lon="4.46471">
        <ele>205.37</ele>
        <time>2022-08-15T07:43:05Z</time>
      </trkpt>
      <trkpt lat="44.56611" lon="4.46372">
        <ele>202.85</ele>
        <time>2022-08-15T07:43:11Z</time>
      </trkpt>
      <trkpt lat="44.56705" lon="4.46258">
        <ele>201.97</ele>
        <time>2022-08-15T07:43:20Z</time>
      </trkpt>
      <trkpt lat="44.56751" lon="4.46215">
        <ele>202.02</ele>
        <time>2022-08-15T07:43:26Z</time>
      </trkpt>
      <trkpt lat="44.56759" lon="4.46212">
        <ele>202.06</ele>
        <time>2022-08-15T07:43:27Z</time>
      </trkpt>
      <trkpt lat="44.56765" lon="4.4621">
        <ele>202.06</ele>
        <time>2022-08-15T07:43:28Z</time>
      </trkpt>
      <trkpt lat="44.56771" lon="4.46205">
        <ele>202.08</ele>
        <time>2022-08-15T07:43:29Z</time>
      </trkpt>
      <trkpt lat="44.56775" lon="4.46199">
        <ele>201.09</ele>
        <time>2022-08-15T07:43:30Z</time>
      </trkpt>
      <trkpt lat="44.56779" lon="4.4619">
        <ele>201.12</ele>
        <time>2022-08-15T07:43:31Z</time>
      </trkpt>
      <trkpt lat="44.56784" lon="4.46179">
        <ele>201.13</ele>
        <time>2022-08-15T07:43:32Z</time>
      </trkpt>
      <trkpt lat="44.5679" lon="4.46168">
        <ele>201.17</ele>
        <time>2022-08-15T07:43:33Z</time>
      </trkpt>
      <trkpt lat="44.56798" lon="4.46157">
        <ele>201.16</ele>
        <time>2022-08-15T07:43:34Z</time>
      </trkpt>
      <trkpt lat="44.56808" lon="4.46146">
        <ele>203.97</ele>
        <time>2022-08-15T07:43:35Z</time>
      </trkpt>
      <trkpt lat="44.56848" lon="4.4611">
        <ele>205.6</ele>
        <time>2022-08-15T07:43:38Z</time>
      </trkpt>
      <trkpt lat="44.56957" lon="4.46008">
        <ele>208.69</ele>
        <time>2022-08-15T07:43:47Z</time>
      </trkpt>
      <trkpt lat="44.56969" lon="4.45998">
        <ele>208.73</ele>
        <time>2022-08-15T07:43:48Z</time>
      </trkpt>
      <trkpt lat="44.57095" lon="4.4588">
        <ele>212.07</ele>
        <time>2022-08-15T07:43:59Z</time>
      </trkpt>
      <trkpt lat="44.57174" lon="4.45803">
        <ele>214.17</ele>
        <time>2022-08-15T07:44:06Z</time>
      </trkpt>
      <trkpt lat="44.57343" lon="4.45645">
        <ele>218.06</ele>
        <time>2022-08-15T07:44:21Z</time>
      </trkpt>
      <trkpt lat="44.57479" lon="4.45496">
        <ele>221.73</ele>
        <time>2022-08-15T07:44:34Z</time>
      </trkpt>
      <trkpt lat="44.57565" lon="4.45364">
        <ele>224.72</ele>
        <time>2022-08-15T07:44:45Z</time>
      </trkpt>
      <trkpt lat="44.57626" lon="4.45269">
        <ele>227.53</ele>
        <time>2022-08-15T07:44:53Z</time>
      </trkpt>
      <trkpt lat="44.57763" lon="4.4508">
        <ele>229.64</ele>
        <time>2022-08-15T07:45:08Z</time>
      </trkpt>
      <trkpt lat="44.57787" lon="4.45062">
        <ele>231.08</ele>
        <time>2022-08-15T07:45:10Z</time>
      </trkpt>
      <trkpt lat="44.57825" lon="4.45039">
        <ele>233.76</ele>
        <time>2022-08-15T07:45:13Z</time>
      </trkpt>
      <trkpt lat="44.57851" lon="4.45026">
        <ele>235.12</ele>
        <time>2022-08-15T07:45:15Z</time>
      </trkpt>
      <trkpt lat="44.57921" lon="4.44995">
        <ele>239.41</ele>
        <time>2022-08-15T07:45:21Z</time>
      </trkpt>
      <trkpt lat="44.57974" lon="4.44971">
        <ele>242.16</ele>
        <time>2022-08-15T07:45:25Z</time>
      </trkpt>
      <trkpt lat="44.58015" lon="4.44959">
        <ele>244.59</ele>
        <time>2022-08-15T07:45:28Z</time>
      </trkpt>
      <trkpt lat="44.58045" lon="4.44957">
        <ele>246.43</ele>
        <time>2022-08-15T07:45:30Z</time>
      </trkpt>
      <trkpt lat="44.58092" lon="4.44958">
        <ele>248.97</ele>
        <time>2022-08-15T07:45:33Z</time>
      </trkpt>
      <trkpt lat="44.58144" lon="4.44959">
        <ele>252.94</ele>
        <time>2022-08-15T07:45:36Z</time>
      </trkpt>
      <trkpt lat="44.58198" lon="4.4496">
        <ele>255.45</ele>
        <time>2022-08-15T07:45:39Z</time>
      </trkpt>
      <trkpt lat="44.58251" lon="4.44965">
        <ele>257.82</ele>
        <time>2022-08-15T07:45:42Z</time>
      </trkpt>
      <trkpt lat="44.58269" lon="4.44969">
        <ele>259.97</ele>
        <time>2022-08-15T07:45:43Z</time>
      </trkpt>
      <trkpt lat="44.58286" lon="4.44977">
        <ele>259.96</ele>
        <time>2022-08-15T07:45:44Z</time>
      </trkpt>
      <trkpt lat="44.58303" lon="4.44987">
        <ele>261.93</ele>
        <time>2022-08-15T07:45:45Z</time>
      </trkpt>
      <trkpt lat="44.58338" lon="4.45006">
        <ele>263.11</ele>
        <time>2022-08-15T07:45:47Z</time>
      </trkpt>
      <trkpt lat="44.58357" lon="4.4501">
        <ele>264.93</ele>
        <time>2022-08-15T07:45:48Z</time>
      </trkpt>
      <trkpt lat="44.58376" lon="4.4501">
        <ele>266.18</ele>
        <time>2022-08-15T07:45:49Z</time>
      </trkpt>
      <trkpt lat="44.58435" lon="4.45006">
        <ele>269.43</ele>
        <time>2022-08-15T07:45:52Z</time>
      </trkpt>
      <trkpt lat="44.58495" lon="4.45002">
        <ele>272.82</ele>
        <time>2022-08-15T07:45:55Z</time>
      </trkpt>
      <trkpt lat="44.58515" lon="4.45">
        <ele>272.7</ele>
        <time>2022-08-15T07:45:56Z</time>
      </trkpt>
      <trkpt lat="44.58554" lon="4.44997">
        <ele>274.37</ele>
        <time>2022-08-15T07:45:58Z</time>
      </trkpt>
      <trkpt lat="44.58611" lon="4.44986">
        <ele>278.23</ele>
        <time>2022-08-15T07:46:01Z</time>
      </trkpt>
      <trkpt lat="44.5863" lon="4.44978">
        <ele>278.23</ele>
        <time>2022-08-15T07:46:02Z</time>
      </trkpt>
      <trkpt lat="44.58667" lon="4.44956">
        <ele>279.14</ele>
        <time>2022-08-15T07:46:04Z</time>
      </trkpt>
      <trkpt lat="44.58684" lon="4.44941">
        <ele>280.06</ele>
        <time>2022-08-15T07:46:05Z</time>
      </trkpt>
      <trkpt lat="44.58701" lon="4.44923">
        <ele>280.06</ele>
        <time>2022-08-15T07:46:06Z</time>
      </trkpt>
      <trkpt lat="44.58716" lon="4.44903">
        <ele>281.45</ele>
        <time>2022-08-15T07:46:07Z</time>
      </trkpt>
      <trkpt lat="44.58731" lon="4.44882">
        <ele>281.34</ele>
        <time>2022-08-15T07:46:08Z</time>
      </trkpt>
      <trkpt lat="44.58744" lon="4.44859">
        <ele>282.23</ele>
        <time>2022-08-15T07:46:09Z</time>
      </trkpt>
      <trkpt lat="44.58782" lon="4.44786">
        <ele>286.33</ele>
        <time>2022-08-15T07:46:12Z</time>
      </trkpt>
      <trkpt lat="44.58818" lon="4.4471">
        <ele>290.52</ele>
        <time>2022-08-15T07:46:15Z</time>
      </trkpt>
      <trkpt lat="44.58845" lon="4.44627">
        <ele>294.85</ele>
        <time>2022-08-15T07:46:18Z</time>
      </trkpt>
      <trkpt lat="44.58851" lon="4.44597">
        <ele>294.94</ele>
        <time>2022-08-15T07:46:19Z</time>
      </trkpt>
      <trkpt lat="44.58869" lon="4.44511">
        <ele>298.46</ele>
        <time>2022-08-15T07:46:22Z</time>
      </trkpt>
      <trkpt lat="44.58895" lon="4.44433">
        <ele>300.59</ele>
        <time>2022-08-15T07:46:25Z</time>
      </trkpt>
      <trkpt lat="44.58917" lon="4.44389">
        <ele>302.34</ele>
        <time>2022-08-15T07:46:27Z</time>
      </trkpt>
      <trkpt lat="44.58998" lon="4.44298">
        <ele>301.49</ele>
        <time>2022-08-15T07:46:33Z</time>
      </trkpt>
      <trkpt lat="44.59068" lon="4.44229">
        <ele>301.51</ele>
        <time>2022-08-15T07:46:38Z</time>
      </trkpt>
      <trkpt lat="44.5908" lon="4.44211">
        <ele>301.52</ele>
        <time>2022-08-15T07:46:39Z</time>
      </trkpt>
      <trkpt lat="44.59091" lon="4.44192">
        <ele>301.51</ele>
        <time>2022-08-15T07:46:40Z</time>
      </trkpt>
      <trkpt lat="44.59101" lon="4.44172">
        <ele>301.5</ele>
        <time>2022-08-15T07:46:41Z</time>
      </trkpt>
      <trkpt lat="44.59109" lon="4.4415">
        <ele>301.47</ele>
        <time>2022-08-15T07:46:42Z</time>
      </trkpt>
      <trkpt lat="44.59117" lon="4.44128">
        <ele>301.43</ele>
        <time>2022-08-15T07:46:43Z</time>
      </trkpt>
      <trkpt lat="44.59123" lon="4.44105">
        <ele>297.88</ele>
        <time>2022-08-15T07:46:44Z</time>
      </trkpt>
      <trkpt lat="44.59128" lon="4.44082">
        <ele>297.91</ele>
        <time>2022-08-15T07:46:45Z</time>
      </trkpt>
      <trkpt lat="44.59132" lon="4.44058">
        <ele>296.93</ele>
        <time>2022-08-15T07:46:46Z</time>
      </trkpt>
      <trkpt lat="44.59142" lon="4.43881">
        <ele>294.32</ele>
        <time>2022-08-15T07:46:53Z</time>
      </trkpt>
      <trkpt lat="44.59137" lon="4.43835">
        <ele>292.23</ele>
        <time>2022-08-15T07:46:55Z</time>
      </trkpt>
      <trkpt lat="44.59128" lon="4.43786">
        <ele>288.41</ele>
        <time>2022-08-15T07:46:58Z</time>
      </trkpt>
      <trkpt lat="44.59125" lon="4.43775">
        <ele>288.41</ele>
        <time>2022-08-15T07:46:59Z</time>
      </trkpt>
      <trkpt lat="44.59122" lon="4.43758">
        <ele>287.18</ele>
        <time>2022-08-15T07:47:01Z</time>
      </trkpt>
      <trkpt lat="44.59122" lon="4.43752">
        <ele>287.26</ele>
        <time>2022-08-15T07:47:02Z</time>
      </trkpt>
      <trkpt lat="44.59122" lon="4.43746">
        <ele>287.18</ele>
        <time>2022-08-15T07:47:03Z</time>
      </trkpt>
      <trkpt lat="44.59124" lon="4.43727">
        <ele>287.14</ele>
        <time>2022-08-15T07:47:06Z</time>
      </trkpt>
      <trkpt lat="44.59123" lon="4.43721">
        <ele>287.12</ele>
        <time>2022-08-15T07:47:07Z</time>
      </trkpt>
      <trkpt lat="44.5912" lon="4.43715">
        <ele>287.15</ele>
        <time>2022-08-15T07:47:08Z</time>
      </trkpt>
      <trkpt lat="44.59115" lon="4.43709">
        <ele>287.12</ele>
        <time>2022-08-15T07:47:09Z</time>
      </trkpt>
      <trkpt lat="44.59108" lon="4.43704">
        <ele>287.24</ele>
        <time>2022-08-15T07:47:10Z</time>
      </trkpt>
      <trkpt lat="44.591" lon="4.43696">
        <ele>287.19</ele>
        <time>2022-08-15T07:47:11Z</time>
      </trkpt>
      <trkpt lat="44.59093" lon="4.43684">
        <ele>287.21</ele>
        <time>2022-08-15T07:47:12Z</time>
      </trkpt>
      <trkpt lat="44.59085" lon="4.43669">
        <ele>287.25</ele>
        <time>2022-08-15T07:47:13Z</time>
      </trkpt>
      <trkpt lat="44.59067" lon="4.43627">
        <ele>289.67</ele>
        <time>2022-08-15T07:47:15Z</time>
      </trkpt>
      <trkpt lat="44.59046" lon="4.43578">
        <ele>291.29</ele>
        <time>2022-08-15T07:47:17Z</time>
      </trkpt>
      <trkpt lat="44.59009" lon="4.43495">
        <ele>294.17</ele>
        <time>2022-08-15T07:47:20Z</time>
      </trkpt>
      <trkpt lat="44.58984" lon="4.43436">
        <ele>295.7</ele>
        <time>2022-08-15T07:47:22Z</time>
      </trkpt>
      <trkpt lat="44.58894" lon="4.43222">
        <ele>293.81</ele>
        <time>2022-08-15T07:47:30Z</time>
      </trkpt>
      <trkpt lat="44.58878" lon="4.43167">
        <ele>290.01</ele>
        <time>2022-08-15T07:47:32Z</time>
      </trkpt>
      <trkpt lat="44.5887" lon="4.43139">
        <ele>289.99</ele>
        <time>2022-08-15T07:47:33Z</time>
      </trkpt>
      <trkpt lat="44.58853" lon="4.43081">
        <ele>288.66</ele>
        <time>2022-08-15T07:47:35Z</time>
      </trkpt>
      <trkpt lat="44.58829" lon="4.42999">
        <ele>286.27</ele>
        <time>2022-08-15T07:47:38Z</time>
      </trkpt>
      <trkpt lat="44.58814" lon="4.42949">
        <ele>284.7</ele>
        <time>2022-08-15T07:47:40Z</time>
      </trkpt>
      <trkpt lat="44.5879" lon="4.42856">
        <ele>281.08</ele>
        <time>2022-08-15T07:47:44Z</time>
      </trkpt>
      <trkpt lat="44.58786" lon="4.42834">
        <ele>281.15</ele>
        <time>2022-08-15T07:47:45Z</time>
      </trkpt>
      <trkpt lat="44.58785" lon="4.42811">
        <ele>279.62</ele>
        <time>2022-08-15T07:47:46Z</time>
      </trkpt>
      <trkpt lat="44.58787" lon="4.4279">
        <ele>278.57</ele>
        <time>2022-08-15T07:47:47Z</time>
      </trkpt>
      <trkpt lat="44.58792" lon="4.42769">
        <ele>277.58</ele>
        <time>2022-08-15T07:47:48Z</time>
      </trkpt>
      <trkpt lat="44.588" lon="4.4275">
        <ele>275.92</ele>
        <time>2022-08-15T07:47:49Z</time>
      </trkpt>
      <trkpt lat="44.58812" lon="4.42733">
        <ele>275.83</ele>
        <time>2022-08-15T07:47:50Z</time>
      </trkpt>
      <trkpt lat="44.58825" lon="4.42718">
        <ele>274.5</ele>
        <time>2022-08-15T07:47:51Z</time>
      </trkpt>
      <trkpt lat="44.58841" lon="4.42707">
        <ele>273.42</ele>
        <time>2022-08-15T07:47:52Z</time>
      </trkpt>
      <trkpt lat="44.58857" lon="4.42698">
        <ele>273.34</ele>
        <time>2022-08-15T07:47:53Z</time>
      </trkpt>
      <trkpt lat="44.58875" lon="4.42693">
        <ele>271.01</ele>
        <time>2022-08-15T07:47:54Z</time>
      </trkpt>
      <trkpt lat="44.58892" lon="4.42691">
        <ele>270.92</ele>
        <time>2022-08-15T07:47:55Z</time>
      </trkpt>
      <trkpt lat="44.58908" lon="4.42691">
        <ele>268.5</ele>
        <time>2022-08-15T07:47:56Z</time>
      </trkpt>
      <trkpt lat="44.58924" lon="4.42693">
        <ele>267.13</ele>
        <time>2022-08-15T07:47:57Z</time>
      </trkpt>
      <trkpt lat="44.58938" lon="4.42698">
        <ele>265.94</ele>
        <time>2022-08-15T07:47:58Z</time>
      </trkpt>
      <trkpt lat="44.5895" lon="4.42709">
        <ele>265</ele>
        <time>2022-08-15T07:47:59Z</time>
      </trkpt>
      <trkpt lat="44.58961" lon="4.42723">
        <ele>263.55</ele>
        <time>2022-08-15T07:48:00Z</time>
      </trkpt>
      <trkpt lat="44.58972" lon="4.42736">
        <ele>263.35</ele>
        <time>2022-08-15T07:48:01Z</time>
      </trkpt>
      <trkpt lat="44.58983" lon="4.42748">
        <ele>261.7</ele>
        <time>2022-08-15T07:48:02Z</time>
      </trkpt>
      <trkpt lat="44.58995" lon="4.42755">
        <ele>261.69</ele>
        <time>2022-08-15T07:48:03Z</time>
      </trkpt>
      <trkpt lat="44.59008" lon="4.42757">
        <ele>259.61</ele>
        <time>2022-08-15T07:48:04Z</time>
      </trkpt>
      <trkpt lat="44.59021" lon="4.42753">
        <ele>259.61</ele>
        <time>2022-08-15T07:48:05Z</time>
      </trkpt>
      <trkpt lat="44.59033" lon="4.42745">
        <ele>258.06</ele>
        <time>2022-08-15T07:48:06Z</time>
      </trkpt>
      <trkpt lat="44.59043" lon="4.42732">
        <ele>257.23</ele>
        <time>2022-08-15T07:48:07Z</time>
      </trkpt>
      <trkpt lat="44.59052" lon="4.42715">
        <ele>257.22</ele>
        <time>2022-08-15T07:48:08Z</time>
      </trkpt>
      <trkpt lat="44.5906" lon="4.42698">
        <ele>255.39</ele>
        <time>2022-08-15T07:48:09Z</time>
      </trkpt>
      <trkpt lat="44.59069" lon="4.42681">
        <ele>255.22</ele>
        <time>2022-08-15T07:48:10Z</time>
      </trkpt>
      <trkpt lat="44.59079" lon="4.42667">
        <ele>253.17</ele>
        <time>2022-08-15T07:48:11Z</time>
      </trkpt>
      <trkpt lat="44.59091" lon="4.42656">
        <ele>251.73</ele>
        <time>2022-08-15T07:48:12Z</time>
      </trkpt>
      <trkpt lat="44.59105" lon="4.42649">
        <ele>250.15</ele>
        <time>2022-08-15T07:48:13Z</time>
      </trkpt>
      <trkpt lat="44.5912" lon="4.42649">
        <ele>249</ele>
        <time>2022-08-15T07:48:14Z</time>
      </trkpt>
      <trkpt lat="44.59134" lon="4.42655">
        <ele>248.34</ele>
        <time>2022-08-15T07:48:15Z</time>
      </trkpt>
      <trkpt lat="44.59148" lon="4.42665">
        <ele>248.18</ele>
        <time>2022-08-15T07:48:16Z</time>
      </trkpt>
      <trkpt lat="44.59161" lon="4.42676">
        <ele>246.49</ele>
        <time>2022-08-15T07:48:17Z</time>
      </trkpt>
      <trkpt lat="44.59174" lon="4.42687">
        <ele>246.49</ele>
        <time>2022-08-15T07:48:18Z</time>
      </trkpt>
      <trkpt lat="44.592" lon="4.42706">
        <ele>244.72</ele>
        <time>2022-08-15T07:48:20Z</time>
      </trkpt>
      <trkpt lat="44.59213" lon="4.42712">
        <ele>243.37</ele>
        <time>2022-08-15T07:48:21Z</time>
      </trkpt>
      <trkpt lat="44.59226" lon="4.42713">
        <ele>243.36</ele>
        <time>2022-08-15T07:48:22Z</time>
      </trkpt>
      <trkpt lat="44.59239" lon="4.42709">
        <ele>242.2</ele>
        <time>2022-08-15T07:48:23Z</time>
      </trkpt>
      <trkpt lat="44.5925" lon="4.42699">
        <ele>241.31</ele>
        <time>2022-08-15T07:48:24Z</time>
      </trkpt>
      <trkpt lat="44.59258" lon="4.42682">
        <ele>241.12</ele>
        <time>2022-08-15T07:48:25Z</time>
      </trkpt>
      <trkpt lat="44.59261" lon="4.42664">
        <ele>241.27</ele>
        <time>2022-08-15T07:48:26Z</time>
      </trkpt>
      <trkpt lat="44.5926" lon="4.42644">
        <ele>241.24</ele>
        <time>2022-08-15T07:48:27Z</time>
      </trkpt>
      <trkpt lat="44.59256" lon="4.42625">
        <ele>241.32</ele>
        <time>2022-08-15T07:48:28Z</time>
      </trkpt>
      <trkpt lat="44.59249" lon="4.42608">
        <ele>239.85</ele>
        <time>2022-08-15T07:48:29Z</time>
      </trkpt>
      <trkpt lat="44.59242" lon="4.42592">
        <ele>239.86</ele>
        <time>2022-08-15T07:48:30Z</time>
      </trkpt>
      <trkpt lat="44.5922" lon="4.4254">
        <ele>237.25</ele>
        <time>2022-08-15T07:48:33Z</time>
      </trkpt>
      <trkpt lat="44.59213" lon="4.42521">
        <ele>236.1</ele>
        <time>2022-08-15T07:48:34Z</time>
      </trkpt>
      <trkpt lat="44.59209" lon="4.42501">
        <ele>235.08</ele>
        <time>2022-08-15T07:48:35Z</time>
      </trkpt>
      <trkpt lat="44.59207" lon="4.42482">
        <ele>233.86</ele>
        <time>2022-08-15T07:48:36Z</time>
      </trkpt>
      <trkpt lat="44.59209" lon="4.42464">
        <ele>232.82</ele>
        <time>2022-08-15T07:48:37Z</time>
      </trkpt>
      <trkpt lat="44.59214" lon="4.42447">
        <ele>231.38</ele>
        <time>2022-08-15T07:48:38Z</time>
      </trkpt>
      <trkpt lat="44.59222" lon="4.42434">
        <ele>230.27</ele>
        <time>2022-08-15T07:48:39Z</time>
      </trkpt>
      <trkpt lat="44.59231" lon="4.42423">
        <ele>229.64</ele>
        <time>2022-08-15T07:48:40Z</time>
      </trkpt>
      <trkpt lat="44.59241" lon="4.42414">
        <ele>228.81</ele>
        <time>2022-08-15T07:48:41Z</time>
      </trkpt>
      <trkpt lat="44.59252" lon="4.42409">
        <ele>227.5</ele>
        <time>2022-08-15T07:48:42Z</time>
      </trkpt>
      <trkpt lat="44.59263" lon="4.42407">
        <ele>227.53</ele>
        <time>2022-08-15T07:48:43Z</time>
      </trkpt>
      <trkpt lat="44.59273" lon="4.42408">
        <ele>226.45</ele>
        <time>2022-08-15T07:48:44Z</time>
      </trkpt>
      <trkpt lat="44.59284" lon="4.4241">
        <ele>226.42</ele>
        <time>2022-08-15T07:48:45Z</time>
      </trkpt>
      <trkpt lat="44.59305" lon="4.42412">
        <ele>225.27</ele>
        <time>2022-08-15T07:48:47Z</time>
      </trkpt>
      <trkpt lat="44.59314" lon="4.42408">
        <ele>224.19</ele>
        <time>2022-08-15T07:48:48Z</time>
      </trkpt>
      <trkpt lat="44.59322" lon="4.424">
        <ele>223.62</ele>
        <time>2022-08-15T07:48:49Z</time>
      </trkpt>
      <trkpt lat="44.59327" lon="4.4239">
        <ele>222.84</ele>
        <time>2022-08-15T07:48:50Z</time>
      </trkpt>
      <trkpt lat="44.59328" lon="4.42378">
        <ele>222.85</ele>
        <time>2022-08-15T07:48:51Z</time>
      </trkpt>
      <trkpt lat="44.59326" lon="4.42366">
        <ele>222.77</ele>
        <time>2022-08-15T07:48:52Z</time>
      </trkpt>
      <trkpt lat="44.59321" lon="4.42355">
        <ele>222.78</ele>
        <time>2022-08-15T07:48:53Z</time>
      </trkpt>
      <trkpt lat="44.59313" lon="4.42344">
        <ele>222.74</ele>
        <time>2022-08-15T07:48:54Z</time>
      </trkpt>
      <trkpt lat="44.59305" lon="4.42334">
        <ele>221.75</ele>
        <time>2022-08-15T07:48:55Z</time>
      </trkpt>
      <trkpt lat="44.59261" lon="4.42278">
        <ele>219.45</ele>
        <time>2022-08-15T07:49:00Z</time>
      </trkpt>
      <trkpt lat="44.59244" lon="4.42245">
        <ele>218.32</ele>
        <time>2022-08-15T07:49:02Z</time>
      </trkpt>
      <trkpt lat="44.59238" lon="4.42225">
        <ele>218.28</ele>
        <time>2022-08-15T07:49:03Z</time>
      </trkpt>
      <trkpt lat="44.59234" lon="4.42205">
        <ele>217.07</ele>
        <time>2022-08-15T07:49:04Z</time>
      </trkpt>
      <trkpt lat="44.59231" lon="4.42185">
        <ele>217.07</ele>
        <time>2022-08-15T07:49:05Z</time>
      </trkpt>
      <trkpt lat="44.59229" lon="4.42166">
        <ele>215.65</ele>
        <time>2022-08-15T07:49:06Z</time>
      </trkpt>
      <trkpt lat="44.59225" lon="4.42128">
        <ele>214.21</ele>
        <time>2022-08-15T07:49:08Z</time>
      </trkpt>
      <trkpt lat="44.59222" lon="4.42075">
        <ele>210.23</ele>
        <time>2022-08-15T07:49:11Z</time>
      </trkpt>
      <trkpt lat="44.59222" lon="4.42058">
        <ele>210.22</ele>
        <time>2022-08-15T07:49:12Z</time>
      </trkpt>
      <trkpt lat="44.59225" lon="4.4204">
        <ele>209.05</ele>
        <time>2022-08-15T07:49:13Z</time>
      </trkpt>
      <trkpt lat="44.59231" lon="4.42022">
        <ele>209.12</ele>
        <time>2022-08-15T07:49:14Z</time>
      </trkpt>
      <trkpt lat="44.5924" lon="4.42005">
        <ele>207.73</ele>
        <time>2022-08-15T07:49:15Z</time>
      </trkpt>
      <trkpt lat="44.5925" lon="4.41988">
        <ele>206.91</ele>
        <time>2022-08-15T07:49:16Z</time>
      </trkpt>
      <trkpt lat="44.59294" lon="4.41928">
        <ele>204.18</ele>
        <time>2022-08-15T07:49:20Z</time>
      </trkpt>
      <trkpt lat="44.59306" lon="4.41915">
        <ele>202.54</ele>
        <time>2022-08-15T07:49:21Z</time>
      </trkpt>
      <trkpt lat="44.59319" lon="4.41904">
        <ele>202.54</ele>
        <time>2022-08-15T07:49:22Z</time>
      </trkpt>
      <trkpt lat="44.59334" lon="4.41894">
        <ele>201.66</ele>
        <time>2022-08-15T07:49:23Z</time>
      </trkpt>
      <trkpt lat="44.59364" lon="4.41873">
        <ele>200.27</ele>
        <time>2022-08-15T07:49:25Z</time>
      </trkpt>
      <trkpt lat="44.59378" lon="4.4186">
        <ele>199.2</ele>
        <time>2022-08-15T07:49:26Z</time>
      </trkpt>
      <trkpt lat="44.59391" lon="4.41847">
        <ele>199.23</ele>
        <time>2022-08-15T07:49:27Z</time>
      </trkpt>
      <trkpt lat="44.59441" lon="4.41793">
        <ele>196.15</ele>
        <time>2022-08-15T07:49:31Z</time>
      </trkpt>
      <trkpt lat="44.59455" lon="4.41784">
        <ele>194.41</ele>
        <time>2022-08-15T07:49:32Z</time>
      </trkpt>
      <trkpt lat="44.5947" lon="4.41778">
        <ele>194.41</ele>
        <time>2022-08-15T07:49:33Z</time>
      </trkpt>
      <trkpt lat="44.59485" lon="4.41776">
        <ele>192.66</ele>
        <time>2022-08-15T07:49:34Z</time>
      </trkpt>
      <trkpt lat="44.595" lon="4.41778">
        <ele>191.33</ele>
        <time>2022-08-15T07:49:35Z</time>
      </trkpt>
      <trkpt lat="44.59515" lon="4.41784">
        <ele>191.28</ele>
        <time>2022-08-15T07:49:36Z</time>
      </trkpt>
      <trkpt lat="44.5953" lon="4.41794">
        <ele>190.74</ele>
        <time>2022-08-15T07:49:37Z</time>
      </trkpt>
      <trkpt lat="44.59545" lon="4.41807">
        <ele>190.09</ele>
        <time>2022-08-15T07:49:38Z</time>
      </trkpt>
      <trkpt lat="44.5956" lon="4.4182">
        <ele>189.91</ele>
        <time>2022-08-15T07:49:39Z</time>
      </trkpt>
      <trkpt lat="44.59621" lon="4.4188">
        <ele>188.27</ele>
        <time>2022-08-15T07:49:43Z</time>
      </trkpt>
      <trkpt lat="44.59666" lon="4.41916">
        <ele>185.58</ele>
        <time>2022-08-15T07:49:46Z</time>
      </trkpt>
      <trkpt lat="44.59847" lon="4.42019">
        <ele>183.75</ele>
        <time>2022-08-15T07:49:58Z</time>
      </trkpt>
      <trkpt lat="44.60002" lon="4.42107">
        <ele>182.83</ele>
        <time>2022-08-15T07:50:09Z</time>
      </trkpt>
      <trkpt lat="44.60124" lon="4.42208">
        <ele>182.76</ele>
        <time>2022-08-15T07:50:19Z</time>
      </trkpt>
      <trkpt lat="44.60135" lon="4.42215">
        <ele>182.77</ele>
        <time>2022-08-15T07:50:20Z</time>
      </trkpt>
      <trkpt lat="44.60146" lon="4.42219">
        <ele>182.75</ele>
        <time>2022-08-15T07:50:21Z</time>
      </trkpt>
      <trkpt lat="44.60158" lon="4.4222">
        <ele>182.74</ele>
        <time>2022-08-15T07:50:22Z</time>
      </trkpt>
      <trkpt lat="44.60171" lon="4.42217">
        <ele>182.73</ele>
        <time>2022-08-15T07:50:23Z</time>
      </trkpt>
      <trkpt lat="44.60184" lon="4.4221">
        <ele>182.75</ele>
        <time>2022-08-15T07:50:24Z</time>
      </trkpt>
      <trkpt lat="44.60197" lon="4.422">
        <ele>182.77</ele>
        <time>2022-08-15T07:50:25Z</time>
      </trkpt>
      <trkpt lat="44.60212" lon="4.42187">
        <ele>182.81</ele>
        <time>2022-08-15T07:50:26Z</time>
      </trkpt>
      <trkpt lat="44.60227" lon="4.4217">
        <ele>185.31</ele>
        <time>2022-08-15T07:50:27Z</time>
      </trkpt>
      <trkpt lat="44.60241" lon="4.42153">
        <ele>185.3</ele>
        <time>2022-08-15T07:50:28Z</time>
      </trkpt>
      <trkpt lat="44.60361" lon="4.41996">
        <ele>186.06</ele>
        <time>2022-08-15T07:50:38Z</time>
      </trkpt>
      <trkpt lat="44.60402" lon="4.41943">
        <ele>183.62</ele>
        <time>2022-08-15T07:50:42Z</time>
      </trkpt>
      <trkpt lat="44.60508" lon="4.41806">
        <ele>182.63</ele>
        <time>2022-08-15T07:50:53Z</time>
      </trkpt>
      <trkpt lat="44.60547" lon="4.41756">
        <ele>182.56</ele>
        <time>2022-08-15T07:50:58Z</time>
      </trkpt>
      <trkpt lat="44.60555" lon="4.41749">
        <ele>182.57</ele>
        <time>2022-08-15T07:50:59Z</time>
      </trkpt>
      <trkpt lat="44.60572" lon="4.41735">
        <ele>182.57</ele>
        <time>2022-08-15T07:51:01Z</time>
      </trkpt>
      <trkpt lat="44.60579" lon="4.41724">
        <ele>182.61</ele>
        <time>2022-08-15T07:51:02Z</time>
      </trkpt>
      <trkpt lat="44.60592" lon="4.417">
        <ele>182.58</ele>
        <time>2022-08-15T07:51:04Z</time>
      </trkpt>
      <trkpt lat="44.606" lon="4.41688">
        <ele>182.62</ele>
        <time>2022-08-15T07:51:05Z</time>
      </trkpt>
      <trkpt lat="44.60634" lon="4.41643">
        <ele>186.7</ele>
        <time>2022-08-15T07:51:09Z</time>
      </trkpt>
      <trkpt lat="44.60643" lon="4.41631">
        <ele>186.71</ele>
        <time>2022-08-15T07:51:10Z</time>
      </trkpt>
      <trkpt lat="44.60677" lon="4.41585">
        <ele>188.04</ele>
        <time>2022-08-15T07:51:14Z</time>
      </trkpt>
      <trkpt lat="44.60775" lon="4.41465">
        <ele>191.34</ele>
        <time>2022-08-15T07:51:25Z</time>
      </trkpt>
      <trkpt lat="44.60825" lon="4.41397">
        <ele>192.24</ele>
        <time>2022-08-15T07:51:33Z</time>
      </trkpt>
      <trkpt lat="44.60836" lon="4.41383">
        <ele>193.48</ele>
        <time>2022-08-15T07:51:36Z</time>
      </trkpt>
      <trkpt lat="44.60868" lon="4.41342">
        <ele>195.96</ele>
        <time>2022-08-15T07:51:42Z</time>
      </trkpt>
      <trkpt lat="44.60886" lon="4.41318">
        <ele>197.12</ele>
        <time>2022-08-15T07:51:44Z</time>
      </trkpt>
      <trkpt lat="44.60927" lon="4.41264">
        <ele>199.74</ele>
        <time>2022-08-15T07:51:48Z</time>
      </trkpt>
      <trkpt lat="44.61064" lon="4.41089">
        <ele>201.53</ele>
        <time>2022-08-15T07:52:00Z</time>
      </trkpt>
      <trkpt lat="44.61245" lon="4.40873">
        <ele>203.14</ele>
        <time>2022-08-15T07:52:17Z</time>
      </trkpt>
      <trkpt lat="44.61276" lon="4.40846">
        <ele>203.15</ele>
        <time>2022-08-15T07:52:23Z</time>
      </trkpt>
      <trkpt lat="44.61284" lon="4.40842">
        <ele>203.17</ele>
        <time>2022-08-15T07:52:25Z</time>
      </trkpt>
      <trkpt lat="44.6129" lon="4.4084">
        <ele>203.18</ele>
        <time>2022-08-15T07:52:26Z</time>
      </trkpt>
      <trkpt lat="44.61298" lon="4.40839">
        <ele>203.19</ele>
        <time>2022-08-15T07:52:27Z</time>
      </trkpt>
      <trkpt lat="44.61305" lon="4.40836">
        <ele>203.18</ele>
        <time>2022-08-15T07:52:28Z</time>
      </trkpt>
      <trkpt lat="44.61312" lon="4.4083">
        <ele>203.18</ele>
        <time>2022-08-15T07:52:29Z</time>
      </trkpt>
      <trkpt lat="44.61318" lon="4.40823">
        <ele>203.2</ele>
        <time>2022-08-15T07:52:30Z</time>
      </trkpt>
      <trkpt lat="44.61322" lon="4.40813">
        <ele>203.14</ele>
        <time>2022-08-15T07:52:31Z</time>
      </trkpt>
      <trkpt lat="44.61325" lon="4.40802">
        <ele>203.14</ele>
        <time>2022-08-15T07:52:32Z</time>
      </trkpt>
      <trkpt lat="44.61326" lon="4.40789">
        <ele>203.14</ele>
        <time>2022-08-15T07:52:33Z</time>
      </trkpt>
      <trkpt lat="44.61326" lon="4.40777">
        <ele>203.14</ele>
        <time>2022-08-15T07:52:34Z</time>
      </trkpt>
      <trkpt lat="44.61327" lon="4.40767">
        <ele>203.14</ele>
        <time>2022-08-15T07:52:35Z</time>
      </trkpt>
      <trkpt lat="44.61329" lon="4.40757">
        <ele>203.14</ele>
        <time>2022-08-15T07:52:36Z</time>
      </trkpt>
      <trkpt lat="44.61332" lon="4.40749">
        <ele>203.14</ele>
        <time>2022-08-15T07:52:37Z</time>
      </trkpt>
      <trkpt lat="44.61337" lon="4.40741">
        <ele>203.15</ele>
        <time>2022-08-15T07:52:38Z</time>
      </trkpt>
      <trkpt lat="44.61343" lon="4.40731">
        <ele>203.16</ele>
        <time>2022-08-15T07:52:39Z</time>
      </trkpt>
      <trkpt lat="44.61398" lon="4.40661">
        <ele>204.57</ele>
        <time>2022-08-15T07:52:45Z</time>
      </trkpt>
      <trkpt lat="44.61523" lon="4.40496">
        <ele>206.47</ele>
        <time>2022-08-15T07:52:58Z</time>
      </trkpt>
      <trkpt lat="44.61547" lon="4.40455">
        <ele>206.3</ele>
        <time>2022-08-15T07:53:02Z</time>
      </trkpt>
      <trkpt lat="44.61554" lon="4.40448">
        <ele>206.3</ele>
        <time>2022-08-15T07:53:03Z</time>
      </trkpt>
      <trkpt lat="44.61561" lon="4.40444">
        <ele>206.31</ele>
        <time>2022-08-15T07:53:04Z</time>
      </trkpt>
      <trkpt lat="44.61569" lon="4.40441">
        <ele>206.31</ele>
        <time>2022-08-15T07:53:05Z</time>
      </trkpt>
      <trkpt lat="44.61576" lon="4.40435">
        <ele>206.31</ele>
        <time>2022-08-15T07:53:06Z</time>
      </trkpt>
      <trkpt lat="44.61581" lon="4.40425">
        <ele>206.32</ele>
        <time>2022-08-15T07:53:07Z</time>
      </trkpt>
      <trkpt lat="44.61584" lon="4.40413">
        <ele>206.31</ele>
        <time>2022-08-15T07:53:08Z</time>
      </trkpt>
      <trkpt lat="44.61587" lon="4.404">
        <ele>206.32</ele>
        <time>2022-08-15T07:53:09Z</time>
      </trkpt>
      <trkpt lat="44.61591" lon="4.40388">
        <ele>207.1</ele>
        <time>2022-08-15T07:53:10Z</time>
      </trkpt>
      <trkpt lat="44.61597" lon="4.40377">
        <ele>207.11</ele>
        <time>2022-08-15T07:53:11Z</time>
      </trkpt>
      <trkpt lat="44.61604" lon="4.40367">
        <ele>207.12</ele>
        <time>2022-08-15T07:53:12Z</time>
      </trkpt>
      <trkpt lat="44.61626" lon="4.40342">
        <ele>207.85</ele>
        <time>2022-08-15T07:53:15Z</time>
      </trkpt>
      <trkpt lat="44.61633" lon="4.40336">
        <ele>207.89</ele>
        <time>2022-08-15T07:53:16Z</time>
      </trkpt>
      <trkpt lat="44.61647" lon="4.40324">
        <ele>207.97</ele>
        <time>2022-08-15T07:53:22Z</time>
      </trkpt>
      <trkpt lat="44.61646" lon="4.40328">
        <ele>207.92</ele>
        <time>2022-08-15T07:54:09Z</time>
      </trkpt>
      <trkpt lat="44.61648" lon="4.40324">
        <ele>208.01</ele>
        <time>2022-08-15T07:54:53Z</time>
      </trkpt>
      <trkpt lat="44.61658" lon="4.40308">
        <ele>209.29</ele>
        <time>2022-08-15T07:54:55Z</time>
      </trkpt>
      <trkpt lat="44.61665" lon="4.40299">
        <ele>210.1</ele>
        <time>2022-08-15T07:54:56Z</time>
      </trkpt>
      <trkpt lat="44.61684" lon="4.40277">
        <ele>210.92</ele>
        <time>2022-08-15T07:54:58Z</time>
      </trkpt>
      <trkpt lat="44.61706" lon="4.40251">
        <ele>212.59</ele>
        <time>2022-08-15T07:55:00Z</time>
      </trkpt>
      <trkpt lat="44.61733" lon="4.40219">
        <ele>215.98</ele>
        <time>2022-08-15T07:55:02Z</time>
      </trkpt>
      <trkpt lat="44.61759" lon="4.40189">
        <ele>216.97</ele>
        <time>2022-08-15T07:55:04Z</time>
      </trkpt>
      <trkpt lat="44.6191" lon="4.40041">
        <ele>219.59</ele>
        <time>2022-08-15T07:55:16Z</time>
      </trkpt>
      <trkpt lat="44.61935" lon="4.40013">
        <ele>221.12</ele>
        <time>2022-08-15T07:55:18Z</time>
      </trkpt>
      <trkpt lat="44.61972" lon="4.39971">
        <ele>222.93</ele>
        <time>2022-08-15T07:55:21Z</time>
      </trkpt>
      <trkpt lat="44.62095" lon="4.39834">
        <ele>226.02</ele>
        <time>2022-08-15T07:55:31Z</time>
      </trkpt>
      <trkpt lat="44.62049" lon="4.39825">
        <ele>226.09</ele>
        <time>2022-08-15T07:55:32Z</time>
      </trkpt>
      <trkpt lat="44.62061" lon="4.39799">
        <ele>227.32</ele>
        <time>2022-08-15T07:55:33Z</time>
      </trkpt>
      <trkpt lat="44.62099" lon="4.39702">
        <ele>228.51</ele>
        <time>2022-08-15T07:55:37Z</time>
      </trkpt>
      <trkpt lat="44.62133" lon="4.39559">
        <ele>230.95</ele>
        <time>2022-08-15T07:55:43Z</time>
      </trkpt>
      <trkpt lat="44.62193" lon="4.39355">
        <ele>232.1</ele>
        <time>2022-08-15T07:55:53Z</time>
      </trkpt>
      <trkpt lat="44.62222" lon="4.39147">
        <ele>229.22</ele>
        <time>2022-08-15T07:56:02Z</time>
      </trkpt>
      <trkpt lat="44.62229" lon="4.39105">
        <ele>227.56</ele>
        <time>2022-08-15T07:56:04Z</time>
      </trkpt>
      <trkpt lat="44.62252" lon="4.39034">
        <ele>224.17</ele>
        <time>2022-08-15T07:56:08Z</time>
      </trkpt>
      <trkpt lat="44.62259" lon="4.39021">
        <ele>223.27</ele>
        <time>2022-08-15T07:56:09Z</time>
      </trkpt>
      <trkpt lat="44.62266" lon="4.3901">
        <ele>223.27</ele>
        <time>2022-08-15T07:56:10Z</time>
      </trkpt>
      <trkpt lat="44.62273" lon="4.39">
        <ele>222.35</ele>
        <time>2022-08-15T07:56:11Z</time>
      </trkpt>
      <trkpt lat="44.62278" lon="4.38989">
        <ele>222.35</ele>
        <time>2022-08-15T07:56:12Z</time>
      </trkpt>
      <trkpt lat="44.62282" lon="4.38976">
        <ele>222.26</ele>
        <time>2022-08-15T07:56:13Z</time>
      </trkpt>
      <trkpt lat="44.62284" lon="4.3896">
        <ele>222.3</ele>
        <time>2022-08-15T07:56:14Z</time>
      </trkpt>
      <trkpt lat="44.62303" lon="4.38881">
        <ele>226.45</ele>
        <time>2022-08-15T07:56:18Z</time>
      </trkpt>
      <trkpt lat="44.62312" lon="4.3886">
        <ele>227.74</ele>
        <time>2022-08-15T07:56:19Z</time>
      </trkpt>
      <trkpt lat="44.62321" lon="4.38839">
        <ele>228.85</ele>
        <time>2022-08-15T07:56:20Z</time>
      </trkpt>
      <trkpt lat="44.62332" lon="4.3882">
        <ele>228.97</ele>
        <time>2022-08-15T07:56:21Z</time>
      </trkpt>
      <trkpt lat="44.62343" lon="4.38803">
        <ele>231.64</ele>
        <time>2022-08-15T07:56:22Z</time>
      </trkpt>
      <trkpt lat="44.62376" lon="4.38756">
        <ele>235.09</ele>
        <time>2022-08-15T07:56:25Z</time>
      </trkpt>
      <trkpt lat="44.62386" lon="4.38742">
        <ele>235.13</ele>
        <time>2022-08-15T07:56:26Z</time>
      </trkpt>
      <trkpt lat="44.62395" lon="4.38729">
        <ele>236.4</ele>
        <time>2022-08-15T07:56:27Z</time>
      </trkpt>
      <trkpt lat="44.62401" lon="4.38715">
        <ele>236.4</ele>
        <time>2022-08-15T07:56:28Z</time>
      </trkpt>
      <trkpt lat="44.62404" lon="4.387">
        <ele>236.54</ele>
        <time>2022-08-15T07:56:29Z</time>
      </trkpt>
      <trkpt lat="44.62405" lon="4.38685">
        <ele>236.54</ele>
        <time>2022-08-15T07:56:30Z</time>
      </trkpt>
      <trkpt lat="44.62406" lon="4.38669">
        <ele>236.61</ele>
        <time>2022-08-15T07:56:31Z</time>
      </trkpt>
      <trkpt lat="44.62408" lon="4.38652">
        <ele>237.62</ele>
        <time>2022-08-15T07:56:32Z</time>
      </trkpt>
      <trkpt lat="44.62413" lon="4.38636">
        <ele>237.62</ele>
        <time>2022-08-15T07:56:33Z</time>
      </trkpt>
      <trkpt lat="44.6243" lon="4.38603">
        <ele>239.48</ele>
        <time>2022-08-15T07:56:35Z</time>
      </trkpt>
      <trkpt lat="44.62454" lon="4.38542">
        <ele>242.11</ele>
        <time>2022-08-15T07:56:38Z</time>
      </trkpt>
      <trkpt lat="44.62459" lon="4.3852">
        <ele>242.93</ele>
        <time>2022-08-15T07:56:39Z</time>
      </trkpt>
      <trkpt lat="44.62471" lon="4.38475">
        <ele>243.71</ele>
        <time>2022-08-15T07:56:41Z</time>
      </trkpt>
      <trkpt lat="44.62479" lon="4.38454">
        <ele>245.47</ele>
        <time>2022-08-15T07:56:42Z</time>
      </trkpt>
      <trkpt lat="44.62487" lon="4.38435">
        <ele>245.59</ele>
        <time>2022-08-15T07:56:43Z</time>
      </trkpt>
      <trkpt lat="44.62506" lon="4.38399">
        <ele>248.25</ele>
        <time>2022-08-15T07:56:45Z</time>
      </trkpt>
      <trkpt lat="44.62517" lon="4.38383">
        <ele>249.19</ele>
        <time>2022-08-15T07:56:46Z</time>
      </trkpt>
      <trkpt lat="44.62528" lon="4.38369">
        <ele>249.2</ele>
        <time>2022-08-15T07:56:47Z</time>
      </trkpt>
      <trkpt lat="44.62552" lon="4.38343">
        <ele>250.82</ele>
        <time>2022-08-15T07:56:49Z</time>
      </trkpt>
      <trkpt lat="44.62589" lon="4.38305">
        <ele>253.71</ele>
        <time>2022-08-15T07:56:52Z</time>
      </trkpt>
      <trkpt lat="44.62615" lon="4.38279">
        <ele>256.17</ele>
        <time>2022-08-15T07:56:54Z</time>
      </trkpt>
      <trkpt lat="44.62641" lon="4.38252">
        <ele>259.3</ele>
        <time>2022-08-15T07:56:56Z</time>
      </trkpt>
      <trkpt lat="44.62654" lon="4.38239">
        <ele>259.3</ele>
        <time>2022-08-15T07:56:57Z</time>
      </trkpt>
      <trkpt lat="44.62679" lon="4.38213">
        <ele>261.18</ele>
        <time>2022-08-15T07:56:59Z</time>
      </trkpt>
      <trkpt lat="44.62718" lon="4.38176">
        <ele>264.98</ele>
        <time>2022-08-15T07:57:02Z</time>
      </trkpt>
      <trkpt lat="44.6276" lon="4.38147">
        <ele>267.09</ele>
        <time>2022-08-15T07:57:05Z</time>
      </trkpt>
      <trkpt lat="44.62804" lon="4.38129">
        <ele>270.87</ele>
        <time>2022-08-15T07:57:08Z</time>
      </trkpt>
      <trkpt lat="44.62818" lon="4.38125">
        <ele>270.85</ele>
        <time>2022-08-15T07:57:09Z</time>
      </trkpt>
      <trkpt lat="44.62861" lon="4.38113">
        <ele>272.92</ele>
        <time>2022-08-15T07:57:12Z</time>
      </trkpt>
      <trkpt lat="44.62893" lon="4.38097">
        <ele>274.01</ele>
        <time>2022-08-15T07:57:15Z</time>
      </trkpt>
      <trkpt lat="44.62902" lon="4.3809">
        <ele>274.01</ele>
        <time>2022-08-15T07:57:16Z</time>
      </trkpt>
      <trkpt lat="44.62911" lon="4.38082">
        <ele>274.93</ele>
        <time>2022-08-15T07:57:17Z</time>
      </trkpt>
      <trkpt lat="44.62951" lon="4.38047">
        <ele>275.46</ele>
        <time>2022-08-15T07:57:21Z</time>
      </trkpt>
      <trkpt lat="44.62963" lon="4.38042">
        <ele>276.27</ele>
        <time>2022-08-15T07:57:22Z</time>
      </trkpt>
      <trkpt lat="44.62976" lon="4.38039">
        <ele>276.32</ele>
        <time>2022-08-15T07:57:23Z</time>
      </trkpt>
      <trkpt lat="44.6299" lon="4.38039">
        <ele>276.31</ele>
        <time>2022-08-15T07:57:24Z</time>
      </trkpt>
      <trkpt lat="44.63004" lon="4.3804">
        <ele>277.12</ele>
        <time>2022-08-15T07:57:25Z</time>
      </trkpt>
      <trkpt lat="44.63033" lon="4.38042">
        <ele>277.15</ele>
        <time>2022-08-15T07:57:27Z</time>
      </trkpt>
      <trkpt lat="44.63047" lon="4.38041">
        <ele>277.15</ele>
        <time>2022-08-15T07:57:28Z</time>
      </trkpt>
      <trkpt lat="44.63062" lon="4.38038">
        <ele>277.13</ele>
        <time>2022-08-15T07:57:29Z</time>
      </trkpt>
      <trkpt lat="44.63137" lon="4.38015">
        <ele>274.57</ele>
        <time>2022-08-15T07:57:35Z</time>
      </trkpt>
      <trkpt lat="44.63254" lon="4.3799">
        <ele>272.27</ele>
        <time>2022-08-15T07:57:44Z</time>
      </trkpt>
      <trkpt lat="44.63414" lon="4.37966">
        <ele>271.23</ele>
        <time>2022-08-15T07:57:55Z</time>
      </trkpt>
      <trkpt lat="44.63427" lon="4.37964">
        <ele>271.25</ele>
        <time>2022-08-15T07:57:56Z</time>
      </trkpt>
      <trkpt lat="44.63488" lon="4.37954">
        <ele>271.27</ele>
        <time>2022-08-15T07:58:01Z</time>
      </trkpt>
      <trkpt lat="44.635" lon="4.37949">
        <ele>271.25</ele>
        <time>2022-08-15T07:58:02Z</time>
      </trkpt>
      <trkpt lat="44.63512" lon="4.37941">
        <ele>271.29</ele>
        <time>2022-08-15T07:58:03Z</time>
      </trkpt>
      <trkpt lat="44.63535" lon="4.37918">
        <ele>271.25</ele>
        <time>2022-08-15T07:58:05Z</time>
      </trkpt>
      <trkpt lat="44.63546" lon="4.37903">
        <ele>271.28</ele>
        <time>2022-08-15T07:58:06Z</time>
      </trkpt>
      <trkpt lat="44.6359" lon="4.37838">
        <ele>269.88</ele>
        <time>2022-08-15T07:58:10Z</time>
      </trkpt>
      <trkpt lat="44.63614" lon="4.37815">
        <ele>268.49</ele>
        <time>2022-08-15T07:58:12Z</time>
      </trkpt>
      <trkpt lat="44.63661" lon="4.37767">
        <ele>268.49</ele>
        <time>2022-08-15T07:58:16Z</time>
      </trkpt>
      <trkpt lat="44.6367" lon="4.37751">
        <ele>268.49</ele>
        <time>2022-08-15T07:58:17Z</time>
      </trkpt>
      <trkpt lat="44.63678" lon="4.37733">
        <ele>268.49</ele>
        <time>2022-08-15T07:58:18Z</time>
      </trkpt>
      <trkpt lat="44.63684" lon="4.37715">
        <ele>268.47</ele>
        <time>2022-08-15T07:58:19Z</time>
      </trkpt>
      <trkpt lat="44.6369" lon="4.37697">
        <ele>267.2</ele>
        <time>2022-08-15T07:58:20Z</time>
      </trkpt>
      <trkpt lat="44.63694" lon="4.37678">
        <ele>267.17</ele>
        <time>2022-08-15T07:58:21Z</time>
      </trkpt>
      <trkpt lat="44.63697" lon="4.3766">
        <ele>266.08</ele>
        <time>2022-08-15T07:58:22Z</time>
      </trkpt>
      <trkpt lat="44.63712" lon="4.37602">
        <ele>264.75</ele>
        <time>2022-08-15T07:58:25Z</time>
      </trkpt>
      <trkpt lat="44.63719" lon="4.37585">
        <ele>264.71</ele>
        <time>2022-08-15T07:58:26Z</time>
      </trkpt>
      <trkpt lat="44.63727" lon="4.3757">
        <ele>263.78</ele>
        <time>2022-08-15T07:58:27Z</time>
      </trkpt>
      <trkpt lat="44.63737" lon="4.37555">
        <ele>263.7</ele>
        <time>2022-08-15T07:58:28Z</time>
      </trkpt>
      <trkpt lat="44.63748" lon="4.37542">
        <ele>263.73</ele>
        <time>2022-08-15T07:58:29Z</time>
      </trkpt>
      <trkpt lat="44.63759" lon="4.37529">
        <ele>262.37</ele>
        <time>2022-08-15T07:58:30Z</time>
      </trkpt>
      <trkpt lat="44.63771" lon="4.37516">
        <ele>262.31</ele>
        <time>2022-08-15T07:58:31Z</time>
      </trkpt>
      <trkpt lat="44.6383" lon="4.37438">
        <ele>259.72</ele>
        <time>2022-08-15T07:58:36Z</time>
      </trkpt>
      <trkpt lat="44.63936" lon="4.37255">
        <ele>256.03</ele>
        <time>2022-08-15T07:58:46Z</time>
      </trkpt>
      <trkpt lat="44.64027" lon="4.37123">
        <ele>254.26</ele>
        <time>2022-08-15T07:58:55Z</time>
      </trkpt>
      <trkpt lat="44.64088" lon="4.37048">
        <ele>252.98</ele>
        <time>2022-08-15T07:59:00Z</time>
      </trkpt>
      <trkpt lat="44.64103" lon="4.37035">
        <ele>251.84</ele>
        <time>2022-08-15T07:59:01Z</time>
      </trkpt>
      <trkpt lat="44.64197" lon="4.36979">
        <ele>249.53</ele>
        <time>2022-08-15T07:59:07Z</time>
      </trkpt>
      <trkpt lat="44.64377" lon="4.36889">
        <ele>247.69</ele>
        <time>2022-08-15T07:59:19Z</time>
      </trkpt>
      <trkpt lat="44.64391" lon="4.36882">
        <ele>247.72</ele>
        <time>2022-08-15T07:59:20Z</time>
      </trkpt>
      <trkpt lat="44.64406" lon="4.36879">
        <ele>247.73</ele>
        <time>2022-08-15T07:59:21Z</time>
      </trkpt>
      <trkpt lat="44.64419" lon="4.36877">
        <ele>247.78</ele>
        <time>2022-08-15T07:59:22Z</time>
      </trkpt>
      <trkpt lat="44.64432" lon="4.36878">
        <ele>246.64</ele>
        <time>2022-08-15T07:59:23Z</time>
      </trkpt>
      <trkpt lat="44.64444" lon="4.3688">
        <ele>245.55</ele>
        <time>2022-08-15T07:59:24Z</time>
      </trkpt>
      <trkpt lat="44.64455" lon="4.36883">
        <ele>244.32</ele>
        <time>2022-08-15T07:59:25Z</time>
      </trkpt>
      <trkpt lat="44.64465" lon="4.36886">
        <ele>244.29</ele>
        <time>2022-08-15T07:59:26Z</time>
      </trkpt>
      <trkpt lat="44.64479" lon="4.36893">
        <ele>243.22</ele>
        <time>2022-08-15T07:59:28Z</time>
      </trkpt>
      <trkpt lat="44.64488" lon="4.36899">
        <ele>242.39</ele>
        <time>2022-08-15T07:59:30Z</time>
      </trkpt>
      <trkpt lat="44.64493" lon="4.36904">
        <ele>242.37</ele>
        <time>2022-08-15T07:59:31Z</time>
      </trkpt>
      <trkpt lat="44.64497" lon="4.36912">
        <ele>242.4</ele>
        <time>2022-08-15T07:59:32Z</time>
      </trkpt>
      <trkpt lat="44.64506" lon="4.36925">
        <ele>242.38</ele>
        <time>2022-08-15T07:59:34Z</time>
      </trkpt>
      <trkpt lat="44.64512" lon="4.36928">
        <ele>242.33</ele>
        <time>2022-08-15T07:59:35Z</time>
      </trkpt>
      <trkpt lat="44.64518" lon="4.36927">
        <ele>242.35</ele>
        <time>2022-08-15T07:59:36Z</time>
      </trkpt>
      <trkpt lat="44.64524" lon="4.36923">
        <ele>242.36</ele>
        <time>2022-08-15T07:59:37Z</time>
      </trkpt>
      <trkpt lat="44.64528" lon="4.36916">
        <ele>242.36</ele>
        <time>2022-08-15T07:59:38Z</time>
      </trkpt>
      <trkpt lat="44.64531" lon="4.36905">
        <ele>242.33</ele>
        <time>2022-08-15T07:59:39Z</time>
      </trkpt>
      <trkpt lat="44.64533" lon="4.36893">
        <ele>242.33</ele>
        <time>2022-08-15T07:59:40Z</time>
      </trkpt>
      <trkpt lat="44.64537" lon="4.36881">
        <ele>242.32</ele>
        <time>2022-08-15T07:59:41Z</time>
      </trkpt>
      <trkpt lat="44.64542" lon="4.36868">
        <ele>242.36</ele>
        <time>2022-08-15T07:59:42Z</time>
      </trkpt>
      <trkpt lat="44.64549" lon="4.36856">
        <ele>242.34</ele>
        <time>2022-08-15T07:59:43Z</time>
      </trkpt>
      <trkpt lat="44.64556" lon="4.36844">
        <ele>242.41</ele>
        <time>2022-08-15T07:59:44Z</time>
      </trkpt>
      <trkpt lat="44.64565" lon="4.36833">
        <ele>242.48</ele>
        <time>2022-08-15T07:59:45Z</time>
      </trkpt>
      <trkpt lat="44.64593" lon="4.36798">
        <ele>246.19</ele>
        <time>2022-08-15T07:59:48Z</time>
      </trkpt>
      <trkpt lat="44.64603" lon="4.36787">
        <ele>246.19</ele>
        <time>2022-08-15T07:59:49Z</time>
      </trkpt>
      <trkpt lat="44.6463" lon="4.36758">
        <ele>247.56</ele>
        <time>2022-08-15T07:59:51Z</time>
      </trkpt>
      <trkpt lat="44.64647" lon="4.36753">
        <ele>247.55</ele>
        <time>2022-08-15T07:59:52Z</time>
      </trkpt>
      <trkpt lat="44.64663" lon="4.36745">
        <ele>247.58</ele>
        <time>2022-08-15T07:59:53Z</time>
      </trkpt>
      <trkpt lat="44.64748" lon="4.36706">
        <ele>250.21</ele>
        <time>2022-08-15T07:59:58Z</time>
      </trkpt>
      <trkpt lat="44.64799" lon="4.3668">
        <ele>252.66</ele>
        <time>2022-08-15T08:00:01Z</time>
      </trkpt>
      <trkpt lat="44.64814" lon="4.36669">
        <ele>252.62</ele>
        <time>2022-08-15T08:00:02Z</time>
      </trkpt>
      <trkpt lat="44.64828" lon="4.36655">
        <ele>253.86</ele>
        <time>2022-08-15T08:00:03Z</time>
      </trkpt>
      <trkpt lat="44.64841" lon="4.36639">
        <ele>253.88</ele>
        <time>2022-08-15T08:00:04Z</time>
      </trkpt>
      <trkpt lat="44.64852" lon="4.36622">
        <ele>254.62</ele>
        <time>2022-08-15T08:00:05Z</time>
      </trkpt>
      <trkpt lat="44.64863" lon="4.36603">
        <ele>254.64</ele>
        <time>2022-08-15T08:00:06Z</time>
      </trkpt>
      <trkpt lat="44.64872" lon="4.36582">
        <ele>254.66</ele>
        <time>2022-08-15T08:00:07Z</time>
      </trkpt>
      <trkpt lat="44.6488" lon="4.3656">
        <ele>254.63</ele>
        <time>2022-08-15T08:00:08Z</time>
      </trkpt>
      <trkpt lat="44.64886" lon="4.36538">
        <ele>254.55</ele>
        <time>2022-08-15T08:00:09Z</time>
      </trkpt>
      <trkpt lat="44.64891" lon="4.36513">
        <ele>254.59</ele>
        <time>2022-08-15T08:00:10Z</time>
      </trkpt>
      <trkpt lat="44.64894" lon="4.36488">
        <ele>254.57</ele>
        <time>2022-08-15T08:00:11Z</time>
      </trkpt>
      <trkpt lat="44.64896" lon="4.36463">
        <ele>254.57</ele>
        <time>2022-08-15T08:00:12Z</time>
      </trkpt>
      <trkpt lat="44.64896" lon="4.36437">
        <ele>254.58</ele>
        <time>2022-08-15T08:00:13Z</time>
      </trkpt>
      <trkpt lat="44.64895" lon="4.36412">
        <ele>254.3</ele>
        <time>2022-08-15T08:00:14Z</time>
      </trkpt>
      <trkpt lat="44.64891" lon="4.36387">
        <ele>254.3</ele>
        <time>2022-08-15T08:00:15Z</time>
      </trkpt>
      <trkpt lat="44.64886" lon="4.36364">
        <ele>254.3</ele>
        <time>2022-08-15T08:00:16Z</time>
      </trkpt>
      <trkpt lat="44.6488" lon="4.36343">
        <ele>251.51</ele>
        <time>2022-08-15T08:00:17Z</time>
      </trkpt>
      <trkpt lat="44.64872" lon="4.36323">
        <ele>251.5</ele>
        <time>2022-08-15T08:00:18Z</time>
      </trkpt>
      <trkpt lat="44.64862" lon="4.36304">
        <ele>251.49</ele>
        <time>2022-08-15T08:00:19Z</time>
      </trkpt>
      <trkpt lat="44.64851" lon="4.36285">
        <ele>251.48</ele>
        <time>2022-08-15T08:00:20Z</time>
      </trkpt>
      <trkpt lat="44.64838" lon="4.36267">
        <ele>251.48</ele>
        <time>2022-08-15T08:00:21Z</time>
      </trkpt>
      <trkpt lat="44.64728" lon="4.36115">
        <ele>250.43</ele>
        <time>2022-08-15T08:00:29Z</time>
      </trkpt>
      <trkpt lat="44.64705" lon="4.36074">
        <ele>250.4</ele>
        <time>2022-08-15T08:00:31Z</time>
      </trkpt>
      <trkpt lat="44.64696" lon="4.36052">
        <ele>250.39</ele>
        <time>2022-08-15T08:00:32Z</time>
      </trkpt>
      <trkpt lat="44.64688" lon="4.36028">
        <ele>249.35</ele>
        <time>2022-08-15T08:00:33Z</time>
      </trkpt>
      <trkpt lat="44.64681" lon="4.36004">
        <ele>249.39</ele>
        <time>2022-08-15T08:00:34Z</time>
      </trkpt>
      <trkpt lat="44.64676" lon="4.35977">
        <ele>249.43</ele>
        <time>2022-08-15T08:00:35Z</time>
      </trkpt>
      <trkpt lat="44.64672" lon="4.35951">
        <ele>249.42</ele>
        <time>2022-08-15T08:00:36Z</time>
      </trkpt>
      <trkpt lat="44.6467" lon="4.35925">
        <ele>249.39</ele>
        <time>2022-08-15T08:00:37Z</time>
      </trkpt>
      <trkpt lat="44.6467" lon="4.35901">
        <ele>249.31</ele>
        <time>2022-08-15T08:00:38Z</time>
      </trkpt>
      <trkpt lat="44.6467" lon="4.35878">
        <ele>249.47</ele>
        <time>2022-08-15T08:00:39Z</time>
      </trkpt>
      <trkpt lat="44.64672" lon="4.35856">
        <ele>249.46</ele>
        <time>2022-08-15T08:00:40Z</time>
      </trkpt>
      <trkpt lat="44.64675" lon="4.35835">
        <ele>249.26</ele>
        <time>2022-08-15T08:00:41Z</time>
      </trkpt>
      <trkpt lat="44.64679" lon="4.35814">
        <ele>248.24</ele>
        <time>2022-08-15T08:00:42Z</time>
      </trkpt>
      <trkpt lat="44.64685" lon="4.35793">
        <ele>248.22</ele>
        <time>2022-08-15T08:00:43Z</time>
      </trkpt>
      <trkpt lat="44.64691" lon="4.35772">
        <ele>248.19</ele>
        <time>2022-08-15T08:00:44Z</time>
      </trkpt>
      <trkpt lat="44.64729" lon="4.35619">
        <ele>244.55</ele>
        <time>2022-08-15T08:00:51Z</time>
      </trkpt>
      <trkpt lat="44.64729" lon="4.356">
        <ele>243.59</ele>
        <time>2022-08-15T08:00:52Z</time>
      </trkpt>
      <trkpt lat="44.64729" lon="4.35583">
        <ele>243.55</ele>
        <time>2022-08-15T08:00:53Z</time>
      </trkpt>
      <trkpt lat="44.64729" lon="4.35555">
        <ele>242.34</ele>
        <time>2022-08-15T08:00:55Z</time>
      </trkpt>
      <trkpt lat="44.64729" lon="4.35535">
        <ele>241.05</ele>
        <time>2022-08-15T08:00:57Z</time>
      </trkpt>
      <trkpt lat="44.64731" lon="4.35526">
        <ele>241.05</ele>
        <time>2022-08-15T08:00:58Z</time>
      </trkpt>
      <trkpt lat="44.64734" lon="4.35508">
        <ele>241.04</ele>
        <time>2022-08-15T08:01:00Z</time>
      </trkpt>
      <trkpt lat="44.64733" lon="4.355">
        <ele>239.98</ele>
        <time>2022-08-15T08:01:01Z</time>
      </trkpt>
      <trkpt lat="44.6473" lon="4.35494">
        <ele>239.98</ele>
        <time>2022-08-15T08:01:02Z</time>
      </trkpt>
      <trkpt lat="44.64724" lon="4.3549">
        <ele>239.91</ele>
        <time>2022-08-15T08:01:03Z</time>
      </trkpt>
      <trkpt lat="44.64716" lon="4.35486">
        <ele>239.91</ele>
        <time>2022-08-15T08:01:04Z</time>
      </trkpt>
      <trkpt lat="44.64708" lon="4.35482">
        <ele>239.89</ele>
        <time>2022-08-15T08:01:05Z</time>
      </trkpt>
      <trkpt lat="44.64618" lon="4.3543">
        <ele>242.78</ele>
        <time>2022-08-15T08:01:14Z</time>
      </trkpt>
      <trkpt lat="44.64546" lon="4.35386">
        <ele>243.41</ele>
        <time>2022-08-15T08:01:20Z</time>
      </trkpt>
      <trkpt lat="44.64536" lon="4.35374">
        <ele>244.52</ele>
        <time>2022-08-15T08:01:21Z</time>
      </trkpt>
      <trkpt lat="44.64527" lon="4.3536">
        <ele>244.53</ele>
        <time>2022-08-15T08:01:22Z</time>
      </trkpt>
      <trkpt lat="44.6452" lon="4.35343">
        <ele>244.54</ele>
        <time>2022-08-15T08:01:23Z</time>
      </trkpt>
      <trkpt lat="44.64516" lon="4.35325">
        <ele>244.51</ele>
        <time>2022-08-15T08:01:24Z</time>
      </trkpt>
      <trkpt lat="44.64513" lon="4.35306">
        <ele>244.52</ele>
        <time>2022-08-15T08:01:25Z</time>
      </trkpt>
      <trkpt lat="44.64506" lon="4.35168">
        <ele>244.42</ele>
        <time>2022-08-15T08:01:33Z</time>
      </trkpt>
      <trkpt lat="44.64497" lon="4.34981">
        <ele>245.96</ele>
        <time>2022-08-15T08:01:43Z</time>
      </trkpt>
      <trkpt lat="44.64491" lon="4.34856">
        <ele>246.64</ele>
        <time>2022-08-15T08:01:50Z</time>
      </trkpt>
      <trkpt lat="44.64487" lon="4.34839">
        <ele>246.63</ele>
        <time>2022-08-15T08:01:51Z</time>
      </trkpt>
      <trkpt lat="44.64481" lon="4.34821">
        <ele>246.64</ele>
        <time>2022-08-15T08:01:52Z</time>
      </trkpt>
      <trkpt lat="44.64408" lon="4.34654">
        <ele>247.71</ele>
        <time>2022-08-15T08:02:01Z</time>
      </trkpt>
      <trkpt lat="44.64343" lon="4.3454">
        <ele>249.99</ele>
        <time>2022-08-15T08:02:07Z</time>
      </trkpt>
      <trkpt lat="44.64289" lon="4.34451">
        <ele>251.7</ele>
        <time>2022-08-15T08:02:11Z</time>
      </trkpt>
      <trkpt lat="44.64279" lon="4.34425">
        <ele>252.62</ele>
        <time>2022-08-15T08:02:12Z</time>
      </trkpt>
      <trkpt lat="44.64233" lon="4.34315">
        <ele>254.69</ele>
        <time>2022-08-15T08:02:16Z</time>
      </trkpt>
      <trkpt lat="44.64132" lon="4.34109">
        <ele>255.76</ele>
        <time>2022-08-15T08:02:24Z</time>
      </trkpt>
      <trkpt lat="44.64126" lon="4.34081">
        <ele>255.74</ele>
        <time>2022-08-15T08:02:25Z</time>
      </trkpt>
      <trkpt lat="44.64122" lon="4.34052">
        <ele>255.74</ele>
        <time>2022-08-15T08:02:26Z</time>
      </trkpt>
      <trkpt lat="44.64119" lon="4.34022">
        <ele>255.8</ele>
        <time>2022-08-15T08:02:27Z</time>
      </trkpt>
      <trkpt lat="44.64118" lon="4.33992">
        <ele>255.74</ele>
        <time>2022-08-15T08:02:28Z</time>
      </trkpt>
      <trkpt lat="44.64118" lon="4.33902">
        <ele>255.77</ele>
        <time>2022-08-15T08:02:31Z</time>
      </trkpt>
      <trkpt lat="44.64121" lon="4.33873">
        <ele>256.54</ele>
        <time>2022-08-15T08:02:32Z</time>
      </trkpt>
      <trkpt lat="44.64126" lon="4.33844">
        <ele>256.52</ele>
        <time>2022-08-15T08:02:33Z</time>
      </trkpt>
      <trkpt lat="44.64133" lon="4.33816">
        <ele>256.52</ele>
        <time>2022-08-15T08:02:34Z</time>
      </trkpt>
      <trkpt lat="44.64141" lon="4.33788">
        <ele>257.81</ele>
        <time>2022-08-15T08:02:35Z</time>
      </trkpt>
      <trkpt lat="44.64151" lon="4.33761">
        <ele>257.82</ele>
        <time>2022-08-15T08:02:36Z</time>
      </trkpt>
      <trkpt lat="44.64161" lon="4.33734">
        <ele>258.39</ele>
        <time>2022-08-15T08:02:37Z</time>
      </trkpt>
      <trkpt lat="44.64233" lon="4.33548">
        <ele>260.37</ele>
        <time>2022-08-15T08:02:44Z</time>
      </trkpt>
      <trkpt lat="44.64239" lon="4.33519">
        <ele>261.38</ele>
        <time>2022-08-15T08:02:45Z</time>
      </trkpt>
      <trkpt lat="44.64261" lon="4.33236">
        <ele>263.09</ele>
        <time>2022-08-15T08:02:55Z</time>
      </trkpt>
      <trkpt lat="44.64264" lon="4.33214">
        <ele>263.03</ele>
        <time>2022-08-15T08:02:56Z</time>
      </trkpt>
      <trkpt lat="44.64268" lon="4.33194">
        <ele>263.09</ele>
        <time>2022-08-15T08:02:57Z</time>
      </trkpt>
      <trkpt lat="44.64274" lon="4.33174">
        <ele>263.01</ele>
        <time>2022-08-15T08:02:58Z</time>
      </trkpt>
      <trkpt lat="44.64281" lon="4.33157">
        <ele>263.01</ele>
        <time>2022-08-15T08:02:59Z</time>
      </trkpt>
      <trkpt lat="44.64288" lon="4.33141">
        <ele>262.96</ele>
        <time>2022-08-15T08:03:00Z</time>
      </trkpt>
      <trkpt lat="44.64296" lon="4.33126">
        <ele>262.9</ele>
        <time>2022-08-15T08:03:01Z</time>
      </trkpt>
      <trkpt lat="44.64304" lon="4.33113">
        <ele>262.83</ele>
        <time>2022-08-15T08:03:02Z</time>
      </trkpt>
      <trkpt lat="44.64312" lon="4.33101">
        <ele>260.28</ele>
        <time>2022-08-15T08:03:03Z</time>
      </trkpt>
      <trkpt lat="44.64328" lon="4.33078">
        <ele>259.51</ele>
        <time>2022-08-15T08:03:05Z</time>
      </trkpt>
      <trkpt lat="44.64375" lon="4.33009">
        <ele>258.55</ele>
        <time>2022-08-15T08:03:12Z</time>
      </trkpt>
      <trkpt lat="44.64386" lon="4.32987">
        <ele>257.67</ele>
        <time>2022-08-15T08:03:15Z</time>
      </trkpt>
      <trkpt lat="44.6439" lon="4.32983">
        <ele>257.67</ele>
        <time>2022-08-15T08:03:16Z</time>
      </trkpt>
      <trkpt lat="44.64395" lon="4.32979">
        <ele>257.68</ele>
        <time>2022-08-15T08:03:17Z</time>
      </trkpt>
      <trkpt lat="44.644" lon="4.32975">
        <ele>257.67</ele>
        <time>2022-08-15T08:03:18Z</time>
      </trkpt>
      <trkpt lat="44.64404" lon="4.32969">
        <ele>257.65</ele>
        <time>2022-08-15T08:03:19Z</time>
      </trkpt>
      <trkpt lat="44.64405" lon="4.32961">
        <ele>257.64</ele>
        <time>2022-08-15T08:03:20Z</time>
      </trkpt>
      <trkpt lat="44.64404" lon="4.32954">
        <ele>257.68</ele>
        <time>2022-08-15T08:03:21Z</time>
      </trkpt>
      <trkpt lat="44.644" lon="4.32948">
        <ele>257.69</ele>
        <time>2022-08-15T08:03:22Z</time>
      </trkpt>
      <trkpt lat="44.64395" lon="4.32941">
        <ele>257.73</ele>
        <time>2022-08-15T08:03:23Z</time>
      </trkpt>
      <trkpt lat="44.6439" lon="4.32933">
        <ele>257.81</ele>
        <time>2022-08-15T08:03:24Z</time>
      </trkpt>
      <trkpt lat="44.64386" lon="4.32922">
        <ele>257.76</ele>
        <time>2022-08-15T08:03:25Z</time>
      </trkpt>
      <trkpt lat="44.64383" lon="4.3291">
        <ele>257.79</ele>
        <time>2022-08-15T08:03:26Z</time>
      </trkpt>
      <trkpt lat="44.64381" lon="4.32896">
        <ele>257.81</ele>
        <time>2022-08-15T08:03:27Z</time>
      </trkpt>
      <trkpt lat="44.64376" lon="4.32866">
        <ele>260.4</ele>
        <time>2022-08-15T08:03:29Z</time>
      </trkpt>
      <trkpt lat="44.64372" lon="4.32833">
        <ele>261.34</ele>
        <time>2022-08-15T08:03:31Z</time>
      </trkpt>
      <trkpt lat="44.64372" lon="4.32816">
        <ele>261.35</ele>
        <time>2022-08-15T08:03:32Z</time>
      </trkpt>
      <trkpt lat="44.64373" lon="4.32799">
        <ele>262.13</ele>
        <time>2022-08-15T08:03:33Z</time>
      </trkpt>
      <trkpt lat="44.64418" lon="4.32637">
        <ele>263.08</ele>
        <time>2022-08-15T08:03:43Z</time>
      </trkpt>
      <trkpt lat="44.64447" lon="4.32582">
        <ele>264.08</ele>
        <time>2022-08-15T08:03:47Z</time>
      </trkpt>
      <trkpt lat="44.64456" lon="4.3257">
        <ele>264.08</ele>
        <time>2022-08-15T08:03:48Z</time>
      </trkpt>
      <trkpt lat="44.64474" lon="4.3255">
        <ele>264.07</ele>
        <time>2022-08-15T08:03:50Z</time>
      </trkpt>
      <trkpt lat="44.64481" lon="4.32539">
        <ele>263.94</ele>
        <time>2022-08-15T08:03:51Z</time>
      </trkpt>
      <trkpt lat="44.64485" lon="4.32527">
        <ele>263.94</ele>
        <time>2022-08-15T08:03:52Z</time>
      </trkpt>
      <trkpt lat="44.64488" lon="4.32513">
        <ele>263.94</ele>
        <time>2022-08-15T08:03:53Z</time>
      </trkpt>
      <trkpt lat="44.64488" lon="4.32498">
        <ele>263.95</ele>
        <time>2022-08-15T08:03:54Z</time>
      </trkpt>
      <trkpt lat="44.64487" lon="4.32482">
        <ele>265.07</ele>
        <time>2022-08-15T08:03:55Z</time>
      </trkpt>
      <trkpt lat="44.64485" lon="4.32466">
        <ele>265.08</ele>
        <time>2022-08-15T08:03:56Z</time>
      </trkpt>
      <trkpt lat="44.64462" lon="4.32292">
        <ele>265.11</ele>
        <time>2022-08-15T08:04:06Z</time>
      </trkpt>
      <trkpt lat="44.64436" lon="4.321">
        <ele>267</ele>
        <time>2022-08-15T08:04:17Z</time>
      </trkpt>
      <trkpt lat="44.64417" lon="4.31957">
        <ele>267.02</ele>
        <time>2022-08-15T08:04:26Z</time>
      </trkpt>
      <trkpt lat="44.64402" lon="4.31854">
        <ele>267.08</ele>
        <time>2022-08-15T08:04:32Z</time>
      </trkpt>
      <trkpt lat="44.64397" lon="4.31838">
        <ele>267.06</ele>
        <time>2022-08-15T08:04:33Z</time>
      </trkpt>
      <trkpt lat="44.6439" lon="4.31823">
        <ele>267.06</ele>
        <time>2022-08-15T08:04:34Z</time>
      </trkpt>
      <trkpt lat="44.64334" lon="4.31723">
        <ele>267.07</ele>
        <time>2022-08-15T08:04:41Z</time>
      </trkpt>
      <trkpt lat="44.64329" lon="4.31708">
        <ele>267.07</ele>
        <time>2022-08-15T08:04:42Z</time>
      </trkpt>
      <trkpt lat="44.64325" lon="4.31693">
        <ele>267.08</ele>
        <time>2022-08-15T08:04:43Z</time>
      </trkpt>
      <trkpt lat="44.64278" lon="4.31529">
        <ele>269.01</ele>
        <time>2022-08-15T08:04:54Z</time>
      </trkpt>
      <trkpt lat="44.64229" lon="4.31396">
        <ele>271.2</ele>
        <time>2022-08-15T08:05:02Z</time>
      </trkpt>
      <trkpt lat="44.64226" lon="4.31378">
        <ele>271.16</ele>
        <time>2022-08-15T08:05:03Z</time>
      </trkpt>
      <trkpt lat="44.64176" lon="4.3122">
        <ele>272.18</ele>
        <time>2022-08-15T08:05:12Z</time>
      </trkpt>
      <trkpt lat="44.64136" lon="4.31125">
        <ele>274.67</ele>
        <time>2022-08-15T08:05:18Z</time>
      </trkpt>
      <trkpt lat="44.64126" lon="4.31112">
        <ele>276.11</ele>
        <time>2022-08-15T08:05:19Z</time>
      </trkpt>
      <trkpt lat="44.64114" lon="4.31099">
        <ele>277.04</ele>
        <time>2022-08-15T08:05:20Z</time>
      </trkpt>
      <trkpt lat="44.64102" lon="4.31088">
        <ele>277.07</ele>
        <time>2022-08-15T08:05:21Z</time>
      </trkpt>
      <trkpt lat="44.64089" lon="4.31078">
        <ele>278.27</ele>
        <time>2022-08-15T08:05:22Z</time>
      </trkpt>
      <trkpt lat="44.64076" lon="4.31067">
        <ele>278.31</ele>
        <time>2022-08-15T08:05:23Z</time>
      </trkpt>
      <trkpt lat="44.6405" lon="4.31047">
        <ele>279.76</ele>
        <time>2022-08-15T08:05:25Z</time>
      </trkpt>
      <trkpt lat="44.63968" lon="4.30937">
        <ele>282.77</ele>
        <time>2022-08-15T08:05:33Z</time>
      </trkpt>
      <trkpt lat="44.63951" lon="4.30899">
        <ele>283.75</ele>
        <time>2022-08-15T08:05:35Z</time>
      </trkpt>
      <trkpt lat="44.63944" lon="4.30878">
        <ele>283.79</ele>
        <time>2022-08-15T08:05:36Z</time>
      </trkpt>
      <trkpt lat="44.63879" lon="4.30688">
        <ele>284.41</ele>
        <time>2022-08-15T08:05:46Z</time>
      </trkpt>
      <trkpt lat="44.63818" lon="4.30537">
        <ele>287.49</ele>
        <time>2022-08-15T08:05:54Z</time>
      </trkpt>
      <trkpt lat="44.63758" lon="4.3041">
        <ele>289.36</ele>
        <time>2022-08-15T08:06:01Z</time>
      </trkpt>
      <trkpt lat="44.63754" lon="4.30392">
        <ele>290.29</ele>
        <time>2022-08-15T08:06:02Z</time>
      </trkpt>
      <trkpt lat="44.63725" lon="4.30156">
        <ele>292.99</ele>
        <time>2022-08-15T08:06:14Z</time>
      </trkpt>
      <trkpt lat="44.63691" lon="4.29982">
        <ele>294.66</ele>
        <time>2022-08-15T08:06:24Z</time>
      </trkpt>
      <trkpt lat="44.63685" lon="4.29964">
        <ele>294.48</ele>
        <time>2022-08-15T08:06:25Z</time>
      </trkpt>
      <trkpt lat="44.63678" lon="4.29947">
        <ele>294.5</ele>
        <time>2022-08-15T08:06:26Z</time>
      </trkpt>
      <trkpt lat="44.63628" lon="4.29843">
        <ele>294.52</ele>
        <time>2022-08-15T08:06:34Z</time>
      </trkpt>
      <trkpt lat="44.63621" lon="4.29834">
        <ele>294.52</ele>
        <time>2022-08-15T08:06:35Z</time>
      </trkpt>
      <trkpt lat="44.63613" lon="4.29827">
        <ele>294.52</ele>
        <time>2022-08-15T08:06:36Z</time>
      </trkpt>
      <trkpt lat="44.63527" lon="4.29771">
        <ele>295.33</ele>
        <time>2022-08-15T08:06:45Z</time>
      </trkpt>
      <trkpt lat="44.6352" lon="4.29763">
        <ele>295.37</ele>
        <time>2022-08-15T08:06:46Z</time>
      </trkpt>
      <trkpt lat="44.63512" lon="4.29753">
        <ele>295.4</ele>
        <time>2022-08-15T08:06:47Z</time>
      </trkpt>
      <trkpt lat="44.63505" lon="4.29741">
        <ele>295.4</ele>
        <time>2022-08-15T08:06:48Z</time>
      </trkpt>
      <trkpt lat="44.63498" lon="4.29729">
        <ele>296.32</ele>
        <time>2022-08-15T08:06:49Z</time>
      </trkpt>
      <trkpt lat="44.63493" lon="4.29716">
        <ele>296.43</ele>
        <time>2022-08-15T08:06:50Z</time>
      </trkpt>
      <trkpt lat="44.63488" lon="4.29702">
        <ele>296.33</ele>
        <time>2022-08-15T08:06:51Z</time>
      </trkpt>
      <trkpt lat="44.63486" lon="4.29689">
        <ele>296.33</ele>
        <time>2022-08-15T08:06:52Z</time>
      </trkpt>
      <trkpt lat="44.63484" lon="4.29677">
        <ele>296.33</ele>
        <time>2022-08-15T08:06:53Z</time>
      </trkpt>
      <trkpt lat="44.63476" lon="4.2964">
        <ele>297.39</ele>
        <time>2022-08-15T08:06:56Z</time>
      </trkpt>
      <trkpt lat="44.63472" lon="4.29629">
        <ele>297.39</ele>
        <time>2022-08-15T08:06:57Z</time>
      </trkpt>
      <trkpt lat="44.63467" lon="4.29618">
        <ele>297.41</ele>
        <time>2022-08-15T08:06:58Z</time>
      </trkpt>
      <trkpt lat="44.63445" lon="4.29578">
        <ele>297.43</ele>
        <time>2022-08-15T08:07:04Z</time>
      </trkpt>
      <trkpt lat="44.63435" lon="4.29555">
        <ele>298.65</ele>
        <time>2022-08-15T08:07:06Z</time>
      </trkpt>
      <trkpt lat="44.63422" lon="4.29522">
        <ele>301.74</ele>
        <time>2022-08-15T08:07:08Z</time>
      </trkpt>
      <trkpt lat="44.63416" lon="4.29503">
        <ele>302.89</ele>
        <time>2022-08-15T08:07:09Z</time>
      </trkpt>
      <trkpt lat="44.63411" lon="4.2948">
        <ele>304.55</ele>
        <time>2022-08-15T08:07:10Z</time>
      </trkpt>
      <trkpt lat="44.63407" lon="4.29455">
        <ele>305.97</ele>
        <time>2022-08-15T08:07:11Z</time>
      </trkpt>
      <trkpt lat="44.634" lon="4.29401">
        <ele>309.22</ele>
        <time>2022-08-15T08:07:13Z</time>
      </trkpt>
      <trkpt lat="44.63389" lon="4.293">
        <ele>312.58</ele>
        <time>2022-08-15T08:07:17Z</time>
      </trkpt>
      <trkpt lat="44.6339" lon="4.29273">
        <ele>312.58</ele>
        <time>2022-08-15T08:07:18Z</time>
      </trkpt>
      <trkpt lat="44.63392" lon="4.29217">
        <ele>316.41</ele>
        <time>2022-08-15T08:07:20Z</time>
      </trkpt>
      <trkpt lat="44.63393" lon="4.29187">
        <ele>316.51</ele>
        <time>2022-08-15T08:07:21Z</time>
      </trkpt>
      <trkpt lat="44.63396" lon="4.29124">
        <ele>320.37</ele>
        <time>2022-08-15T08:07:23Z</time>
      </trkpt>
      <trkpt lat="44.634" lon="4.29058">
        <ele>323.56</ele>
        <time>2022-08-15T08:07:25Z</time>
      </trkpt>
      <trkpt lat="44.63403" lon="4.28994">
        <ele>324.99</ele>
        <time>2022-08-15T08:07:27Z</time>
      </trkpt>
      <trkpt lat="44.63406" lon="4.28933">
        <ele>326.28</ele>
        <time>2022-08-15T08:07:29Z</time>
      </trkpt>
      <trkpt lat="44.63411" lon="4.28873">
        <ele>329.37</ele>
        <time>2022-08-15T08:07:31Z</time>
      </trkpt>
      <trkpt lat="44.63417" lon="4.28777">
        <ele>334.18</ele>
        <time>2022-08-15T08:07:34Z</time>
      </trkpt>
      <trkpt lat="44.63431" lon="4.28656">
        <ele>336.61</ele>
        <time>2022-08-15T08:07:38Z</time>
      </trkpt>
      <trkpt lat="44.63444" lon="4.28556">
        <ele>338.77</ele>
        <time>2022-08-15T08:07:42Z</time>
      </trkpt>
      <trkpt lat="44.63445" lon="4.28532">
        <ele>339.74</ele>
        <time>2022-08-15T08:07:43Z</time>
      </trkpt>
      <trkpt lat="44.63441" lon="4.28507">
        <ele>341.16</ele>
        <time>2022-08-15T08:07:44Z</time>
      </trkpt>
      <trkpt lat="44.63434" lon="4.28482">
        <ele>342.72</ele>
        <time>2022-08-15T08:07:45Z</time>
      </trkpt>
      <trkpt lat="44.63426" lon="4.28458">
        <ele>344.21</ele>
        <time>2022-08-15T08:07:46Z</time>
      </trkpt>
      <trkpt lat="44.63417" lon="4.28436">
        <ele>344.22</ele>
        <time>2022-08-15T08:07:47Z</time>
      </trkpt>
      <trkpt lat="44.63384" lon="4.28358">
        <ele>346.15</ele>
        <time>2022-08-15T08:07:51Z</time>
      </trkpt>
      <trkpt lat="44.63381" lon="4.28339">
        <ele>346.15</ele>
        <time>2022-08-15T08:07:52Z</time>
      </trkpt>
      <trkpt lat="44.63381" lon="4.2832">
        <ele>346.16</ele>
        <time>2022-08-15T08:07:53Z</time>
      </trkpt>
      <trkpt lat="44.63385" lon="4.283">
        <ele>348.11</ele>
        <time>2022-08-15T08:07:54Z</time>
      </trkpt>
      <trkpt lat="44.63391" lon="4.28281">
        <ele>348.06</ele>
        <time>2022-08-15T08:07:55Z</time>
      </trkpt>
      <trkpt lat="44.63401" lon="4.28264">
        <ele>350.22</ele>
        <time>2022-08-15T08:07:56Z</time>
      </trkpt>
      <trkpt lat="44.63414" lon="4.28251">
        <ele>350.23</ele>
        <time>2022-08-15T08:07:57Z</time>
      </trkpt>
      <trkpt lat="44.63428" lon="4.28239">
        <ele>352.16</ele>
        <time>2022-08-15T08:07:58Z</time>
      </trkpt>
      <trkpt lat="44.63442" lon="4.28227">
        <ele>352.15</ele>
        <time>2022-08-15T08:07:59Z</time>
      </trkpt>
      <trkpt lat="44.63468" lon="4.28206">
        <ele>353.82</ele>
        <time>2022-08-15T08:08:01Z</time>
      </trkpt>
      <trkpt lat="44.63539" lon="4.28152">
        <ele>357.67</ele>
        <time>2022-08-15T08:08:07Z</time>
      </trkpt>
      <trkpt lat="44.6355" lon="4.2814">
        <ele>358.48</ele>
        <time>2022-08-15T08:08:08Z</time>
      </trkpt>
      <trkpt lat="44.6356" lon="4.28126">
        <ele>359.25</ele>
        <time>2022-08-15T08:08:09Z</time>
      </trkpt>
      <trkpt lat="44.63566" lon="4.28109">
        <ele>359.33</ele>
        <time>2022-08-15T08:08:10Z</time>
      </trkpt>
      <trkpt lat="44.6357" lon="4.2809">
        <ele>360.64</ele>
        <time>2022-08-15T08:08:11Z</time>
      </trkpt>
      <trkpt lat="44.63572" lon="4.28072">
        <ele>360.63</ele>
        <time>2022-08-15T08:08:12Z</time>
      </trkpt>
      <trkpt lat="44.63573" lon="4.28054">
        <ele>361.47</ele>
        <time>2022-08-15T08:08:13Z</time>
      </trkpt>
      <trkpt lat="44.6357" lon="4.28037">
        <ele>361.45</ele>
        <time>2022-08-15T08:08:14Z</time>
      </trkpt>
      <trkpt lat="44.63565" lon="4.28021">
        <ele>362.74</ele>
        <time>2022-08-15T08:08:15Z</time>
      </trkpt>
      <trkpt lat="44.63558" lon="4.28006">
        <ele>363.55</ele>
        <time>2022-08-15T08:08:16Z</time>
      </trkpt>
      <trkpt lat="44.63549" lon="4.27992">
        <ele>363.62</ele>
        <time>2022-08-15T08:08:17Z</time>
      </trkpt>
      <trkpt lat="44.6354" lon="4.27978">
        <ele>365.35</ele>
        <time>2022-08-15T08:08:18Z</time>
      </trkpt>
      <trkpt lat="44.63532" lon="4.27965">
        <ele>365.44</ele>
        <time>2022-08-15T08:08:19Z</time>
      </trkpt>
      <trkpt lat="44.63525" lon="4.27949">
        <ele>367.32</ele>
        <time>2022-08-15T08:08:20Z</time>
      </trkpt>
      <trkpt lat="44.63522" lon="4.27933">
        <ele>368.32</ele>
        <time>2022-08-15T08:08:21Z</time>
      </trkpt>
      <trkpt lat="44.63522" lon="4.27916">
        <ele>369.16</ele>
        <time>2022-08-15T08:08:22Z</time>
      </trkpt>
      <trkpt lat="44.63524" lon="4.279">
        <ele>368.89</ele>
        <time>2022-08-15T08:08:23Z</time>
      </trkpt>
      <trkpt lat="44.63529" lon="4.27884">
        <ele>370.55</ele>
        <time>2022-08-15T08:08:24Z</time>
      </trkpt>
      <trkpt lat="44.63536" lon="4.2787">
        <ele>370.7</ele>
        <time>2022-08-15T08:08:25Z</time>
      </trkpt>
      <trkpt lat="44.63544" lon="4.27856">
        <ele>372.01</ele>
        <time>2022-08-15T08:08:26Z</time>
      </trkpt>
      <trkpt lat="44.63553" lon="4.27843">
        <ele>372.85</ele>
        <time>2022-08-15T08:08:27Z</time>
      </trkpt>
      <trkpt lat="44.63563" lon="4.2783">
        <ele>372.92</ele>
        <time>2022-08-15T08:08:28Z</time>
      </trkpt>
      <trkpt lat="44.63582" lon="4.27804">
        <ele>374.76</ele>
        <time>2022-08-15T08:08:30Z</time>
      </trkpt>
      <trkpt lat="44.63601" lon="4.27779">
        <ele>376.65</ele>
        <time>2022-08-15T08:08:32Z</time>
      </trkpt>
      <trkpt lat="44.63609" lon="4.27764">
        <ele>376.65</ele>
        <time>2022-08-15T08:08:33Z</time>
      </trkpt>
      <trkpt lat="44.63615" lon="4.27748">
        <ele>376.73</ele>
        <time>2022-08-15T08:08:34Z</time>
      </trkpt>
      <trkpt lat="44.6362" lon="4.2773">
        <ele>378.03</ele>
        <time>2022-08-15T08:08:35Z</time>
      </trkpt>
      <trkpt lat="44.63623" lon="4.27711">
        <ele>378.99</ele>
        <time>2022-08-15T08:08:36Z</time>
      </trkpt>
      <trkpt lat="44.63625" lon="4.27692">
        <ele>379.92</ele>
        <time>2022-08-15T08:08:37Z</time>
      </trkpt>
      <trkpt lat="44.63628" lon="4.27672">
        <ele>379.9</ele>
        <time>2022-08-15T08:08:38Z</time>
      </trkpt>
      <trkpt lat="44.63633" lon="4.27629">
        <ele>381.58</ele>
        <time>2022-08-15T08:08:40Z</time>
      </trkpt>
      <trkpt lat="44.63638" lon="4.27585">
        <ele>382.89</ele>
        <time>2022-08-15T08:08:42Z</time>
      </trkpt>
      <trkpt lat="44.63643" lon="4.27515">
        <ele>386.48</ele>
        <time>2022-08-15T08:08:45Z</time>
      </trkpt>
      <trkpt lat="44.63643" lon="4.27443">
        <ele>388.7</ele>
        <time>2022-08-15T08:08:48Z</time>
      </trkpt>
      <trkpt lat="44.63642" lon="4.27399">
        <ele>389.86</ele>
        <time>2022-08-15T08:08:50Z</time>
      </trkpt>
      <trkpt lat="44.63639" lon="4.27377">
        <ele>391.14</ele>
        <time>2022-08-15T08:08:51Z</time>
      </trkpt>
      <trkpt lat="44.63624" lon="4.2731">
        <ele>394.86</ele>
        <time>2022-08-15T08:08:54Z</time>
      </trkpt>
      <trkpt lat="44.63617" lon="4.27287">
        <ele>394.93</ele>
        <time>2022-08-15T08:08:55Z</time>
      </trkpt>
      <trkpt lat="44.636" lon="4.2722">
        <ele>397.93</ele>
        <time>2022-08-15T08:08:58Z</time>
      </trkpt>
      <trkpt lat="44.63595" lon="4.27197">
        <ele>399.23</ele>
        <time>2022-08-15T08:08:59Z</time>
      </trkpt>
      <trkpt lat="44.63593" lon="4.27175">
        <ele>400.15</ele>
        <time>2022-08-15T08:09:00Z</time>
      </trkpt>
      <trkpt lat="44.63593" lon="4.27154">
        <ele>401.18</ele>
        <time>2022-08-15T08:09:01Z</time>
      </trkpt>
      <trkpt lat="44.63597" lon="4.27117">
        <ele>402.69</ele>
        <time>2022-08-15T08:09:03Z</time>
      </trkpt>
      <trkpt lat="44.63598" lon="4.271">
        <ele>404.1</ele>
        <time>2022-08-15T08:09:04Z</time>
      </trkpt>
      <trkpt lat="44.63598" lon="4.27082">
        <ele>404.1</ele>
        <time>2022-08-15T08:09:05Z</time>
      </trkpt>
      <trkpt lat="44.63595" lon="4.27066">
        <ele>405.19</ele>
        <time>2022-08-15T08:09:06Z</time>
      </trkpt>
      <trkpt lat="44.63591" lon="4.27052">
        <ele>405.19</ele>
        <time>2022-08-15T08:09:07Z</time>
      </trkpt>
      <trkpt lat="44.63586" lon="4.27037">
        <ele>405.1</ele>
        <time>2022-08-15T08:09:08Z</time>
      </trkpt>
      <trkpt lat="44.63583" lon="4.27023">
        <ele>407.04</ele>
        <time>2022-08-15T08:09:09Z</time>
      </trkpt>
      <trkpt lat="44.63581" lon="4.27007">
        <ele>407.12</ele>
        <time>2022-08-15T08:09:10Z</time>
      </trkpt>
      <trkpt lat="44.63581" lon="4.2699">
        <ele>407.12</ele>
        <time>2022-08-15T08:09:11Z</time>
      </trkpt>
      <trkpt lat="44.63582" lon="4.26974">
        <ele>408.64</ele>
        <time>2022-08-15T08:09:12Z</time>
      </trkpt>
      <trkpt lat="44.63584" lon="4.26958">
        <ele>408.55</ele>
        <time>2022-08-15T08:09:13Z</time>
      </trkpt>
      <trkpt lat="44.63588" lon="4.26942">
        <ele>409.72</ele>
        <time>2022-08-15T08:09:14Z</time>
      </trkpt>
      <trkpt lat="44.63592" lon="4.26887">
        <ele>412.43</ele>
        <time>2022-08-15T08:09:17Z</time>
      </trkpt>
      <trkpt lat="44.6359" lon="4.26869">
        <ele>412.5</ele>
        <time>2022-08-15T08:09:18Z</time>
      </trkpt>
      <trkpt lat="44.63586" lon="4.26852">
        <ele>413.54</ele>
        <time>2022-08-15T08:09:19Z</time>
      </trkpt>
      <trkpt lat="44.63582" lon="4.26837">
        <ele>414.48</ele>
        <time>2022-08-15T08:09:20Z</time>
      </trkpt>
      <trkpt lat="44.63575" lon="4.26825">
        <ele>414.52</ele>
        <time>2022-08-15T08:09:21Z</time>
      </trkpt>
      <trkpt lat="44.63565" lon="4.26814">
        <ele>414.53</ele>
        <time>2022-08-15T08:09:22Z</time>
      </trkpt>
      <trkpt lat="44.63554" lon="4.26806">
        <ele>415.83</ele>
        <time>2022-08-15T08:09:23Z</time>
      </trkpt>
      <trkpt lat="44.63542" lon="4.26801">
        <ele>416.01</ele>
        <time>2022-08-15T08:09:24Z</time>
      </trkpt>
      <trkpt lat="44.63529" lon="4.26798">
        <ele>418.02</ele>
        <time>2022-08-15T08:09:25Z</time>
      </trkpt>
      <trkpt lat="44.63514" lon="4.26798">
        <ele>418.1</ele>
        <time>2022-08-15T08:09:26Z</time>
      </trkpt>
      <trkpt lat="44.635" lon="4.268">
        <ele>419.21</ele>
        <time>2022-08-15T08:09:27Z</time>
      </trkpt>
      <trkpt lat="44.63473" lon="4.26801">
        <ele>419.21</ele>
        <time>2022-08-15T08:09:29Z</time>
      </trkpt>
      <trkpt lat="44.6346" lon="4.268">
        <ele>420.54</ele>
        <time>2022-08-15T08:09:30Z</time>
      </trkpt>
      <trkpt lat="44.63448" lon="4.26795">
        <ele>421.48</ele>
        <time>2022-08-15T08:09:31Z</time>
      </trkpt>
      <trkpt lat="44.63436" lon="4.26787">
        <ele>422.53</ele>
        <time>2022-08-15T08:09:32Z</time>
      </trkpt>
      <trkpt lat="44.63424" lon="4.26775">
        <ele>422.52</ele>
        <time>2022-08-15T08:09:33Z</time>
      </trkpt>
      <trkpt lat="44.63414" lon="4.26761">
        <ele>424.16</ele>
        <time>2022-08-15T08:09:34Z</time>
      </trkpt>
      <trkpt lat="44.63406" lon="4.26745">
        <ele>424.23</ele>
        <time>2022-08-15T08:09:35Z</time>
      </trkpt>
      <trkpt lat="44.63399" lon="4.26728">
        <ele>425.18</ele>
        <time>2022-08-15T08:09:36Z</time>
      </trkpt>
      <trkpt lat="44.63394" lon="4.26709">
        <ele>425.32</ele>
        <time>2022-08-15T08:09:37Z</time>
      </trkpt>
      <trkpt lat="44.63392" lon="4.26692">
        <ele>425.23</ele>
        <time>2022-08-15T08:09:38Z</time>
      </trkpt>
      <trkpt lat="44.6339" lon="4.26675">
        <ele>425.99</ele>
        <time>2022-08-15T08:09:39Z</time>
      </trkpt>
      <trkpt lat="44.63391" lon="4.26658">
        <ele>427.12</ele>
        <time>2022-08-15T08:09:40Z</time>
      </trkpt>
      <trkpt lat="44.63393" lon="4.26641">
        <ele>427.16</ele>
        <time>2022-08-15T08:09:41Z</time>
      </trkpt>
      <trkpt lat="44.63398" lon="4.26624">
        <ele>427.13</ele>
        <time>2022-08-15T08:09:42Z</time>
      </trkpt>
      <trkpt lat="44.63405" lon="4.26609">
        <ele>428.76</ele>
        <time>2022-08-15T08:09:43Z</time>
      </trkpt>
      <trkpt lat="44.63413" lon="4.26594">
        <ele>428.71</ele>
        <time>2022-08-15T08:09:44Z</time>
      </trkpt>
      <trkpt lat="44.63423" lon="4.26581">
        <ele>428.68</ele>
        <time>2022-08-15T08:09:45Z</time>
      </trkpt>
      <trkpt lat="44.63484" lon="4.26499">
        <ele>427.31</ele>
        <time>2022-08-15T08:09:51Z</time>
      </trkpt>
      <trkpt lat="44.63505" lon="4.26471">
        <ele>425.63</ele>
        <time>2022-08-15T08:09:53Z</time>
      </trkpt>
      <trkpt lat="44.63576" lon="4.26376">
        <ele>422.54</ele>
        <time>2022-08-15T08:10:00Z</time>
      </trkpt>
      <trkpt lat="44.63586" lon="4.26362">
        <ele>422.54</ele>
        <time>2022-08-15T08:10:01Z</time>
      </trkpt>
      <trkpt lat="44.63606" lon="4.26335">
        <ele>421.32</ele>
        <time>2022-08-15T08:10:03Z</time>
      </trkpt>
      <trkpt lat="44.63692" lon="4.26217">
        <ele>417.73</ele>
        <time>2022-08-15T08:10:12Z</time>
      </trkpt>
      <trkpt lat="44.63702" lon="4.26204">
        <ele>417.7</ele>
        <time>2022-08-15T08:10:13Z</time>
      </trkpt>
      <trkpt lat="44.63771" lon="4.26093">
        <ele>415.31</ele>
        <time>2022-08-15T08:10:21Z</time>
      </trkpt>
      <trkpt lat="44.63777" lon="4.26076">
        <ele>414.08</ele>
        <time>2022-08-15T08:10:22Z</time>
      </trkpt>
      <trkpt lat="44.63782" lon="4.2606">
        <ele>414.06</ele>
        <time>2022-08-15T08:10:23Z</time>
      </trkpt>
      <trkpt lat="44.6379" lon="4.26028">
        <ele>412.83</ele>
        <time>2022-08-15T08:10:25Z</time>
      </trkpt>
      <trkpt lat="44.63796" lon="4.25981">
        <ele>411.57</ele>
        <time>2022-08-15T08:10:28Z</time>
      </trkpt>
      <trkpt lat="44.63798" lon="4.25908">
        <ele>408.85</ele>
        <time>2022-08-15T08:10:33Z</time>
      </trkpt>
      <trkpt lat="44.63772" lon="4.25779">
        <ele>405.23</ele>
        <time>2022-08-15T08:10:43Z</time>
      </trkpt>
      <trkpt lat="44.63768" lon="4.25768">
        <ele>405.23</ele>
        <time>2022-08-15T08:10:44Z</time>
      </trkpt>
      <trkpt lat="44.63741" lon="4.25715">
        <ele>404.42</ele>
        <time>2022-08-15T08:10:49Z</time>
      </trkpt>
      <trkpt lat="44.63678" lon="4.25623">
        <ele>401.59</ele>
        <time>2022-08-15T08:11:00Z</time>
      </trkpt>
      <trkpt lat="44.63661" lon="4.25604">
        <ele>400.7</ele>
        <time>2022-08-15T08:11:05Z</time>
      </trkpt>
      <trkpt lat="44.63658" lon="4.25604">
        <ele>400.71</ele>
        <time>2022-08-15T08:11:06Z</time>
      </trkpt>
      <trkpt lat="44.63654" lon="4.25606">
        <ele>400.86</ele>
        <time>2022-08-15T08:11:07Z</time>
      </trkpt>
      <trkpt lat="44.6365" lon="4.25609">
        <ele>400.88</ele>
        <time>2022-08-15T08:11:08Z</time>
      </trkpt>
      <trkpt lat="44.63648" lon="4.25614">
        <ele>400.86</ele>
        <time>2022-08-15T08:11:09Z</time>
      </trkpt>
      <trkpt lat="44.63638" lon="4.25623">
        <ele>399.75</ele>
        <time>2022-08-15T08:11:12Z</time>
      </trkpt>
      <trkpt lat="44.63633" lon="4.25625">
        <ele>399.74</ele>
        <time>2022-08-15T08:11:13Z</time>
      </trkpt>
      <trkpt lat="44.63629" lon="4.25626">
        <ele>399.76</ele>
        <time>2022-08-15T08:11:14Z</time>
      </trkpt>
      <trkpt lat="44.63625" lon="4.25624">
        <ele>399.75</ele>
        <time>2022-08-15T08:11:15Z</time>
      </trkpt>
      <trkpt lat="44.63622" lon="4.25621">
        <ele>399.75</ele>
        <time>2022-08-15T08:11:16Z</time>
      </trkpt>
      <trkpt lat="44.63619" lon="4.25615">
        <ele>399.74</ele>
        <time>2022-08-15T08:11:17Z</time>
      </trkpt>
      <trkpt lat="44.63616" lon="4.25609">
        <ele>399.75</ele>
        <time>2022-08-15T08:11:18Z</time>
      </trkpt>
      <trkpt lat="44.63603" lon="4.25583">
        <ele>399.74</ele>
        <time>2022-08-15T08:11:22Z</time>
      </trkpt>
      <trkpt lat="44.6358" lon="4.25549">
        <ele>397.63</ele>
        <time>2022-08-15T08:11:28Z</time>
      </trkpt>
      <trkpt lat="44.63574" lon="4.25538">
        <ele>396.81</ele>
        <time>2022-08-15T08:11:30Z</time>
      </trkpt>
      <trkpt lat="44.6357" lon="4.25535">
        <ele>395.99</ele>
        <time>2022-08-15T08:11:31Z</time>
      </trkpt>
      <trkpt lat="44.63566" lon="4.25534">
        <ele>395.99</ele>
        <time>2022-08-15T08:11:32Z</time>
      </trkpt>
      <trkpt lat="44.63563" lon="4.25537">
        <ele>395.99</ele>
        <time>2022-08-15T08:11:33Z</time>
      </trkpt>
      <trkpt lat="44.63559" lon="4.25543">
        <ele>394.73</ele>
        <time>2022-08-15T08:11:34Z</time>
      </trkpt>
      <trkpt lat="44.63554" lon="4.25548">
        <ele>394.7</ele>
        <time>2022-08-15T08:11:35Z</time>
      </trkpt>
      <trkpt lat="44.63548" lon="4.25553">
        <ele>394.7</ele>
        <time>2022-08-15T08:11:36Z</time>
      </trkpt>
      <trkpt lat="44.6354" lon="4.25558">
        <ele>394.66</ele>
        <time>2022-08-15T08:11:37Z</time>
      </trkpt>
      <trkpt lat="44.63532" lon="4.25561">
        <ele>394.68</ele>
        <time>2022-08-15T08:11:38Z</time>
      </trkpt>
      <trkpt lat="44.63505" lon="4.25571">
        <ele>393.05</ele>
        <time>2022-08-15T08:11:42Z</time>
      </trkpt>
      <trkpt lat="44.63499" lon="4.25571">
        <ele>393.02</ele>
        <time>2022-08-15T08:11:43Z</time>
      </trkpt>
      <trkpt lat="44.63492" lon="4.2557">
        <ele>392.95</ele>
        <time>2022-08-15T08:11:44Z</time>
      </trkpt>
      <trkpt lat="44.63484" lon="4.25568">
        <ele>391.85</ele>
        <time>2022-08-15T08:11:45Z</time>
      </trkpt>
      <trkpt lat="44.63475" lon="4.25563">
        <ele>391.86</ele>
        <time>2022-08-15T08:11:46Z</time>
      </trkpt>
      <trkpt lat="44.63468" lon="4.25555">
        <ele>391</ele>
        <time>2022-08-15T08:11:47Z</time>
      </trkpt>
      <trkpt lat="44.63462" lon="4.25546">
        <ele>391.02</ele>
        <time>2022-08-15T08:11:48Z</time>
      </trkpt>
      <trkpt lat="44.63455" lon="4.25536">
        <ele>391.04</ele>
        <time>2022-08-15T08:11:49Z</time>
      </trkpt>
      <trkpt lat="44.63395" lon="4.25457">
        <ele>390.36</ele>
        <time>2022-08-15T08:11:58Z</time>
      </trkpt>
      <trkpt lat="44.63336" lon="4.25389">
        <ele>393.35</ele>
        <time>2022-08-15T08:12:04Z</time>
      </trkpt>
      <trkpt lat="44.63235" lon="4.25274">
        <ele>394.72</ele>
        <time>2022-08-15T08:12:13Z</time>
      </trkpt>
      <trkpt lat="44.6316" lon="4.25179">
        <ele>395.65</ele>
        <time>2022-08-15T08:12:22Z</time>
      </trkpt>
      <trkpt lat="44.63113" lon="4.25118">
        <ele>395.68</ele>
        <time>2022-08-15T08:12:29Z</time>
      </trkpt>
      <trkpt lat="44.63107" lon="4.25107">
        <ele>396.66</ele>
        <time>2022-08-15T08:12:30Z</time>
      </trkpt>
      <trkpt lat="44.631" lon="4.25094">
        <ele>397.65</ele>
        <time>2022-08-15T08:12:31Z</time>
      </trkpt>
      <trkpt lat="44.63085" lon="4.25059">
        <ele>398.85</ele>
        <time>2022-08-15T08:12:33Z</time>
      </trkpt>
      <trkpt lat="44.63054" lon="4.24977">
        <ele>401.44</ele>
        <time>2022-08-15T08:12:37Z</time>
      </trkpt>
      <trkpt lat="44.63" lon="4.24761">
        <ele>405.78</ele>
        <time>2022-08-15T08:12:46Z</time>
      </trkpt>
      <trkpt lat="44.62995" lon="4.24736">
        <ele>405.79</ele>
        <time>2022-08-15T08:12:47Z</time>
      </trkpt>
      <trkpt lat="44.62981" lon="4.24663">
        <ele>407.55</ele>
        <time>2022-08-15T08:12:50Z</time>
      </trkpt>
      <trkpt lat="44.62975" lon="4.24639">
        <ele>408.58</ele>
        <time>2022-08-15T08:12:51Z</time>
      </trkpt>
      <trkpt lat="44.62967" lon="4.24616">
        <ele>408.61</ele>
        <time>2022-08-15T08:12:52Z</time>
      </trkpt>
      <trkpt lat="44.62958" lon="4.24593">
        <ele>409.23</ele>
        <time>2022-08-15T08:12:53Z</time>
      </trkpt>
      <trkpt lat="44.62949" lon="4.24572">
        <ele>409.29</ele>
        <time>2022-08-15T08:12:54Z</time>
      </trkpt>
      <trkpt lat="44.62932" lon="4.2453">
        <ele>410.18</ele>
        <time>2022-08-15T08:12:56Z</time>
      </trkpt>
      <trkpt lat="44.62927" lon="4.2451">
        <ele>410.18</ele>
        <time>2022-08-15T08:12:57Z</time>
      </trkpt>
      <trkpt lat="44.62923" lon="4.24489">
        <ele>410.2</ele>
        <time>2022-08-15T08:12:58Z</time>
      </trkpt>
      <trkpt lat="44.62921" lon="4.24467">
        <ele>411.17</ele>
        <time>2022-08-15T08:12:59Z</time>
      </trkpt>
      <trkpt lat="44.6292" lon="4.24443">
        <ele>411.17</ele>
        <time>2022-08-15T08:13:00Z</time>
      </trkpt>
      <trkpt lat="44.62914" lon="4.24225">
        <ele>412.37</ele>
        <time>2022-08-15T08:13:08Z</time>
      </trkpt>
      <trkpt lat="44.62912" lon="4.24104">
        <ele>412.08</ele>
        <time>2022-08-15T08:13:14Z</time>
      </trkpt>
      <trkpt lat="44.62915" lon="4.24089">
        <ele>412.08</ele>
        <time>2022-08-15T08:13:15Z</time>
      </trkpt>
      <trkpt lat="44.62922" lon="4.24076">
        <ele>412</ele>
        <time>2022-08-15T08:13:16Z</time>
      </trkpt>
      <trkpt lat="44.62932" lon="4.24065">
        <ele>412.19</ele>
        <time>2022-08-15T08:13:17Z</time>
      </trkpt>
      <trkpt lat="44.62944" lon="4.24056">
        <ele>413.08</ele>
        <time>2022-08-15T08:13:18Z</time>
      </trkpt>
      <trkpt lat="44.62957" lon="4.2405">
        <ele>413.08</ele>
        <time>2022-08-15T08:13:19Z</time>
      </trkpt>
      <trkpt lat="44.62969" lon="4.24044">
        <ele>413.07</ele>
        <time>2022-08-15T08:13:20Z</time>
      </trkpt>
      <trkpt lat="44.63018" lon="4.24022">
        <ele>413.04</ele>
        <time>2022-08-15T08:13:25Z</time>
      </trkpt>
      <trkpt lat="44.63023" lon="4.24014">
        <ele>413.05</ele>
        <time>2022-08-15T08:13:26Z</time>
      </trkpt>
      <trkpt lat="44.63025" lon="4.24002">
        <ele>413.06</ele>
        <time>2022-08-15T08:13:27Z</time>
      </trkpt>
      <trkpt lat="44.63024" lon="4.23987">
        <ele>413.07</ele>
        <time>2022-08-15T08:13:28Z</time>
      </trkpt>
      <trkpt lat="44.63021" lon="4.2397">
        <ele>413.1</ele>
        <time>2022-08-15T08:13:29Z</time>
      </trkpt>
      <trkpt lat="44.63016" lon="4.23951">
        <ele>415.33</ele>
        <time>2022-08-15T08:13:30Z</time>
      </trkpt>
      <trkpt lat="44.63011" lon="4.23929">
        <ele>415.37</ele>
        <time>2022-08-15T08:13:31Z</time>
      </trkpt>
      <trkpt lat="44.6299" lon="4.23862">
        <ele>418.23</ele>
        <time>2022-08-15T08:13:34Z</time>
      </trkpt>
      <trkpt lat="44.62959" lon="4.2377">
        <ele>418.11</ele>
        <time>2022-08-15T08:13:39Z</time>
      </trkpt>
      <trkpt lat="44.62949" lon="4.23754">
        <ele>418.21</ele>
        <time>2022-08-15T08:13:40Z</time>
      </trkpt>
      <trkpt lat="44.62912" lon="4.23695">
        <ele>419.34</ele>
        <time>2022-08-15T08:13:44Z</time>
      </trkpt>
      <trkpt lat="44.62906" lon="4.23678">
        <ele>420.51</ele>
        <time>2022-08-15T08:13:45Z</time>
      </trkpt>
      <trkpt lat="44.62901" lon="4.23659">
        <ele>420.51</ele>
        <time>2022-08-15T08:13:46Z</time>
      </trkpt>
      <trkpt lat="44.6289" lon="4.23617">
        <ele>421.82</ele>
        <time>2022-08-15T08:13:48Z</time>
      </trkpt>
      <trkpt lat="44.62856" lon="4.23509">
        <ele>424.91</ele>
        <time>2022-08-15T08:13:54Z</time>
      </trkpt>
      <trkpt lat="44.62832" lon="4.23477">
        <ele>427.27</ele>
        <time>2022-08-15T08:13:56Z</time>
      </trkpt>
      <trkpt lat="44.62817" lon="4.2346">
        <ele>427.36</ele>
        <time>2022-08-15T08:13:57Z</time>
      </trkpt>
      <trkpt lat="44.62708" lon="4.23325">
        <ele>429.34</ele>
        <time>2022-08-15T08:14:05Z</time>
      </trkpt>
      <trkpt lat="44.62694" lon="4.23315">
        <ele>429.32</ele>
        <time>2022-08-15T08:14:06Z</time>
      </trkpt>
      <trkpt lat="44.62608" lon="4.23258">
        <ele>429</ele>
        <time>2022-08-15T08:14:12Z</time>
      </trkpt>
      <trkpt lat="44.62504" lon="4.23206">
        <ele>429</ele>
        <time>2022-08-15T08:14:20Z</time>
      </trkpt>
      <trkpt lat="44.62494" lon="4.23204">
        <ele>428.98</ele>
        <time>2022-08-15T08:14:21Z</time>
      </trkpt>
      <trkpt lat="44.62484" lon="4.23204">
        <ele>426.69</ele>
        <time>2022-08-15T08:14:22Z</time>
      </trkpt>
      <trkpt lat="44.62475" lon="4.23205">
        <ele>426.69</ele>
        <time>2022-08-15T08:14:23Z</time>
      </trkpt>
      <trkpt lat="44.62465" lon="4.23207">
        <ele>426.68</ele>
        <time>2022-08-15T08:14:24Z</time>
      </trkpt>
      <trkpt lat="44.62456" lon="4.23209">
        <ele>426.69</ele>
        <time>2022-08-15T08:14:25Z</time>
      </trkpt>
      <trkpt lat="44.62392" lon="4.23212">
        <ele>426.74</ele>
        <time>2022-08-15T08:14:32Z</time>
      </trkpt>
      <trkpt lat="44.62383" lon="4.23209">
        <ele>426.8</ele>
        <time>2022-08-15T08:14:33Z</time>
      </trkpt>
      <trkpt lat="44.62367" lon="4.232">
        <ele>426.81</ele>
        <time>2022-08-15T08:14:35Z</time>
      </trkpt>
      <trkpt lat="44.62342" lon="4.23183">
        <ele>429.33</ele>
        <time>2022-08-15T08:14:38Z</time>
      </trkpt>
      <trkpt lat="44.62334" lon="4.2318">
        <ele>429.35</ele>
        <time>2022-08-15T08:14:39Z</time>
      </trkpt>
      <trkpt lat="44.62221" lon="4.2316">
        <ele>432.95</ele>
        <time>2022-08-15T08:14:52Z</time>
      </trkpt>
      <trkpt lat="44.62193" lon="4.23162">
        <ele>433</ele>
        <time>2022-08-15T08:14:55Z</time>
      </trkpt>
      <trkpt lat="44.62183" lon="4.23165">
        <ele>432.98</ele>
        <time>2022-08-15T08:14:56Z</time>
      </trkpt>
      <trkpt lat="44.62174" lon="4.23169">
        <ele>434.66</ele>
        <time>2022-08-15T08:14:57Z</time>
      </trkpt>
      <trkpt lat="44.62164" lon="4.23175">
        <ele>434.7</ele>
        <time>2022-08-15T08:14:58Z</time>
      </trkpt>
      <trkpt lat="44.62155" lon="4.23182">
        <ele>435.39</ele>
        <time>2022-08-15T08:14:59Z</time>
      </trkpt>
      <trkpt lat="44.62125" lon="4.232">
        <ele>435.43</ele>
        <time>2022-08-15T08:15:02Z</time>
      </trkpt>
      <trkpt lat="44.62114" lon="4.23204">
        <ele>435.45</ele>
        <time>2022-08-15T08:15:03Z</time>
      </trkpt>
      <trkpt lat="44.62102" lon="4.23205">
        <ele>436.36</ele>
        <time>2022-08-15T08:15:04Z</time>
      </trkpt>
      <trkpt lat="44.6209" lon="4.23203">
        <ele>436.36</ele>
        <time>2022-08-15T08:15:05Z</time>
      </trkpt>
      <trkpt lat="44.62077" lon="4.232">
        <ele>437.22</ele>
        <time>2022-08-15T08:15:06Z</time>
      </trkpt>
      <trkpt lat="44.62063" lon="4.23194">
        <ele>438.21</ele>
        <time>2022-08-15T08:15:07Z</time>
      </trkpt>
      <trkpt lat="44.62048" lon="4.23187">
        <ele>439.35</ele>
        <time>2022-08-15T08:15:08Z</time>
      </trkpt>
      <trkpt lat="44.62033" lon="4.23177">
        <ele>439.41</ele>
        <time>2022-08-15T08:15:09Z</time>
      </trkpt>
      <trkpt lat="44.62019" lon="4.23167">
        <ele>440.75</ele>
        <time>2022-08-15T08:15:10Z</time>
      </trkpt>
      <trkpt lat="44.62005" lon="4.23158">
        <ele>440.8</ele>
        <time>2022-08-15T08:15:11Z</time>
      </trkpt>
      <trkpt lat="44.61953" lon="4.23116">
        <ele>441.7</ele>
        <time>2022-08-15T08:15:15Z</time>
      </trkpt>
      <trkpt lat="44.61942" lon="4.23101">
        <ele>442.53</ele>
        <time>2022-08-15T08:15:16Z</time>
      </trkpt>
      <trkpt lat="44.61932" lon="4.23084">
        <ele>442.44</ele>
        <time>2022-08-15T08:15:17Z</time>
      </trkpt>
      <trkpt lat="44.61878" lon="4.22985">
        <ele>444.49</ele>
        <time>2022-08-15T08:15:23Z</time>
      </trkpt>
      <trkpt lat="44.61873" lon="4.22968">
        <ele>444.1</ele>
        <time>2022-08-15T08:15:24Z</time>
      </trkpt>
      <trkpt lat="44.61872" lon="4.22951">
        <ele>444.97</ele>
        <time>2022-08-15T08:15:25Z</time>
      </trkpt>
      <trkpt lat="44.61876" lon="4.22936">
        <ele>444.97</ele>
        <time>2022-08-15T08:15:26Z</time>
      </trkpt>
      <trkpt lat="44.61884" lon="4.22922">
        <ele>444.97</ele>
        <time>2022-08-15T08:15:27Z</time>
      </trkpt>
      <trkpt lat="44.61895" lon="4.22911">
        <ele>446.03</ele>
        <time>2022-08-15T08:15:28Z</time>
      </trkpt>
      <trkpt lat="44.61907" lon="4.22898">
        <ele>446.04</ele>
        <time>2022-08-15T08:15:29Z</time>
      </trkpt>
      <trkpt lat="44.61918" lon="4.22883">
        <ele>447.1</ele>
        <time>2022-08-15T08:15:30Z</time>
      </trkpt>
      <trkpt lat="44.61927" lon="4.22866">
        <ele>447.1</ele>
        <time>2022-08-15T08:15:31Z</time>
      </trkpt>
      <trkpt lat="44.61937" lon="4.22849">
        <ele>447.09</ele>
        <time>2022-08-15T08:15:32Z</time>
      </trkpt>
      <trkpt lat="44.61944" lon="4.22831">
        <ele>448.31</ele>
        <time>2022-08-15T08:15:33Z</time>
      </trkpt>
      <trkpt lat="44.6195" lon="4.22811">
        <ele>448.3</ele>
        <time>2022-08-15T08:15:34Z</time>
      </trkpt>
      <trkpt lat="44.61955" lon="4.22789">
        <ele>449.19</ele>
        <time>2022-08-15T08:15:35Z</time>
      </trkpt>
      <trkpt lat="44.61982" lon="4.22627">
        <ele>452.42</ele>
        <time>2022-08-15T08:15:43Z</time>
      </trkpt>
      <trkpt lat="44.61985" lon="4.22612">
        <ele>452.37</ele>
        <time>2022-08-15T08:15:44Z</time>
      </trkpt>
      <trkpt lat="44.61993" lon="4.2257">
        <ele>452.4</ele>
        <time>2022-08-15T08:15:47Z</time>
      </trkpt>
      <trkpt lat="44.61994" lon="4.22555">
        <ele>453.17</ele>
        <time>2022-08-15T08:15:48Z</time>
      </trkpt>
      <trkpt lat="44.61992" lon="4.22541">
        <ele>453.22</ele>
        <time>2022-08-15T08:15:49Z</time>
      </trkpt>
      <trkpt lat="44.61987" lon="4.22527">
        <ele>454.77</ele>
        <time>2022-08-15T08:15:50Z</time>
      </trkpt>
      <trkpt lat="44.6198" lon="4.22515">
        <ele>455.63</ele>
        <time>2022-08-15T08:15:51Z</time>
      </trkpt>
      <trkpt lat="44.61973" lon="4.22504">
        <ele>455.68</ele>
        <time>2022-08-15T08:15:52Z</time>
      </trkpt>
      <trkpt lat="44.61963" lon="4.22485">
        <ele>455.7</ele>
        <time>2022-08-15T08:15:54Z</time>
      </trkpt>
      <trkpt lat="44.61961" lon="4.22474">
        <ele>455.7</ele>
        <time>2022-08-15T08:15:55Z</time>
      </trkpt>
      <trkpt lat="44.61964" lon="4.22463">
        <ele>456.7</ele>
        <time>2022-08-15T08:15:56Z</time>
      </trkpt>
      <trkpt lat="44.6197" lon="4.22451">
        <ele>457.73</ele>
        <time>2022-08-15T08:15:57Z</time>
      </trkpt>
      <trkpt lat="44.61979" lon="4.22438">
        <ele>458.64</ele>
        <time>2022-08-15T08:15:58Z</time>
      </trkpt>
      <trkpt lat="44.61998" lon="4.22408">
        <ele>459.78</ele>
        <time>2022-08-15T08:16:00Z</time>
      </trkpt>
      <trkpt lat="44.62018" lon="4.22378">
        <ele>461.51</ele>
        <time>2022-08-15T08:16:02Z</time>
      </trkpt>
      <trkpt lat="44.62037" lon="4.22346">
        <ele>464.71</ele>
        <time>2022-08-15T08:16:04Z</time>
      </trkpt>
      <trkpt lat="44.62044" lon="4.22327">
        <ele>465.55</ele>
        <time>2022-08-15T08:16:05Z</time>
      </trkpt>
      <trkpt lat="44.62049" lon="4.22305">
        <ele>466.86</ele>
        <time>2022-08-15T08:16:06Z</time>
      </trkpt>
      <trkpt lat="44.62052" lon="4.22281">
        <ele>468.4</ele>
        <time>2022-08-15T08:16:07Z</time>
      </trkpt>
      <trkpt lat="44.62054" lon="4.22258">
        <ele>468.4</ele>
        <time>2022-08-15T08:16:08Z</time>
      </trkpt>
      <trkpt lat="44.6206" lon="4.22219">
        <ele>469.35</ele>
        <time>2022-08-15T08:16:10Z</time>
      </trkpt>
      <trkpt lat="44.62066" lon="4.22201">
        <ele>469.43</ele>
        <time>2022-08-15T08:16:11Z</time>
      </trkpt>
      <trkpt lat="44.62074" lon="4.22185">
        <ele>470.3</ele>
        <time>2022-08-15T08:16:12Z</time>
      </trkpt>
      <trkpt lat="44.62102" lon="4.2213">
        <ele>473.52</ele>
        <time>2022-08-15T08:16:15Z</time>
      </trkpt>
      <trkpt lat="44.62131" lon="4.22063">
        <ele>478.13</ele>
        <time>2022-08-15T08:16:18Z</time>
      </trkpt>
      <trkpt lat="44.62155" lon="4.21986">
        <ele>481.59</ele>
        <time>2022-08-15T08:16:21Z</time>
      </trkpt>
      <trkpt lat="44.62161" lon="4.21958">
        <ele>481.58</ele>
        <time>2022-08-15T08:16:22Z</time>
      </trkpt>
      <trkpt lat="44.62172" lon="4.21904">
        <ele>482.83</ele>
        <time>2022-08-15T08:16:24Z</time>
      </trkpt>
      <trkpt lat="44.62198" lon="4.2177">
        <ele>486.66</ele>
        <time>2022-08-15T08:16:31Z</time>
      </trkpt>
      <trkpt lat="44.62205" lon="4.21756">
        <ele>486.68</ele>
        <time>2022-08-15T08:16:32Z</time>
      </trkpt>
      <trkpt lat="44.62221" lon="4.21726">
        <ele>488.3</ele>
        <time>2022-08-15T08:16:34Z</time>
      </trkpt>
      <trkpt lat="44.6224" lon="4.21694">
        <ele>490.91</ele>
        <time>2022-08-15T08:16:36Z</time>
      </trkpt>
      <trkpt lat="44.62264" lon="4.21641">
        <ele>490.31</ele>
        <time>2022-08-15T08:16:39Z</time>
      </trkpt>
      <trkpt lat="44.62268" lon="4.21621">
        <ele>490.3</ele>
        <time>2022-08-15T08:16:40Z</time>
      </trkpt>
      <trkpt lat="44.6227" lon="4.21599">
        <ele>491.5</ele>
        <time>2022-08-15T08:16:41Z</time>
      </trkpt>
      <trkpt lat="44.6227" lon="4.21578">
        <ele>492.57</ele>
        <time>2022-08-15T08:16:42Z</time>
      </trkpt>
      <trkpt lat="44.62269" lon="4.21555">
        <ele>492.57</ele>
        <time>2022-08-15T08:16:43Z</time>
      </trkpt>
      <trkpt lat="44.6227" lon="4.21449">
        <ele>492.56</ele>
        <time>2022-08-15T08:16:48Z</time>
      </trkpt>
      <trkpt lat="44.62274" lon="4.2143">
        <ele>492.55</ele>
        <time>2022-08-15T08:16:49Z</time>
      </trkpt>
      <trkpt lat="44.62279" lon="4.21412">
        <ele>493.6</ele>
        <time>2022-08-15T08:16:50Z</time>
      </trkpt>
      <trkpt lat="44.62286" lon="4.21393">
        <ele>493.58</ele>
        <time>2022-08-15T08:16:51Z</time>
      </trkpt>
      <trkpt lat="44.62295" lon="4.21374">
        <ele>493.58</ele>
        <time>2022-08-15T08:16:52Z</time>
      </trkpt>
      <trkpt lat="44.62372" lon="4.21215">
        <ele>494.27</ele>
        <time>2022-08-15T08:17:01Z</time>
      </trkpt>
      <trkpt lat="44.6245" lon="4.21054">
        <ele>494.18</ele>
        <time>2022-08-15T08:17:12Z</time>
      </trkpt>
      <trkpt lat="44.62477" lon="4.20976">
        <ele>495.03</ele>
        <time>2022-08-15T08:17:18Z</time>
      </trkpt>
      <trkpt lat="44.62485" lon="4.20968">
        <ele>494.97</ele>
        <time>2022-08-15T08:17:19Z</time>
      </trkpt>
      <trkpt lat="44.62542" lon="4.20921">
        <ele>496.86</ele>
        <time>2022-08-15T08:17:25Z</time>
      </trkpt>
      <trkpt lat="44.62549" lon="4.20911">
        <ele>497.98</ele>
        <time>2022-08-15T08:17:26Z</time>
      </trkpt>
      <trkpt lat="44.62556" lon="4.209">
        <ele>498.88</ele>
        <time>2022-08-15T08:17:27Z</time>
      </trkpt>
      <trkpt lat="44.62576" lon="4.20861">
        <ele>500.7</ele>
        <time>2022-08-15T08:17:30Z</time>
      </trkpt>
      <trkpt lat="44.62606" lon="4.20804">
        <ele>502.98</ele>
        <time>2022-08-15T08:17:34Z</time>
      </trkpt>
      <trkpt lat="44.6263" lon="4.20763">
        <ele>505.44</ele>
        <time>2022-08-15T08:17:37Z</time>
      </trkpt>
      <trkpt lat="44.62636" lon="4.20748">
        <ele>505.46</ele>
        <time>2022-08-15T08:17:38Z</time>
      </trkpt>
      <trkpt lat="44.62642" lon="4.20731">
        <ele>506.9</ele>
        <time>2022-08-15T08:17:39Z</time>
      </trkpt>
      <trkpt lat="44.62645" lon="4.20713">
        <ele>506.97</ele>
        <time>2022-08-15T08:17:40Z</time>
      </trkpt>
      <trkpt lat="44.62648" lon="4.20693">
        <ele>506.94</ele>
        <time>2022-08-15T08:17:41Z</time>
      </trkpt>
      <trkpt lat="44.62651" lon="4.20674">
        <ele>507</ele>
        <time>2022-08-15T08:17:42Z</time>
      </trkpt>
      <trkpt lat="44.62654" lon="4.20656">
        <ele>508.33</ele>
        <time>2022-08-15T08:17:43Z</time>
      </trkpt>
      <trkpt lat="44.62658" lon="4.20637">
        <ele>508.39</ele>
        <time>2022-08-15T08:17:44Z</time>
      </trkpt>
      <trkpt lat="44.62678" lon="4.20563">
        <ele>509.27</ele>
        <time>2022-08-15T08:17:48Z</time>
      </trkpt>
      <trkpt lat="44.6268" lon="4.20544">
        <ele>509.34</ele>
        <time>2022-08-15T08:17:49Z</time>
      </trkpt>
      <trkpt lat="44.62684" lon="4.20511">
        <ele>509.24</ele>
        <time>2022-08-15T08:17:51Z</time>
      </trkpt>
      <trkpt lat="44.62688" lon="4.20498">
        <ele>508.83</ele>
        <time>2022-08-15T08:17:52Z</time>
      </trkpt>
      <trkpt lat="44.62694" lon="4.20486">
        <ele>508.83</ele>
        <time>2022-08-15T08:17:53Z</time>
      </trkpt>
      <trkpt lat="44.62703" lon="4.20476">
        <ele>508.85</ele>
        <time>2022-08-15T08:17:54Z</time>
      </trkpt>
      <trkpt lat="44.62713" lon="4.20467">
        <ele>508.85</ele>
        <time>2022-08-15T08:17:55Z</time>
      </trkpt>
      <trkpt lat="44.62724" lon="4.20458">
        <ele>508.85</ele>
        <time>2022-08-15T08:17:56Z</time>
      </trkpt>
      <trkpt lat="44.62746" lon="4.20436">
        <ele>509.71</ele>
        <time>2022-08-15T08:17:58Z</time>
      </trkpt>
      <trkpt lat="44.62756" lon="4.20423">
        <ele>509.73</ele>
        <time>2022-08-15T08:17:59Z</time>
      </trkpt>
      <trkpt lat="44.62766" lon="4.20407">
        <ele>509.7</ele>
        <time>2022-08-15T08:18:00Z</time>
      </trkpt>
      <trkpt lat="44.62838" lon="4.20278">
        <ele>509.6</ele>
        <time>2022-08-15T08:18:09Z</time>
      </trkpt>
      <trkpt lat="44.62856" lon="4.20214">
        <ele>507.28</ele>
        <time>2022-08-15T08:18:14Z</time>
      </trkpt>
      <trkpt lat="44.62858" lon="4.202">
        <ele>507.28</ele>
        <time>2022-08-15T08:18:15Z</time>
      </trkpt>
      <trkpt lat="44.62864" lon="4.20143">
        <ele>507.29</ele>
        <time>2022-08-15T08:18:19Z</time>
      </trkpt>
      <trkpt lat="44.62867" lon="4.20129">
        <ele>507.3</ele>
        <time>2022-08-15T08:18:20Z</time>
      </trkpt>
      <trkpt lat="44.62872" lon="4.20115">
        <ele>507.32</ele>
        <time>2022-08-15T08:18:21Z</time>
      </trkpt>
      <trkpt lat="44.62878" lon="4.20103">
        <ele>509.83</ele>
        <time>2022-08-15T08:18:22Z</time>
      </trkpt>
      <trkpt lat="44.62884" lon="4.20091">
        <ele>509.84</ele>
        <time>2022-08-15T08:18:23Z</time>
      </trkpt>
      <trkpt lat="44.62891" lon="4.20081">
        <ele>510.76</ele>
        <time>2022-08-15T08:18:24Z</time>
      </trkpt>
      <trkpt lat="44.62898" lon="4.20072">
        <ele>510.84</ele>
        <time>2022-08-15T08:18:25Z</time>
      </trkpt>
      <trkpt lat="44.62904" lon="4.20063">
        <ele>510.63</ele>
        <time>2022-08-15T08:18:26Z</time>
      </trkpt>
      <trkpt lat="44.62911" lon="4.20052">
        <ele>510.66</ele>
        <time>2022-08-15T08:18:27Z</time>
      </trkpt>
      <trkpt lat="44.62916" lon="4.2004">
        <ele>511.67</ele>
        <time>2022-08-15T08:18:28Z</time>
      </trkpt>
      <trkpt lat="44.62921" lon="4.20028">
        <ele>511.66</ele>
        <time>2022-08-15T08:18:29Z</time>
      </trkpt>
      <trkpt lat="44.62949" lon="4.19929">
        <ele>514.62</ele>
        <time>2022-08-15T08:18:37Z</time>
      </trkpt>
      <trkpt lat="44.6295" lon="4.19919">
        <ele>514.62</ele>
        <time>2022-08-15T08:18:38Z</time>
      </trkpt>
      <trkpt lat="44.6295" lon="4.19908">
        <ele>515.51</ele>
        <time>2022-08-15T08:18:39Z</time>
      </trkpt>
      <trkpt lat="44.62949" lon="4.19897">
        <ele>515.51</ele>
        <time>2022-08-15T08:18:40Z</time>
      </trkpt>
      <trkpt lat="44.62947" lon="4.19886">
        <ele>515.5</ele>
        <time>2022-08-15T08:18:41Z</time>
      </trkpt>
      <trkpt lat="44.62945" lon="4.19875">
        <ele>516.4</ele>
        <time>2022-08-15T08:18:42Z</time>
      </trkpt>
      <trkpt lat="44.62942" lon="4.19856">
        <ele>516.44</ele>
        <time>2022-08-15T08:18:44Z</time>
      </trkpt>
      <trkpt lat="44.62933" lon="4.19802">
        <ele>518.03</ele>
        <time>2022-08-15T08:18:49Z</time>
      </trkpt>
      <trkpt lat="44.62926" lon="4.19739">
        <ele>519.54</ele>
        <time>2022-08-15T08:18:57Z</time>
      </trkpt>
      <trkpt lat="44.62927" lon="4.19731">
        <ele>519.56</ele>
        <time>2022-08-15T08:18:58Z</time>
      </trkpt>
      <trkpt lat="44.62942" lon="4.19632">
        <ele>523.57</ele>
        <time>2022-08-15T08:19:08Z</time>
      </trkpt>
      <trkpt lat="44.62957" lon="4.19557">
        <ele>526.79</ele>
        <time>2022-08-15T08:19:15Z</time>
      </trkpt>
      <trkpt lat="44.6296" lon="4.19545">
        <ele>526.79</ele>
        <time>2022-08-15T08:19:16Z</time>
      </trkpt>
      <trkpt lat="44.62965" lon="4.19507">
        <ele>527.7</ele>
        <time>2022-08-15T08:19:19Z</time>
      </trkpt>
      <trkpt lat="44.62966" lon="4.19493">
        <ele>527.73</ele>
        <time>2022-08-15T08:19:20Z</time>
      </trkpt>
      <trkpt lat="44.62966" lon="4.19478">
        <ele>528.61</ele>
        <time>2022-08-15T08:19:21Z</time>
      </trkpt>
      <trkpt lat="44.62963" lon="4.19382">
        <ele>530.63</ele>
        <time>2022-08-15T08:19:28Z</time>
      </trkpt>
      <trkpt lat="44.62967" lon="4.19339">
        <ele>530.6</ele>
        <time>2022-08-15T08:19:32Z</time>
      </trkpt>
      <trkpt lat="44.62969" lon="4.19331">
        <ele>530.58</ele>
        <time>2022-08-15T08:19:33Z</time>
      </trkpt>
      <trkpt lat="44.62974" lon="4.19324">
        <ele>530.56</ele>
        <time>2022-08-15T08:19:34Z</time>
      </trkpt>
      <trkpt lat="44.62981" lon="4.1932">
        <ele>530.59</ele>
        <time>2022-08-15T08:19:35Z</time>
      </trkpt>
      <trkpt lat="44.62991" lon="4.19317">
        <ele>531.41</ele>
        <time>2022-08-15T08:19:36Z</time>
      </trkpt>
      <trkpt lat="44.63086" lon="4.1929">
        <ele>533.77</ele>
        <time>2022-08-15T08:19:44Z</time>
      </trkpt>
      <trkpt lat="44.63128" lon="4.19279">
        <ele>535.05</ele>
        <time>2022-08-15T08:19:48Z</time>
      </trkpt>
      <trkpt lat="44.63138" lon="4.1928">
        <ele>535.06</ele>
        <time>2022-08-15T08:19:49Z</time>
      </trkpt>
      <trkpt lat="44.63148" lon="4.19286">
        <ele>535.87</ele>
        <time>2022-08-15T08:19:50Z</time>
      </trkpt>
      <trkpt lat="44.63155" lon="4.19296">
        <ele>536.65</ele>
        <time>2022-08-15T08:19:51Z</time>
      </trkpt>
      <trkpt lat="44.63161" lon="4.1931">
        <ele>536.72</ele>
        <time>2022-08-15T08:19:52Z</time>
      </trkpt>
      <trkpt lat="44.63165" lon="4.19325">
        <ele>536.69</ele>
        <time>2022-08-15T08:19:53Z</time>
      </trkpt>
      <trkpt lat="44.63169" lon="4.19341">
        <ele>538.43</ele>
        <time>2022-08-15T08:19:54Z</time>
      </trkpt>
      <trkpt lat="44.63173" lon="4.19358">
        <ele>538.39</ele>
        <time>2022-08-15T08:19:55Z</time>
      </trkpt>
      <trkpt lat="44.63186" lon="4.19416">
        <ele>538.35</ele>
        <time>2022-08-15T08:19:59Z</time>
      </trkpt>
      <trkpt lat="44.6319" lon="4.19427">
        <ele>538.38</ele>
        <time>2022-08-15T08:20:00Z</time>
      </trkpt>
      <trkpt lat="44.63197" lon="4.19433">
        <ele>538.38</ele>
        <time>2022-08-15T08:20:01Z</time>
      </trkpt>
      <trkpt lat="44.63205" lon="4.19433">
        <ele>538.37</ele>
        <time>2022-08-15T08:20:02Z</time>
      </trkpt>
      <trkpt lat="44.63212" lon="4.19426">
        <ele>538.41</ele>
        <time>2022-08-15T08:20:03Z</time>
      </trkpt>
      <trkpt lat="44.63215" lon="4.19416">
        <ele>539.32</ele>
        <time>2022-08-15T08:20:04Z</time>
      </trkpt>
      <trkpt lat="44.63215" lon="4.19403">
        <ele>540.58</ele>
        <time>2022-08-15T08:20:05Z</time>
      </trkpt>
      <trkpt lat="44.63213" lon="4.19391">
        <ele>540.58</ele>
        <time>2022-08-15T08:20:06Z</time>
      </trkpt>
      <trkpt lat="44.63209" lon="4.19379">
        <ele>540.61</ele>
        <time>2022-08-15T08:20:07Z</time>
      </trkpt>
      <trkpt lat="44.63201" lon="4.19369">
        <ele>541.74</ele>
        <time>2022-08-15T08:20:08Z</time>
      </trkpt>
      <trkpt lat="44.63193" lon="4.19359">
        <ele>541.74</ele>
        <time>2022-08-15T08:20:09Z</time>
      </trkpt>
      <trkpt lat="44.63187" lon="4.19346">
        <ele>541.74</ele>
        <time>2022-08-15T08:20:10Z</time>
      </trkpt>
      <trkpt lat="44.63183" lon="4.19331">
        <ele>542.9</ele>
        <time>2022-08-15T08:20:11Z</time>
      </trkpt>
      <trkpt lat="44.63181" lon="4.19315">
        <ele>543.78</ele>
        <time>2022-08-15T08:20:12Z</time>
      </trkpt>
      <trkpt lat="44.63178" lon="4.19295">
        <ele>545.02</ele>
        <time>2022-08-15T08:20:13Z</time>
      </trkpt>
      <trkpt lat="44.6317" lon="4.19244">
        <ele>549.54</ele>
        <time>2022-08-15T08:20:15Z</time>
      </trkpt>
      <trkpt lat="44.63159" lon="4.19187">
        <ele>553.73</ele>
        <time>2022-08-15T08:20:17Z</time>
      </trkpt>
      <trkpt lat="44.63153" lon="4.1916">
        <ele>553.76</ele>
        <time>2022-08-15T08:20:18Z</time>
      </trkpt>
      <trkpt lat="44.63139" lon="4.19087">
        <ele>555.78</ele>
        <time>2022-08-15T08:20:21Z</time>
      </trkpt>
      <trkpt lat="44.63138" lon="4.19063">
        <ele>555.84</ele>
        <time>2022-08-15T08:20:22Z</time>
      </trkpt>
      <trkpt lat="44.63134" lon="4.19013">
        <ele>556.88</ele>
        <time>2022-08-15T08:20:24Z</time>
      </trkpt>
      <trkpt lat="44.63129" lon="4.18988">
        <ele>558.71</ele>
        <time>2022-08-15T08:20:25Z</time>
      </trkpt>
      <trkpt lat="44.63123" lon="4.18964">
        <ele>560.57</ele>
        <time>2022-08-15T08:20:26Z</time>
      </trkpt>
      <trkpt lat="44.63108" lon="4.18915">
        <ele>564.26</ele>
        <time>2022-08-15T08:20:28Z</time>
      </trkpt>
      <trkpt lat="44.6309" lon="4.18837">
        <ele>567.28</ele>
        <time>2022-08-15T08:20:31Z</time>
      </trkpt>
      <trkpt lat="44.63067" lon="4.18759">
        <ele>570.84</ele>
        <time>2022-08-15T08:20:34Z</time>
      </trkpt>
      <trkpt lat="44.63059" lon="4.18735">
        <ele>570.92</ele>
        <time>2022-08-15T08:20:35Z</time>
      </trkpt>
      <trkpt lat="44.63044" lon="4.18693">
        <ele>572.91</ele>
        <time>2022-08-15T08:20:37Z</time>
      </trkpt>
      <trkpt lat="44.63033" lon="4.18632">
        <ele>575.09</ele>
        <time>2022-08-15T08:20:40Z</time>
      </trkpt>
      <trkpt lat="44.63035" lon="4.18614">
        <ele>575.2</ele>
        <time>2022-08-15T08:20:41Z</time>
      </trkpt>
      <trkpt lat="44.63041" lon="4.18601">
        <ele>575.19</ele>
        <time>2022-08-15T08:20:42Z</time>
      </trkpt>
      <trkpt lat="44.63051" lon="4.1859">
        <ele>575.26</ele>
        <time>2022-08-15T08:20:43Z</time>
      </trkpt>
      <trkpt lat="44.63061" lon="4.18584">
        <ele>575.22</ele>
        <time>2022-08-15T08:20:44Z</time>
      </trkpt>
      <trkpt lat="44.63071" lon="4.18579">
        <ele>575.2</ele>
        <time>2022-08-15T08:20:45Z</time>
      </trkpt>
      <trkpt lat="44.63079" lon="4.18573">
        <ele>576.05</ele>
        <time>2022-08-15T08:20:46Z</time>
      </trkpt>
      <trkpt lat="44.63084" lon="4.18564">
        <ele>576.88</ele>
        <time>2022-08-15T08:20:47Z</time>
      </trkpt>
      <trkpt lat="44.63086" lon="4.18552">
        <ele>576.94</ele>
        <time>2022-08-15T08:20:48Z</time>
      </trkpt>
      <trkpt lat="44.63083" lon="4.1854">
        <ele>577.88</ele>
        <time>2022-08-15T08:20:49Z</time>
      </trkpt>
      <trkpt lat="44.63077" lon="4.18529">
        <ele>577.82</ele>
        <time>2022-08-15T08:20:50Z</time>
      </trkpt>
      <trkpt lat="44.63068" lon="4.18517">
        <ele>579.68</ele>
        <time>2022-08-15T08:20:51Z</time>
      </trkpt>
      <trkpt lat="44.63041" lon="4.18478">
        <ele>583.62</ele>
        <time>2022-08-15T08:20:54Z</time>
      </trkpt>
      <trkpt lat="44.63036" lon="4.18462">
        <ele>585</ele>
        <time>2022-08-15T08:20:55Z</time>
      </trkpt>
      <trkpt lat="44.63034" lon="4.18445">
        <ele>585.88</ele>
        <time>2022-08-15T08:20:56Z</time>
      </trkpt>
      <trkpt lat="44.63035" lon="4.18425">
        <ele>586.76</ele>
        <time>2022-08-15T08:20:57Z</time>
      </trkpt>
      <trkpt lat="44.63039" lon="4.18404">
        <ele>588.65</ele>
        <time>2022-08-15T08:20:58Z</time>
      </trkpt>
      <trkpt lat="44.63042" lon="4.18381">
        <ele>588.73</ele>
        <time>2022-08-15T08:20:59Z</time>
      </trkpt>
      <trkpt lat="44.63049" lon="4.18317">
        <ele>590.72</ele>
        <time>2022-08-15T08:21:02Z</time>
      </trkpt>
      <trkpt lat="44.63047" lon="4.18297">
        <ele>592.37</ele>
        <time>2022-08-15T08:21:03Z</time>
      </trkpt>
      <trkpt lat="44.6304" lon="4.18257">
        <ele>594.18</ele>
        <time>2022-08-15T08:21:05Z</time>
      </trkpt>
      <trkpt lat="44.63039" lon="4.18238">
        <ele>594.29</ele>
        <time>2022-08-15T08:21:06Z</time>
      </trkpt>
      <trkpt lat="44.63042" lon="4.18219">
        <ele>595.32</ele>
        <time>2022-08-15T08:21:07Z</time>
      </trkpt>
      <trkpt lat="44.63047" lon="4.18202">
        <ele>595.41</ele>
        <time>2022-08-15T08:21:08Z</time>
      </trkpt>
      <trkpt lat="44.63057" lon="4.1819">
        <ele>596.23</ele>
        <time>2022-08-15T08:21:09Z</time>
      </trkpt>
      <trkpt lat="44.63068" lon="4.18182">
        <ele>596.31</ele>
        <time>2022-08-15T08:21:10Z</time>
      </trkpt>
      <trkpt lat="44.63081" lon="4.1818">
        <ele>598.14</ele>
        <time>2022-08-15T08:21:11Z</time>
      </trkpt>
      <trkpt lat="44.63095" lon="4.1818">
        <ele>598.1</ele>
        <time>2022-08-15T08:21:12Z</time>
      </trkpt>
      <trkpt lat="44.63109" lon="4.18182">
        <ele>599.65</ele>
        <time>2022-08-15T08:21:13Z</time>
      </trkpt>
      <trkpt lat="44.63123" lon="4.18184">
        <ele>599.69</ele>
        <time>2022-08-15T08:21:14Z</time>
      </trkpt>
      <trkpt lat="44.63135" lon="4.18184">
        <ele>600.92</ele>
        <time>2022-08-15T08:21:15Z</time>
      </trkpt>
      <trkpt lat="44.63146" lon="4.1818">
        <ele>600.95</ele>
        <time>2022-08-15T08:21:16Z</time>
      </trkpt>
      <trkpt lat="44.63156" lon="4.18172">
        <ele>601.7</ele>
        <time>2022-08-15T08:21:17Z</time>
      </trkpt>
      <trkpt lat="44.63162" lon="4.1816">
        <ele>601.75</ele>
        <time>2022-08-15T08:21:18Z</time>
      </trkpt>
      <trkpt lat="44.63164" lon="4.18145">
        <ele>601.75</ele>
        <time>2022-08-15T08:21:19Z</time>
      </trkpt>
      <trkpt lat="44.63162" lon="4.1813">
        <ele>603.47</ele>
        <time>2022-08-15T08:21:20Z</time>
      </trkpt>
      <trkpt lat="44.63158" lon="4.18116">
        <ele>604.76</ele>
        <time>2022-08-15T08:21:21Z</time>
      </trkpt>
      <trkpt lat="44.63147" lon="4.18101">
        <ele>604.82</ele>
        <time>2022-08-15T08:21:22Z</time>
      </trkpt>
      <trkpt lat="44.63138" lon="4.18084">
        <ele>606.66</ele>
        <time>2022-08-15T08:21:23Z</time>
      </trkpt>
      <trkpt lat="44.63129" lon="4.18066">
        <ele>608.34</ele>
        <time>2022-08-15T08:21:24Z</time>
      </trkpt>
      <trkpt lat="44.63123" lon="4.18047">
        <ele>609.51</ele>
        <time>2022-08-15T08:21:25Z</time>
      </trkpt>
      <trkpt lat="44.63116" lon="4.18029">
        <ele>610.7</ele>
        <time>2022-08-15T08:21:26Z</time>
      </trkpt>
      <trkpt lat="44.63108" lon="4.18012">
        <ele>612.07</ele>
        <time>2022-08-15T08:21:27Z</time>
      </trkpt>
      <trkpt lat="44.63098" lon="4.17996">
        <ele>613.17</ele>
        <time>2022-08-15T08:21:28Z</time>
      </trkpt>
      <trkpt lat="44.63088" lon="4.17981">
        <ele>614.16</ele>
        <time>2022-08-15T08:21:29Z</time>
      </trkpt>
      <trkpt lat="44.63079" lon="4.17966">
        <ele>614.26</ele>
        <time>2022-08-15T08:21:30Z</time>
      </trkpt>
      <trkpt lat="44.63074" lon="4.17951">
        <ele>614.22</ele>
        <time>2022-08-15T08:21:31Z</time>
      </trkpt>
      <trkpt lat="44.63073" lon="4.17934">
        <ele>614.32</ele>
        <time>2022-08-15T08:21:32Z</time>
      </trkpt>
      <trkpt lat="44.63075" lon="4.17918">
        <ele>614.39</ele>
        <time>2022-08-15T08:21:33Z</time>
      </trkpt>
      <trkpt lat="44.6308" lon="4.17905">
        <ele>615.34</ele>
        <time>2022-08-15T08:21:34Z</time>
      </trkpt>
      <trkpt lat="44.63088" lon="4.17896">
        <ele>615.43</ele>
        <time>2022-08-15T08:21:35Z</time>
      </trkpt>
      <trkpt lat="44.63098" lon="4.17893">
        <ele>615.25</ele>
        <time>2022-08-15T08:21:36Z</time>
      </trkpt>
      <trkpt lat="44.6311" lon="4.17894">
        <ele>616.81</ele>
        <time>2022-08-15T08:21:37Z</time>
      </trkpt>
      <trkpt lat="44.63121" lon="4.17896">
        <ele>616.65</ele>
        <time>2022-08-15T08:21:38Z</time>
      </trkpt>
      <trkpt lat="44.63131" lon="4.17895">
        <ele>617.6</ele>
        <time>2022-08-15T08:21:39Z</time>
      </trkpt>
      <trkpt lat="44.6314" lon="4.17891">
        <ele>617.52</ele>
        <time>2022-08-15T08:21:40Z</time>
      </trkpt>
      <trkpt lat="44.63146" lon="4.17881">
        <ele>618.5</ele>
        <time>2022-08-15T08:21:41Z</time>
      </trkpt>
      <trkpt lat="44.6315" lon="4.17868">
        <ele>618.5</ele>
        <time>2022-08-15T08:21:42Z</time>
      </trkpt>
      <trkpt lat="44.6315" lon="4.17853">
        <ele>619.4</ele>
        <time>2022-08-15T08:21:43Z</time>
      </trkpt>
      <trkpt lat="44.63147" lon="4.17838">
        <ele>621.05</ele>
        <time>2022-08-15T08:21:44Z</time>
      </trkpt>
      <trkpt lat="44.63143" lon="4.17822">
        <ele>621.05</ele>
        <time>2022-08-15T08:21:45Z</time>
      </trkpt>
      <trkpt lat="44.63138" lon="4.17807">
        <ele>622.28</ele>
        <time>2022-08-15T08:21:46Z</time>
      </trkpt>
      <trkpt lat="44.63131" lon="4.17794">
        <ele>623.26</ele>
        <time>2022-08-15T08:21:47Z</time>
      </trkpt>
      <trkpt lat="44.63121" lon="4.17784">
        <ele>624.18</ele>
        <time>2022-08-15T08:21:48Z</time>
      </trkpt>
      <trkpt lat="44.6311" lon="4.17776">
        <ele>625.31</ele>
        <time>2022-08-15T08:21:49Z</time>
      </trkpt>
      <trkpt lat="44.63098" lon="4.1777">
        <ele>626.45</ele>
        <time>2022-08-15T08:21:50Z</time>
      </trkpt>
      <trkpt lat="44.63077" lon="4.17756">
        <ele>627.27</ele>
        <time>2022-08-15T08:21:52Z</time>
      </trkpt>
      <trkpt lat="44.63069" lon="4.17746">
        <ele>628.26</ele>
        <time>2022-08-15T08:21:53Z</time>
      </trkpt>
      <trkpt lat="44.63062" lon="4.17734">
        <ele>628.25</ele>
        <time>2022-08-15T08:21:54Z</time>
      </trkpt>
      <trkpt lat="44.63059" lon="4.17718">
        <ele>629.65</ele>
        <time>2022-08-15T08:21:55Z</time>
      </trkpt>
      <trkpt lat="44.63058" lon="4.17701">
        <ele>629.63</ele>
        <time>2022-08-15T08:21:56Z</time>
      </trkpt>
      <trkpt lat="44.63058" lon="4.17683">
        <ele>631.28</ele>
        <time>2022-08-15T08:21:57Z</time>
      </trkpt>
      <trkpt lat="44.63059" lon="4.17663">
        <ele>632.09</ele>
        <time>2022-08-15T08:21:58Z</time>
      </trkpt>
      <trkpt lat="44.63065" lon="4.17598">
        <ele>636.21</ele>
        <time>2022-08-15T08:22:01Z</time>
      </trkpt>
      <trkpt lat="44.63064" lon="4.17523">
        <ele>639.65</ele>
        <time>2022-08-15T08:22:04Z</time>
      </trkpt>
      <trkpt lat="44.63063" lon="4.17502">
        <ele>639.63</ele>
        <time>2022-08-15T08:22:05Z</time>
      </trkpt>
      <trkpt lat="44.63059" lon="4.17431">
        <ele>640.75</ele>
        <time>2022-08-15T08:22:09Z</time>
      </trkpt>
      <trkpt lat="44.63062" lon="4.17417">
        <ele>640.82</ele>
        <time>2022-08-15T08:22:10Z</time>
      </trkpt>
      <trkpt lat="44.63068" lon="4.17406">
        <ele>641.63</ele>
        <time>2022-08-15T08:22:11Z</time>
      </trkpt>
      <trkpt lat="44.63076" lon="4.17399">
        <ele>642.96</ele>
        <time>2022-08-15T08:22:12Z</time>
      </trkpt>
      <trkpt lat="44.63088" lon="4.17392">
        <ele>642.95</ele>
        <time>2022-08-15T08:22:13Z</time>
      </trkpt>
      <trkpt lat="44.63101" lon="4.17386">
        <ele>644.74</ele>
        <time>2022-08-15T08:22:14Z</time>
      </trkpt>
      <trkpt lat="44.63115" lon="4.17379">
        <ele>644.72</ele>
        <time>2022-08-15T08:22:15Z</time>
      </trkpt>
      <trkpt lat="44.63169" lon="4.17346">
        <ele>647.88</ele>
        <time>2022-08-15T08:22:19Z</time>
      </trkpt>
      <trkpt lat="44.63181" lon="4.17331">
        <ele>649.33</ele>
        <time>2022-08-15T08:22:20Z</time>
      </trkpt>
      <trkpt lat="44.63216" lon="4.17276">
        <ele>651.85</ele>
        <time>2022-08-15T08:22:23Z</time>
      </trkpt>
      <trkpt lat="44.63237" lon="4.17238">
        <ele>654.09</ele>
        <time>2022-08-15T08:22:25Z</time>
      </trkpt>
      <trkpt lat="44.63253" lon="4.17205">
        <ele>655.94</ele>
        <time>2022-08-15T08:22:27Z</time>
      </trkpt>
      <trkpt lat="44.63268" lon="4.17176">
        <ele>657.38</ele>
        <time>2022-08-15T08:22:29Z</time>
      </trkpt>
      <trkpt lat="44.63279" lon="4.1715">
        <ele>658.32</ele>
        <time>2022-08-15T08:22:31Z</time>
      </trkpt>
      <trkpt lat="44.63279" lon="4.17137">
        <ele>658.4</ele>
        <time>2022-08-15T08:22:32Z</time>
      </trkpt>
      <trkpt lat="44.63274" lon="4.17124">
        <ele>658.59</ele>
        <time>2022-08-15T08:22:33Z</time>
      </trkpt>
      <trkpt lat="44.63267" lon="4.17113">
        <ele>660.21</ele>
        <time>2022-08-15T08:22:34Z</time>
      </trkpt>
      <trkpt lat="44.63256" lon="4.17106">
        <ele>660.21</ele>
        <time>2022-08-15T08:22:35Z</time>
      </trkpt>
      <trkpt lat="44.63243" lon="4.17102">
        <ele>662.02</ele>
        <time>2022-08-15T08:22:36Z</time>
      </trkpt>
      <trkpt lat="44.6323" lon="4.17101">
        <ele>662.1</ele>
        <time>2022-08-15T08:22:37Z</time>
      </trkpt>
      <trkpt lat="44.63215" lon="4.17103">
        <ele>663.3</ele>
        <time>2022-08-15T08:22:38Z</time>
      </trkpt>
      <trkpt lat="44.63201" lon="4.17109">
        <ele>664.65</ele>
        <time>2022-08-15T08:22:39Z</time>
      </trkpt>
      <trkpt lat="44.63188" lon="4.17118">
        <ele>665.55</ele>
        <time>2022-08-15T08:22:40Z</time>
      </trkpt>
      <trkpt lat="44.63177" lon="4.17125">
        <ele>665.61</ele>
        <time>2022-08-15T08:22:41Z</time>
      </trkpt>
      <trkpt lat="44.63164" lon="4.1713">
        <ele>665.6</ele>
        <time>2022-08-15T08:22:42Z</time>
      </trkpt>
      <trkpt lat="44.6315" lon="4.17133">
        <ele>667.63</ele>
        <time>2022-08-15T08:22:43Z</time>
      </trkpt>
      <trkpt lat="44.63135" lon="4.17133">
        <ele>668.8</ele>
        <time>2022-08-15T08:22:44Z</time>
      </trkpt>
      <trkpt lat="44.63121" lon="4.17133">
        <ele>669.87</ele>
        <time>2022-08-15T08:22:45Z</time>
      </trkpt>
      <trkpt lat="44.63108" lon="4.1713">
        <ele>670.8</ele>
        <time>2022-08-15T08:22:46Z</time>
      </trkpt>
      <trkpt lat="44.63095" lon="4.17127">
        <ele>670.87</ele>
        <time>2022-08-15T08:22:47Z</time>
      </trkpt>
      <trkpt lat="44.63085" lon="4.17121">
        <ele>670.87</ele>
        <time>2022-08-15T08:22:48Z</time>
      </trkpt>
      <trkpt lat="44.63078" lon="4.17112">
        <ele>670.94</ele>
        <time>2022-08-15T08:22:49Z</time>
      </trkpt>
      <trkpt lat="44.63074" lon="4.171">
        <ele>672.35</ele>
        <time>2022-08-15T08:22:50Z</time>
      </trkpt>
      <trkpt lat="44.63075" lon="4.17085">
        <ele>673.45</ele>
        <time>2022-08-15T08:22:51Z</time>
      </trkpt>
      <trkpt lat="44.6308" lon="4.17071">
        <ele>673.44</ele>
        <time>2022-08-15T08:22:52Z</time>
      </trkpt>
      <trkpt lat="44.6309" lon="4.17059">
        <ele>675.34</ele>
        <time>2022-08-15T08:22:53Z</time>
      </trkpt>
      <trkpt lat="44.63102" lon="4.1705">
        <ele>676.69</ele>
        <time>2022-08-15T08:22:54Z</time>
      </trkpt>
      <trkpt lat="44.63116" lon="4.1704">
        <ele>677.39</ele>
        <time>2022-08-15T08:22:55Z</time>
      </trkpt>
      <trkpt lat="44.6313" lon="4.17029">
        <ele>677.39</ele>
        <time>2022-08-15T08:22:56Z</time>
      </trkpt>
      <trkpt lat="44.63156" lon="4.17004">
        <ele>678.33</ele>
        <time>2022-08-15T08:22:58Z</time>
      </trkpt>
      <trkpt lat="44.63168" lon="4.16988">
        <ele>681.04</ele>
        <time>2022-08-15T08:22:59Z</time>
      </trkpt>
      <trkpt lat="44.63176" lon="4.16969">
        <ele>682.41</ele>
        <time>2022-08-15T08:23:00Z</time>
      </trkpt>
      <trkpt lat="44.63182" lon="4.16948">
        <ele>682.49</ele>
        <time>2022-08-15T08:23:01Z</time>
      </trkpt>
      <trkpt lat="44.63184" lon="4.16925">
        <ele>684.83</ele>
        <time>2022-08-15T08:23:02Z</time>
      </trkpt>
      <trkpt lat="44.63185" lon="4.16904">
        <ele>685.67</ele>
        <time>2022-08-15T08:23:03Z</time>
      </trkpt>
      <trkpt lat="44.63185" lon="4.16884">
        <ele>685.67</ele>
        <time>2022-08-15T08:23:04Z</time>
      </trkpt>
      <trkpt lat="44.63184" lon="4.16849">
        <ele>686.84</ele>
        <time>2022-08-15T08:23:06Z</time>
      </trkpt>
      <trkpt lat="44.6318" lon="4.16835">
        <ele>687.94</ele>
        <time>2022-08-15T08:23:07Z</time>
      </trkpt>
      <trkpt lat="44.63174" lon="4.16826">
        <ele>688.03</ele>
        <time>2022-08-15T08:23:08Z</time>
      </trkpt>
      <trkpt lat="44.63164" lon="4.16824">
        <ele>689.45</ele>
        <time>2022-08-15T08:23:09Z</time>
      </trkpt>
      <trkpt lat="44.63153" lon="4.16824">
        <ele>690.29</ele>
        <time>2022-08-15T08:23:10Z</time>
      </trkpt>
      <trkpt lat="44.63142" lon="4.16824">
        <ele>691.16</ele>
        <time>2022-08-15T08:23:11Z</time>
      </trkpt>
      <trkpt lat="44.63132" lon="4.1682">
        <ele>691.14</ele>
        <time>2022-08-15T08:23:12Z</time>
      </trkpt>
      <trkpt lat="44.63125" lon="4.16811">
        <ele>691.12</ele>
        <time>2022-08-15T08:23:13Z</time>
      </trkpt>
      <trkpt lat="44.63122" lon="4.16799">
        <ele>692.73</ele>
        <time>2022-08-15T08:23:14Z</time>
      </trkpt>
      <trkpt lat="44.63124" lon="4.16785">
        <ele>693.76</ele>
        <time>2022-08-15T08:23:15Z</time>
      </trkpt>
      <trkpt lat="44.6313" lon="4.16771">
        <ele>695.31</ele>
        <time>2022-08-15T08:23:16Z</time>
      </trkpt>
      <trkpt lat="44.63136" lon="4.16754">
        <ele>696.16</ele>
        <time>2022-08-15T08:23:17Z</time>
      </trkpt>
      <trkpt lat="44.63141" lon="4.16735">
        <ele>697.71</ele>
        <time>2022-08-15T08:23:18Z</time>
      </trkpt>
      <trkpt lat="44.63144" lon="4.16714">
        <ele>698.9</ele>
        <time>2022-08-15T08:23:19Z</time>
      </trkpt>
      <trkpt lat="44.63144" lon="4.16692">
        <ele>700.53</ele>
        <time>2022-08-15T08:23:20Z</time>
      </trkpt>
      <trkpt lat="44.63142" lon="4.16669">
        <ele>701.36</ele>
        <time>2022-08-15T08:23:21Z</time>
      </trkpt>
      <trkpt lat="44.63138" lon="4.16648">
        <ele>702.43</ele>
        <time>2022-08-15T08:23:22Z</time>
      </trkpt>
      <trkpt lat="44.63133" lon="4.16627">
        <ele>703.72</ele>
        <time>2022-08-15T08:23:23Z</time>
      </trkpt>
      <trkpt lat="44.63128" lon="4.16607">
        <ele>705.34</ele>
        <time>2022-08-15T08:23:24Z</time>
      </trkpt>
      <trkpt lat="44.63123" lon="4.16589">
        <ele>705.44</ele>
        <time>2022-08-15T08:23:25Z</time>
      </trkpt>
      <trkpt lat="44.6312" lon="4.16572">
        <ele>705.44</ele>
        <time>2022-08-15T08:23:26Z</time>
      </trkpt>
      <trkpt lat="44.63119" lon="4.16556">
        <ele>706.4</ele>
        <time>2022-08-15T08:23:27Z</time>
      </trkpt>
      <trkpt lat="44.63123" lon="4.16541">
        <ele>707.46</ele>
        <time>2022-08-15T08:23:28Z</time>
      </trkpt>
      <trkpt lat="44.6313" lon="4.16528">
        <ele>708.42</ele>
        <time>2022-08-15T08:23:29Z</time>
      </trkpt>
      <trkpt lat="44.6314" lon="4.16516">
        <ele>709.59</ele>
        <time>2022-08-15T08:23:30Z</time>
      </trkpt>
      <trkpt lat="44.6315" lon="4.16503">
        <ele>710.53</ele>
        <time>2022-08-15T08:23:31Z</time>
      </trkpt>
      <trkpt lat="44.63158" lon="4.16486">
        <ele>710.54</ele>
        <time>2022-08-15T08:23:32Z</time>
      </trkpt>
      <trkpt lat="44.63164" lon="4.16467">
        <ele>712.17</ele>
        <time>2022-08-15T08:23:33Z</time>
      </trkpt>
      <trkpt lat="44.63171" lon="4.1645">
        <ele>713.22</ele>
        <time>2022-08-15T08:23:34Z</time>
      </trkpt>
      <trkpt lat="44.6318" lon="4.16436">
        <ele>714.04</ele>
        <time>2022-08-15T08:23:35Z</time>
      </trkpt>
      <trkpt lat="44.63191" lon="4.16426">
        <ele>714.13</ele>
        <time>2022-08-15T08:23:36Z</time>
      </trkpt>
      <trkpt lat="44.63204" lon="4.16417">
        <ele>715.49</ele>
        <time>2022-08-15T08:23:37Z</time>
      </trkpt>
      <trkpt lat="44.63217" lon="4.1641">
        <ele>715.48</ele>
        <time>2022-08-15T08:23:38Z</time>
      </trkpt>
      <trkpt lat="44.63241" lon="4.16397">
        <ele>717.49</ele>
        <time>2022-08-15T08:23:40Z</time>
      </trkpt>
      <trkpt lat="44.63249" lon="4.16388">
        <ele>717.57</ele>
        <time>2022-08-15T08:23:41Z</time>
      </trkpt>
      <trkpt lat="44.63255" lon="4.16376">
        <ele>717.54</ele>
        <time>2022-08-15T08:23:42Z</time>
      </trkpt>
      <trkpt lat="44.63256" lon="4.1636">
        <ele>718.65</ele>
        <time>2022-08-15T08:23:43Z</time>
      </trkpt>
      <trkpt lat="44.63254" lon="4.16342">
        <ele>721.03</ele>
        <time>2022-08-15T08:23:44Z</time>
      </trkpt>
      <trkpt lat="44.63249" lon="4.16323">
        <ele>721.12</ele>
        <time>2022-08-15T08:23:45Z</time>
      </trkpt>
      <trkpt lat="44.63243" lon="4.16285">
        <ele>724.04</ele>
        <time>2022-08-15T08:23:47Z</time>
      </trkpt>
      <trkpt lat="44.63243" lon="4.16266">
        <ele>724.12</ele>
        <time>2022-08-15T08:23:48Z</time>
      </trkpt>
      <trkpt lat="44.63247" lon="4.16248">
        <ele>725.75</ele>
        <time>2022-08-15T08:23:49Z</time>
      </trkpt>
      <trkpt lat="44.63254" lon="4.1623">
        <ele>726.57</ele>
        <time>2022-08-15T08:23:50Z</time>
      </trkpt>
      <trkpt lat="44.63263" lon="4.16211">
        <ele>728.19</ele>
        <time>2022-08-15T08:23:51Z</time>
      </trkpt>
      <trkpt lat="44.63283" lon="4.16169">
        <ele>731.58</ele>
        <time>2022-08-15T08:23:53Z</time>
      </trkpt>
      <trkpt lat="44.63309" lon="4.16099">
        <ele>733.53</ele>
        <time>2022-08-15T08:23:56Z</time>
      </trkpt>
      <trkpt lat="44.63336" lon="4.16025">
        <ele>734.92</ele>
        <time>2022-08-15T08:24:00Z</time>
      </trkpt>
      <trkpt lat="44.63349" lon="4.15994">
        <ele>736.36</ele>
        <time>2022-08-15T08:24:02Z</time>
      </trkpt>
      <trkpt lat="44.63352" lon="4.15979">
        <ele>736.52</ele>
        <time>2022-08-15T08:24:03Z</time>
      </trkpt>
      <trkpt lat="44.63354" lon="4.15964">
        <ele>737.69</ele>
        <time>2022-08-15T08:24:04Z</time>
      </trkpt>
      <trkpt lat="44.63353" lon="4.15952">
        <ele>737.78</ele>
        <time>2022-08-15T08:24:05Z</time>
      </trkpt>
      <trkpt lat="44.63348" lon="4.15942">
        <ele>739.23</ele>
        <time>2022-08-15T08:24:06Z</time>
      </trkpt>
      <trkpt lat="44.63339" lon="4.15936">
        <ele>740.56</ele>
        <time>2022-08-15T08:24:07Z</time>
      </trkpt>
      <trkpt lat="44.63322" lon="4.15938">
        <ele>740.57</ele>
        <time>2022-08-15T08:24:08Z</time>
      </trkpt>
      <trkpt lat="44.6331" lon="4.15938">
        <ele>741.54</ele>
        <time>2022-08-15T08:24:09Z</time>
      </trkpt>
      <trkpt lat="44.633" lon="4.15933">
        <ele>741.51</ele>
        <time>2022-08-15T08:24:10Z</time>
      </trkpt>
      <trkpt lat="44.6329" lon="4.15925">
        <ele>741.58</ele>
        <time>2022-08-15T08:24:11Z</time>
      </trkpt>
      <trkpt lat="44.63281" lon="4.15913">
        <ele>743.11</ele>
        <time>2022-08-15T08:24:12Z</time>
      </trkpt>
      <trkpt lat="44.63273" lon="4.15903">
        <ele>743.09</ele>
        <time>2022-08-15T08:24:13Z</time>
      </trkpt>
      <trkpt lat="44.63266" lon="4.15891">
        <ele>744.26</ele>
        <time>2022-08-15T08:24:14Z</time>
      </trkpt>
      <trkpt lat="44.63263" lon="4.15878">
        <ele>744.49</ele>
        <time>2022-08-15T08:24:15Z</time>
      </trkpt>
      <trkpt lat="44.63266" lon="4.15864">
        <ele>745.27</ele>
        <time>2022-08-15T08:24:16Z</time>
      </trkpt>
      <trkpt lat="44.6327" lon="4.15849">
        <ele>746.46</ele>
        <time>2022-08-15T08:24:17Z</time>
      </trkpt>
      <trkpt lat="44.63277" lon="4.15834">
        <ele>746.52</ele>
        <time>2022-08-15T08:24:18Z</time>
      </trkpt>
      <trkpt lat="44.63286" lon="4.15822">
        <ele>748.03</ele>
        <time>2022-08-15T08:24:19Z</time>
      </trkpt>
      <trkpt lat="44.63294" lon="4.1581">
        <ele>748.1</ele>
        <time>2022-08-15T08:24:20Z</time>
      </trkpt>
      <trkpt lat="44.633" lon="4.15797">
        <ele>749.45</ele>
        <time>2022-08-15T08:24:21Z</time>
      </trkpt>
      <trkpt lat="44.63303" lon="4.15781">
        <ele>749.47</ele>
        <time>2022-08-15T08:24:22Z</time>
      </trkpt>
      <trkpt lat="44.63301" lon="4.15763">
        <ele>751.1</ele>
        <time>2022-08-15T08:24:23Z</time>
      </trkpt>
      <trkpt lat="44.63296" lon="4.15744">
        <ele>753.47</ele>
        <time>2022-08-15T08:24:24Z</time>
      </trkpt>
      <trkpt lat="44.6329" lon="4.15725">
        <ele>754.57</ele>
        <time>2022-08-15T08:24:25Z</time>
      </trkpt>
      <trkpt lat="44.63282" lon="4.15705">
        <ele>755.67</ele>
        <time>2022-08-15T08:24:26Z</time>
      </trkpt>
      <trkpt lat="44.63273" lon="4.15686">
        <ele>756.85</ele>
        <time>2022-08-15T08:24:27Z</time>
      </trkpt>
      <trkpt lat="44.63257" lon="4.15652">
        <ele>758.15</ele>
        <time>2022-08-15T08:24:29Z</time>
      </trkpt>
      <trkpt lat="44.63252" lon="4.15634">
        <ele>759.76</ele>
        <time>2022-08-15T08:24:30Z</time>
      </trkpt>
      <trkpt lat="44.6325" lon="4.15616">
        <ele>759.77</ele>
        <time>2022-08-15T08:24:31Z</time>
      </trkpt>
      <trkpt lat="44.63254" lon="4.15599">
        <ele>760.86</ele>
        <time>2022-08-15T08:24:32Z</time>
      </trkpt>
      <trkpt lat="44.63261" lon="4.15583">
        <ele>761.76</ele>
        <time>2022-08-15T08:24:33Z</time>
      </trkpt>
      <trkpt lat="44.6327" lon="4.15567">
        <ele>761.78</ele>
        <time>2022-08-15T08:24:34Z</time>
      </trkpt>
      <trkpt lat="44.63279" lon="4.15553">
        <ele>763.29</ele>
        <time>2022-08-15T08:24:35Z</time>
      </trkpt>
      <trkpt lat="44.63287" lon="4.15539">
        <ele>764.23</ele>
        <time>2022-08-15T08:24:36Z</time>
      </trkpt>
      <trkpt lat="44.63292" lon="4.15524">
        <ele>764.33</ele>
        <time>2022-08-15T08:24:37Z</time>
      </trkpt>
      <trkpt lat="44.63294" lon="4.15506">
        <ele>765.77</ele>
        <time>2022-08-15T08:24:38Z</time>
      </trkpt>
      <trkpt lat="44.63292" lon="4.15487">
        <ele>767.04</ele>
        <time>2022-08-15T08:24:39Z</time>
      </trkpt>
      <trkpt lat="44.63289" lon="4.15468">
        <ele>766.96</ele>
        <time>2022-08-15T08:24:40Z</time>
      </trkpt>
      <trkpt lat="44.63287" lon="4.15449">
        <ele>768.39</ele>
        <time>2022-08-15T08:24:41Z</time>
      </trkpt>
      <trkpt lat="44.63288" lon="4.1543">
        <ele>768.35</ele>
        <time>2022-08-15T08:24:42Z</time>
      </trkpt>
      <trkpt lat="44.63293" lon="4.15391">
        <ele>771.26</ele>
        <time>2022-08-15T08:24:44Z</time>
      </trkpt>
      <trkpt lat="44.63295" lon="4.15371">
        <ele>771.2</ele>
        <time>2022-08-15T08:24:45Z</time>
      </trkpt>
      <trkpt lat="44.63299" lon="4.15353">
        <ele>773.14</ele>
        <time>2022-08-15T08:24:46Z</time>
      </trkpt>
      <trkpt lat="44.63306" lon="4.15336">
        <ele>773.22</ele>
        <time>2022-08-15T08:24:47Z</time>
      </trkpt>
      <trkpt lat="44.63315" lon="4.15321">
        <ele>774.23</ele>
        <time>2022-08-15T08:24:48Z</time>
      </trkpt>
      <trkpt lat="44.63356" lon="4.1527">
        <ele>776.9</ele>
        <time>2022-08-15T08:24:52Z</time>
      </trkpt>
      <trkpt lat="44.63372" lon="4.15254">
        <ele>777.95</ele>
        <time>2022-08-15T08:24:54Z</time>
      </trkpt>
      <trkpt lat="44.63378" lon="4.15244">
        <ele>777.97</ele>
        <time>2022-08-15T08:24:55Z</time>
      </trkpt>
      <trkpt lat="44.63381" lon="4.15229">
        <ele>779.07</ele>
        <time>2022-08-15T08:24:56Z</time>
      </trkpt>
      <trkpt lat="44.63378" lon="4.15214">
        <ele>780.51</ele>
        <time>2022-08-15T08:24:57Z</time>
      </trkpt>
      <trkpt lat="44.63373" lon="4.15198">
        <ele>781.95</ele>
        <time>2022-08-15T08:24:58Z</time>
      </trkpt>
      <trkpt lat="44.63369" lon="4.15179">
        <ele>783.02</ele>
        <time>2022-08-15T08:24:59Z</time>
      </trkpt>
      <trkpt lat="44.63367" lon="4.15159">
        <ele>784.03</ele>
        <time>2022-08-15T08:25:00Z</time>
      </trkpt>
      <trkpt lat="44.63367" lon="4.15141">
        <ele>785.44</ele>
        <time>2022-08-15T08:25:01Z</time>
      </trkpt>
      <trkpt lat="44.6337" lon="4.15124">
        <ele>785.43</ele>
        <time>2022-08-15T08:25:02Z</time>
      </trkpt>
      <trkpt lat="44.63373" lon="4.15108">
        <ele>785.52</ele>
        <time>2022-08-15T08:25:03Z</time>
      </trkpt>
      <trkpt lat="44.63376" lon="4.15092">
        <ele>786.34</ele>
        <time>2022-08-15T08:25:04Z</time>
      </trkpt>
      <trkpt lat="44.63373" lon="4.15076">
        <ele>787.31</ele>
        <time>2022-08-15T08:25:05Z</time>
      </trkpt>
      <trkpt lat="44.63366" lon="4.15063">
        <ele>788.46</ele>
        <time>2022-08-15T08:25:06Z</time>
      </trkpt>
      <trkpt lat="44.63356" lon="4.15052">
        <ele>789.71</ele>
        <time>2022-08-15T08:25:07Z</time>
      </trkpt>
      <trkpt lat="44.63344" lon="4.15041">
        <ele>791.02</ele>
        <time>2022-08-15T08:25:08Z</time>
      </trkpt>
      <trkpt lat="44.63333" lon="4.15029">
        <ele>791.88</ele>
        <time>2022-08-15T08:25:09Z</time>
      </trkpt>
      <trkpt lat="44.63324" lon="4.15013">
        <ele>793.13</ele>
        <time>2022-08-15T08:25:10Z</time>
      </trkpt>
      <trkpt lat="44.63316" lon="4.14994">
        <ele>793.99</ele>
        <time>2022-08-15T08:25:11Z</time>
      </trkpt>
      <trkpt lat="44.63308" lon="4.14975">
        <ele>795.41</ele>
        <time>2022-08-15T08:25:12Z</time>
      </trkpt>
      <trkpt lat="44.63284" lon="4.14911">
        <ele>799.53</ele>
        <time>2022-08-15T08:25:15Z</time>
      </trkpt>
      <trkpt lat="44.63279" lon="4.14891">
        <ele>799.43</ele>
        <time>2022-08-15T08:25:16Z</time>
      </trkpt>
      <trkpt lat="44.63266" lon="4.14855">
        <ele>801.66</ele>
        <time>2022-08-15T08:25:18Z</time>
      </trkpt>
      <trkpt lat="44.63256" lon="4.1484">
        <ele>801.77</ele>
        <time>2022-08-15T08:25:19Z</time>
      </trkpt>
      <trkpt lat="44.63232" lon="4.14804">
        <ele>802.93</ele>
        <time>2022-08-15T08:25:22Z</time>
      </trkpt>
      <trkpt lat="44.63231" lon="4.14792">
        <ele>803.03</ele>
        <time>2022-08-15T08:25:23Z</time>
      </trkpt>
      <trkpt lat="44.63234" lon="4.1478">
        <ele>803.87</ele>
        <time>2022-08-15T08:25:24Z</time>
      </trkpt>
      <trkpt lat="44.63242" lon="4.1477">
        <ele>804.8</ele>
        <time>2022-08-15T08:25:25Z</time>
      </trkpt>
      <trkpt lat="44.63252" lon="4.1476">
        <ele>806.15</ele>
        <time>2022-08-15T08:25:26Z</time>
      </trkpt>
      <trkpt lat="44.63283" lon="4.1472">
        <ele>809.86</ele>
        <time>2022-08-15T08:25:29Z</time>
      </trkpt>
      <trkpt lat="44.6329" lon="4.14703">
        <ele>809.88</ele>
        <time>2022-08-15T08:25:30Z</time>
      </trkpt>
      <trkpt lat="44.63294" lon="4.14686">
        <ele>810.57</ele>
        <time>2022-08-15T08:25:31Z</time>
      </trkpt>
      <trkpt lat="44.63296" lon="4.14669">
        <ele>811.43</ele>
        <time>2022-08-15T08:25:32Z</time>
      </trkpt>
      <trkpt lat="44.63293" lon="4.14653">
        <ele>812.69</ele>
        <time>2022-08-15T08:25:33Z</time>
      </trkpt>
      <trkpt lat="44.63287" lon="4.14638">
        <ele>813.59</ele>
        <time>2022-08-15T08:25:34Z</time>
      </trkpt>
      <trkpt lat="44.63278" lon="4.14626">
        <ele>814.58</ele>
        <time>2022-08-15T08:25:35Z</time>
      </trkpt>
      <trkpt lat="44.63269" lon="4.14615">
        <ele>815.76</ele>
        <time>2022-08-15T08:25:36Z</time>
      </trkpt>
      <trkpt lat="44.63262" lon="4.14603">
        <ele>815.82</ele>
        <time>2022-08-15T08:25:37Z</time>
      </trkpt>
      <trkpt lat="44.63259" lon="4.14589">
        <ele>817.17</ele>
        <time>2022-08-15T08:25:38Z</time>
      </trkpt>
      <trkpt lat="44.63259" lon="4.14573">
        <ele>818.32</ele>
        <time>2022-08-15T08:25:39Z</time>
      </trkpt>
      <trkpt lat="44.63259" lon="4.14554">
        <ele>819.51</ele>
        <time>2022-08-15T08:25:40Z</time>
      </trkpt>
      <trkpt lat="44.63257" lon="4.14534">
        <ele>821.29</ele>
        <time>2022-08-15T08:25:41Z</time>
      </trkpt>
      <trkpt lat="44.63255" lon="4.14516">
        <ele>821.29</ele>
        <time>2022-08-15T08:25:42Z</time>
      </trkpt>
      <trkpt lat="44.63249" lon="4.14484">
        <ele>822.9</ele>
        <time>2022-08-15T08:25:44Z</time>
      </trkpt>
      <trkpt lat="44.63242" lon="4.14472">
        <ele>824.02</ele>
        <time>2022-08-15T08:25:45Z</time>
      </trkpt>
      <trkpt lat="44.63232" lon="4.14466">
        <ele>824.05</ele>
        <time>2022-08-15T08:25:46Z</time>
      </trkpt>
      <trkpt lat="44.63221" lon="4.14463">
        <ele>825.4</ele>
        <time>2022-08-15T08:25:47Z</time>
      </trkpt>
      <trkpt lat="44.63211" lon="4.1446">
        <ele>825.49</ele>
        <time>2022-08-15T08:25:48Z</time>
      </trkpt>
      <trkpt lat="44.63203" lon="4.14455">
        <ele>826.33</ele>
        <time>2022-08-15T08:25:49Z</time>
      </trkpt>
      <trkpt lat="44.63197" lon="4.14446">
        <ele>827.24</ele>
        <time>2022-08-15T08:25:50Z</time>
      </trkpt>
      <trkpt lat="44.63196" lon="4.14434">
        <ele>827.24</ele>
        <time>2022-08-15T08:25:51Z</time>
      </trkpt>
      <trkpt lat="44.632" lon="4.14421">
        <ele>828.73</ele>
        <time>2022-08-15T08:25:52Z</time>
      </trkpt>
      <trkpt lat="44.63204" lon="4.14407">
        <ele>829.91</ele>
        <time>2022-08-15T08:25:53Z</time>
      </trkpt>
      <trkpt lat="44.6321" lon="4.14393">
        <ele>829.89</ele>
        <time>2022-08-15T08:25:54Z</time>
      </trkpt>
      <trkpt lat="44.63213" lon="4.14377">
        <ele>829.97</ele>
        <time>2022-08-15T08:25:55Z</time>
      </trkpt>
      <trkpt lat="44.63214" lon="4.14361">
        <ele>831.63</ele>
        <time>2022-08-15T08:25:56Z</time>
      </trkpt>
      <trkpt lat="44.63211" lon="4.14344">
        <ele>832.91</ele>
        <time>2022-08-15T08:25:57Z</time>
      </trkpt>
      <trkpt lat="44.63206" lon="4.14312">
        <ele>834.91</ele>
        <time>2022-08-15T08:25:59Z</time>
      </trkpt>
      <trkpt lat="44.63209" lon="4.14295">
        <ele>835.79</ele>
        <time>2022-08-15T08:26:00Z</time>
      </trkpt>
      <trkpt lat="44.63215" lon="4.1428">
        <ele>836.73</ele>
        <time>2022-08-15T08:26:01Z</time>
      </trkpt>
      <trkpt lat="44.63224" lon="4.14267">
        <ele>836.84</ele>
        <time>2022-08-15T08:26:02Z</time>
      </trkpt>
      <trkpt lat="44.63236" lon="4.14255">
        <ele>838.84</ele>
        <time>2022-08-15T08:26:03Z</time>
      </trkpt>
      <trkpt lat="44.63248" lon="4.14245">
        <ele>839.94</ele>
        <time>2022-08-15T08:26:04Z</time>
      </trkpt>
      <trkpt lat="44.6326" lon="4.14235">
        <ele>839.95</ele>
        <time>2022-08-15T08:26:05Z</time>
      </trkpt>
      <trkpt lat="44.63272" lon="4.14225">
        <ele>841.87</ele>
        <time>2022-08-15T08:26:06Z</time>
      </trkpt>
      <trkpt lat="44.63284" lon="4.14212">
        <ele>843</ele>
        <time>2022-08-15T08:26:07Z</time>
      </trkpt>
      <trkpt lat="44.63318" lon="4.14166">
        <ele>846.29</ele>
        <time>2022-08-15T08:26:10Z</time>
      </trkpt>
      <trkpt lat="44.63329" lon="4.14151">
        <ele>846.29</ele>
        <time>2022-08-15T08:26:11Z</time>
      </trkpt>
      <trkpt lat="44.63336" lon="4.14134">
        <ele>847.2</ele>
        <time>2022-08-15T08:26:12Z</time>
      </trkpt>
      <trkpt lat="44.63341" lon="4.14117">
        <ele>847.3</ele>
        <time>2022-08-15T08:26:13Z</time>
      </trkpt>
      <trkpt lat="44.63344" lon="4.14098">
        <ele>848.72</ele>
        <time>2022-08-15T08:26:14Z</time>
      </trkpt>
      <trkpt lat="44.63346" lon="4.1408">
        <ele>849.58</ele>
        <time>2022-08-15T08:26:15Z</time>
      </trkpt>
      <trkpt lat="44.6335" lon="4.14062">
        <ele>849.56</ele>
        <time>2022-08-15T08:26:16Z</time>
      </trkpt>
      <trkpt lat="44.63354" lon="4.14045">
        <ele>850.9</ele>
        <time>2022-08-15T08:26:17Z</time>
      </trkpt>
      <trkpt lat="44.63358" lon="4.14027">
        <ele>852.36</ele>
        <time>2022-08-15T08:26:18Z</time>
      </trkpt>
      <trkpt lat="44.63358" lon="4.14008">
        <ele>852.35</ele>
        <time>2022-08-15T08:26:19Z</time>
      </trkpt>
      <trkpt lat="44.63356" lon="4.13989">
        <ele>854.2</ele>
        <time>2022-08-15T08:26:20Z</time>
      </trkpt>
      <trkpt lat="44.63349" lon="4.13949">
        <ele>856.91</ele>
        <time>2022-08-15T08:26:22Z</time>
      </trkpt>
      <trkpt lat="44.63349" lon="4.13929">
        <ele>858.19</ele>
        <time>2022-08-15T08:26:23Z</time>
      </trkpt>
      <trkpt lat="44.6335" lon="4.13864">
        <ele>861.92</ele>
        <time>2022-08-15T08:26:26Z</time>
      </trkpt>
      <trkpt lat="44.63346" lon="4.13797">
        <ele>864.24</ele>
        <time>2022-08-15T08:26:29Z</time>
      </trkpt>
      <trkpt lat="44.63341" lon="4.13744">
        <ele>865.19</ele>
        <time>2022-08-15T08:26:32Z</time>
      </trkpt>
      <trkpt lat="44.63342" lon="4.13732">
        <ele>865.18</ele>
        <time>2022-08-15T08:26:33Z</time>
      </trkpt>
      <trkpt lat="44.63345" lon="4.13722">
        <ele>866</ele>
        <time>2022-08-15T08:26:34Z</time>
      </trkpt>
      <trkpt lat="44.63352" lon="4.13717">
        <ele>866.1</ele>
        <time>2022-08-15T08:26:35Z</time>
      </trkpt>
      <trkpt lat="44.6336" lon="4.13718">
        <ele>866.07</ele>
        <time>2022-08-15T08:26:36Z</time>
      </trkpt>
      <trkpt lat="44.63366" lon="4.13723">
        <ele>867.76</ele>
        <time>2022-08-15T08:26:37Z</time>
      </trkpt>
      <trkpt lat="44.63369" lon="4.13733">
        <ele>867.81</ele>
        <time>2022-08-15T08:26:38Z</time>
      </trkpt>
      <trkpt lat="44.63368" lon="4.13746">
        <ele>869.6</ele>
        <time>2022-08-15T08:26:39Z</time>
      </trkpt>
      <trkpt lat="44.63366" lon="4.1376">
        <ele>869.66</ele>
        <time>2022-08-15T08:26:40Z</time>
      </trkpt>
      <trkpt lat="44.63366" lon="4.13776">
        <ele>871.83</ele>
        <time>2022-08-15T08:26:41Z</time>
      </trkpt>
      <trkpt lat="44.63367" lon="4.13795">
        <ele>872.67</ele>
        <time>2022-08-15T08:26:42Z</time>
      </trkpt>
      <trkpt lat="44.6337" lon="4.13814">
        <ele>873.6</ele>
        <time>2022-08-15T08:26:43Z</time>
      </trkpt>
      <trkpt lat="44.63373" lon="4.13834">
        <ele>874.66</ele>
        <time>2022-08-15T08:26:44Z</time>
      </trkpt>
      <trkpt lat="44.63378" lon="4.13895">
        <ele>877.35</ele>
        <time>2022-08-15T08:26:47Z</time>
      </trkpt>
      <trkpt lat="44.63381" lon="4.13914">
        <ele>878.37</ele>
        <time>2022-08-15T08:26:48Z</time>
      </trkpt>
    </trkseg>
  </trk>
</gpx>